<?xml version="1.0" encoding="UTF-8" standalone="no" ?>
<gpx xmlns="http://www.topografix.com/GPX/1/1" xmlns:xsi="http://www.w3.org/2001/XMLSchema-instance" xsi:schemaLocation="http://www.topografix.com/GPX/1/1 http://www.topografix.com/GPX/1/1/gpx.xsd" version="1.1" creator="VisuGPX - https://www.visugpx.com">
  <metadata>
    <name>Roanne Thiers</name>
    <desc><![CDATA[Il fait nuit, froid et verglas, bonne chance!]]></desc>
  </metadata>
  <trk>
    <name><![CDATA[08-DEC-13 09:54:06 AM]]></name>
    <trkseg>
      <trkpt lat="46.03118" lon="4.04936">
        <ele>136.16</ele>
        <time>2013-12-07T22:55:58Z</time>
      </trkpt>
      <trkpt lat="46.0312" lon="4.04937">
        <ele>136.16</ele>
        <time>2013-12-07T22:55:59Z</time>
      </trkpt>
      <trkpt lat="46.0312" lon="4.0494">
        <ele>141.45</ele>
        <time>2013-12-07T22:56:15Z</time>
      </trkpt>
      <trkpt lat="46.03121" lon="4.0494">
        <ele>145.78</ele>
        <time>2013-12-07T22:56:16Z</time>
      </trkpt>
      <trkpt lat="46.03121" lon="4.0494">
        <ele>150.58</ele>
        <time>2013-12-07T22:56:17Z</time>
      </trkpt>
      <trkpt lat="46.03121" lon="4.04941">
        <ele>154.91</ele>
        <time>2013-12-07T22:56:18Z</time>
      </trkpt>
      <trkpt lat="46.03121" lon="4.04941">
        <ele>159.24</ele>
        <time>2013-12-07T22:56:19Z</time>
      </trkpt>
      <trkpt lat="46.03121" lon="4.04941">
        <ele>163.08</ele>
        <time>2013-12-07T22:56:20Z</time>
      </trkpt>
      <trkpt lat="46.03121" lon="4.04941">
        <ele>166.93</ele>
        <time>2013-12-07T22:56:21Z</time>
      </trkpt>
      <trkpt lat="46.03121" lon="4.04941">
        <ele>170.77</ele>
        <time>2013-12-07T22:56:22Z</time>
      </trkpt>
      <trkpt lat="46.03121" lon="4.04941">
        <ele>174.62</ele>
        <time>2013-12-07T22:56:23Z</time>
      </trkpt>
      <trkpt lat="46.03121" lon="4.04941">
        <ele>178.46</ele>
        <time>2013-12-07T22:56:24Z</time>
      </trkpt>
      <trkpt lat="46.03121" lon="4.04941">
        <ele>181.83</ele>
        <time>2013-12-07T22:56:25Z</time>
      </trkpt>
      <trkpt lat="46.03121" lon="4.04941">
        <ele>185.19</ele>
        <time>2013-12-07T22:56:26Z</time>
      </trkpt>
      <trkpt lat="46.03121" lon="4.04941">
        <ele>188.56</ele>
        <time>2013-12-07T22:56:27Z</time>
      </trkpt>
      <trkpt lat="46.03121" lon="4.04942">
        <ele>191.44</ele>
        <time>2013-12-07T22:56:28Z</time>
      </trkpt>
      <trkpt lat="46.03121" lon="4.04942">
        <ele>197.69</ele>
        <time>2013-12-07T22:56:30Z</time>
      </trkpt>
      <trkpt lat="46.0312" lon="4.04942">
        <ele>202.98</ele>
        <time>2013-12-07T22:56:32Z</time>
      </trkpt>
      <trkpt lat="46.0312" lon="4.04943">
        <ele>207.78</ele>
        <time>2013-12-07T22:56:34Z</time>
      </trkpt>
      <trkpt lat="46.0312" lon="4.04943">
        <ele>213.07</ele>
        <time>2013-12-07T22:56:36Z</time>
      </trkpt>
      <trkpt lat="46.0312" lon="4.04943">
        <ele>217.88</ele>
        <time>2013-12-07T22:56:38Z</time>
      </trkpt>
      <trkpt lat="46.0312" lon="4.04942">
        <ele>221.72</ele>
        <time>2013-12-07T22:56:40Z</time>
      </trkpt>
      <trkpt lat="46.03121" lon="4.04942">
        <ele>226.05</ele>
        <time>2013-12-07T22:56:42Z</time>
      </trkpt>
      <trkpt lat="46.03121" lon="4.04942">
        <ele>229.89</ele>
        <time>2013-12-07T22:56:44Z</time>
      </trkpt>
      <trkpt lat="46.03122" lon="4.04941">
        <ele>233.26</ele>
        <time>2013-12-07T22:56:46Z</time>
      </trkpt>
      <trkpt lat="46.03122" lon="4.04941">
        <ele>236.14</ele>
        <time>2013-12-07T22:56:48Z</time>
      </trkpt>
      <trkpt lat="46.03122" lon="4.04942">
        <ele>239.51</ele>
        <time>2013-12-07T22:56:50Z</time>
      </trkpt>
      <trkpt lat="46.03121" lon="4.04942">
        <ele>243.83</ele>
        <time>2013-12-07T22:56:53Z</time>
      </trkpt>
      <trkpt lat="46.03121" lon="4.04941">
        <ele>247.68</ele>
        <time>2013-12-07T22:56:56Z</time>
      </trkpt>
      <trkpt lat="46.0312" lon="4.0494">
        <ele>251.52</ele>
        <time>2013-12-07T22:56:59Z</time>
      </trkpt>
      <trkpt lat="46.0312" lon="4.0494">
        <ele>254.41</ele>
        <time>2013-12-07T22:57:02Z</time>
      </trkpt>
      <trkpt lat="46.03121" lon="4.0494">
        <ele>258.25</ele>
        <time>2013-12-07T22:57:06Z</time>
      </trkpt>
      <trkpt lat="46.03121" lon="4.04941">
        <ele>262.1</ele>
        <time>2013-12-07T22:57:10Z</time>
      </trkpt>
      <trkpt lat="46.03121" lon="4.04942">
        <ele>265.46</ele>
        <time>2013-12-07T22:57:15Z</time>
      </trkpt>
      <trkpt lat="46.03121" lon="4.04942">
        <ele>268.83</ele>
        <time>2013-12-07T22:57:20Z</time>
      </trkpt>
      <trkpt lat="46.0312" lon="4.04942">
        <ele>271.71</ele>
        <time>2013-12-07T22:57:26Z</time>
      </trkpt>
      <trkpt lat="46.0312" lon="4.04942">
        <ele>275.07</ele>
        <time>2013-12-07T22:57:34Z</time>
      </trkpt>
      <trkpt lat="46.0312" lon="4.04942">
        <ele>278.44</ele>
        <time>2013-12-07T22:57:43Z</time>
      </trkpt>
      <trkpt lat="46.0312" lon="4.04942">
        <ele>281.32</ele>
        <time>2013-12-07T22:57:55Z</time>
      </trkpt>
      <trkpt lat="46.03119" lon="4.04941">
        <ele>282.77</ele>
        <time>2013-12-07T22:58:17Z</time>
      </trkpt>
      <trkpt lat="46.0312" lon="4.0494">
        <ele>282.77</ele>
        <time>2013-12-07T22:58:36Z</time>
      </trkpt>
      <trkpt lat="46.03119" lon="4.0494">
        <ele>283.25</ele>
        <time>2013-12-07T22:58:59Z</time>
      </trkpt>
      <trkpt lat="46.03119" lon="4.04939">
        <ele>283.25</ele>
        <time>2013-12-07T22:59:19Z</time>
      </trkpt>
      <trkpt lat="46.03111" lon="4.04926">
        <ele>282.77</ele>
        <time>2013-12-07T22:59:35Z</time>
      </trkpt>
      <trkpt lat="46.03111" lon="4.0491">
        <ele>282.77</ele>
        <time>2013-12-07T22:59:49Z</time>
      </trkpt>
      <trkpt lat="46.0311" lon="4.04905">
        <ele>282.77</ele>
        <time>2013-12-07T22:59:54Z</time>
      </trkpt>
      <trkpt lat="46.03109" lon="4.04903">
        <ele>282.77</ele>
        <time>2013-12-07T22:59:56Z</time>
      </trkpt>
      <trkpt lat="46.03107" lon="4.04895">
        <ele>282.77</ele>
        <time>2013-12-07T23:00:01Z</time>
      </trkpt>
      <trkpt lat="46.03106" lon="4.04878">
        <ele>282.77</ele>
        <time>2013-12-07T23:00:09Z</time>
      </trkpt>
      <trkpt lat="46.03109" lon="4.04865">
        <ele>282.77</ele>
        <time>2013-12-07T23:00:23Z</time>
      </trkpt>
      <trkpt lat="46.03097" lon="4.04849">
        <ele>282.77</ele>
        <time>2013-12-07T23:00:40Z</time>
      </trkpt>
      <trkpt lat="46.03095" lon="4.04843">
        <ele>282.77</ele>
        <time>2013-12-07T23:00:46Z</time>
      </trkpt>
      <trkpt lat="46.03084" lon="4.04824">
        <ele>284.69</ele>
        <time>2013-12-07T23:01:01Z</time>
      </trkpt>
      <trkpt lat="46.03076" lon="4.04814">
        <ele>285.65</ele>
        <time>2013-12-07T23:01:14Z</time>
      </trkpt>
      <trkpt lat="46.03074" lon="4.0481">
        <ele>285.65</ele>
        <time>2013-12-07T23:01:20Z</time>
      </trkpt>
      <trkpt lat="46.03072" lon="4.04808">
        <ele>285.65</ele>
        <time>2013-12-07T23:01:22Z</time>
      </trkpt>
      <trkpt lat="46.03056" lon="4.04787">
        <ele>286.13</ele>
        <time>2013-12-07T23:01:38Z</time>
      </trkpt>
      <trkpt lat="46.03048" lon="4.04781">
        <ele>286.13</ele>
        <time>2013-12-07T23:01:52Z</time>
      </trkpt>
      <trkpt lat="46.03035" lon="4.04771">
        <ele>286.61</ele>
        <time>2013-12-07T23:02:06Z</time>
      </trkpt>
      <trkpt lat="46.03019" lon="4.04767">
        <ele>287.09</ele>
        <time>2013-12-07T23:02:17Z</time>
      </trkpt>
      <trkpt lat="46.02999" lon="4.04767">
        <ele>287.09</ele>
        <time>2013-12-07T23:02:30Z</time>
      </trkpt>
      <trkpt lat="46.02977" lon="4.04773">
        <ele>287.57</ele>
        <time>2013-12-07T23:02:46Z</time>
      </trkpt>
      <trkpt lat="46.02962" lon="4.0478">
        <ele>288.05</ele>
        <time>2013-12-07T23:03:00Z</time>
      </trkpt>
      <trkpt lat="46.02958" lon="4.04781">
        <ele>288.05</ele>
        <time>2013-12-07T23:03:03Z</time>
      </trkpt>
      <trkpt lat="46.02949" lon="4.04781">
        <ele>289.01</ele>
        <time>2013-12-07T23:03:11Z</time>
      </trkpt>
      <trkpt lat="46.0294" lon="4.04777">
        <ele>288.53</ele>
        <time>2013-12-07T23:03:16Z</time>
      </trkpt>
      <trkpt lat="46.02937" lon="4.04775">
        <ele>289.01</ele>
        <time>2013-12-07T23:03:18Z</time>
      </trkpt>
      <trkpt lat="46.0292" lon="4.04773">
        <ele>289.49</ele>
        <time>2013-12-07T23:03:32Z</time>
      </trkpt>
      <trkpt lat="46.02911" lon="4.04777">
        <ele>289.49</ele>
        <time>2013-12-07T23:03:40Z</time>
      </trkpt>
      <trkpt lat="46.02905" lon="4.04781">
        <ele>289.49</ele>
        <time>2013-12-07T23:03:45Z</time>
      </trkpt>
      <trkpt lat="46.02899" lon="4.04788">
        <ele>289.97</ele>
        <time>2013-12-07T23:03:50Z</time>
      </trkpt>
      <trkpt lat="46.02895" lon="4.04788">
        <ele>289.97</ele>
        <time>2013-12-07T23:03:53Z</time>
      </trkpt>
      <trkpt lat="46.02873" lon="4.04793">
        <ele>290.46</ele>
        <time>2013-12-07T23:04:10Z</time>
      </trkpt>
      <trkpt lat="46.02865" lon="4.04792">
        <ele>290.46</ele>
        <time>2013-12-07T23:04:15Z</time>
      </trkpt>
      <trkpt lat="46.02841" lon="4.04793">
        <ele>290.94</ele>
        <time>2013-12-07T23:04:31Z</time>
      </trkpt>
      <trkpt lat="46.02823" lon="4.04795">
        <ele>291.9</ele>
        <time>2013-12-07T23:04:48Z</time>
      </trkpt>
      <trkpt lat="46.02805" lon="4.04811">
        <ele>292.86</ele>
        <time>2013-12-07T23:05:04Z</time>
      </trkpt>
      <trkpt lat="46.02788" lon="4.04818">
        <ele>293.34</ele>
        <time>2013-12-07T23:05:19Z</time>
      </trkpt>
      <trkpt lat="46.02775" lon="4.04817">
        <ele>293.82</ele>
        <time>2013-12-07T23:05:28Z</time>
      </trkpt>
      <trkpt lat="46.02767" lon="4.04814">
        <ele>293.82</ele>
        <time>2013-12-07T23:05:35Z</time>
      </trkpt>
      <trkpt lat="46.02761" lon="4.04804">
        <ele>293.82</ele>
        <time>2013-12-07T23:05:43Z</time>
      </trkpt>
      <trkpt lat="46.02759" lon="4.04798">
        <ele>293.34</ele>
        <time>2013-12-07T23:05:46Z</time>
      </trkpt>
      <trkpt lat="46.02759" lon="4.04781">
        <ele>293.82</ele>
        <time>2013-12-07T23:05:58Z</time>
      </trkpt>
      <trkpt lat="46.0276" lon="4.04777">
        <ele>293.82</ele>
        <time>2013-12-07T23:06:00Z</time>
      </trkpt>
      <trkpt lat="46.02759" lon="4.04755">
        <ele>293.82</ele>
        <time>2013-12-07T23:06:10Z</time>
      </trkpt>
      <trkpt lat="46.02758" lon="4.04717">
        <ele>294.3</ele>
        <time>2013-12-07T23:06:27Z</time>
      </trkpt>
      <trkpt lat="46.02759" lon="4.04689">
        <ele>294.78</ele>
        <time>2013-12-07T23:06:41Z</time>
      </trkpt>
      <trkpt lat="46.02759" lon="4.04684">
        <ele>294.78</ele>
        <time>2013-12-07T23:06:44Z</time>
      </trkpt>
      <trkpt lat="46.02763" lon="4.0466">
        <ele>295.26</ele>
        <time>2013-12-07T23:06:58Z</time>
      </trkpt>
      <trkpt lat="46.02764" lon="4.04646">
        <ele>295.74</ele>
        <time>2013-12-07T23:07:08Z</time>
      </trkpt>
      <trkpt lat="46.02762" lon="4.04632">
        <ele>295.74</ele>
        <time>2013-12-07T23:07:14Z</time>
      </trkpt>
      <trkpt lat="46.02759" lon="4.0462">
        <ele>295.74</ele>
        <time>2013-12-07T23:07:18Z</time>
      </trkpt>
      <trkpt lat="46.02752" lon="4.04583">
        <ele>296.7</ele>
        <time>2013-12-07T23:07:34Z</time>
      </trkpt>
      <trkpt lat="46.02752" lon="4.04557">
        <ele>296.7</ele>
        <time>2013-12-07T23:07:45Z</time>
      </trkpt>
      <trkpt lat="46.02753" lon="4.04537">
        <ele>297.18</ele>
        <time>2013-12-07T23:07:50Z</time>
      </trkpt>
      <trkpt lat="46.02755" lon="4.04496">
        <ele>297.67</ele>
        <time>2013-12-07T23:08:06Z</time>
      </trkpt>
      <trkpt lat="46.02757" lon="4.04483">
        <ele>298.15</ele>
        <time>2013-12-07T23:08:13Z</time>
      </trkpt>
      <trkpt lat="46.02755" lon="4.04472">
        <ele>297.67</ele>
        <time>2013-12-07T23:08:18Z</time>
      </trkpt>
      <trkpt lat="46.02755" lon="4.04469">
        <ele>298.15</ele>
        <time>2013-12-07T23:08:19Z</time>
      </trkpt>
      <trkpt lat="46.02754" lon="4.04459">
        <ele>298.15</ele>
        <time>2013-12-07T23:08:24Z</time>
      </trkpt>
      <trkpt lat="46.02752" lon="4.04431">
        <ele>298.15</ele>
        <time>2013-12-07T23:08:40Z</time>
      </trkpt>
      <trkpt lat="46.0275" lon="4.04399">
        <ele>298.63</ele>
        <time>2013-12-07T23:08:56Z</time>
      </trkpt>
      <trkpt lat="46.02746" lon="4.04367">
        <ele>299.59</ele>
        <time>2013-12-07T23:09:11Z</time>
      </trkpt>
      <trkpt lat="46.02745" lon="4.04363">
        <ele>299.11</ele>
        <time>2013-12-07T23:09:13Z</time>
      </trkpt>
      <trkpt lat="46.02744" lon="4.04352">
        <ele>299.11</ele>
        <time>2013-12-07T23:09:18Z</time>
      </trkpt>
      <trkpt lat="46.02739" lon="4.04322">
        <ele>299.11</ele>
        <time>2013-12-07T23:09:33Z</time>
      </trkpt>
      <trkpt lat="46.02733" lon="4.04303">
        <ele>299.59</ele>
        <time>2013-12-07T23:09:48Z</time>
      </trkpt>
      <trkpt lat="46.02732" lon="4.04268">
        <ele>299.59</ele>
        <time>2013-12-07T23:09:58Z</time>
      </trkpt>
      <trkpt lat="46.02722" lon="4.04239">
        <ele>300.07</ele>
        <time>2013-12-07T23:10:13Z</time>
      </trkpt>
      <trkpt lat="46.02704" lon="4.0423">
        <ele>300.55</ele>
        <time>2013-12-07T23:10:27Z</time>
      </trkpt>
      <trkpt lat="46.02688" lon="4.04214">
        <ele>301.99</ele>
        <time>2013-12-07T23:10:41Z</time>
      </trkpt>
      <trkpt lat="46.02675" lon="4.04193">
        <ele>302.95</ele>
        <time>2013-12-07T23:10:55Z</time>
      </trkpt>
      <trkpt lat="46.02661" lon="4.04172">
        <ele>304.39</ele>
        <time>2013-12-07T23:11:10Z</time>
      </trkpt>
      <trkpt lat="46.02652" lon="4.04153">
        <ele>305.36</ele>
        <time>2013-12-07T23:11:22Z</time>
      </trkpt>
      <trkpt lat="46.02639" lon="4.04132">
        <ele>307.28</ele>
        <time>2013-12-07T23:11:37Z</time>
      </trkpt>
      <trkpt lat="46.02625" lon="4.0412">
        <ele>308.72</ele>
        <time>2013-12-07T23:11:49Z</time>
      </trkpt>
      <trkpt lat="46.02613" lon="4.04105">
        <ele>310.16</ele>
        <time>2013-12-07T23:12:01Z</time>
      </trkpt>
      <trkpt lat="46.02597" lon="4.04086">
        <ele>312.09</ele>
        <time>2013-12-07T23:12:16Z</time>
      </trkpt>
      <trkpt lat="46.02579" lon="4.04068">
        <ele>314.01</ele>
        <time>2013-12-07T23:12:32Z</time>
      </trkpt>
      <trkpt lat="46.02565" lon="4.04051">
        <ele>315.93</ele>
        <time>2013-12-07T23:12:47Z</time>
      </trkpt>
      <trkpt lat="46.02549" lon="4.04036">
        <ele>317.85</ele>
        <time>2013-12-07T23:13:03Z</time>
      </trkpt>
      <trkpt lat="46.02534" lon="4.04019">
        <ele>318.81</ele>
        <time>2013-12-07T23:13:17Z</time>
      </trkpt>
      <trkpt lat="46.02518" lon="4.03996">
        <ele>319.78</ele>
        <time>2013-12-07T23:13:33Z</time>
      </trkpt>
      <trkpt lat="46.02503" lon="4.0397">
        <ele>320.26</ele>
        <time>2013-12-07T23:13:49Z</time>
      </trkpt>
      <trkpt lat="46.02492" lon="4.03947">
        <ele>320.74</ele>
        <time>2013-12-07T23:14:03Z</time>
      </trkpt>
      <trkpt lat="46.02489" lon="4.03938">
        <ele>320.74</ele>
        <time>2013-12-07T23:14:09Z</time>
      </trkpt>
      <trkpt lat="46.02478" lon="4.03911">
        <ele>321.22</ele>
        <time>2013-12-07T23:14:25Z</time>
      </trkpt>
      <trkpt lat="46.02468" lon="4.03885">
        <ele>321.22</ele>
        <time>2013-12-07T23:14:39Z</time>
      </trkpt>
      <trkpt lat="46.02455" lon="4.03858">
        <ele>321.7</ele>
        <time>2013-12-07T23:14:55Z</time>
      </trkpt>
      <trkpt lat="46.02443" lon="4.03827">
        <ele>321.7</ele>
        <time>2013-12-07T23:15:13Z</time>
      </trkpt>
      <trkpt lat="46.02433" lon="4.03799">
        <ele>321.7</ele>
        <time>2013-12-07T23:15:29Z</time>
      </trkpt>
      <trkpt lat="46.02424" lon="4.03772">
        <ele>321.7</ele>
        <time>2013-12-07T23:15:43Z</time>
      </trkpt>
      <trkpt lat="46.0242" lon="4.0376">
        <ele>321.7</ele>
        <time>2013-12-07T23:15:50Z</time>
      </trkpt>
      <trkpt lat="46.02417" lon="4.03753">
        <ele>322.18</ele>
        <time>2013-12-07T23:15:54Z</time>
      </trkpt>
      <trkpt lat="46.02409" lon="4.03727">
        <ele>322.18</ele>
        <time>2013-12-07T23:16:09Z</time>
      </trkpt>
      <trkpt lat="46.02402" lon="4.03701">
        <ele>322.18</ele>
        <time>2013-12-07T23:16:23Z</time>
      </trkpt>
      <trkpt lat="46.02395" lon="4.03678">
        <ele>322.18</ele>
        <time>2013-12-07T23:16:36Z</time>
      </trkpt>
      <trkpt lat="46.02386" lon="4.03652">
        <ele>322.18</ele>
        <time>2013-12-07T23:16:49Z</time>
      </trkpt>
      <trkpt lat="46.02379" lon="4.03628">
        <ele>322.18</ele>
        <time>2013-12-07T23:17:02Z</time>
      </trkpt>
      <trkpt lat="46.02373" lon="4.03613">
        <ele>322.18</ele>
        <time>2013-12-07T23:17:10Z</time>
      </trkpt>
      <trkpt lat="46.02371" lon="4.03604">
        <ele>322.18</ele>
        <time>2013-12-07T23:17:14Z</time>
      </trkpt>
      <trkpt lat="46.02366" lon="4.03584">
        <ele>322.18</ele>
        <time>2013-12-07T23:17:24Z</time>
      </trkpt>
      <trkpt lat="46.02358" lon="4.0356">
        <ele>322.18</ele>
        <time>2013-12-07T23:17:36Z</time>
      </trkpt>
      <trkpt lat="46.0235" lon="4.03541">
        <ele>322.18</ele>
        <time>2013-12-07T23:17:45Z</time>
      </trkpt>
      <trkpt lat="46.02348" lon="4.03533">
        <ele>322.18</ele>
        <time>2013-12-07T23:17:49Z</time>
      </trkpt>
      <trkpt lat="46.02339" lon="4.035">
        <ele>321.7</ele>
        <time>2013-12-07T23:18:04Z</time>
      </trkpt>
      <trkpt lat="46.0233" lon="4.03469">
        <ele>321.7</ele>
        <time>2013-12-07T23:18:19Z</time>
      </trkpt>
      <trkpt lat="46.02321" lon="4.03439">
        <ele>321.7</ele>
        <time>2013-12-07T23:18:34Z</time>
      </trkpt>
      <trkpt lat="46.02314" lon="4.03403">
        <ele>321.7</ele>
        <time>2013-12-07T23:18:51Z</time>
      </trkpt>
      <trkpt lat="46.02303" lon="4.03374">
        <ele>321.7</ele>
        <time>2013-12-07T23:19:06Z</time>
      </trkpt>
      <trkpt lat="46.02292" lon="4.03343">
        <ele>321.7</ele>
        <time>2013-12-07T23:19:22Z</time>
      </trkpt>
      <trkpt lat="46.02284" lon="4.03317">
        <ele>321.7</ele>
        <time>2013-12-07T23:19:35Z</time>
      </trkpt>
      <trkpt lat="46.02275" lon="4.03293">
        <ele>322.18</ele>
        <time>2013-12-07T23:19:47Z</time>
      </trkpt>
      <trkpt lat="46.02268" lon="4.0327">
        <ele>322.18</ele>
        <time>2013-12-07T23:19:59Z</time>
      </trkpt>
      <trkpt lat="46.02257" lon="4.03233">
        <ele>322.18</ele>
        <time>2013-12-07T23:20:17Z</time>
      </trkpt>
      <trkpt lat="46.02248" lon="4.03201">
        <ele>322.18</ele>
        <time>2013-12-07T23:20:33Z</time>
      </trkpt>
      <trkpt lat="46.02243" lon="4.03171">
        <ele>322.66</ele>
        <time>2013-12-07T23:20:47Z</time>
      </trkpt>
      <trkpt lat="46.02234" lon="4.0314">
        <ele>322.66</ele>
        <time>2013-12-07T23:21:03Z</time>
      </trkpt>
      <trkpt lat="46.02225" lon="4.03112">
        <ele>323.14</ele>
        <time>2013-12-07T23:21:18Z</time>
      </trkpt>
      <trkpt lat="46.02216" lon="4.03086">
        <ele>323.14</ele>
        <time>2013-12-07T23:21:33Z</time>
      </trkpt>
      <trkpt lat="46.02209" lon="4.03058">
        <ele>323.14</ele>
        <time>2013-12-07T23:21:48Z</time>
      </trkpt>
      <trkpt lat="46.02201" lon="4.03027">
        <ele>323.14</ele>
        <time>2013-12-07T23:22:03Z</time>
      </trkpt>
      <trkpt lat="46.0219" lon="4.02997">
        <ele>323.62</ele>
        <time>2013-12-07T23:22:18Z</time>
      </trkpt>
      <trkpt lat="46.02188" lon="4.02988">
        <ele>323.62</ele>
        <time>2013-12-07T23:22:23Z</time>
      </trkpt>
      <trkpt lat="46.02183" lon="4.02972">
        <ele>323.62</ele>
        <time>2013-12-07T23:22:31Z</time>
      </trkpt>
      <trkpt lat="46.02172" lon="4.02941">
        <ele>324.1</ele>
        <time>2013-12-07T23:22:47Z</time>
      </trkpt>
      <trkpt lat="46.02165" lon="4.02914">
        <ele>324.1</ele>
        <time>2013-12-07T23:23:00Z</time>
      </trkpt>
      <trkpt lat="46.02157" lon="4.02892">
        <ele>325.06</ele>
        <time>2013-12-07T23:23:14Z</time>
      </trkpt>
      <trkpt lat="46.02147" lon="4.02875">
        <ele>325.06</ele>
        <time>2013-12-07T23:23:24Z</time>
      </trkpt>
      <trkpt lat="46.02135" lon="4.02849">
        <ele>325.06</ele>
        <time>2013-12-07T23:23:40Z</time>
      </trkpt>
      <trkpt lat="46.02134" lon="4.02847">
        <ele>325.54</ele>
        <time>2013-12-07T23:23:41Z</time>
      </trkpt>
      <trkpt lat="46.02119" lon="4.02824">
        <ele>326.02</ele>
        <time>2013-12-07T23:23:56Z</time>
      </trkpt>
      <trkpt lat="46.02104" lon="4.02792">
        <ele>326.5</ele>
        <time>2013-12-07T23:24:13Z</time>
      </trkpt>
      <trkpt lat="46.02091" lon="4.02767">
        <ele>327.47</ele>
        <time>2013-12-07T23:24:27Z</time>
      </trkpt>
      <trkpt lat="46.02079" lon="4.02745">
        <ele>328.43</ele>
        <time>2013-12-07T23:24:41Z</time>
      </trkpt>
      <trkpt lat="46.02067" lon="4.02718">
        <ele>329.39</ele>
        <time>2013-12-07T23:24:56Z</time>
      </trkpt>
      <trkpt lat="46.02051" lon="4.02691">
        <ele>329.87</ele>
        <time>2013-12-07T23:25:11Z</time>
      </trkpt>
      <trkpt lat="46.02039" lon="4.02668">
        <ele>330.83</ele>
        <time>2013-12-07T23:25:25Z</time>
      </trkpt>
      <trkpt lat="46.02028" lon="4.02648">
        <ele>331.31</ele>
        <time>2013-12-07T23:25:38Z</time>
      </trkpt>
      <trkpt lat="46.02018" lon="4.0263">
        <ele>332.27</ele>
        <time>2013-12-07T23:25:51Z</time>
      </trkpt>
      <trkpt lat="46.02017" lon="4.02628">
        <ele>332.27</ele>
        <time>2013-12-07T23:25:53Z</time>
      </trkpt>
      <trkpt lat="46.02005" lon="4.02607">
        <ele>332.75</ele>
        <time>2013-12-07T23:26:06Z</time>
      </trkpt>
      <trkpt lat="46.0199" lon="4.02594">
        <ele>333.23</ele>
        <time>2013-12-07T23:26:18Z</time>
      </trkpt>
      <trkpt lat="46.01986" lon="4.0259">
        <ele>333.71</ele>
        <time>2013-12-07T23:26:22Z</time>
      </trkpt>
      <trkpt lat="46.01969" lon="4.02568">
        <ele>333.71</ele>
        <time>2013-12-07T23:26:38Z</time>
      </trkpt>
      <trkpt lat="46.01954" lon="4.0255">
        <ele>334.2</ele>
        <time>2013-12-07T23:26:52Z</time>
      </trkpt>
      <trkpt lat="46.01936" lon="4.02526">
        <ele>334.68</ele>
        <time>2013-12-07T23:27:06Z</time>
      </trkpt>
      <trkpt lat="46.01921" lon="4.02504">
        <ele>335.16</ele>
        <time>2013-12-07T23:27:19Z</time>
      </trkpt>
      <trkpt lat="46.01906" lon="4.02483">
        <ele>335.16</ele>
        <time>2013-12-07T23:27:32Z</time>
      </trkpt>
      <trkpt lat="46.01892" lon="4.02465">
        <ele>335.64</ele>
        <time>2013-12-07T23:27:44Z</time>
      </trkpt>
      <trkpt lat="46.01875" lon="4.02441">
        <ele>336.12</ele>
        <time>2013-12-07T23:27:59Z</time>
      </trkpt>
      <trkpt lat="46.01858" lon="4.02412">
        <ele>336.12</ele>
        <time>2013-12-07T23:28:15Z</time>
      </trkpt>
      <trkpt lat="46.01843" lon="4.02391">
        <ele>336.6</ele>
        <time>2013-12-07T23:28:28Z</time>
      </trkpt>
      <trkpt lat="46.01829" lon="4.02369">
        <ele>337.08</ele>
        <time>2013-12-07T23:28:41Z</time>
      </trkpt>
      <trkpt lat="46.01813" lon="4.02351">
        <ele>337.08</ele>
        <time>2013-12-07T23:28:53Z</time>
      </trkpt>
      <trkpt lat="46.01799" lon="4.02329">
        <ele>337.08</ele>
        <time>2013-12-07T23:29:06Z</time>
      </trkpt>
      <trkpt lat="46.01779" lon="4.02309">
        <ele>337.56</ele>
        <time>2013-12-07T23:29:20Z</time>
      </trkpt>
      <trkpt lat="46.01759" lon="4.02286">
        <ele>338.04</ele>
        <time>2013-12-07T23:29:35Z</time>
      </trkpt>
      <trkpt lat="46.01738" lon="4.02269">
        <ele>338.04</ele>
        <time>2013-12-07T23:29:49Z</time>
      </trkpt>
      <trkpt lat="46.01729" lon="4.02259">
        <ele>338.04</ele>
        <time>2013-12-07T23:29:56Z</time>
      </trkpt>
      <trkpt lat="46.01711" lon="4.02238">
        <ele>338.04</ele>
        <time>2013-12-07T23:30:11Z</time>
      </trkpt>
      <trkpt lat="46.01691" lon="4.02216">
        <ele>338.04</ele>
        <time>2013-12-07T23:30:26Z</time>
      </trkpt>
      <trkpt lat="46.01674" lon="4.02194">
        <ele>337.56</ele>
        <time>2013-12-07T23:30:40Z</time>
      </trkpt>
      <trkpt lat="46.01657" lon="4.02172">
        <ele>337.56</ele>
        <time>2013-12-07T23:30:54Z</time>
      </trkpt>
      <trkpt lat="46.01641" lon="4.0215">
        <ele>337.08</ele>
        <time>2013-12-07T23:31:08Z</time>
      </trkpt>
      <trkpt lat="46.01624" lon="4.02124">
        <ele>336.6</ele>
        <time>2013-12-07T23:31:22Z</time>
      </trkpt>
      <trkpt lat="46.01606" lon="4.021">
        <ele>336.6</ele>
        <time>2013-12-07T23:31:36Z</time>
      </trkpt>
      <trkpt lat="46.0159" lon="4.02077">
        <ele>336.6</ele>
        <time>2013-12-07T23:31:50Z</time>
      </trkpt>
      <trkpt lat="46.01572" lon="4.0205">
        <ele>336.12</ele>
        <time>2013-12-07T23:32:05Z</time>
      </trkpt>
      <trkpt lat="46.0156" lon="4.02025">
        <ele>335.64</ele>
        <time>2013-12-07T23:32:18Z</time>
      </trkpt>
      <trkpt lat="46.01545" lon="4.02001">
        <ele>335.64</ele>
        <time>2013-12-07T23:32:32Z</time>
      </trkpt>
      <trkpt lat="46.01532" lon="4.01971">
        <ele>336.12</ele>
        <time>2013-12-07T23:32:47Z</time>
      </trkpt>
      <trkpt lat="46.01522" lon="4.01942">
        <ele>336.12</ele>
        <time>2013-12-07T23:33:01Z</time>
      </trkpt>
      <trkpt lat="46.01515" lon="4.01909">
        <ele>336.12</ele>
        <time>2013-12-07T23:33:15Z</time>
      </trkpt>
      <trkpt lat="46.01507" lon="4.01875">
        <ele>336.6</ele>
        <time>2013-12-07T23:33:29Z</time>
      </trkpt>
      <trkpt lat="46.015" lon="4.01844">
        <ele>336.6</ele>
        <time>2013-12-07T23:33:43Z</time>
      </trkpt>
      <trkpt lat="46.01491" lon="4.01812">
        <ele>336.6</ele>
        <time>2013-12-07T23:33:58Z</time>
      </trkpt>
      <trkpt lat="46.01478" lon="4.01782">
        <ele>337.08</ele>
        <time>2013-12-07T23:34:13Z</time>
      </trkpt>
      <trkpt lat="46.01467" lon="4.01749">
        <ele>337.56</ele>
        <time>2013-12-07T23:34:29Z</time>
      </trkpt>
      <trkpt lat="46.01455" lon="4.0172">
        <ele>337.56</ele>
        <time>2013-12-07T23:34:44Z</time>
      </trkpt>
      <trkpt lat="46.01445" lon="4.0169">
        <ele>338.04</ele>
        <time>2013-12-07T23:34:58Z</time>
      </trkpt>
      <trkpt lat="46.01436" lon="4.01667">
        <ele>338.04</ele>
        <time>2013-12-07T23:35:09Z</time>
      </trkpt>
      <trkpt lat="46.01422" lon="4.01642">
        <ele>338.52</ele>
        <time>2013-12-07T23:35:22Z</time>
      </trkpt>
      <trkpt lat="46.01407" lon="4.01614">
        <ele>338.52</ele>
        <time>2013-12-07T23:35:36Z</time>
      </trkpt>
      <trkpt lat="46.01396" lon="4.0159">
        <ele>338.52</ele>
        <time>2013-12-07T23:35:49Z</time>
      </trkpt>
      <trkpt lat="46.01384" lon="4.0156">
        <ele>339</ele>
        <time>2013-12-07T23:36:04Z</time>
      </trkpt>
      <trkpt lat="46.01375" lon="4.01532">
        <ele>339</ele>
        <time>2013-12-07T23:36:17Z</time>
      </trkpt>
      <trkpt lat="46.01369" lon="4.01504">
        <ele>339.48</ele>
        <time>2013-12-07T23:36:30Z</time>
      </trkpt>
      <trkpt lat="46.01363" lon="4.0147">
        <ele>339.48</ele>
        <time>2013-12-07T23:36:45Z</time>
      </trkpt>
      <trkpt lat="46.01358" lon="4.01437">
        <ele>339.96</ele>
        <time>2013-12-07T23:37:00Z</time>
      </trkpt>
      <trkpt lat="46.01355" lon="4.01401">
        <ele>340.92</ele>
        <time>2013-12-07T23:37:15Z</time>
      </trkpt>
      <trkpt lat="46.01353" lon="4.01361">
        <ele>340.44</ele>
        <time>2013-12-07T23:37:31Z</time>
      </trkpt>
      <trkpt lat="46.01352" lon="4.01332">
        <ele>340.92</ele>
        <time>2013-12-07T23:37:43Z</time>
      </trkpt>
      <trkpt lat="46.01348" lon="4.01302">
        <ele>340.44</ele>
        <time>2013-12-07T23:37:56Z</time>
      </trkpt>
      <trkpt lat="46.01343" lon="4.01276">
        <ele>340.44</ele>
        <time>2013-12-07T23:38:08Z</time>
      </trkpt>
      <trkpt lat="46.01342" lon="4.0127">
        <ele>340.44</ele>
        <time>2013-12-07T23:38:11Z</time>
      </trkpt>
      <trkpt lat="46.01337" lon="4.01234">
        <ele>340.44</ele>
        <time>2013-12-07T23:38:27Z</time>
      </trkpt>
      <trkpt lat="46.01332" lon="4.012">
        <ele>340.44</ele>
        <time>2013-12-07T23:38:41Z</time>
      </trkpt>
      <trkpt lat="46.01328" lon="4.01178">
        <ele>340.44</ele>
        <time>2013-12-07T23:38:50Z</time>
      </trkpt>
      <trkpt lat="46.01323" lon="4.01141">
        <ele>339.48</ele>
        <time>2013-12-07T23:39:06Z</time>
      </trkpt>
      <trkpt lat="46.01323" lon="4.01138">
        <ele>339.48</ele>
        <time>2013-12-07T23:39:08Z</time>
      </trkpt>
      <trkpt lat="46.01315" lon="4.01098">
        <ele>338.52</ele>
        <time>2013-12-07T23:39:24Z</time>
      </trkpt>
      <trkpt lat="46.0131" lon="4.01067">
        <ele>338.52</ele>
        <time>2013-12-07T23:39:37Z</time>
      </trkpt>
      <trkpt lat="46.01302" lon="4.01035">
        <ele>338.04</ele>
        <time>2013-12-07T23:39:51Z</time>
      </trkpt>
      <trkpt lat="46.01299" lon="4.01027">
        <ele>338.04</ele>
        <time>2013-12-07T23:39:55Z</time>
      </trkpt>
      <trkpt lat="46.0129" lon="4.01001">
        <ele>337.56</ele>
        <time>2013-12-07T23:40:08Z</time>
      </trkpt>
      <trkpt lat="46.01286" lon="4.00985">
        <ele>337.56</ele>
        <time>2013-12-07T23:40:16Z</time>
      </trkpt>
      <trkpt lat="46.01276" lon="4.00955">
        <ele>337.56</ele>
        <time>2013-12-07T23:40:29Z</time>
      </trkpt>
      <trkpt lat="46.01262" lon="4.00928">
        <ele>337.56</ele>
        <time>2013-12-07T23:40:42Z</time>
      </trkpt>
      <trkpt lat="46.01245" lon="4.00898">
        <ele>337.56</ele>
        <time>2013-12-07T23:40:57Z</time>
      </trkpt>
      <trkpt lat="46.01228" lon="4.00876">
        <ele>338.04</ele>
        <time>2013-12-07T23:41:11Z</time>
      </trkpt>
      <trkpt lat="46.01213" lon="4.00849">
        <ele>338.04</ele>
        <time>2013-12-07T23:41:26Z</time>
      </trkpt>
      <trkpt lat="46.01195" lon="4.00827">
        <ele>338.04</ele>
        <time>2013-12-07T23:41:39Z</time>
      </trkpt>
      <trkpt lat="46.01177" lon="4.00804">
        <ele>338.52</ele>
        <time>2013-12-07T23:41:54Z</time>
      </trkpt>
      <trkpt lat="46.0116" lon="4.00784">
        <ele>338.52</ele>
        <time>2013-12-07T23:42:08Z</time>
      </trkpt>
      <trkpt lat="46.01143" lon="4.0076">
        <ele>339</ele>
        <time>2013-12-07T23:42:22Z</time>
      </trkpt>
      <trkpt lat="46.01122" lon="4.00735">
        <ele>338.52</ele>
        <time>2013-12-07T23:42:39Z</time>
      </trkpt>
      <trkpt lat="46.01115" lon="4.00727">
        <ele>339</ele>
        <time>2013-12-07T23:42:46Z</time>
      </trkpt>
      <trkpt lat="46.01104" lon="4.00712">
        <ele>342.85</ele>
        <time>2013-12-07T23:42:54Z</time>
      </trkpt>
      <trkpt lat="46.01096" lon="4.00704">
        <ele>340.92</ele>
        <time>2013-12-07T23:43:00Z</time>
      </trkpt>
      <trkpt lat="46.01087" lon="4.00692">
        <ele>340.92</ele>
        <time>2013-12-07T23:43:06Z</time>
      </trkpt>
      <trkpt lat="46.01083" lon="4.00688">
        <ele>341.41</ele>
        <time>2013-12-07T23:43:10Z</time>
      </trkpt>
      <trkpt lat="46.01077" lon="4.00682">
        <ele>341.41</ele>
        <time>2013-12-07T23:43:16Z</time>
      </trkpt>
      <trkpt lat="46.01062" lon="4.00667">
        <ele>342.85</ele>
        <time>2013-12-07T23:43:27Z</time>
      </trkpt>
      <trkpt lat="46.01049" lon="4.0065">
        <ele>342.37</ele>
        <time>2013-12-07T23:43:39Z</time>
      </trkpt>
      <trkpt lat="46.01046" lon="4.00646">
        <ele>342.37</ele>
        <time>2013-12-07T23:43:42Z</time>
      </trkpt>
      <trkpt lat="46.01032" lon="4.00629">
        <ele>343.33</ele>
        <time>2013-12-07T23:43:54Z</time>
      </trkpt>
      <trkpt lat="46.01018" lon="4.00611">
        <ele>343.33</ele>
        <time>2013-12-07T23:44:07Z</time>
      </trkpt>
      <trkpt lat="46.01005" lon="4.00587">
        <ele>343.81</ele>
        <time>2013-12-07T23:44:21Z</time>
      </trkpt>
      <trkpt lat="46.00991" lon="4.0056">
        <ele>343.33</ele>
        <time>2013-12-07T23:44:35Z</time>
      </trkpt>
      <trkpt lat="46.00983" lon="4.00534">
        <ele>343.33</ele>
        <time>2013-12-07T23:44:47Z</time>
      </trkpt>
      <trkpt lat="46.00982" lon="4.00513">
        <ele>343.33</ele>
        <time>2013-12-07T23:44:56Z</time>
      </trkpt>
      <trkpt lat="46.00985" lon="4.00482">
        <ele>343.33</ele>
        <time>2013-12-07T23:45:10Z</time>
      </trkpt>
      <trkpt lat="46.00988" lon="4.0045">
        <ele>343.33</ele>
        <time>2013-12-07T23:45:24Z</time>
      </trkpt>
      <trkpt lat="46.00993" lon="4.00415">
        <ele>342.85</ele>
        <time>2013-12-07T23:45:39Z</time>
      </trkpt>
      <trkpt lat="46.00995" lon="4.00388">
        <ele>341.89</ele>
        <time>2013-12-07T23:45:52Z</time>
      </trkpt>
      <trkpt lat="46.0099" lon="4.00378">
        <ele>340.92</ele>
        <time>2013-12-07T23:45:57Z</time>
      </trkpt>
      <trkpt lat="46.00983" lon="4.00375">
        <ele>340.44</ele>
        <time>2013-12-07T23:46:02Z</time>
      </trkpt>
      <trkpt lat="46.00961" lon="4.00375">
        <ele>339</ele>
        <time>2013-12-07T23:46:17Z</time>
      </trkpt>
      <trkpt lat="46.00939" lon="4.00373">
        <ele>337.56</ele>
        <time>2013-12-07T23:46:30Z</time>
      </trkpt>
      <trkpt lat="46.00908" lon="4.00378">
        <ele>336.12</ele>
        <time>2013-12-07T23:46:46Z</time>
      </trkpt>
      <trkpt lat="46.00886" lon="4.0038">
        <ele>334.68</ele>
        <time>2013-12-07T23:46:59Z</time>
      </trkpt>
      <trkpt lat="46.00858" lon="4.00383">
        <ele>333.23</ele>
        <time>2013-12-07T23:47:14Z</time>
      </trkpt>
      <trkpt lat="46.00832" lon="4.00388">
        <ele>332.75</ele>
        <time>2013-12-07T23:47:29Z</time>
      </trkpt>
      <trkpt lat="46.00817" lon="4.00416">
        <ele>333.71</ele>
        <time>2013-12-07T23:47:44Z</time>
      </trkpt>
      <trkpt lat="46.00798" lon="4.00419">
        <ele>335.16</ele>
        <time>2013-12-07T23:47:57Z</time>
      </trkpt>
      <trkpt lat="46.00778" lon="4.00395">
        <ele>335.64</ele>
        <time>2013-12-07T23:48:12Z</time>
      </trkpt>
      <trkpt lat="46.00759" lon="4.00375">
        <ele>336.12</ele>
        <time>2013-12-07T23:48:26Z</time>
      </trkpt>
      <trkpt lat="46.00736" lon="4.00365">
        <ele>336.6</ele>
        <time>2013-12-07T23:48:40Z</time>
      </trkpt>
      <trkpt lat="46.00712" lon="4.00361">
        <ele>337.08</ele>
        <time>2013-12-07T23:48:55Z</time>
      </trkpt>
      <trkpt lat="46.00688" lon="4.00353">
        <ele>338.04</ele>
        <time>2013-12-07T23:49:10Z</time>
      </trkpt>
      <trkpt lat="46.00665" lon="4.00343">
        <ele>338.52</ele>
        <time>2013-12-07T23:49:24Z</time>
      </trkpt>
      <trkpt lat="46.00643" lon="4.00337">
        <ele>339</ele>
        <time>2013-12-07T23:49:37Z</time>
      </trkpt>
      <trkpt lat="46.00621" lon="4.00329">
        <ele>339</ele>
        <time>2013-12-07T23:49:50Z</time>
      </trkpt>
      <trkpt lat="46.00599" lon="4.00324">
        <ele>339.48</ele>
        <time>2013-12-07T23:50:05Z</time>
      </trkpt>
      <trkpt lat="46.00576" lon="4.00319">
        <ele>339.48</ele>
        <time>2013-12-07T23:50:18Z</time>
      </trkpt>
      <trkpt lat="46.00551" lon="4.00313">
        <ele>339.96</ele>
        <time>2013-12-07T23:50:34Z</time>
      </trkpt>
      <trkpt lat="46.00546" lon="4.00309">
        <ele>339.96</ele>
        <time>2013-12-07T23:50:38Z</time>
      </trkpt>
      <trkpt lat="46.00521" lon="4.00302">
        <ele>340.44</ele>
        <time>2013-12-07T23:50:53Z</time>
      </trkpt>
      <trkpt lat="46.00501" lon="4.00286">
        <ele>340.92</ele>
        <time>2013-12-07T23:51:06Z</time>
      </trkpt>
      <trkpt lat="46.00475" lon="4.00272">
        <ele>341.41</ele>
        <time>2013-12-07T23:51:22Z</time>
      </trkpt>
      <trkpt lat="46.00456" lon="4.00259">
        <ele>341.89</ele>
        <time>2013-12-07T23:51:35Z</time>
      </trkpt>
      <trkpt lat="46.00434" lon="4.00242">
        <ele>342.37</ele>
        <time>2013-12-07T23:51:49Z</time>
      </trkpt>
      <trkpt lat="46.00432" lon="4.00231">
        <ele>342.37</ele>
        <time>2013-12-07T23:51:54Z</time>
      </trkpt>
      <trkpt lat="46.00426" lon="4.00211">
        <ele>342.37</ele>
        <time>2013-12-07T23:52:03Z</time>
      </trkpt>
      <trkpt lat="46.00414" lon="4.00178">
        <ele>342.85</ele>
        <time>2013-12-07T23:52:18Z</time>
      </trkpt>
      <trkpt lat="46.00402" lon="4.00149">
        <ele>343.33</ele>
        <time>2013-12-07T23:52:33Z</time>
      </trkpt>
      <trkpt lat="46.00389" lon="4.00119">
        <ele>343.33</ele>
        <time>2013-12-07T23:52:47Z</time>
      </trkpt>
      <trkpt lat="46.00379" lon="4.00089">
        <ele>343.33</ele>
        <time>2013-12-07T23:53:02Z</time>
      </trkpt>
      <trkpt lat="46.00371" lon="4.00055">
        <ele>344.29</ele>
        <time>2013-12-07T23:53:16Z</time>
      </trkpt>
      <trkpt lat="46.00364" lon="4.00017">
        <ele>344.29</ele>
        <time>2013-12-07T23:53:32Z</time>
      </trkpt>
      <trkpt lat="46.00356" lon="3.99978">
        <ele>343.81</ele>
        <time>2013-12-07T23:53:49Z</time>
      </trkpt>
      <trkpt lat="46.0035" lon="3.99949">
        <ele>343.81</ele>
        <time>2013-12-07T23:54:01Z</time>
      </trkpt>
      <trkpt lat="46.00342" lon="3.99913">
        <ele>344.29</ele>
        <time>2013-12-07T23:54:16Z</time>
      </trkpt>
      <trkpt lat="46.0034" lon="3.99907">
        <ele>344.29</ele>
        <time>2013-12-07T23:54:19Z</time>
      </trkpt>
      <trkpt lat="46.0033" lon="3.99871">
        <ele>344.77</ele>
        <time>2013-12-07T23:54:34Z</time>
      </trkpt>
      <trkpt lat="46.00322" lon="3.99831">
        <ele>344.77</ele>
        <time>2013-12-07T23:54:50Z</time>
      </trkpt>
      <trkpt lat="46.00312" lon="3.99799">
        <ele>344.77</ele>
        <time>2013-12-07T23:55:03Z</time>
      </trkpt>
      <trkpt lat="46.00305" lon="3.99765">
        <ele>345.25</ele>
        <time>2013-12-07T23:55:17Z</time>
      </trkpt>
      <trkpt lat="46.00301" lon="3.99739">
        <ele>344.77</ele>
        <time>2013-12-07T23:55:28Z</time>
      </trkpt>
      <trkpt lat="46.00294" lon="3.99713">
        <ele>344.77</ele>
        <time>2013-12-07T23:55:41Z</time>
      </trkpt>
      <trkpt lat="46.00283" lon="3.99695">
        <ele>345.25</ele>
        <time>2013-12-07T23:55:52Z</time>
      </trkpt>
      <trkpt lat="46.00268" lon="3.99675">
        <ele>345.25</ele>
        <time>2013-12-07T23:56:05Z</time>
      </trkpt>
      <trkpt lat="46.00256" lon="3.99651">
        <ele>346.21</ele>
        <time>2013-12-07T23:56:18Z</time>
      </trkpt>
      <trkpt lat="46.00246" lon="3.99614">
        <ele>346.21</ele>
        <time>2013-12-07T23:56:30Z</time>
      </trkpt>
      <trkpt lat="46.00235" lon="3.99581">
        <ele>346.21</ele>
        <time>2013-12-07T23:56:44Z</time>
      </trkpt>
      <trkpt lat="46.00223" lon="3.99547">
        <ele>346.69</ele>
        <time>2013-12-07T23:56:59Z</time>
      </trkpt>
      <trkpt lat="46.0021" lon="3.99521">
        <ele>347.17</ele>
        <time>2013-12-07T23:57:13Z</time>
      </trkpt>
      <trkpt lat="46.00196" lon="3.99496">
        <ele>347.17</ele>
        <time>2013-12-07T23:57:26Z</time>
      </trkpt>
      <trkpt lat="46.0018" lon="3.99462">
        <ele>347.65</ele>
        <time>2013-12-07T23:57:43Z</time>
      </trkpt>
      <trkpt lat="46.00167" lon="3.99436">
        <ele>347.65</ele>
        <time>2013-12-07T23:57:57Z</time>
      </trkpt>
      <trkpt lat="46.00154" lon="3.99408">
        <ele>348.13</ele>
        <time>2013-12-07T23:58:11Z</time>
      </trkpt>
      <trkpt lat="46.00142" lon="3.99377">
        <ele>351.02</ele>
        <time>2013-12-07T23:58:26Z</time>
      </trkpt>
      <trkpt lat="46.00139" lon="3.99372">
        <ele>349.1</ele>
        <time>2013-12-07T23:58:29Z</time>
      </trkpt>
      <trkpt lat="46.00135" lon="3.99362">
        <ele>348.62</ele>
        <time>2013-12-07T23:58:34Z</time>
      </trkpt>
      <trkpt lat="46.00123" lon="3.99336">
        <ele>348.62</ele>
        <time>2013-12-07T23:58:48Z</time>
      </trkpt>
      <trkpt lat="46.00111" lon="3.9931">
        <ele>349.1</ele>
        <time>2013-12-07T23:59:02Z</time>
      </trkpt>
      <trkpt lat="46.00109" lon="3.99304">
        <ele>349.1</ele>
        <time>2013-12-07T23:59:05Z</time>
      </trkpt>
      <trkpt lat="46.00106" lon="3.99295">
        <ele>349.1</ele>
        <time>2013-12-07T23:59:10Z</time>
      </trkpt>
      <trkpt lat="46.00103" lon="3.99291">
        <ele>349.58</ele>
        <time>2013-12-07T23:59:12Z</time>
      </trkpt>
      <trkpt lat="46.00096" lon="3.99263">
        <ele>349.1</ele>
        <time>2013-12-07T23:59:24Z</time>
      </trkpt>
      <trkpt lat="46.00089" lon="3.99237">
        <ele>349.58</ele>
        <time>2013-12-07T23:59:37Z</time>
      </trkpt>
      <trkpt lat="46.00082" lon="3.99209">
        <ele>350.06</ele>
        <time>2013-12-07T23:59:49Z</time>
      </trkpt>
      <trkpt lat="46.00072" lon="3.99173">
        <ele>350.06</ele>
        <time>2013-12-08T00:00:05Z</time>
      </trkpt>
      <trkpt lat="46.00061" lon="3.99133">
        <ele>350.54</ele>
        <time>2013-12-08T00:00:23Z</time>
      </trkpt>
      <trkpt lat="46.0005" lon="3.99094">
        <ele>351.02</ele>
        <time>2013-12-08T00:00:41Z</time>
      </trkpt>
      <trkpt lat="46.0004" lon="3.99062">
        <ele>351.5</ele>
        <time>2013-12-08T00:00:56Z</time>
      </trkpt>
      <trkpt lat="46.0003" lon="3.99035">
        <ele>351.5</ele>
        <time>2013-12-08T00:01:10Z</time>
      </trkpt>
      <trkpt lat="46.00028" lon="3.99031">
        <ele>351.5</ele>
        <time>2013-12-08T00:01:12Z</time>
      </trkpt>
      <trkpt lat="46.00013" lon="3.99001">
        <ele>351.98</ele>
        <time>2013-12-08T00:01:28Z</time>
      </trkpt>
      <trkpt lat="45.99999" lon="3.98974">
        <ele>352.94</ele>
        <time>2013-12-08T00:01:43Z</time>
      </trkpt>
      <trkpt lat="45.99989" lon="3.98951">
        <ele>353.42</ele>
        <time>2013-12-08T00:01:55Z</time>
      </trkpt>
      <trkpt lat="45.99984" lon="3.98935">
        <ele>353.9</ele>
        <time>2013-12-08T00:02:01Z</time>
      </trkpt>
      <trkpt lat="45.99969" lon="3.98904">
        <ele>354.38</ele>
        <time>2013-12-08T00:02:17Z</time>
      </trkpt>
      <trkpt lat="45.99956" lon="3.9888">
        <ele>354.86</ele>
        <time>2013-12-08T00:02:29Z</time>
      </trkpt>
      <trkpt lat="45.99943" lon="3.98853">
        <ele>356.31</ele>
        <time>2013-12-08T00:02:43Z</time>
      </trkpt>
      <trkpt lat="45.99928" lon="3.98827">
        <ele>356.79</ele>
        <time>2013-12-08T00:02:58Z</time>
      </trkpt>
      <trkpt lat="45.99917" lon="3.98805">
        <ele>357.75</ele>
        <time>2013-12-08T00:03:09Z</time>
      </trkpt>
      <trkpt lat="45.99911" lon="3.98795">
        <ele>357.75</ele>
        <time>2013-12-08T00:03:15Z</time>
      </trkpt>
      <trkpt lat="45.999" lon="3.98765">
        <ele>358.71</ele>
        <time>2013-12-08T00:03:29Z</time>
      </trkpt>
      <trkpt lat="45.99892" lon="3.98735">
        <ele>359.67</ele>
        <time>2013-12-08T00:03:42Z</time>
      </trkpt>
      <trkpt lat="45.9989" lon="3.98724">
        <ele>360.15</ele>
        <time>2013-12-08T00:03:47Z</time>
      </trkpt>
      <trkpt lat="45.99884" lon="3.98685">
        <ele>361.11</ele>
        <time>2013-12-08T00:04:04Z</time>
      </trkpt>
      <trkpt lat="45.99881" lon="3.98676">
        <ele>361.11</ele>
        <time>2013-12-08T00:04:09Z</time>
      </trkpt>
      <trkpt lat="45.99881" lon="3.98667">
        <ele>361.11</ele>
        <time>2013-12-08T00:04:12Z</time>
      </trkpt>
      <trkpt lat="45.99879" lon="3.98655">
        <ele>361.11</ele>
        <time>2013-12-08T00:04:17Z</time>
      </trkpt>
      <trkpt lat="45.99871" lon="3.98622">
        <ele>362.07</ele>
        <time>2013-12-08T00:04:32Z</time>
      </trkpt>
      <trkpt lat="45.99863" lon="3.98588">
        <ele>362.55</ele>
        <time>2013-12-08T00:04:47Z</time>
      </trkpt>
      <trkpt lat="45.99856" lon="3.98565">
        <ele>363.52</ele>
        <time>2013-12-08T00:04:58Z</time>
      </trkpt>
      <trkpt lat="45.99851" lon="3.98526">
        <ele>364.96</ele>
        <time>2013-12-08T00:05:15Z</time>
      </trkpt>
      <trkpt lat="45.9985" lon="3.98492">
        <ele>365.92</ele>
        <time>2013-12-08T00:05:29Z</time>
      </trkpt>
      <trkpt lat="45.9985" lon="3.98474">
        <ele>365.92</ele>
        <time>2013-12-08T00:05:36Z</time>
      </trkpt>
      <trkpt lat="45.9985" lon="3.98464">
        <ele>365.92</ele>
        <time>2013-12-08T00:05:40Z</time>
      </trkpt>
      <trkpt lat="45.99847" lon="3.98429">
        <ele>366.4</ele>
        <time>2013-12-08T00:05:54Z</time>
      </trkpt>
      <trkpt lat="45.99843" lon="3.98401">
        <ele>367.36</ele>
        <time>2013-12-08T00:06:06Z</time>
      </trkpt>
      <trkpt lat="45.9984" lon="3.98367">
        <ele>368.32</ele>
        <time>2013-12-08T00:06:20Z</time>
      </trkpt>
      <trkpt lat="45.99835" lon="3.98333">
        <ele>369.28</ele>
        <time>2013-12-08T00:06:35Z</time>
      </trkpt>
      <trkpt lat="45.9983" lon="3.9831">
        <ele>369.76</ele>
        <time>2013-12-08T00:06:46Z</time>
      </trkpt>
      <trkpt lat="45.99827" lon="3.98285">
        <ele>370.24</ele>
        <time>2013-12-08T00:06:57Z</time>
      </trkpt>
      <trkpt lat="45.99822" lon="3.98253">
        <ele>371.21</ele>
        <time>2013-12-08T00:07:10Z</time>
      </trkpt>
      <trkpt lat="45.99818" lon="3.98224">
        <ele>371.69</ele>
        <time>2013-12-08T00:07:24Z</time>
      </trkpt>
      <trkpt lat="45.99811" lon="3.98192">
        <ele>372.65</ele>
        <time>2013-12-08T00:07:38Z</time>
      </trkpt>
      <trkpt lat="45.99803" lon="3.98153">
        <ele>373.61</ele>
        <time>2013-12-08T00:07:53Z</time>
      </trkpt>
      <trkpt lat="45.99795" lon="3.98127">
        <ele>374.09</ele>
        <time>2013-12-08T00:08:05Z</time>
      </trkpt>
      <trkpt lat="45.99784" lon="3.98091">
        <ele>375.53</ele>
        <time>2013-12-08T00:08:22Z</time>
      </trkpt>
      <trkpt lat="45.99772" lon="3.98061">
        <ele>376.49</ele>
        <time>2013-12-08T00:08:38Z</time>
      </trkpt>
      <trkpt lat="45.99762" lon="3.98053">
        <ele>376.97</ele>
        <time>2013-12-08T00:08:47Z</time>
      </trkpt>
      <trkpt lat="45.9976" lon="3.98046">
        <ele>377.45</ele>
        <time>2013-12-08T00:08:50Z</time>
      </trkpt>
      <trkpt lat="45.9976" lon="3.98036">
        <ele>377.45</ele>
        <time>2013-12-08T00:08:54Z</time>
      </trkpt>
      <trkpt lat="45.99744" lon="3.98015">
        <ele>378.42</ele>
        <time>2013-12-08T00:09:08Z</time>
      </trkpt>
      <trkpt lat="45.99738" lon="3.98014">
        <ele>378.42</ele>
        <time>2013-12-08T00:09:11Z</time>
      </trkpt>
      <trkpt lat="45.99735" lon="3.98015">
        <ele>378.9</ele>
        <time>2013-12-08T00:09:13Z</time>
      </trkpt>
      <trkpt lat="45.99727" lon="3.98009">
        <ele>378.9</ele>
        <time>2013-12-08T00:09:19Z</time>
      </trkpt>
      <trkpt lat="45.99716" lon="3.97981">
        <ele>379.38</ele>
        <time>2013-12-08T00:09:33Z</time>
      </trkpt>
      <trkpt lat="45.99715" lon="3.97963">
        <ele>379.86</ele>
        <time>2013-12-08T00:09:38Z</time>
      </trkpt>
      <trkpt lat="45.99716" lon="3.97941">
        <ele>379.86</ele>
        <time>2013-12-08T00:09:42Z</time>
      </trkpt>
      <trkpt lat="45.99699" lon="3.97911">
        <ele>380.82</ele>
        <time>2013-12-08T00:09:57Z</time>
      </trkpt>
      <trkpt lat="45.99687" lon="3.97886">
        <ele>381.3</ele>
        <time>2013-12-08T00:10:10Z</time>
      </trkpt>
      <trkpt lat="45.99684" lon="3.97872">
        <ele>381.78</ele>
        <time>2013-12-08T00:10:17Z</time>
      </trkpt>
      <trkpt lat="45.99672" lon="3.97864">
        <ele>382.74</ele>
        <time>2013-12-08T00:10:28Z</time>
      </trkpt>
      <trkpt lat="45.99669" lon="3.97857">
        <ele>382.74</ele>
        <time>2013-12-08T00:10:32Z</time>
      </trkpt>
      <trkpt lat="45.99663" lon="3.97845">
        <ele>383.22</ele>
        <time>2013-12-08T00:10:39Z</time>
      </trkpt>
      <trkpt lat="45.99661" lon="3.97834">
        <ele>383.7</ele>
        <time>2013-12-08T00:10:45Z</time>
      </trkpt>
      <trkpt lat="45.99632" lon="3.97804">
        <ele>384.66</ele>
        <time>2013-12-08T00:11:03Z</time>
      </trkpt>
      <trkpt lat="45.99602" lon="3.97791">
        <ele>386.11</ele>
        <time>2013-12-08T00:11:17Z</time>
      </trkpt>
      <trkpt lat="45.99591" lon="3.97778">
        <ele>387.07</ele>
        <time>2013-12-08T00:11:26Z</time>
      </trkpt>
      <trkpt lat="45.9957" lon="3.97767">
        <ele>388.99</ele>
        <time>2013-12-08T00:11:41Z</time>
      </trkpt>
      <trkpt lat="45.99547" lon="3.97763">
        <ele>389.95</ele>
        <time>2013-12-08T00:11:56Z</time>
      </trkpt>
      <trkpt lat="45.99546" lon="3.97763">
        <ele>389.95</ele>
        <time>2013-12-08T00:11:57Z</time>
      </trkpt>
      <trkpt lat="45.9952" lon="3.97752">
        <ele>391.39</ele>
        <time>2013-12-08T00:12:12Z</time>
      </trkpt>
      <trkpt lat="45.99499" lon="3.97736">
        <ele>392.36</ele>
        <time>2013-12-08T00:12:26Z</time>
      </trkpt>
      <trkpt lat="45.99479" lon="3.97712">
        <ele>392.84</ele>
        <time>2013-12-08T00:12:41Z</time>
      </trkpt>
      <trkpt lat="45.99461" lon="3.97694">
        <ele>393.8</ele>
        <time>2013-12-08T00:12:54Z</time>
      </trkpt>
      <trkpt lat="45.99443" lon="3.97669">
        <ele>394.28</ele>
        <time>2013-12-08T00:13:09Z</time>
      </trkpt>
      <trkpt lat="45.99435" lon="3.97657">
        <ele>394.76</ele>
        <time>2013-12-08T00:13:17Z</time>
      </trkpt>
      <trkpt lat="45.99431" lon="3.97649">
        <ele>395.24</ele>
        <time>2013-12-08T00:13:22Z</time>
      </trkpt>
      <trkpt lat="45.99414" lon="3.97633">
        <ele>395.72</ele>
        <time>2013-12-08T00:13:34Z</time>
      </trkpt>
      <trkpt lat="45.99394" lon="3.97608">
        <ele>396.2</ele>
        <time>2013-12-08T00:13:50Z</time>
      </trkpt>
      <trkpt lat="45.99372" lon="3.97585">
        <ele>397.16</ele>
        <time>2013-12-08T00:14:06Z</time>
      </trkpt>
      <trkpt lat="45.99357" lon="3.97563">
        <ele>398.12</ele>
        <time>2013-12-08T00:14:19Z</time>
      </trkpt>
      <trkpt lat="45.99339" lon="3.97543">
        <ele>398.6</ele>
        <time>2013-12-08T00:14:33Z</time>
      </trkpt>
      <trkpt lat="45.99322" lon="3.9752">
        <ele>399.08</ele>
        <time>2013-12-08T00:14:47Z</time>
      </trkpt>
      <trkpt lat="45.99305" lon="3.97493">
        <ele>399.57</ele>
        <time>2013-12-08T00:15:04Z</time>
      </trkpt>
      <trkpt lat="45.99288" lon="3.97472">
        <ele>399.57</ele>
        <time>2013-12-08T00:15:18Z</time>
      </trkpt>
      <trkpt lat="45.99269" lon="3.97448">
        <ele>400.05</ele>
        <time>2013-12-08T00:15:33Z</time>
      </trkpt>
      <trkpt lat="45.9925" lon="3.97435">
        <ele>400.05</ele>
        <time>2013-12-08T00:15:47Z</time>
      </trkpt>
      <trkpt lat="45.99248" lon="3.97435">
        <ele>400.05</ele>
        <time>2013-12-08T00:15:48Z</time>
      </trkpt>
      <trkpt lat="45.99239" lon="3.97433">
        <ele>400.05</ele>
        <time>2013-12-08T00:15:54Z</time>
      </trkpt>
      <trkpt lat="45.99215" lon="3.97423">
        <ele>400.53</ele>
        <time>2013-12-08T00:16:09Z</time>
      </trkpt>
      <trkpt lat="45.99194" lon="3.97413">
        <ele>401.01</ele>
        <time>2013-12-08T00:16:23Z</time>
      </trkpt>
      <trkpt lat="45.99169" lon="3.97401">
        <ele>401.49</ele>
        <time>2013-12-08T00:16:39Z</time>
      </trkpt>
      <trkpt lat="45.99147" lon="3.97388">
        <ele>401.97</ele>
        <time>2013-12-08T00:16:54Z</time>
      </trkpt>
      <trkpt lat="45.99126" lon="3.97375">
        <ele>402.45</ele>
        <time>2013-12-08T00:17:08Z</time>
      </trkpt>
      <trkpt lat="45.99104" lon="3.97364">
        <ele>402.45</ele>
        <time>2013-12-08T00:17:23Z</time>
      </trkpt>
      <trkpt lat="45.99085" lon="3.97354">
        <ele>403.41</ele>
        <time>2013-12-08T00:17:36Z</time>
      </trkpt>
      <trkpt lat="45.99062" lon="3.97338">
        <ele>403.41</ele>
        <time>2013-12-08T00:17:51Z</time>
      </trkpt>
      <trkpt lat="45.9904" lon="3.97326">
        <ele>403.89</ele>
        <time>2013-12-08T00:18:05Z</time>
      </trkpt>
      <trkpt lat="45.99018" lon="3.97315">
        <ele>404.37</ele>
        <time>2013-12-08T00:18:19Z</time>
      </trkpt>
      <trkpt lat="45.98995" lon="3.97299">
        <ele>404.37</ele>
        <time>2013-12-08T00:18:34Z</time>
      </trkpt>
      <trkpt lat="45.98974" lon="3.97282">
        <ele>404.37</ele>
        <time>2013-12-08T00:18:48Z</time>
      </trkpt>
      <trkpt lat="45.98973" lon="3.97281">
        <ele>403.89</ele>
        <time>2013-12-08T00:18:49Z</time>
      </trkpt>
      <trkpt lat="45.98967" lon="3.97276">
        <ele>403.89</ele>
        <time>2013-12-08T00:18:53Z</time>
      </trkpt>
      <trkpt lat="45.98961" lon="3.97272">
        <ele>403.89</ele>
        <time>2013-12-08T00:18:57Z</time>
      </trkpt>
      <trkpt lat="45.98955" lon="3.97267">
        <ele>403.89</ele>
        <time>2013-12-08T00:19:01Z</time>
      </trkpt>
      <trkpt lat="45.98934" lon="3.97252">
        <ele>403.89</ele>
        <time>2013-12-08T00:19:16Z</time>
      </trkpt>
      <trkpt lat="45.98915" lon="3.9724">
        <ele>403.41</ele>
        <time>2013-12-08T00:19:29Z</time>
      </trkpt>
      <trkpt lat="45.98892" lon="3.9723">
        <ele>402.93</ele>
        <time>2013-12-08T00:19:43Z</time>
      </trkpt>
      <trkpt lat="45.98871" lon="3.97219">
        <ele>402.93</ele>
        <time>2013-12-08T00:19:57Z</time>
      </trkpt>
      <trkpt lat="45.98851" lon="3.97209">
        <ele>402.93</ele>
        <time>2013-12-08T00:20:10Z</time>
      </trkpt>
      <trkpt lat="45.98831" lon="3.97193">
        <ele>402.45</ele>
        <time>2013-12-08T00:20:24Z</time>
      </trkpt>
      <trkpt lat="45.98815" lon="3.97175">
        <ele>402.45</ele>
        <time>2013-12-08T00:20:37Z</time>
      </trkpt>
      <trkpt lat="45.98798" lon="3.97155">
        <ele>402.45</ele>
        <time>2013-12-08T00:20:51Z</time>
      </trkpt>
      <trkpt lat="45.98779" lon="3.97132">
        <ele>402.45</ele>
        <time>2013-12-08T00:21:06Z</time>
      </trkpt>
      <trkpt lat="45.9876" lon="3.97115">
        <ele>402.93</ele>
        <time>2013-12-08T00:21:20Z</time>
      </trkpt>
      <trkpt lat="45.98739" lon="3.97098">
        <ele>402.93</ele>
        <time>2013-12-08T00:21:34Z</time>
      </trkpt>
      <trkpt lat="45.98723" lon="3.97083">
        <ele>402.93</ele>
        <time>2013-12-08T00:21:46Z</time>
      </trkpt>
      <trkpt lat="45.987" lon="3.97069">
        <ele>402.45</ele>
        <time>2013-12-08T00:22:02Z</time>
      </trkpt>
      <trkpt lat="45.98686" lon="3.97047">
        <ele>402.45</ele>
        <time>2013-12-08T00:22:15Z</time>
      </trkpt>
      <trkpt lat="45.98671" lon="3.97019">
        <ele>402.45</ele>
        <time>2013-12-08T00:22:30Z</time>
      </trkpt>
      <trkpt lat="45.98656" lon="3.96991">
        <ele>402.93</ele>
        <time>2013-12-08T00:22:45Z</time>
      </trkpt>
      <trkpt lat="45.98647" lon="3.96967">
        <ele>403.41</ele>
        <time>2013-12-08T00:22:57Z</time>
      </trkpt>
      <trkpt lat="45.98632" lon="3.96934">
        <ele>403.41</ele>
        <time>2013-12-08T00:23:13Z</time>
      </trkpt>
      <trkpt lat="45.98619" lon="3.96906">
        <ele>403.41</ele>
        <time>2013-12-08T00:23:27Z</time>
      </trkpt>
      <trkpt lat="45.9861" lon="3.96889">
        <ele>403.41</ele>
        <time>2013-12-08T00:23:36Z</time>
      </trkpt>
      <trkpt lat="45.98598" lon="3.96862">
        <ele>403.41</ele>
        <time>2013-12-08T00:23:50Z</time>
      </trkpt>
      <trkpt lat="45.98586" lon="3.96837">
        <ele>403.89</ele>
        <time>2013-12-08T00:24:02Z</time>
      </trkpt>
      <trkpt lat="45.98575" lon="3.96812">
        <ele>403.89</ele>
        <time>2013-12-08T00:24:15Z</time>
      </trkpt>
      <trkpt lat="45.98569" lon="3.96792">
        <ele>403.89</ele>
        <time>2013-12-08T00:24:24Z</time>
      </trkpt>
      <trkpt lat="45.98558" lon="3.96766">
        <ele>404.85</ele>
        <time>2013-12-08T00:24:37Z</time>
      </trkpt>
      <trkpt lat="45.98545" lon="3.96735">
        <ele>405.81</ele>
        <time>2013-12-08T00:24:51Z</time>
      </trkpt>
      <trkpt lat="45.98533" lon="3.96711">
        <ele>406.77</ele>
        <time>2013-12-08T00:25:05Z</time>
      </trkpt>
      <trkpt lat="45.98525" lon="3.96701">
        <ele>407.26</ele>
        <time>2013-12-08T00:25:12Z</time>
      </trkpt>
      <trkpt lat="45.9851" lon="3.9668">
        <ele>408.22</ele>
        <time>2013-12-08T00:25:27Z</time>
      </trkpt>
      <trkpt lat="45.98503" lon="3.96664">
        <ele>409.18</ele>
        <time>2013-12-08T00:25:36Z</time>
      </trkpt>
      <trkpt lat="45.98494" lon="3.96644">
        <ele>410.14</ele>
        <time>2013-12-08T00:25:46Z</time>
      </trkpt>
      <trkpt lat="45.98479" lon="3.96611">
        <ele>411.58</ele>
        <time>2013-12-08T00:26:01Z</time>
      </trkpt>
      <trkpt lat="45.98474" lon="3.96598">
        <ele>412.06</ele>
        <time>2013-12-08T00:26:06Z</time>
      </trkpt>
      <trkpt lat="45.98472" lon="3.96583">
        <ele>412.06</ele>
        <time>2013-12-08T00:26:10Z</time>
      </trkpt>
      <trkpt lat="45.9846" lon="3.96547">
        <ele>413.02</ele>
        <time>2013-12-08T00:26:25Z</time>
      </trkpt>
      <trkpt lat="45.9845" lon="3.96532">
        <ele>413.98</ele>
        <time>2013-12-08T00:26:34Z</time>
      </trkpt>
      <trkpt lat="45.98448" lon="3.96524">
        <ele>413.98</ele>
        <time>2013-12-08T00:26:38Z</time>
      </trkpt>
      <trkpt lat="45.98434" lon="3.96492">
        <ele>415.91</ele>
        <time>2013-12-08T00:26:53Z</time>
      </trkpt>
      <trkpt lat="45.98423" lon="3.96457">
        <ele>417.35</ele>
        <time>2013-12-08T00:27:08Z</time>
      </trkpt>
      <trkpt lat="45.98411" lon="3.96425">
        <ele>418.79</ele>
        <time>2013-12-08T00:27:23Z</time>
      </trkpt>
      <trkpt lat="45.98398" lon="3.96394">
        <ele>420.23</ele>
        <time>2013-12-08T00:27:38Z</time>
      </trkpt>
      <trkpt lat="45.98385" lon="3.96365">
        <ele>422.16</ele>
        <time>2013-12-08T00:27:54Z</time>
      </trkpt>
      <trkpt lat="45.98372" lon="3.96338">
        <ele>423.12</ele>
        <time>2013-12-08T00:28:08Z</time>
      </trkpt>
      <trkpt lat="45.98368" lon="3.96328">
        <ele>424.08</ele>
        <time>2013-12-08T00:28:13Z</time>
      </trkpt>
      <trkpt lat="45.98352" lon="3.96303">
        <ele>425.52</ele>
        <time>2013-12-08T00:28:27Z</time>
      </trkpt>
      <trkpt lat="45.98345" lon="3.96272">
        <ele>426.96</ele>
        <time>2013-12-08T00:28:42Z</time>
      </trkpt>
      <trkpt lat="45.98345" lon="3.96269">
        <ele>426.96</ele>
        <time>2013-12-08T00:28:43Z</time>
      </trkpt>
      <trkpt lat="45.98336" lon="3.96238">
        <ele>427.44</ele>
        <time>2013-12-08T00:28:57Z</time>
      </trkpt>
      <trkpt lat="45.98322" lon="3.96214">
        <ele>427.44</ele>
        <time>2013-12-08T00:29:10Z</time>
      </trkpt>
      <trkpt lat="45.98313" lon="3.96185">
        <ele>427.92</ele>
        <time>2013-12-08T00:29:22Z</time>
      </trkpt>
      <trkpt lat="45.98301" lon="3.96159">
        <ele>428.4</ele>
        <time>2013-12-08T00:29:35Z</time>
      </trkpt>
      <trkpt lat="45.98288" lon="3.96134">
        <ele>429.37</ele>
        <time>2013-12-08T00:29:49Z</time>
      </trkpt>
      <trkpt lat="45.98288" lon="3.96133">
        <ele>429.85</ele>
        <time>2013-12-08T00:29:50Z</time>
      </trkpt>
      <trkpt lat="45.9828" lon="3.96121">
        <ele>430.81</ele>
        <time>2013-12-08T00:29:58Z</time>
      </trkpt>
      <trkpt lat="45.98265" lon="3.96088">
        <ele>432.73</ele>
        <time>2013-12-08T00:30:16Z</time>
      </trkpt>
      <trkpt lat="45.98257" lon="3.96071">
        <ele>433.69</ele>
        <time>2013-12-08T00:30:26Z</time>
      </trkpt>
      <trkpt lat="45.98253" lon="3.96066">
        <ele>434.17</ele>
        <time>2013-12-08T00:30:30Z</time>
      </trkpt>
      <trkpt lat="45.98244" lon="3.96045">
        <ele>436.1</ele>
        <time>2013-12-08T00:30:42Z</time>
      </trkpt>
      <trkpt lat="45.98234" lon="3.9602">
        <ele>438.02</ele>
        <time>2013-12-08T00:30:57Z</time>
      </trkpt>
      <trkpt lat="45.98224" lon="3.95994">
        <ele>440.42</ele>
        <time>2013-12-08T00:31:11Z</time>
      </trkpt>
      <trkpt lat="45.98211" lon="3.95968">
        <ele>443.31</ele>
        <time>2013-12-08T00:31:26Z</time>
      </trkpt>
      <trkpt lat="45.98197" lon="3.9594">
        <ele>446.19</ele>
        <time>2013-12-08T00:31:43Z</time>
      </trkpt>
      <trkpt lat="45.98187" lon="3.95915">
        <ele>449.55</ele>
        <time>2013-12-08T00:31:58Z</time>
      </trkpt>
      <trkpt lat="45.98176" lon="3.95892">
        <ele>451.48</ele>
        <time>2013-12-08T00:32:12Z</time>
      </trkpt>
      <trkpt lat="45.98169" lon="3.95873">
        <ele>453.88</ele>
        <time>2013-12-08T00:32:22Z</time>
      </trkpt>
      <trkpt lat="45.98164" lon="3.95864">
        <ele>454.36</ele>
        <time>2013-12-08T00:32:27Z</time>
      </trkpt>
      <trkpt lat="45.98157" lon="3.95846">
        <ele>456.28</ele>
        <time>2013-12-08T00:32:37Z</time>
      </trkpt>
      <trkpt lat="45.98148" lon="3.95823">
        <ele>458.21</ele>
        <time>2013-12-08T00:32:49Z</time>
      </trkpt>
      <trkpt lat="45.98135" lon="3.95793">
        <ele>460.61</ele>
        <time>2013-12-08T00:33:05Z</time>
      </trkpt>
      <trkpt lat="45.98123" lon="3.95765">
        <ele>463.01</ele>
        <time>2013-12-08T00:33:20Z</time>
      </trkpt>
      <trkpt lat="45.98111" lon="3.95737">
        <ele>464.93</ele>
        <time>2013-12-08T00:33:35Z</time>
      </trkpt>
      <trkpt lat="45.98098" lon="3.95711">
        <ele>467.34</ele>
        <time>2013-12-08T00:33:51Z</time>
      </trkpt>
      <trkpt lat="45.98088" lon="3.95686">
        <ele>469.26</ele>
        <time>2013-12-08T00:34:05Z</time>
      </trkpt>
      <trkpt lat="45.98073" lon="3.95654">
        <ele>471.66</ele>
        <time>2013-12-08T00:34:22Z</time>
      </trkpt>
      <trkpt lat="45.98059" lon="3.95619">
        <ele>475.03</ele>
        <time>2013-12-08T00:34:41Z</time>
      </trkpt>
      <trkpt lat="45.98045" lon="3.95589">
        <ele>477.91</ele>
        <time>2013-12-08T00:34:58Z</time>
      </trkpt>
      <trkpt lat="45.98032" lon="3.95557">
        <ele>480.32</ele>
        <time>2013-12-08T00:35:15Z</time>
      </trkpt>
      <trkpt lat="45.98019" lon="3.9553">
        <ele>482.72</ele>
        <time>2013-12-08T00:35:30Z</time>
      </trkpt>
      <trkpt lat="45.98015" lon="3.95516">
        <ele>483.68</ele>
        <time>2013-12-08T00:35:37Z</time>
      </trkpt>
      <trkpt lat="45.98005" lon="3.95492">
        <ele>486.08</ele>
        <time>2013-12-08T00:35:51Z</time>
      </trkpt>
      <trkpt lat="45.97999" lon="3.95479">
        <ele>486.56</ele>
        <time>2013-12-08T00:35:58Z</time>
      </trkpt>
      <trkpt lat="45.97991" lon="3.95456">
        <ele>488.49</ele>
        <time>2013-12-08T00:36:10Z</time>
      </trkpt>
      <trkpt lat="45.97988" lon="3.9545">
        <ele>488.97</ele>
        <time>2013-12-08T00:36:14Z</time>
      </trkpt>
      <trkpt lat="45.97976" lon="3.95426">
        <ele>490.41</ele>
        <time>2013-12-08T00:36:29Z</time>
      </trkpt>
      <trkpt lat="45.97966" lon="3.95408">
        <ele>491.85</ele>
        <time>2013-12-08T00:36:39Z</time>
      </trkpt>
      <trkpt lat="45.97962" lon="3.95398">
        <ele>492.81</ele>
        <time>2013-12-08T00:36:44Z</time>
      </trkpt>
      <trkpt lat="45.97949" lon="3.95363">
        <ele>495.22</ele>
        <time>2013-12-08T00:37:01Z</time>
      </trkpt>
      <trkpt lat="45.97938" lon="3.95337">
        <ele>497.62</ele>
        <time>2013-12-08T00:37:15Z</time>
      </trkpt>
      <trkpt lat="45.97937" lon="3.95334">
        <ele>498.1</ele>
        <time>2013-12-08T00:37:17Z</time>
      </trkpt>
      <trkpt lat="45.97932" lon="3.95326">
        <ele>499.06</ele>
        <time>2013-12-08T00:37:22Z</time>
      </trkpt>
      <trkpt lat="45.97918" lon="3.95301">
        <ele>501.46</ele>
        <time>2013-12-08T00:37:37Z</time>
      </trkpt>
      <trkpt lat="45.97915" lon="3.95294">
        <ele>501.95</ele>
        <time>2013-12-08T00:37:40Z</time>
      </trkpt>
      <trkpt lat="45.97907" lon="3.95263">
        <ele>504.35</ele>
        <time>2013-12-08T00:37:55Z</time>
      </trkpt>
      <trkpt lat="45.97908" lon="3.9525">
        <ele>504.83</ele>
        <time>2013-12-08T00:38:02Z</time>
      </trkpt>
      <trkpt lat="45.97926" lon="3.95251">
        <ele>505.79</ele>
        <time>2013-12-08T00:38:15Z</time>
      </trkpt>
      <trkpt lat="45.97946" lon="3.95261">
        <ele>506.27</ele>
        <time>2013-12-08T00:38:28Z</time>
      </trkpt>
      <trkpt lat="45.97965" lon="3.9526">
        <ele>507.23</ele>
        <time>2013-12-08T00:38:39Z</time>
      </trkpt>
      <trkpt lat="45.9798" lon="3.95256">
        <ele>507.71</ele>
        <time>2013-12-08T00:38:47Z</time>
      </trkpt>
      <trkpt lat="45.97991" lon="3.95247">
        <ele>508.67</ele>
        <time>2013-12-08T00:38:56Z</time>
      </trkpt>
      <trkpt lat="45.97998" lon="3.9523">
        <ele>511.08</ele>
        <time>2013-12-08T00:39:06Z</time>
      </trkpt>
      <trkpt lat="45.98002" lon="3.95223">
        <ele>511.56</ele>
        <time>2013-12-08T00:39:10Z</time>
      </trkpt>
      <trkpt lat="45.98011" lon="3.95195">
        <ele>514.44</ele>
        <time>2013-12-08T00:39:26Z</time>
      </trkpt>
      <trkpt lat="45.98017" lon="3.95186">
        <ele>514.44</ele>
        <time>2013-12-08T00:39:34Z</time>
      </trkpt>
      <trkpt lat="45.98023" lon="3.95174">
        <ele>514.44</ele>
        <time>2013-12-08T00:39:50Z</time>
      </trkpt>
      <trkpt lat="45.98028" lon="3.95171">
        <ele>514.44</ele>
        <time>2013-12-08T00:40:07Z</time>
      </trkpt>
      <trkpt lat="45.9803" lon="3.95169">
        <ele>514.44</ele>
        <time>2013-12-08T00:40:28Z</time>
      </trkpt>
      <trkpt lat="45.98031" lon="3.95171">
        <ele>514.44</ele>
        <time>2013-12-08T00:40:44Z</time>
      </trkpt>
      <trkpt lat="45.98032" lon="3.95172">
        <ele>513.96</ele>
        <time>2013-12-08T00:40:58Z</time>
      </trkpt>
      <trkpt lat="45.98031" lon="3.95173">
        <ele>513.96</ele>
        <time>2013-12-08T00:41:17Z</time>
      </trkpt>
      <trkpt lat="45.98036" lon="3.95169">
        <ele>513.96</ele>
        <time>2013-12-08T00:41:33Z</time>
      </trkpt>
      <trkpt lat="45.98039" lon="3.9517">
        <ele>513.48</ele>
        <time>2013-12-08T00:41:48Z</time>
      </trkpt>
      <trkpt lat="45.98039" lon="3.95171">
        <ele>513.48</ele>
        <time>2013-12-08T00:42:09Z</time>
      </trkpt>
      <trkpt lat="45.98039" lon="3.95171">
        <ele>513.48</ele>
        <time>2013-12-08T00:42:25Z</time>
      </trkpt>
      <trkpt lat="45.9804" lon="3.95173">
        <ele>513.48</ele>
        <time>2013-12-08T00:42:48Z</time>
      </trkpt>
      <trkpt lat="45.98047" lon="3.95179">
        <ele>513</ele>
        <time>2013-12-08T00:43:00Z</time>
      </trkpt>
      <trkpt lat="45.98051" lon="3.95188">
        <ele>513</ele>
        <time>2013-12-08T00:43:15Z</time>
      </trkpt>
      <trkpt lat="45.98054" lon="3.95191">
        <ele>513</ele>
        <time>2013-12-08T00:43:19Z</time>
      </trkpt>
      <trkpt lat="45.98056" lon="3.95196">
        <ele>513</ele>
        <time>2013-12-08T00:43:33Z</time>
      </trkpt>
      <trkpt lat="45.98056" lon="3.95194">
        <ele>512.52</ele>
        <time>2013-12-08T00:43:57Z</time>
      </trkpt>
      <trkpt lat="45.98055" lon="3.95191">
        <ele>513</ele>
        <time>2013-12-08T00:44:10Z</time>
      </trkpt>
      <trkpt lat="45.98056" lon="3.95178">
        <ele>512.52</ele>
        <time>2013-12-08T00:44:21Z</time>
      </trkpt>
      <trkpt lat="45.9805" lon="3.95149">
        <ele>513.96</ele>
        <time>2013-12-08T00:44:32Z</time>
      </trkpt>
      <trkpt lat="45.98044" lon="3.9514">
        <ele>514.44</ele>
        <time>2013-12-08T00:44:35Z</time>
      </trkpt>
      <trkpt lat="45.98031" lon="3.9511">
        <ele>516.37</ele>
        <time>2013-12-08T00:44:45Z</time>
      </trkpt>
      <trkpt lat="45.98016" lon="3.95075">
        <ele>519.25</ele>
        <time>2013-12-08T00:44:57Z</time>
      </trkpt>
      <trkpt lat="45.9801" lon="3.95055">
        <ele>520.69</ele>
        <time>2013-12-08T00:45:03Z</time>
      </trkpt>
      <trkpt lat="45.97997" lon="3.9502">
        <ele>523.09</ele>
        <time>2013-12-08T00:45:14Z</time>
      </trkpt>
      <trkpt lat="45.97993" lon="3.95005">
        <ele>524.54</ele>
        <time>2013-12-08T00:45:18Z</time>
      </trkpt>
      <trkpt lat="45.9798" lon="3.94972">
        <ele>526.94</ele>
        <time>2013-12-08T00:45:29Z</time>
      </trkpt>
      <trkpt lat="45.97966" lon="3.94941">
        <ele>528.38</ele>
        <time>2013-12-08T00:45:40Z</time>
      </trkpt>
      <trkpt lat="45.97948" lon="3.9492">
        <ele>530.3</ele>
        <time>2013-12-08T00:45:51Z</time>
      </trkpt>
      <trkpt lat="45.97924" lon="3.9491">
        <ele>532.23</ele>
        <time>2013-12-08T00:46:09Z</time>
      </trkpt>
      <trkpt lat="45.97904" lon="3.94908">
        <ele>533.67</ele>
        <time>2013-12-08T00:46:23Z</time>
      </trkpt>
      <trkpt lat="45.97889" lon="3.94904">
        <ele>534.63</ele>
        <time>2013-12-08T00:46:34Z</time>
      </trkpt>
      <trkpt lat="45.97874" lon="3.94883">
        <ele>536.07</ele>
        <time>2013-12-08T00:46:50Z</time>
      </trkpt>
      <trkpt lat="45.97867" lon="3.94877">
        <ele>536.55</ele>
        <time>2013-12-08T00:46:54Z</time>
      </trkpt>
      <trkpt lat="45.97846" lon="3.94842">
        <ele>537.03</ele>
        <time>2013-12-08T00:47:13Z</time>
      </trkpt>
      <trkpt lat="45.97835" lon="3.94815">
        <ele>537.03</ele>
        <time>2013-12-08T00:47:27Z</time>
      </trkpt>
      <trkpt lat="45.97818" lon="3.94788">
        <ele>537.03</ele>
        <time>2013-12-08T00:47:41Z</time>
      </trkpt>
      <trkpt lat="45.97807" lon="3.94765">
        <ele>537.51</ele>
        <time>2013-12-08T00:47:53Z</time>
      </trkpt>
      <trkpt lat="45.97803" lon="3.94759">
        <ele>537.51</ele>
        <time>2013-12-08T00:47:56Z</time>
      </trkpt>
      <trkpt lat="45.97796" lon="3.94745">
        <ele>537.99</ele>
        <time>2013-12-08T00:48:04Z</time>
      </trkpt>
      <trkpt lat="45.9778" lon="3.94716">
        <ele>538.48</ele>
        <time>2013-12-08T00:48:20Z</time>
      </trkpt>
      <trkpt lat="45.97766" lon="3.94687">
        <ele>538.96</ele>
        <time>2013-12-08T00:48:33Z</time>
      </trkpt>
      <trkpt lat="45.97753" lon="3.94656">
        <ele>538.96</ele>
        <time>2013-12-08T00:48:47Z</time>
      </trkpt>
      <trkpt lat="45.97744" lon="3.94623">
        <ele>539.44</ele>
        <time>2013-12-08T00:49:02Z</time>
      </trkpt>
      <trkpt lat="45.97757" lon="3.94598">
        <ele>540.88</ele>
        <time>2013-12-08T00:49:15Z</time>
      </trkpt>
      <trkpt lat="45.97771" lon="3.9459">
        <ele>542.32</ele>
        <time>2013-12-08T00:49:25Z</time>
      </trkpt>
      <trkpt lat="45.97791" lon="3.94581">
        <ele>545.2</ele>
        <time>2013-12-08T00:49:40Z</time>
      </trkpt>
      <trkpt lat="45.97809" lon="3.94569">
        <ele>548.09</ele>
        <time>2013-12-08T00:49:53Z</time>
      </trkpt>
      <trkpt lat="45.97826" lon="3.9455">
        <ele>550.97</ele>
        <time>2013-12-08T00:50:08Z</time>
      </trkpt>
      <trkpt lat="45.97837" lon="3.94517">
        <ele>554.34</ele>
        <time>2013-12-08T00:50:25Z</time>
      </trkpt>
      <trkpt lat="45.97844" lon="3.94484">
        <ele>557.22</ele>
        <time>2013-12-08T00:50:41Z</time>
      </trkpt>
      <trkpt lat="45.97848" lon="3.94449">
        <ele>560.11</ele>
        <time>2013-12-08T00:50:57Z</time>
      </trkpt>
      <trkpt lat="45.97849" lon="3.94439">
        <ele>560.11</ele>
        <time>2013-12-08T00:51:02Z</time>
      </trkpt>
      <trkpt lat="45.97846" lon="3.94416">
        <ele>561.07</ele>
        <time>2013-12-08T00:51:13Z</time>
      </trkpt>
      <trkpt lat="45.97844" lon="3.94408">
        <ele>561.55</ele>
        <time>2013-12-08T00:51:17Z</time>
      </trkpt>
      <trkpt lat="45.97834" lon="3.94374">
        <ele>562.99</ele>
        <time>2013-12-08T00:51:33Z</time>
      </trkpt>
      <trkpt lat="45.97828" lon="3.94337">
        <ele>564.43</ele>
        <time>2013-12-08T00:51:48Z</time>
      </trkpt>
      <trkpt lat="45.97822" lon="3.94302">
        <ele>565.87</ele>
        <time>2013-12-08T00:52:03Z</time>
      </trkpt>
      <trkpt lat="45.97819" lon="3.94267">
        <ele>568.28</ele>
        <time>2013-12-08T00:52:20Z</time>
      </trkpt>
      <trkpt lat="45.97819" lon="3.94254">
        <ele>570.68</ele>
        <time>2013-12-08T00:52:27Z</time>
      </trkpt>
      <trkpt lat="45.9782" lon="3.94249">
        <ele>575.01</ele>
        <time>2013-12-08T00:52:29Z</time>
      </trkpt>
      <trkpt lat="45.97819" lon="3.94247">
        <ele>570.68</ele>
        <time>2013-12-08T00:52:30Z</time>
      </trkpt>
      <trkpt lat="45.9782" lon="3.94228">
        <ele>574.53</ele>
        <time>2013-12-08T00:52:39Z</time>
      </trkpt>
      <trkpt lat="45.97819" lon="3.9422">
        <ele>572.6</ele>
        <time>2013-12-08T00:52:43Z</time>
      </trkpt>
      <trkpt lat="45.97819" lon="3.94214">
        <ele>573.08</ele>
        <time>2013-12-08T00:52:48Z</time>
      </trkpt>
      <trkpt lat="45.97824" lon="3.94191">
        <ele>575.01</ele>
        <time>2013-12-08T00:53:00Z</time>
      </trkpt>
      <trkpt lat="45.97824" lon="3.94171">
        <ele>575.49</ele>
        <time>2013-12-08T00:53:09Z</time>
      </trkpt>
      <trkpt lat="45.97821" lon="3.94155">
        <ele>575.97</ele>
        <time>2013-12-08T00:53:16Z</time>
      </trkpt>
      <trkpt lat="45.97821" lon="3.94145">
        <ele>575.97</ele>
        <time>2013-12-08T00:53:20Z</time>
      </trkpt>
      <trkpt lat="45.97819" lon="3.94133">
        <ele>577.41</ele>
        <time>2013-12-08T00:53:25Z</time>
      </trkpt>
      <trkpt lat="45.9782" lon="3.94115">
        <ele>578.37</ele>
        <time>2013-12-08T00:53:33Z</time>
      </trkpt>
      <trkpt lat="45.97821" lon="3.9409">
        <ele>579.33</ele>
        <time>2013-12-08T00:53:45Z</time>
      </trkpt>
      <trkpt lat="45.97817" lon="3.94071">
        <ele>580.29</ele>
        <time>2013-12-08T00:53:55Z</time>
      </trkpt>
      <trkpt lat="45.97814" lon="3.94043">
        <ele>581.25</ele>
        <time>2013-12-08T00:54:07Z</time>
      </trkpt>
      <trkpt lat="45.97813" lon="3.94035">
        <ele>582.22</ele>
        <time>2013-12-08T00:54:11Z</time>
      </trkpt>
      <trkpt lat="45.97814" lon="3.94022">
        <ele>582.7</ele>
        <time>2013-12-08T00:54:18Z</time>
      </trkpt>
      <trkpt lat="45.97804" lon="3.93997">
        <ele>584.62</ele>
        <time>2013-12-08T00:54:31Z</time>
      </trkpt>
      <trkpt lat="45.97798" lon="3.9397">
        <ele>586.54</ele>
        <time>2013-12-08T00:54:44Z</time>
      </trkpt>
      <trkpt lat="45.97793" lon="3.93955">
        <ele>587.5</ele>
        <time>2013-12-08T00:54:51Z</time>
      </trkpt>
      <trkpt lat="45.97792" lon="3.93949">
        <ele>587.98</ele>
        <time>2013-12-08T00:54:54Z</time>
      </trkpt>
      <trkpt lat="45.97789" lon="3.93939">
        <ele>588.46</ele>
        <time>2013-12-08T00:54:59Z</time>
      </trkpt>
      <trkpt lat="45.97786" lon="3.93931">
        <ele>589.43</ele>
        <time>2013-12-08T00:55:03Z</time>
      </trkpt>
      <trkpt lat="45.97783" lon="3.93923">
        <ele>589.91</ele>
        <time>2013-12-08T00:55:08Z</time>
      </trkpt>
      <trkpt lat="45.97768" lon="3.93889">
        <ele>592.79</ele>
        <time>2013-12-08T00:55:26Z</time>
      </trkpt>
      <trkpt lat="45.97762" lon="3.93877">
        <ele>594.23</ele>
        <time>2013-12-08T00:55:34Z</time>
      </trkpt>
      <trkpt lat="45.97751" lon="3.93851">
        <ele>596.64</ele>
        <time>2013-12-08T00:55:50Z</time>
      </trkpt>
      <trkpt lat="45.97748" lon="3.93843">
        <ele>597.12</ele>
        <time>2013-12-08T00:55:54Z</time>
      </trkpt>
      <trkpt lat="45.97742" lon="3.93831">
        <ele>598.08</ele>
        <time>2013-12-08T00:55:59Z</time>
      </trkpt>
      <trkpt lat="45.97734" lon="3.93804">
        <ele>600</ele>
        <time>2013-12-08T00:56:14Z</time>
      </trkpt>
      <trkpt lat="45.97722" lon="3.93777">
        <ele>602.4</ele>
        <time>2013-12-08T00:56:28Z</time>
      </trkpt>
      <trkpt lat="45.9772" lon="3.93768">
        <ele>602.88</ele>
        <time>2013-12-08T00:56:32Z</time>
      </trkpt>
      <trkpt lat="45.97709" lon="3.93743">
        <ele>605.29</ele>
        <time>2013-12-08T00:56:46Z</time>
      </trkpt>
      <trkpt lat="45.97705" lon="3.93725">
        <ele>607.69</ele>
        <time>2013-12-08T00:56:58Z</time>
      </trkpt>
      <trkpt lat="45.97705" lon="3.93718">
        <ele>608.65</ele>
        <time>2013-12-08T00:57:02Z</time>
      </trkpt>
      <trkpt lat="45.97703" lon="3.93708">
        <ele>609.13</ele>
        <time>2013-12-08T00:57:07Z</time>
      </trkpt>
      <trkpt lat="45.97693" lon="3.9368">
        <ele>612.02</ele>
        <time>2013-12-08T00:57:21Z</time>
      </trkpt>
      <trkpt lat="45.97689" lon="3.93672">
        <ele>612.98</ele>
        <time>2013-12-08T00:57:28Z</time>
      </trkpt>
      <trkpt lat="45.97684" lon="3.93645">
        <ele>616.34</ele>
        <time>2013-12-08T00:57:44Z</time>
      </trkpt>
      <trkpt lat="45.97674" lon="3.93626">
        <ele>619.23</ele>
        <time>2013-12-08T00:57:57Z</time>
      </trkpt>
      <trkpt lat="45.97659" lon="3.93595">
        <ele>622.11</ele>
        <time>2013-12-08T00:58:11Z</time>
      </trkpt>
      <trkpt lat="45.97645" lon="3.9357">
        <ele>624.99</ele>
        <time>2013-12-08T00:58:23Z</time>
      </trkpt>
      <trkpt lat="45.97642" lon="3.93566">
        <ele>625.96</ele>
        <time>2013-12-08T00:58:26Z</time>
      </trkpt>
      <trkpt lat="45.97631" lon="3.93544">
        <ele>628.36</ele>
        <time>2013-12-08T00:58:40Z</time>
      </trkpt>
      <trkpt lat="45.97627" lon="3.93524">
        <ele>631.72</ele>
        <time>2013-12-08T00:58:54Z</time>
      </trkpt>
      <trkpt lat="45.97621" lon="3.93502">
        <ele>635.09</ele>
        <time>2013-12-08T00:59:08Z</time>
      </trkpt>
      <trkpt lat="45.97613" lon="3.9348">
        <ele>637.49</ele>
        <time>2013-12-08T00:59:21Z</time>
      </trkpt>
      <trkpt lat="45.97603" lon="3.93465">
        <ele>640.38</ele>
        <time>2013-12-08T00:59:34Z</time>
      </trkpt>
      <trkpt lat="45.97599" lon="3.93459">
        <ele>641.34</ele>
        <time>2013-12-08T00:59:37Z</time>
      </trkpt>
      <trkpt lat="45.97584" lon="3.93436">
        <ele>643.26</ele>
        <time>2013-12-08T00:59:46Z</time>
      </trkpt>
      <trkpt lat="45.9757" lon="3.9341">
        <ele>645.66</ele>
        <time>2013-12-08T01:00:01Z</time>
      </trkpt>
      <trkpt lat="45.97563" lon="3.93404">
        <ele>647.1</ele>
        <time>2013-12-08T01:00:09Z</time>
      </trkpt>
      <trkpt lat="45.97561" lon="3.93402">
        <ele>647.59</ele>
        <time>2013-12-08T01:00:11Z</time>
      </trkpt>
      <trkpt lat="45.97546" lon="3.93385">
        <ele>650.47</ele>
        <time>2013-12-08T01:00:25Z</time>
      </trkpt>
      <trkpt lat="45.97541" lon="3.93378">
        <ele>651.43</ele>
        <time>2013-12-08T01:00:30Z</time>
      </trkpt>
      <trkpt lat="45.97538" lon="3.93373">
        <ele>651.91</ele>
        <time>2013-12-08T01:00:33Z</time>
      </trkpt>
      <trkpt lat="45.97524" lon="3.93352">
        <ele>655.28</ele>
        <time>2013-12-08T01:00:50Z</time>
      </trkpt>
      <trkpt lat="45.97522" lon="3.93349">
        <ele>655.76</ele>
        <time>2013-12-08T01:00:53Z</time>
      </trkpt>
      <trkpt lat="45.9751" lon="3.93338">
        <ele>657.68</ele>
        <time>2013-12-08T01:01:04Z</time>
      </trkpt>
      <trkpt lat="45.97501" lon="3.93322">
        <ele>660.08</ele>
        <time>2013-12-08T01:01:16Z</time>
      </trkpt>
      <trkpt lat="45.97482" lon="3.93302">
        <ele>662.97</ele>
        <time>2013-12-08T01:01:35Z</time>
      </trkpt>
      <trkpt lat="45.97472" lon="3.93294">
        <ele>666.33</ele>
        <time>2013-12-08T01:01:50Z</time>
      </trkpt>
      <trkpt lat="45.97464" lon="3.93286">
        <ele>668.73</ele>
        <time>2013-12-08T01:02:04Z</time>
      </trkpt>
      <trkpt lat="45.97453" lon="3.93276">
        <ele>671.62</ele>
        <time>2013-12-08T01:02:18Z</time>
      </trkpt>
      <trkpt lat="45.97414" lon="3.93241">
        <ele>674.98</ele>
        <time>2013-12-08T01:02:34Z</time>
      </trkpt>
      <trkpt lat="45.97413" lon="3.9324">
        <ele>675.46</ele>
        <time>2013-12-08T01:02:36Z</time>
      </trkpt>
      <trkpt lat="45.97395" lon="3.93228">
        <ele>678.35</ele>
        <time>2013-12-08T01:02:52Z</time>
      </trkpt>
      <trkpt lat="45.97378" lon="3.93214">
        <ele>681.23</ele>
        <time>2013-12-08T01:03:07Z</time>
      </trkpt>
      <trkpt lat="45.97355" lon="3.93201">
        <ele>681.71</ele>
        <time>2013-12-08T01:03:18Z</time>
      </trkpt>
      <trkpt lat="45.97348" lon="3.93197">
        <ele>684.6</ele>
        <time>2013-12-08T01:03:21Z</time>
      </trkpt>
      <trkpt lat="45.97325" lon="3.93177">
        <ele>687</ele>
        <time>2013-12-08T01:03:34Z</time>
      </trkpt>
      <trkpt lat="45.97318" lon="3.93171">
        <ele>687.96</ele>
        <time>2013-12-08T01:03:41Z</time>
      </trkpt>
      <trkpt lat="45.973" lon="3.93161">
        <ele>691.33</ele>
        <time>2013-12-08T01:03:56Z</time>
      </trkpt>
      <trkpt lat="45.97292" lon="3.93148">
        <ele>694.21</ele>
        <time>2013-12-08T01:04:10Z</time>
      </trkpt>
      <trkpt lat="45.97279" lon="3.9313">
        <ele>697.09</ele>
        <time>2013-12-08T01:04:23Z</time>
      </trkpt>
      <trkpt lat="45.97268" lon="3.93118">
        <ele>699.98</ele>
        <time>2013-12-08T01:04:37Z</time>
      </trkpt>
      <trkpt lat="45.97266" lon="3.93116">
        <ele>700.46</ele>
        <time>2013-12-08T01:04:40Z</time>
      </trkpt>
      <trkpt lat="45.97257" lon="3.93102">
        <ele>702.86</ele>
        <time>2013-12-08T01:04:53Z</time>
      </trkpt>
      <trkpt lat="45.97248" lon="3.9309">
        <ele>706.23</ele>
        <time>2013-12-08T01:05:06Z</time>
      </trkpt>
      <trkpt lat="45.97234" lon="3.93078">
        <ele>709.59</ele>
        <time>2013-12-08T01:05:21Z</time>
      </trkpt>
      <trkpt lat="45.97231" lon="3.93075">
        <ele>710.07</ele>
        <time>2013-12-08T01:05:23Z</time>
      </trkpt>
      <trkpt lat="45.97219" lon="3.93057">
        <ele>713.44</ele>
        <time>2013-12-08T01:05:37Z</time>
      </trkpt>
      <trkpt lat="45.97213" lon="3.93049">
        <ele>714.88</ele>
        <time>2013-12-08T01:05:45Z</time>
      </trkpt>
      <trkpt lat="45.97197" lon="3.93029">
        <ele>718.24</ele>
        <time>2013-12-08T01:05:59Z</time>
      </trkpt>
      <trkpt lat="45.97179" lon="3.93007">
        <ele>721.13</ele>
        <time>2013-12-08T01:06:13Z</time>
      </trkpt>
      <trkpt lat="45.97162" lon="3.92987">
        <ele>723.53</ele>
        <time>2013-12-08T01:06:26Z</time>
      </trkpt>
      <trkpt lat="45.97155" lon="3.92982">
        <ele>724.49</ele>
        <time>2013-12-08T01:06:31Z</time>
      </trkpt>
      <trkpt lat="45.97137" lon="3.92968">
        <ele>727.37</ele>
        <time>2013-12-08T01:06:46Z</time>
      </trkpt>
      <trkpt lat="45.97135" lon="3.92963">
        <ele>728.34</ele>
        <time>2013-12-08T01:06:50Z</time>
      </trkpt>
      <trkpt lat="45.97132" lon="3.92954">
        <ele>729.3</ele>
        <time>2013-12-08T01:06:56Z</time>
      </trkpt>
      <trkpt lat="45.97125" lon="3.92936">
        <ele>731.7</ele>
        <time>2013-12-08T01:07:08Z</time>
      </trkpt>
      <trkpt lat="45.97116" lon="3.92914">
        <ele>734.1</ele>
        <time>2013-12-08T01:07:21Z</time>
      </trkpt>
      <trkpt lat="45.97114" lon="3.92908">
        <ele>734.58</ele>
        <time>2013-12-08T01:07:23Z</time>
      </trkpt>
      <trkpt lat="45.97108" lon="3.92892">
        <ele>736.03</ele>
        <time>2013-12-08T01:07:30Z</time>
      </trkpt>
      <trkpt lat="45.97107" lon="3.92882">
        <ele>736.99</ele>
        <time>2013-12-08T01:07:35Z</time>
      </trkpt>
      <trkpt lat="45.97105" lon="3.92872">
        <ele>737.95</ele>
        <time>2013-12-08T01:07:39Z</time>
      </trkpt>
      <trkpt lat="45.97109" lon="3.92831">
        <ele>739.39</ele>
        <time>2013-12-08T01:07:55Z</time>
      </trkpt>
      <trkpt lat="45.97117" lon="3.92808">
        <ele>740.35</ele>
        <time>2013-12-08T01:08:09Z</time>
      </trkpt>
      <trkpt lat="45.97121" lon="3.92795">
        <ele>742.28</ele>
        <time>2013-12-08T01:08:19Z</time>
      </trkpt>
      <trkpt lat="45.97139" lon="3.92779">
        <ele>745.16</ele>
        <time>2013-12-08T01:08:35Z</time>
      </trkpt>
      <trkpt lat="45.97155" lon="3.92764">
        <ele>748.52</ele>
        <time>2013-12-08T01:08:51Z</time>
      </trkpt>
      <trkpt lat="45.97176" lon="3.92748">
        <ele>750.93</ele>
        <time>2013-12-08T01:09:06Z</time>
      </trkpt>
      <trkpt lat="45.97195" lon="3.9273">
        <ele>753.33</ele>
        <time>2013-12-08T01:09:21Z</time>
      </trkpt>
      <trkpt lat="45.97201" lon="3.92722">
        <ele>754.29</ele>
        <time>2013-12-08T01:09:26Z</time>
      </trkpt>
      <trkpt lat="45.97218" lon="3.927">
        <ele>757.18</ele>
        <time>2013-12-08T01:09:43Z</time>
      </trkpt>
      <trkpt lat="45.97227" lon="3.92684">
        <ele>759.1</ele>
        <time>2013-12-08T01:09:56Z</time>
      </trkpt>
      <trkpt lat="45.97234" lon="3.92656">
        <ele>761.5</ele>
        <time>2013-12-08T01:10:11Z</time>
      </trkpt>
      <trkpt lat="45.97238" lon="3.92634">
        <ele>763.42</ele>
        <time>2013-12-08T01:10:23Z</time>
      </trkpt>
      <trkpt lat="45.97242" lon="3.92607">
        <ele>765.35</ele>
        <time>2013-12-08T01:10:38Z</time>
      </trkpt>
      <trkpt lat="45.97246" lon="3.92583">
        <ele>766.79</ele>
        <time>2013-12-08T01:10:51Z</time>
      </trkpt>
      <trkpt lat="45.9725" lon="3.92557">
        <ele>768.23</ele>
        <time>2013-12-08T01:11:05Z</time>
      </trkpt>
      <trkpt lat="45.97255" lon="3.92528">
        <ele>770.15</ele>
        <time>2013-12-08T01:11:20Z</time>
      </trkpt>
      <trkpt lat="45.97259" lon="3.92499">
        <ele>772.56</ele>
        <time>2013-12-08T01:11:35Z</time>
      </trkpt>
      <trkpt lat="45.97263" lon="3.92473">
        <ele>774.48</ele>
        <time>2013-12-08T01:11:49Z</time>
      </trkpt>
      <trkpt lat="45.97265" lon="3.92444">
        <ele>774.48</ele>
        <time>2013-12-08T01:12:05Z</time>
      </trkpt>
      <trkpt lat="45.97266" lon="3.92442">
        <ele>774.48</ele>
        <time>2013-12-08T01:12:20Z</time>
      </trkpt>
      <trkpt lat="45.97266" lon="3.92445">
        <ele>774.48</ele>
        <time>2013-12-08T01:12:30Z</time>
      </trkpt>
      <trkpt lat="45.97266" lon="3.92444">
        <ele>774.48</ele>
        <time>2013-12-08T01:12:46Z</time>
      </trkpt>
      <trkpt lat="45.97267" lon="3.92435">
        <ele>774.48</ele>
        <time>2013-12-08T01:12:59Z</time>
      </trkpt>
      <trkpt lat="45.97265" lon="3.92426">
        <ele>774.48</ele>
        <time>2013-12-08T01:13:11Z</time>
      </trkpt>
      <trkpt lat="45.97265" lon="3.92417">
        <ele>774.48</ele>
        <time>2013-12-08T01:13:22Z</time>
      </trkpt>
      <trkpt lat="45.97265" lon="3.92408">
        <ele>774.48</ele>
        <time>2013-12-08T01:13:34Z</time>
      </trkpt>
      <trkpt lat="45.97265" lon="3.92402">
        <ele>774.48</ele>
        <time>2013-12-08T01:13:47Z</time>
      </trkpt>
      <trkpt lat="45.97266" lon="3.92402">
        <ele>774.48</ele>
        <time>2013-12-08T01:13:59Z</time>
      </trkpt>
      <trkpt lat="45.97264" lon="3.92406">
        <ele>774</ele>
        <time>2013-12-08T01:14:14Z</time>
      </trkpt>
      <trkpt lat="45.97258" lon="3.924">
        <ele>774</ele>
        <time>2013-12-08T01:14:27Z</time>
      </trkpt>
      <trkpt lat="45.97257" lon="3.924">
        <ele>774</ele>
        <time>2013-12-08T01:14:42Z</time>
      </trkpt>
      <trkpt lat="45.97258" lon="3.92399">
        <ele>773.52</ele>
        <time>2013-12-08T01:14:56Z</time>
      </trkpt>
      <trkpt lat="45.97263" lon="3.924">
        <ele>773.52</ele>
        <time>2013-12-08T01:15:08Z</time>
      </trkpt>
      <trkpt lat="45.97265" lon="3.92402">
        <ele>773.52</ele>
        <time>2013-12-08T01:15:19Z</time>
      </trkpt>
      <trkpt lat="45.97265" lon="3.92402">
        <ele>773.52</ele>
        <time>2013-12-08T01:15:30Z</time>
      </trkpt>
      <trkpt lat="45.97265" lon="3.92401">
        <ele>773.52</ele>
        <time>2013-12-08T01:15:52Z</time>
      </trkpt>
      <trkpt lat="45.97264" lon="3.92399">
        <ele>773.04</ele>
        <time>2013-12-08T01:16:09Z</time>
      </trkpt>
      <trkpt lat="45.97265" lon="3.92399">
        <ele>773.04</ele>
        <time>2013-12-08T01:16:26Z</time>
      </trkpt>
      <trkpt lat="45.97265" lon="3.924">
        <ele>773.04</ele>
        <time>2013-12-08T01:16:52Z</time>
      </trkpt>
      <trkpt lat="45.97263" lon="3.924">
        <ele>772.56</ele>
        <time>2013-12-08T01:17:10Z</time>
      </trkpt>
      <trkpt lat="45.97263" lon="3.92398">
        <ele>772.56</ele>
        <time>2013-12-08T01:17:31Z</time>
      </trkpt>
      <trkpt lat="45.97263" lon="3.92399">
        <ele>772.56</ele>
        <time>2013-12-08T01:17:53Z</time>
      </trkpt>
      <trkpt lat="45.97263" lon="3.92402">
        <ele>772.56</ele>
        <time>2013-12-08T01:18:10Z</time>
      </trkpt>
      <trkpt lat="45.97265" lon="3.92399">
        <ele>772.56</ele>
        <time>2013-12-08T01:18:30Z</time>
      </trkpt>
      <trkpt lat="45.97259" lon="3.92395">
        <ele>772.08</ele>
        <time>2013-12-08T01:18:45Z</time>
      </trkpt>
      <trkpt lat="45.9726" lon="3.92398">
        <ele>772.08</ele>
        <time>2013-12-08T01:19:00Z</time>
      </trkpt>
      <trkpt lat="45.97261" lon="3.92398">
        <ele>772.08</ele>
        <time>2013-12-08T01:19:13Z</time>
      </trkpt>
      <trkpt lat="45.97259" lon="3.92395">
        <ele>771.6</ele>
        <time>2013-12-08T01:19:26Z</time>
      </trkpt>
      <trkpt lat="45.97259" lon="3.92396">
        <ele>771.6</ele>
        <time>2013-12-08T01:19:51Z</time>
      </trkpt>
      <trkpt lat="45.9726" lon="3.92397">
        <ele>771.6</ele>
        <time>2013-12-08T01:20:15Z</time>
      </trkpt>
      <trkpt lat="45.97259" lon="3.92397">
        <ele>771.6</ele>
        <time>2013-12-08T01:20:35Z</time>
      </trkpt>
      <trkpt lat="45.97259" lon="3.92397">
        <ele>771.11</ele>
        <time>2013-12-08T01:20:58Z</time>
      </trkpt>
      <trkpt lat="45.97259" lon="3.92398">
        <ele>771.6</ele>
        <time>2013-12-08T01:21:11Z</time>
      </trkpt>
      <trkpt lat="45.97258" lon="3.92397">
        <ele>771.6</ele>
        <time>2013-12-08T01:21:23Z</time>
      </trkpt>
      <trkpt lat="45.97257" lon="3.92396">
        <ele>771.6</ele>
        <time>2013-12-08T01:21:25Z</time>
      </trkpt>
      <trkpt lat="45.9725" lon="3.92371">
        <ele>771.11</ele>
        <time>2013-12-08T01:21:38Z</time>
      </trkpt>
      <trkpt lat="45.97232" lon="3.92324">
        <ele>768.71</ele>
        <time>2013-12-08T01:21:52Z</time>
      </trkpt>
      <trkpt lat="45.97213" lon="3.92277">
        <ele>766.31</ele>
        <time>2013-12-08T01:22:05Z</time>
      </trkpt>
      <trkpt lat="45.97197" lon="3.92241">
        <ele>763.9</ele>
        <time>2013-12-08T01:22:15Z</time>
      </trkpt>
      <trkpt lat="45.97179" lon="3.92197">
        <ele>760.54</ele>
        <time>2013-12-08T01:22:27Z</time>
      </trkpt>
      <trkpt lat="45.9717" lon="3.92174">
        <ele>759.58</ele>
        <time>2013-12-08T01:22:33Z</time>
      </trkpt>
      <trkpt lat="45.97147" lon="3.92133">
        <ele>756.21</ele>
        <time>2013-12-08T01:22:46Z</time>
      </trkpt>
      <trkpt lat="45.9714" lon="3.92126">
        <ele>755.25</ele>
        <time>2013-12-08T01:22:49Z</time>
      </trkpt>
      <trkpt lat="45.97132" lon="3.92114">
        <ele>753.81</ele>
        <time>2013-12-08T01:22:53Z</time>
      </trkpt>
      <trkpt lat="45.97107" lon="3.9209">
        <ele>750.93</ele>
        <time>2013-12-08T01:23:03Z</time>
      </trkpt>
      <trkpt lat="45.97082" lon="3.9207">
        <ele>748.04</ele>
        <time>2013-12-08T01:23:13Z</time>
      </trkpt>
      <trkpt lat="45.97059" lon="3.92049">
        <ele>745.64</ele>
        <time>2013-12-08T01:23:22Z</time>
      </trkpt>
      <trkpt lat="45.97036" lon="3.92031">
        <ele>742.76</ele>
        <time>2013-12-08T01:23:31Z</time>
      </trkpt>
      <trkpt lat="45.97011" lon="3.92013">
        <ele>739.39</ele>
        <time>2013-12-08T01:23:40Z</time>
      </trkpt>
      <trkpt lat="45.96988" lon="3.91998">
        <ele>735.55</ele>
        <time>2013-12-08T01:23:48Z</time>
      </trkpt>
      <trkpt lat="45.96969" lon="3.91985">
        <ele>732.18</ele>
        <time>2013-12-08T01:23:55Z</time>
      </trkpt>
      <trkpt lat="45.96947" lon="3.91977">
        <ele>729.3</ele>
        <time>2013-12-08T01:24:02Z</time>
      </trkpt>
      <trkpt lat="45.96915" lon="3.91967">
        <ele>725.45</ele>
        <time>2013-12-08T01:24:12Z</time>
      </trkpt>
      <trkpt lat="45.96908" lon="3.91965">
        <ele>724.49</ele>
        <time>2013-12-08T01:24:14Z</time>
      </trkpt>
      <trkpt lat="45.96892" lon="3.91962">
        <ele>721.61</ele>
        <time>2013-12-08T01:24:19Z</time>
      </trkpt>
      <trkpt lat="45.96873" lon="3.9196">
        <ele>718.24</ele>
        <time>2013-12-08T01:24:26Z</time>
      </trkpt>
      <trkpt lat="45.96849" lon="3.9196">
        <ele>715.36</ele>
        <time>2013-12-08T01:24:33Z</time>
      </trkpt>
      <trkpt lat="45.96829" lon="3.91956">
        <ele>712.47</ele>
        <time>2013-12-08T01:24:39Z</time>
      </trkpt>
      <trkpt lat="45.96812" lon="3.91955">
        <ele>709.11</ele>
        <time>2013-12-08T01:24:44Z</time>
      </trkpt>
      <trkpt lat="45.96808" lon="3.91954">
        <ele>709.11</ele>
        <time>2013-12-08T01:24:45Z</time>
      </trkpt>
      <trkpt lat="45.96777" lon="3.91941">
        <ele>705.75</ele>
        <time>2013-12-08T01:24:55Z</time>
      </trkpt>
      <trkpt lat="45.96749" lon="3.91921">
        <ele>701.9</ele>
        <time>2013-12-08T01:25:04Z</time>
      </trkpt>
      <trkpt lat="45.96743" lon="3.91917">
        <ele>701.42</ele>
        <time>2013-12-08T01:25:06Z</time>
      </trkpt>
      <trkpt lat="45.96709" lon="3.91896">
        <ele>698.05</ele>
        <time>2013-12-08T01:25:17Z</time>
      </trkpt>
      <trkpt lat="45.96674" lon="3.91878">
        <ele>695.65</ele>
        <time>2013-12-08T01:25:28Z</time>
      </trkpt>
      <trkpt lat="45.96644" lon="3.91854">
        <ele>692.29</ele>
        <time>2013-12-08T01:25:40Z</time>
      </trkpt>
      <trkpt lat="45.96634" lon="3.91844">
        <ele>691.33</ele>
        <time>2013-12-08T01:25:44Z</time>
      </trkpt>
      <trkpt lat="45.96603" lon="3.91811">
        <ele>688.44</ele>
        <time>2013-12-08T01:25:56Z</time>
      </trkpt>
      <trkpt lat="45.96583" lon="3.91783">
        <ele>685.56</ele>
        <time>2013-12-08T01:26:05Z</time>
      </trkpt>
      <trkpt lat="45.96562" lon="3.91757">
        <ele>682.67</ele>
        <time>2013-12-08T01:26:15Z</time>
      </trkpt>
      <trkpt lat="45.96547" lon="3.91739">
        <ele>680.75</ele>
        <time>2013-12-08T01:26:22Z</time>
      </trkpt>
      <trkpt lat="45.96536" lon="3.91728">
        <ele>678.83</ele>
        <time>2013-12-08T01:26:27Z</time>
      </trkpt>
      <trkpt lat="45.96529" lon="3.91719">
        <ele>677.39</ele>
        <time>2013-12-08T01:26:31Z</time>
      </trkpt>
      <trkpt lat="45.96511" lon="3.91697">
        <ele>674.5</ele>
        <time>2013-12-08T01:26:38Z</time>
      </trkpt>
      <trkpt lat="45.96489" lon="3.91674">
        <ele>671.14</ele>
        <time>2013-12-08T01:26:46Z</time>
      </trkpt>
      <trkpt lat="45.96463" lon="3.9165">
        <ele>668.25</ele>
        <time>2013-12-08T01:26:55Z</time>
      </trkpt>
      <trkpt lat="45.96441" lon="3.91636">
        <ele>665.37</ele>
        <time>2013-12-08T01:27:02Z</time>
      </trkpt>
      <trkpt lat="45.96411" lon="3.91618">
        <ele>662.01</ele>
        <time>2013-12-08T01:27:11Z</time>
      </trkpt>
      <trkpt lat="45.9638" lon="3.91604">
        <ele>659.12</ele>
        <time>2013-12-08T01:27:20Z</time>
      </trkpt>
      <trkpt lat="45.96366" lon="3.91597">
        <ele>657.68</ele>
        <time>2013-12-08T01:27:24Z</time>
      </trkpt>
      <trkpt lat="45.96364" lon="3.91595">
        <ele>657.68</ele>
        <time>2013-12-08T01:27:25Z</time>
      </trkpt>
      <trkpt lat="45.96361" lon="3.91594">
        <ele>657.2</ele>
        <time>2013-12-08T01:27:26Z</time>
      </trkpt>
      <trkpt lat="45.96335" lon="3.91572">
        <ele>655.28</ele>
        <time>2013-12-08T01:27:36Z</time>
      </trkpt>
      <trkpt lat="45.9633" lon="3.91566">
        <ele>653.83</ele>
        <time>2013-12-08T01:27:39Z</time>
      </trkpt>
      <trkpt lat="45.96329" lon="3.91563">
        <ele>653.35</ele>
        <time>2013-12-08T01:27:40Z</time>
      </trkpt>
      <trkpt lat="45.96328" lon="3.9156">
        <ele>653.35</ele>
        <time>2013-12-08T01:27:41Z</time>
      </trkpt>
      <trkpt lat="45.96326" lon="3.91537">
        <ele>650.47</ele>
        <time>2013-12-08T01:27:47Z</time>
      </trkpt>
      <trkpt lat="45.96324" lon="3.91522">
        <ele>649.51</ele>
        <time>2013-12-08T01:27:51Z</time>
      </trkpt>
      <trkpt lat="45.96323" lon="3.91518">
        <ele>649.03</ele>
        <time>2013-12-08T01:27:52Z</time>
      </trkpt>
      <trkpt lat="45.96318" lon="3.91508">
        <ele>649.03</ele>
        <time>2013-12-08T01:27:54Z</time>
      </trkpt>
      <trkpt lat="45.96319" lon="3.91504">
        <ele>649.51</ele>
        <time>2013-12-08T01:27:55Z</time>
      </trkpt>
      <trkpt lat="45.96319" lon="3.91499">
        <ele>649.51</ele>
        <time>2013-12-08T01:27:56Z</time>
      </trkpt>
      <trkpt lat="45.9632" lon="3.91495">
        <ele>649.51</ele>
        <time>2013-12-08T01:27:57Z</time>
      </trkpt>
      <trkpt lat="45.96321" lon="3.91491">
        <ele>649.51</ele>
        <time>2013-12-08T01:27:58Z</time>
      </trkpt>
      <trkpt lat="45.96323" lon="3.91488">
        <ele>649.51</ele>
        <time>2013-12-08T01:27:59Z</time>
      </trkpt>
      <trkpt lat="45.96324" lon="3.91485">
        <ele>649.51</ele>
        <time>2013-12-08T01:28:00Z</time>
      </trkpt>
      <trkpt lat="45.96326" lon="3.91482">
        <ele>649.51</ele>
        <time>2013-12-08T01:28:01Z</time>
      </trkpt>
      <trkpt lat="45.96327" lon="3.9148">
        <ele>649.51</ele>
        <time>2013-12-08T01:28:02Z</time>
      </trkpt>
      <trkpt lat="45.96343" lon="3.91451">
        <ele>649.99</ele>
        <time>2013-12-08T01:28:16Z</time>
      </trkpt>
      <trkpt lat="45.96355" lon="3.91439">
        <ele>650.47</ele>
        <time>2013-12-08T01:28:23Z</time>
      </trkpt>
      <trkpt lat="45.96356" lon="3.91438">
        <ele>650.47</ele>
        <time>2013-12-08T01:28:24Z</time>
      </trkpt>
      <trkpt lat="45.96371" lon="3.91404">
        <ele>651.91</ele>
        <time>2013-12-08T01:28:40Z</time>
      </trkpt>
      <trkpt lat="45.96379" lon="3.91372">
        <ele>653.35</ele>
        <time>2013-12-08T01:28:54Z</time>
      </trkpt>
      <trkpt lat="45.96388" lon="3.91347">
        <ele>654.31</ele>
        <time>2013-12-08T01:29:06Z</time>
      </trkpt>
      <trkpt lat="45.96401" lon="3.91319">
        <ele>655.76</ele>
        <time>2013-12-08T01:29:22Z</time>
      </trkpt>
      <trkpt lat="45.96409" lon="3.91291">
        <ele>656.24</ele>
        <time>2013-12-08T01:29:37Z</time>
      </trkpt>
      <trkpt lat="45.9642" lon="3.91256">
        <ele>657.2</ele>
        <time>2013-12-08T01:29:52Z</time>
      </trkpt>
      <trkpt lat="45.96437" lon="3.91214">
        <ele>657.68</ele>
        <time>2013-12-08T01:30:03Z</time>
      </trkpt>
      <trkpt lat="45.96445" lon="3.91195">
        <ele>657.68</ele>
        <time>2013-12-08T01:30:15Z</time>
      </trkpt>
      <trkpt lat="45.96454" lon="3.91169">
        <ele>658.16</ele>
        <time>2013-12-08T01:30:30Z</time>
      </trkpt>
      <trkpt lat="45.9646" lon="3.91139">
        <ele>658.64</ele>
        <time>2013-12-08T01:30:45Z</time>
      </trkpt>
      <trkpt lat="45.96465" lon="3.91113">
        <ele>659.12</ele>
        <time>2013-12-08T01:30:58Z</time>
      </trkpt>
      <trkpt lat="45.96462" lon="3.91087">
        <ele>660.08</ele>
        <time>2013-12-08T01:31:11Z</time>
      </trkpt>
      <trkpt lat="45.96463" lon="3.91049">
        <ele>661.04</ele>
        <time>2013-12-08T01:31:29Z</time>
      </trkpt>
      <trkpt lat="45.96464" lon="3.91019">
        <ele>662.49</ele>
        <time>2013-12-08T01:31:44Z</time>
      </trkpt>
      <trkpt lat="45.96466" lon="3.90987">
        <ele>664.41</ele>
        <time>2013-12-08T01:31:59Z</time>
      </trkpt>
      <trkpt lat="45.96465" lon="3.90963">
        <ele>666.33</ele>
        <time>2013-12-08T01:32:12Z</time>
      </trkpt>
      <trkpt lat="45.96466" lon="3.9096">
        <ele>666.33</ele>
        <time>2013-12-08T01:32:13Z</time>
      </trkpt>
      <trkpt lat="45.96466" lon="3.90958">
        <ele>666.81</ele>
        <time>2013-12-08T01:32:14Z</time>
      </trkpt>
      <trkpt lat="45.96466" lon="3.90956">
        <ele>666.81</ele>
        <time>2013-12-08T01:32:15Z</time>
      </trkpt>
      <trkpt lat="45.96466" lon="3.90955">
        <ele>666.81</ele>
        <time>2013-12-08T01:32:16Z</time>
      </trkpt>
      <trkpt lat="45.96469" lon="3.90921">
        <ele>668.73</ele>
        <time>2013-12-08T01:32:33Z</time>
      </trkpt>
      <trkpt lat="45.96471" lon="3.9089">
        <ele>670.18</ele>
        <time>2013-12-08T01:32:47Z</time>
      </trkpt>
      <trkpt lat="45.96475" lon="3.90888">
        <ele>670.66</ele>
        <time>2013-12-08T01:32:51Z</time>
      </trkpt>
      <trkpt lat="45.96476" lon="3.90888">
        <ele>670.66</ele>
        <time>2013-12-08T01:32:52Z</time>
      </trkpt>
      <trkpt lat="45.96477" lon="3.90889">
        <ele>670.66</ele>
        <time>2013-12-08T01:32:53Z</time>
      </trkpt>
      <trkpt lat="45.96484" lon="3.90913">
        <ele>673.06</ele>
        <time>2013-12-08T01:33:06Z</time>
      </trkpt>
      <trkpt lat="45.96484" lon="3.90915">
        <ele>673.54</ele>
        <time>2013-12-08T01:33:07Z</time>
      </trkpt>
      <trkpt lat="45.96484" lon="3.90917">
        <ele>673.54</ele>
        <time>2013-12-08T01:33:08Z</time>
      </trkpt>
      <trkpt lat="45.96485" lon="3.90919">
        <ele>673.54</ele>
        <time>2013-12-08T01:33:09Z</time>
      </trkpt>
      <trkpt lat="45.96485" lon="3.90921">
        <ele>674.02</ele>
        <time>2013-12-08T01:33:10Z</time>
      </trkpt>
      <trkpt lat="45.96486" lon="3.90923">
        <ele>674.02</ele>
        <time>2013-12-08T01:33:11Z</time>
      </trkpt>
      <trkpt lat="45.96486" lon="3.90925">
        <ele>674.02</ele>
        <time>2013-12-08T01:33:12Z</time>
      </trkpt>
      <trkpt lat="45.96487" lon="3.90926">
        <ele>674.5</ele>
        <time>2013-12-08T01:33:13Z</time>
      </trkpt>
      <trkpt lat="45.96488" lon="3.90932">
        <ele>674.5</ele>
        <time>2013-12-08T01:33:16Z</time>
      </trkpt>
      <trkpt lat="45.96489" lon="3.90932">
        <ele>674.98</ele>
        <time>2013-12-08T01:33:17Z</time>
      </trkpt>
      <trkpt lat="45.96491" lon="3.90933">
        <ele>674.98</ele>
        <time>2013-12-08T01:33:18Z</time>
      </trkpt>
      <trkpt lat="45.96492" lon="3.90933">
        <ele>674.98</ele>
        <time>2013-12-08T01:33:19Z</time>
      </trkpt>
      <trkpt lat="45.96493" lon="3.90924">
        <ele>676.42</ele>
        <time>2013-12-08T01:33:27Z</time>
      </trkpt>
      <trkpt lat="45.96491" lon="3.90914">
        <ele>675.94</ele>
        <time>2013-12-08T01:33:32Z</time>
      </trkpt>
      <trkpt lat="45.96487" lon="3.90886">
        <ele>676.42</ele>
        <time>2013-12-08T01:33:45Z</time>
      </trkpt>
      <trkpt lat="45.96486" lon="3.90867">
        <ele>676.42</ele>
        <time>2013-12-08T01:33:59Z</time>
      </trkpt>
      <trkpt lat="45.96485" lon="3.90865">
        <ele>676.42</ele>
        <time>2013-12-08T01:34:13Z</time>
      </trkpt>
      <trkpt lat="45.96485" lon="3.90864">
        <ele>678.83</ele>
        <time>2013-12-08T01:34:28Z</time>
      </trkpt>
      <trkpt lat="45.96485" lon="3.90863">
        <ele>679.79</ele>
        <time>2013-12-08T01:34:49Z</time>
      </trkpt>
      <trkpt lat="45.96485" lon="3.90862">
        <ele>679.79</ele>
        <time>2013-12-08T01:35:09Z</time>
      </trkpt>
      <trkpt lat="45.96486" lon="3.90862">
        <ele>679.79</ele>
        <time>2013-12-08T01:35:27Z</time>
      </trkpt>
      <trkpt lat="45.96487" lon="3.90862">
        <ele>679.79</ele>
        <time>2013-12-08T01:35:47Z</time>
      </trkpt>
      <trkpt lat="45.9649" lon="3.90862">
        <ele>679.79</ele>
        <time>2013-12-08T01:36:07Z</time>
      </trkpt>
      <trkpt lat="45.96492" lon="3.90862">
        <ele>679.31</ele>
        <time>2013-12-08T01:36:26Z</time>
      </trkpt>
      <trkpt lat="45.96496" lon="3.90863">
        <ele>679.31</ele>
        <time>2013-12-08T01:36:48Z</time>
      </trkpt>
      <trkpt lat="45.96498" lon="3.90863">
        <ele>678.83</ele>
        <time>2013-12-08T01:37:13Z</time>
      </trkpt>
      <trkpt lat="45.96499" lon="3.90862">
        <ele>678.83</ele>
        <time>2013-12-08T01:37:44Z</time>
      </trkpt>
      <trkpt lat="45.96502" lon="3.90862">
        <ele>678.83</ele>
        <time>2013-12-08T01:38:04Z</time>
      </trkpt>
      <trkpt lat="45.9651" lon="3.90859">
        <ele>678.35</ele>
        <time>2013-12-08T01:38:21Z</time>
      </trkpt>
      <trkpt lat="45.96512" lon="3.90862">
        <ele>678.35</ele>
        <time>2013-12-08T01:38:40Z</time>
      </trkpt>
      <trkpt lat="45.96512" lon="3.90866">
        <ele>678.35</ele>
        <time>2013-12-08T01:38:55Z</time>
      </trkpt>
      <trkpt lat="45.96514" lon="3.90868">
        <ele>678.35</ele>
        <time>2013-12-08T01:39:00Z</time>
      </trkpt>
      <trkpt lat="45.96515" lon="3.90868">
        <ele>678.35</ele>
        <time>2013-12-08T01:39:01Z</time>
      </trkpt>
      <trkpt lat="45.96517" lon="3.90869">
        <ele>678.35</ele>
        <time>2013-12-08T01:39:02Z</time>
      </trkpt>
      <trkpt lat="45.96531" lon="3.90881">
        <ele>678.35</ele>
        <time>2013-12-08T01:39:17Z</time>
      </trkpt>
      <trkpt lat="45.96542" lon="3.90893">
        <ele>677.87</ele>
        <time>2013-12-08T01:39:30Z</time>
      </trkpt>
      <trkpt lat="45.96543" lon="3.90894">
        <ele>678.35</ele>
        <time>2013-12-08T01:39:31Z</time>
      </trkpt>
      <trkpt lat="45.96553" lon="3.90887">
        <ele>678.83</ele>
        <time>2013-12-08T01:39:42Z</time>
      </trkpt>
      <trkpt lat="45.96553" lon="3.90885">
        <ele>679.31</ele>
        <time>2013-12-08T01:39:44Z</time>
      </trkpt>
      <trkpt lat="45.96562" lon="3.90857">
        <ele>681.23</ele>
        <time>2013-12-08T01:40:02Z</time>
      </trkpt>
      <trkpt lat="45.96568" lon="3.90835">
        <ele>682.19</ele>
        <time>2013-12-08T01:40:16Z</time>
      </trkpt>
      <trkpt lat="45.96569" lon="3.90814">
        <ele>684.6</ele>
        <time>2013-12-08T01:40:30Z</time>
      </trkpt>
      <trkpt lat="45.96567" lon="3.90793">
        <ele>686.04</ele>
        <time>2013-12-08T01:40:42Z</time>
      </trkpt>
      <trkpt lat="45.96567" lon="3.90792">
        <ele>686.52</ele>
        <time>2013-12-08T01:40:43Z</time>
      </trkpt>
      <trkpt lat="45.96566" lon="3.9079">
        <ele>686.04</ele>
        <time>2013-12-08T01:40:44Z</time>
      </trkpt>
      <trkpt lat="45.96566" lon="3.90789">
        <ele>686.52</ele>
        <time>2013-12-08T01:40:45Z</time>
      </trkpt>
      <trkpt lat="45.96565" lon="3.90787">
        <ele>686.52</ele>
        <time>2013-12-08T01:40:46Z</time>
      </trkpt>
      <trkpt lat="45.96564" lon="3.90786">
        <ele>686.52</ele>
        <time>2013-12-08T01:40:47Z</time>
      </trkpt>
      <trkpt lat="45.96547" lon="3.90776">
        <ele>685.56</ele>
        <time>2013-12-08T01:41:02Z</time>
      </trkpt>
      <trkpt lat="45.96531" lon="3.9077">
        <ele>685.08</ele>
        <time>2013-12-08T01:41:14Z</time>
      </trkpt>
      <trkpt lat="45.96515" lon="3.90759">
        <ele>685.56</ele>
        <time>2013-12-08T01:41:27Z</time>
      </trkpt>
      <trkpt lat="45.96514" lon="3.90757">
        <ele>686.04</ele>
        <time>2013-12-08T01:41:28Z</time>
      </trkpt>
      <trkpt lat="45.96514" lon="3.90756">
        <ele>686.04</ele>
        <time>2013-12-08T01:41:29Z</time>
      </trkpt>
      <trkpt lat="45.96513" lon="3.90754">
        <ele>686.04</ele>
        <time>2013-12-08T01:41:30Z</time>
      </trkpt>
      <trkpt lat="45.96512" lon="3.90753">
        <ele>686.04</ele>
        <time>2013-12-08T01:41:31Z</time>
      </trkpt>
      <trkpt lat="45.96511" lon="3.90751">
        <ele>686.52</ele>
        <time>2013-12-08T01:41:32Z</time>
      </trkpt>
      <trkpt lat="45.9651" lon="3.90749">
        <ele>686.52</ele>
        <time>2013-12-08T01:41:33Z</time>
      </trkpt>
      <trkpt lat="45.96509" lon="3.90748">
        <ele>686.52</ele>
        <time>2013-12-08T01:41:34Z</time>
      </trkpt>
      <trkpt lat="45.96509" lon="3.90746">
        <ele>687</ele>
        <time>2013-12-08T01:41:35Z</time>
      </trkpt>
      <trkpt lat="45.96508" lon="3.90745">
        <ele>687</ele>
        <time>2013-12-08T01:41:36Z</time>
      </trkpt>
      <trkpt lat="45.96506" lon="3.90742">
        <ele>687</ele>
        <time>2013-12-08T01:41:38Z</time>
      </trkpt>
      <trkpt lat="45.96502" lon="3.90742">
        <ele>686.04</ele>
        <time>2013-12-08T01:41:42Z</time>
      </trkpt>
      <trkpt lat="45.96501" lon="3.90742">
        <ele>686.52</ele>
        <time>2013-12-08T01:41:43Z</time>
      </trkpt>
      <trkpt lat="45.96499" lon="3.90741">
        <ele>685.56</ele>
        <time>2013-12-08T01:41:45Z</time>
      </trkpt>
      <trkpt lat="45.96498" lon="3.9074">
        <ele>685.08</ele>
        <time>2013-12-08T01:41:46Z</time>
      </trkpt>
      <trkpt lat="45.96497" lon="3.90739">
        <ele>685.08</ele>
        <time>2013-12-08T01:41:47Z</time>
      </trkpt>
      <trkpt lat="45.96496" lon="3.90737">
        <ele>684.6</ele>
        <time>2013-12-08T01:41:48Z</time>
      </trkpt>
      <trkpt lat="45.96495" lon="3.90736">
        <ele>684.6</ele>
        <time>2013-12-08T01:41:49Z</time>
      </trkpt>
      <trkpt lat="45.96494" lon="3.90734">
        <ele>684.6</ele>
        <time>2013-12-08T01:41:50Z</time>
      </trkpt>
      <trkpt lat="45.96492" lon="3.90729">
        <ele>684.12</ele>
        <time>2013-12-08T01:41:53Z</time>
      </trkpt>
      <trkpt lat="45.96492" lon="3.90726">
        <ele>683.63</ele>
        <time>2013-12-08T01:41:54Z</time>
      </trkpt>
      <trkpt lat="45.96486" lon="3.90708">
        <ele>682.67</ele>
        <time>2013-12-08T01:42:02Z</time>
      </trkpt>
      <trkpt lat="45.96485" lon="3.90706">
        <ele>682.67</ele>
        <time>2013-12-08T01:42:03Z</time>
      </trkpt>
      <trkpt lat="45.96484" lon="3.90703">
        <ele>682.19</ele>
        <time>2013-12-08T01:42:04Z</time>
      </trkpt>
      <trkpt lat="45.96484" lon="3.90701">
        <ele>682.19</ele>
        <time>2013-12-08T01:42:05Z</time>
      </trkpt>
      <trkpt lat="45.96483" lon="3.90698">
        <ele>682.19</ele>
        <time>2013-12-08T01:42:06Z</time>
      </trkpt>
      <trkpt lat="45.96483" lon="3.90695">
        <ele>681.71</ele>
        <time>2013-12-08T01:42:07Z</time>
      </trkpt>
      <trkpt lat="45.96482" lon="3.90693">
        <ele>681.71</ele>
        <time>2013-12-08T01:42:08Z</time>
      </trkpt>
      <trkpt lat="45.96482" lon="3.90691">
        <ele>681.23</ele>
        <time>2013-12-08T01:42:09Z</time>
      </trkpt>
      <trkpt lat="45.96482" lon="3.90689">
        <ele>681.23</ele>
        <time>2013-12-08T01:42:10Z</time>
      </trkpt>
      <trkpt lat="45.96481" lon="3.90687">
        <ele>681.23</ele>
        <time>2013-12-08T01:42:11Z</time>
      </trkpt>
      <trkpt lat="45.96481" lon="3.90685">
        <ele>680.75</ele>
        <time>2013-12-08T01:42:12Z</time>
      </trkpt>
      <trkpt lat="45.96479" lon="3.90679">
        <ele>679.79</ele>
        <time>2013-12-08T01:42:15Z</time>
      </trkpt>
      <trkpt lat="45.96476" lon="3.90676">
        <ele>678.83</ele>
        <time>2013-12-08T01:42:18Z</time>
      </trkpt>
      <trkpt lat="45.96475" lon="3.90676">
        <ele>678.35</ele>
        <time>2013-12-08T01:42:19Z</time>
      </trkpt>
      <trkpt lat="45.96474" lon="3.90675">
        <ele>678.35</ele>
        <time>2013-12-08T01:42:20Z</time>
      </trkpt>
      <trkpt lat="45.96473" lon="3.90673">
        <ele>678.35</ele>
        <time>2013-12-08T01:42:21Z</time>
      </trkpt>
      <trkpt lat="45.96472" lon="3.90671">
        <ele>678.35</ele>
        <time>2013-12-08T01:42:22Z</time>
      </trkpt>
      <trkpt lat="45.96472" lon="3.90668">
        <ele>678.35</ele>
        <time>2013-12-08T01:42:23Z</time>
      </trkpt>
      <trkpt lat="45.96471" lon="3.90666">
        <ele>678.35</ele>
        <time>2013-12-08T01:42:24Z</time>
      </trkpt>
      <trkpt lat="45.96467" lon="3.90653">
        <ele>678.35</ele>
        <time>2013-12-08T01:42:30Z</time>
      </trkpt>
      <trkpt lat="45.96466" lon="3.90651">
        <ele>678.35</ele>
        <time>2013-12-08T01:42:31Z</time>
      </trkpt>
      <trkpt lat="45.96465" lon="3.90649">
        <ele>678.35</ele>
        <time>2013-12-08T01:42:32Z</time>
      </trkpt>
      <trkpt lat="45.96464" lon="3.90647">
        <ele>678.35</ele>
        <time>2013-12-08T01:42:33Z</time>
      </trkpt>
      <trkpt lat="45.96463" lon="3.90645">
        <ele>678.83</ele>
        <time>2013-12-08T01:42:34Z</time>
      </trkpt>
      <trkpt lat="45.96451" lon="3.9062">
        <ele>678.35</ele>
        <time>2013-12-08T01:42:48Z</time>
      </trkpt>
      <trkpt lat="45.96447" lon="3.9061">
        <ele>678.35</ele>
        <time>2013-12-08T01:42:54Z</time>
      </trkpt>
      <trkpt lat="45.96437" lon="3.90584">
        <ele>679.31</ele>
        <time>2013-12-08T01:43:08Z</time>
      </trkpt>
      <trkpt lat="45.96423" lon="3.90548">
        <ele>680.27</ele>
        <time>2013-12-08T01:43:26Z</time>
      </trkpt>
      <trkpt lat="45.96412" lon="3.90525">
        <ele>681.23</ele>
        <time>2013-12-08T01:43:38Z</time>
      </trkpt>
      <trkpt lat="45.964" lon="3.90497">
        <ele>682.19</ele>
        <time>2013-12-08T01:43:54Z</time>
      </trkpt>
      <trkpt lat="45.96391" lon="3.90477">
        <ele>683.63</ele>
        <time>2013-12-08T01:44:06Z</time>
      </trkpt>
      <trkpt lat="45.9638" lon="3.90453">
        <ele>685.08</ele>
        <time>2013-12-08T01:44:20Z</time>
      </trkpt>
      <trkpt lat="45.96367" lon="3.90429">
        <ele>687.48</ele>
        <time>2013-12-08T01:44:35Z</time>
      </trkpt>
      <trkpt lat="45.96366" lon="3.90427">
        <ele>687.48</ele>
        <time>2013-12-08T01:44:36Z</time>
      </trkpt>
      <trkpt lat="45.96365" lon="3.90425">
        <ele>687.48</ele>
        <time>2013-12-08T01:44:37Z</time>
      </trkpt>
      <trkpt lat="45.96358" lon="3.90402">
        <ele>688.92</ele>
        <time>2013-12-08T01:44:49Z</time>
      </trkpt>
      <trkpt lat="45.96357" lon="3.904">
        <ele>688.92</ele>
        <time>2013-12-08T01:44:50Z</time>
      </trkpt>
      <trkpt lat="45.96356" lon="3.90397">
        <ele>688.92</ele>
        <time>2013-12-08T01:44:51Z</time>
      </trkpt>
      <trkpt lat="45.96355" lon="3.90395">
        <ele>688.92</ele>
        <time>2013-12-08T01:44:52Z</time>
      </trkpt>
      <trkpt lat="45.96354" lon="3.90393">
        <ele>689.4</ele>
        <time>2013-12-08T01:44:53Z</time>
      </trkpt>
      <trkpt lat="45.96352" lon="3.90391">
        <ele>689.4</ele>
        <time>2013-12-08T01:44:54Z</time>
      </trkpt>
      <trkpt lat="45.96351" lon="3.90389">
        <ele>689.4</ele>
        <time>2013-12-08T01:44:55Z</time>
      </trkpt>
      <trkpt lat="45.96345" lon="3.90369">
        <ele>690.36</ele>
        <time>2013-12-08T01:45:05Z</time>
      </trkpt>
      <trkpt lat="45.96337" lon="3.90335">
        <ele>691.81</ele>
        <time>2013-12-08T01:45:20Z</time>
      </trkpt>
      <trkpt lat="45.96329" lon="3.90298">
        <ele>692.77</ele>
        <time>2013-12-08T01:45:35Z</time>
      </trkpt>
      <trkpt lat="45.96325" lon="3.90285">
        <ele>693.25</ele>
        <time>2013-12-08T01:45:41Z</time>
      </trkpt>
      <trkpt lat="45.96324" lon="3.90283">
        <ele>693.73</ele>
        <time>2013-12-08T01:45:42Z</time>
      </trkpt>
      <trkpt lat="45.96319" lon="3.90272">
        <ele>693.73</ele>
        <time>2013-12-08T01:45:48Z</time>
      </trkpt>
      <trkpt lat="45.96318" lon="3.90271">
        <ele>693.73</ele>
        <time>2013-12-08T01:45:49Z</time>
      </trkpt>
      <trkpt lat="45.96318" lon="3.90269">
        <ele>693.73</ele>
        <time>2013-12-08T01:45:50Z</time>
      </trkpt>
      <trkpt lat="45.96315" lon="3.9024">
        <ele>695.17</ele>
        <time>2013-12-08T01:46:04Z</time>
      </trkpt>
      <trkpt lat="45.96312" lon="3.90228">
        <ele>695.65</ele>
        <time>2013-12-08T01:46:09Z</time>
      </trkpt>
      <trkpt lat="45.96312" lon="3.90226">
        <ele>695.65</ele>
        <time>2013-12-08T01:46:10Z</time>
      </trkpt>
      <trkpt lat="45.96312" lon="3.90224">
        <ele>695.65</ele>
        <time>2013-12-08T01:46:11Z</time>
      </trkpt>
      <trkpt lat="45.96311" lon="3.90222">
        <ele>696.13</ele>
        <time>2013-12-08T01:46:12Z</time>
      </trkpt>
      <trkpt lat="45.96311" lon="3.9022">
        <ele>695.65</ele>
        <time>2013-12-08T01:46:13Z</time>
      </trkpt>
      <trkpt lat="45.9631" lon="3.90211">
        <ele>696.61</ele>
        <time>2013-12-08T01:46:17Z</time>
      </trkpt>
      <trkpt lat="45.96298" lon="3.90175">
        <ele>699.02</ele>
        <time>2013-12-08T01:46:33Z</time>
      </trkpt>
      <trkpt lat="45.96298" lon="3.90168">
        <ele>699.5</ele>
        <time>2013-12-08T01:46:36Z</time>
      </trkpt>
      <trkpt lat="45.96302" lon="3.9014">
        <ele>701.9</ele>
        <time>2013-12-08T01:46:49Z</time>
      </trkpt>
      <trkpt lat="45.96304" lon="3.90112">
        <ele>703.82</ele>
        <time>2013-12-08T01:47:02Z</time>
      </trkpt>
      <trkpt lat="45.96304" lon="3.90108">
        <ele>703.82</ele>
        <time>2013-12-08T01:47:04Z</time>
      </trkpt>
      <trkpt lat="45.96304" lon="3.90106">
        <ele>703.82</ele>
        <time>2013-12-08T01:47:05Z</time>
      </trkpt>
      <trkpt lat="45.96304" lon="3.90104">
        <ele>704.3</ele>
        <time>2013-12-08T01:47:06Z</time>
      </trkpt>
      <trkpt lat="45.96304" lon="3.90102">
        <ele>704.3</ele>
        <time>2013-12-08T01:47:07Z</time>
      </trkpt>
      <trkpt lat="45.96304" lon="3.901">
        <ele>704.3</ele>
        <time>2013-12-08T01:47:08Z</time>
      </trkpt>
      <trkpt lat="45.96304" lon="3.90097">
        <ele>704.3</ele>
        <time>2013-12-08T01:47:09Z</time>
      </trkpt>
      <trkpt lat="45.96304" lon="3.90095">
        <ele>704.3</ele>
        <time>2013-12-08T01:47:10Z</time>
      </trkpt>
      <trkpt lat="45.96304" lon="3.90093">
        <ele>704.3</ele>
        <time>2013-12-08T01:47:11Z</time>
      </trkpt>
      <trkpt lat="45.96304" lon="3.9009">
        <ele>704.3</ele>
        <time>2013-12-08T01:47:12Z</time>
      </trkpt>
      <trkpt lat="45.96304" lon="3.90088">
        <ele>704.78</ele>
        <time>2013-12-08T01:47:13Z</time>
      </trkpt>
      <trkpt lat="45.96307" lon="3.90076">
        <ele>705.26</ele>
        <time>2013-12-08T01:47:19Z</time>
      </trkpt>
      <trkpt lat="45.96308" lon="3.90073">
        <ele>705.26</ele>
        <time>2013-12-08T01:47:20Z</time>
      </trkpt>
      <trkpt lat="45.96308" lon="3.90071">
        <ele>705.26</ele>
        <time>2013-12-08T01:47:21Z</time>
      </trkpt>
      <trkpt lat="45.96309" lon="3.90064">
        <ele>705.75</ele>
        <time>2013-12-08T01:47:24Z</time>
      </trkpt>
      <trkpt lat="45.96309" lon="3.90062">
        <ele>705.75</ele>
        <time>2013-12-08T01:47:25Z</time>
      </trkpt>
      <trkpt lat="45.9631" lon="3.9006">
        <ele>705.75</ele>
        <time>2013-12-08T01:47:26Z</time>
      </trkpt>
      <trkpt lat="45.9631" lon="3.90058">
        <ele>705.75</ele>
        <time>2013-12-08T01:47:27Z</time>
      </trkpt>
      <trkpt lat="45.9631" lon="3.90056">
        <ele>705.75</ele>
        <time>2013-12-08T01:47:28Z</time>
      </trkpt>
      <trkpt lat="45.96313" lon="3.90043">
        <ele>706.23</ele>
        <time>2013-12-08T01:47:34Z</time>
      </trkpt>
      <trkpt lat="45.96312" lon="3.90017">
        <ele>707.67</ele>
        <time>2013-12-08T01:47:45Z</time>
      </trkpt>
      <trkpt lat="45.96313" lon="3.90015">
        <ele>707.67</ele>
        <time>2013-12-08T01:47:46Z</time>
      </trkpt>
      <trkpt lat="45.96313" lon="3.90013">
        <ele>707.67</ele>
        <time>2013-12-08T01:47:47Z</time>
      </trkpt>
      <trkpt lat="45.96313" lon="3.9001">
        <ele>707.67</ele>
        <time>2013-12-08T01:47:48Z</time>
      </trkpt>
      <trkpt lat="45.96312" lon="3.90009">
        <ele>708.15</ele>
        <time>2013-12-08T01:47:49Z</time>
      </trkpt>
      <trkpt lat="45.96313" lon="3.90006">
        <ele>708.15</ele>
        <time>2013-12-08T01:47:50Z</time>
      </trkpt>
      <trkpt lat="45.96313" lon="3.90004">
        <ele>708.15</ele>
        <time>2013-12-08T01:47:51Z</time>
      </trkpt>
      <trkpt lat="45.96313" lon="3.90002">
        <ele>708.63</ele>
        <time>2013-12-08T01:47:52Z</time>
      </trkpt>
      <trkpt lat="45.96313" lon="3.9">
        <ele>708.63</ele>
        <time>2013-12-08T01:47:53Z</time>
      </trkpt>
      <trkpt lat="45.96312" lon="3.89998">
        <ele>708.63</ele>
        <time>2013-12-08T01:47:54Z</time>
      </trkpt>
      <trkpt lat="45.96312" lon="3.89996">
        <ele>708.63</ele>
        <time>2013-12-08T01:47:55Z</time>
      </trkpt>
      <trkpt lat="45.96312" lon="3.89994">
        <ele>709.11</ele>
        <time>2013-12-08T01:47:56Z</time>
      </trkpt>
      <trkpt lat="45.96312" lon="3.89992">
        <ele>709.11</ele>
        <time>2013-12-08T01:47:57Z</time>
      </trkpt>
      <trkpt lat="45.96313" lon="3.89989">
        <ele>709.11</ele>
        <time>2013-12-08T01:47:58Z</time>
      </trkpt>
      <trkpt lat="45.96312" lon="3.89987">
        <ele>709.11</ele>
        <time>2013-12-08T01:47:59Z</time>
      </trkpt>
      <trkpt lat="45.96311" lon="3.89976">
        <ele>709.59</ele>
        <time>2013-12-08T01:48:04Z</time>
      </trkpt>
      <trkpt lat="45.96311" lon="3.89973">
        <ele>710.07</ele>
        <time>2013-12-08T01:48:05Z</time>
      </trkpt>
      <trkpt lat="45.96312" lon="3.8997">
        <ele>710.07</ele>
        <time>2013-12-08T01:48:07Z</time>
      </trkpt>
      <trkpt lat="45.96312" lon="3.89967">
        <ele>710.55</ele>
        <time>2013-12-08T01:48:08Z</time>
      </trkpt>
      <trkpt lat="45.96312" lon="3.89965">
        <ele>710.55</ele>
        <time>2013-12-08T01:48:09Z</time>
      </trkpt>
      <trkpt lat="45.96312" lon="3.89963">
        <ele>710.55</ele>
        <time>2013-12-08T01:48:10Z</time>
      </trkpt>
      <trkpt lat="45.96312" lon="3.89961">
        <ele>711.03</ele>
        <time>2013-12-08T01:48:11Z</time>
      </trkpt>
      <trkpt lat="45.96312" lon="3.89958">
        <ele>711.03</ele>
        <time>2013-12-08T01:48:12Z</time>
      </trkpt>
      <trkpt lat="45.96311" lon="3.89929">
        <ele>712.47</ele>
        <time>2013-12-08T01:48:25Z</time>
      </trkpt>
      <trkpt lat="45.96311" lon="3.89902">
        <ele>713.92</ele>
        <time>2013-12-08T01:48:38Z</time>
      </trkpt>
      <trkpt lat="45.96312" lon="3.89885">
        <ele>715.36</ele>
        <time>2013-12-08T01:48:46Z</time>
      </trkpt>
      <trkpt lat="45.96312" lon="3.89883">
        <ele>715.36</ele>
        <time>2013-12-08T01:48:47Z</time>
      </trkpt>
      <trkpt lat="45.96315" lon="3.89856">
        <ele>716.32</ele>
        <time>2013-12-08T01:48:59Z</time>
      </trkpt>
      <trkpt lat="45.96316" lon="3.89826">
        <ele>718.72</ele>
        <time>2013-12-08T01:49:13Z</time>
      </trkpt>
      <trkpt lat="45.96317" lon="3.89804">
        <ele>720.65</ele>
        <time>2013-12-08T01:49:24Z</time>
      </trkpt>
      <trkpt lat="45.96316" lon="3.89802">
        <ele>720.65</ele>
        <time>2013-12-08T01:49:25Z</time>
      </trkpt>
      <trkpt lat="45.96316" lon="3.89796">
        <ele>721.13</ele>
        <time>2013-12-08T01:49:28Z</time>
      </trkpt>
      <trkpt lat="45.96317" lon="3.89793">
        <ele>721.13</ele>
        <time>2013-12-08T01:49:29Z</time>
      </trkpt>
      <trkpt lat="45.96317" lon="3.89791">
        <ele>721.13</ele>
        <time>2013-12-08T01:49:30Z</time>
      </trkpt>
      <trkpt lat="45.96318" lon="3.89789">
        <ele>721.61</ele>
        <time>2013-12-08T01:49:31Z</time>
      </trkpt>
      <trkpt lat="45.96318" lon="3.89787">
        <ele>721.61</ele>
        <time>2013-12-08T01:49:32Z</time>
      </trkpt>
      <trkpt lat="45.96318" lon="3.89785">
        <ele>721.61</ele>
        <time>2013-12-08T01:49:33Z</time>
      </trkpt>
      <trkpt lat="45.96318" lon="3.89783">
        <ele>721.61</ele>
        <time>2013-12-08T01:49:34Z</time>
      </trkpt>
      <trkpt lat="45.96318" lon="3.89781">
        <ele>722.09</ele>
        <time>2013-12-08T01:49:35Z</time>
      </trkpt>
      <trkpt lat="45.96318" lon="3.8978">
        <ele>722.09</ele>
        <time>2013-12-08T01:49:36Z</time>
      </trkpt>
      <trkpt lat="45.96318" lon="3.89777">
        <ele>722.09</ele>
        <time>2013-12-08T01:49:37Z</time>
      </trkpt>
      <trkpt lat="45.96318" lon="3.89775">
        <ele>722.57</ele>
        <time>2013-12-08T01:49:38Z</time>
      </trkpt>
      <trkpt lat="45.96318" lon="3.89743">
        <ele>725.45</ele>
        <time>2013-12-08T01:49:54Z</time>
      </trkpt>
      <trkpt lat="45.96317" lon="3.89741">
        <ele>725.45</ele>
        <time>2013-12-08T01:49:56Z</time>
      </trkpt>
      <trkpt lat="45.96317" lon="3.89739">
        <ele>725.45</ele>
        <time>2013-12-08T01:49:57Z</time>
      </trkpt>
      <trkpt lat="45.96317" lon="3.89737">
        <ele>725.93</ele>
        <time>2013-12-08T01:49:58Z</time>
      </trkpt>
      <trkpt lat="45.96318" lon="3.89735">
        <ele>725.93</ele>
        <time>2013-12-08T01:49:59Z</time>
      </trkpt>
      <trkpt lat="45.96318" lon="3.89733">
        <ele>725.93</ele>
        <time>2013-12-08T01:50:00Z</time>
      </trkpt>
      <trkpt lat="45.96317" lon="3.89708">
        <ele>727.86</ele>
        <time>2013-12-08T01:50:13Z</time>
      </trkpt>
      <trkpt lat="45.96318" lon="3.89685">
        <ele>729.78</ele>
        <time>2013-12-08T01:50:25Z</time>
      </trkpt>
      <trkpt lat="45.96318" lon="3.89683">
        <ele>730.26</ele>
        <time>2013-12-08T01:50:26Z</time>
      </trkpt>
      <trkpt lat="45.96319" lon="3.89655">
        <ele>732.66</ele>
        <time>2013-12-08T01:50:41Z</time>
      </trkpt>
      <trkpt lat="45.96318" lon="3.89632">
        <ele>734.1</ele>
        <time>2013-12-08T01:50:52Z</time>
      </trkpt>
      <trkpt lat="45.9632" lon="3.896">
        <ele>736.99</ele>
        <time>2013-12-08T01:51:09Z</time>
      </trkpt>
      <trkpt lat="45.96321" lon="3.89592">
        <ele>737.95</ele>
        <time>2013-12-08T01:51:13Z</time>
      </trkpt>
      <trkpt lat="45.96321" lon="3.8959">
        <ele>737.95</ele>
        <time>2013-12-08T01:51:14Z</time>
      </trkpt>
      <trkpt lat="45.96321" lon="3.89583">
        <ele>738.43</ele>
        <time>2013-12-08T01:51:18Z</time>
      </trkpt>
      <trkpt lat="45.96321" lon="3.89578">
        <ele>738.91</ele>
        <time>2013-12-08T01:51:21Z</time>
      </trkpt>
      <trkpt lat="45.96322" lon="3.89576">
        <ele>739.39</ele>
        <time>2013-12-08T01:51:22Z</time>
      </trkpt>
      <trkpt lat="45.96322" lon="3.89574">
        <ele>739.39</ele>
        <time>2013-12-08T01:51:23Z</time>
      </trkpt>
      <trkpt lat="45.96321" lon="3.89562">
        <ele>740.35</ele>
        <time>2013-12-08T01:51:29Z</time>
      </trkpt>
      <trkpt lat="45.96321" lon="3.89552">
        <ele>740.83</ele>
        <time>2013-12-08T01:51:34Z</time>
      </trkpt>
      <trkpt lat="45.96321" lon="3.89524">
        <ele>743.72</ele>
        <time>2013-12-08T01:51:49Z</time>
      </trkpt>
      <trkpt lat="45.96321" lon="3.89498">
        <ele>746.12</ele>
        <time>2013-12-08T01:52:02Z</time>
      </trkpt>
      <trkpt lat="45.96322" lon="3.89486">
        <ele>747.56</ele>
        <time>2013-12-08T01:52:09Z</time>
      </trkpt>
      <trkpt lat="45.96322" lon="3.89484">
        <ele>747.56</ele>
        <time>2013-12-08T01:52:10Z</time>
      </trkpt>
      <trkpt lat="45.96322" lon="3.89482">
        <ele>747.56</ele>
        <time>2013-12-08T01:52:11Z</time>
      </trkpt>
      <trkpt lat="45.96322" lon="3.89479">
        <ele>748.04</ele>
        <time>2013-12-08T01:52:13Z</time>
      </trkpt>
      <trkpt lat="45.96322" lon="3.89477">
        <ele>748.04</ele>
        <time>2013-12-08T01:52:14Z</time>
      </trkpt>
      <trkpt lat="45.96321" lon="3.89473">
        <ele>748.52</ele>
        <time>2013-12-08T01:52:16Z</time>
      </trkpt>
      <trkpt lat="45.96321" lon="3.8947">
        <ele>748.52</ele>
        <time>2013-12-08T01:52:17Z</time>
      </trkpt>
      <trkpt lat="45.96321" lon="3.89468">
        <ele>749</ele>
        <time>2013-12-08T01:52:18Z</time>
      </trkpt>
      <trkpt lat="45.96321" lon="3.89466">
        <ele>749</ele>
        <time>2013-12-08T01:52:19Z</time>
      </trkpt>
      <trkpt lat="45.96321" lon="3.89464">
        <ele>749.49</ele>
        <time>2013-12-08T01:52:20Z</time>
      </trkpt>
      <trkpt lat="45.96316" lon="3.89438">
        <ele>752.37</ele>
        <time>2013-12-08T01:52:35Z</time>
      </trkpt>
      <trkpt lat="45.96314" lon="3.89413">
        <ele>755.25</ele>
        <time>2013-12-08T01:52:50Z</time>
      </trkpt>
      <trkpt lat="45.96312" lon="3.89391">
        <ele>757.66</ele>
        <time>2013-12-08T01:53:04Z</time>
      </trkpt>
      <trkpt lat="45.9631" lon="3.89382">
        <ele>758.62</ele>
        <time>2013-12-08T01:53:09Z</time>
      </trkpt>
      <trkpt lat="45.96304" lon="3.89353">
        <ele>761.5</ele>
        <time>2013-12-08T01:53:24Z</time>
      </trkpt>
      <trkpt lat="45.96303" lon="3.89346">
        <ele>761.98</ele>
        <time>2013-12-08T01:53:27Z</time>
      </trkpt>
      <trkpt lat="45.96303" lon="3.89343">
        <ele>761.98</ele>
        <time>2013-12-08T01:53:28Z</time>
      </trkpt>
      <trkpt lat="45.963" lon="3.8932">
        <ele>764.39</ele>
        <time>2013-12-08T01:53:39Z</time>
      </trkpt>
      <trkpt lat="45.96299" lon="3.89317">
        <ele>764.87</ele>
        <time>2013-12-08T01:53:40Z</time>
      </trkpt>
      <trkpt lat="45.96295" lon="3.89309">
        <ele>765.83</ele>
        <time>2013-12-08T01:53:44Z</time>
      </trkpt>
      <trkpt lat="45.96294" lon="3.89307">
        <ele>765.35</ele>
        <time>2013-12-08T01:53:45Z</time>
      </trkpt>
      <trkpt lat="45.96293" lon="3.89305">
        <ele>765.83</ele>
        <time>2013-12-08T01:53:46Z</time>
      </trkpt>
      <trkpt lat="45.96283" lon="3.89279">
        <ele>768.71</ele>
        <time>2013-12-08T01:54:02Z</time>
      </trkpt>
      <trkpt lat="45.96272" lon="3.89257">
        <ele>771.11</ele>
        <time>2013-12-08T01:54:17Z</time>
      </trkpt>
      <trkpt lat="45.96268" lon="3.89228">
        <ele>773.04</ele>
        <time>2013-12-08T01:54:28Z</time>
      </trkpt>
      <trkpt lat="45.96268" lon="3.89225">
        <ele>773.52</ele>
        <time>2013-12-08T01:54:29Z</time>
      </trkpt>
      <trkpt lat="45.96264" lon="3.89205">
        <ele>775.44</ele>
        <time>2013-12-08T01:54:41Z</time>
      </trkpt>
      <trkpt lat="45.96263" lon="3.89204">
        <ele>775.44</ele>
        <time>2013-12-08T01:54:42Z</time>
      </trkpt>
      <trkpt lat="45.96262" lon="3.89202">
        <ele>775.92</ele>
        <time>2013-12-08T01:54:43Z</time>
      </trkpt>
      <trkpt lat="45.96257" lon="3.89177">
        <ele>778.32</ele>
        <time>2013-12-08T01:54:55Z</time>
      </trkpt>
      <trkpt lat="45.96256" lon="3.89175">
        <ele>778.32</ele>
        <time>2013-12-08T01:54:56Z</time>
      </trkpt>
      <trkpt lat="45.96245" lon="3.89144">
        <ele>780.73</ele>
        <time>2013-12-08T01:55:12Z</time>
      </trkpt>
      <trkpt lat="45.96243" lon="3.89141">
        <ele>781.21</ele>
        <time>2013-12-08T01:55:14Z</time>
      </trkpt>
      <trkpt lat="45.96242" lon="3.89139">
        <ele>781.69</ele>
        <time>2013-12-08T01:55:15Z</time>
      </trkpt>
      <trkpt lat="45.96241" lon="3.89137">
        <ele>781.69</ele>
        <time>2013-12-08T01:55:16Z</time>
      </trkpt>
      <trkpt lat="45.96237" lon="3.89131">
        <ele>782.65</ele>
        <time>2013-12-08T01:55:21Z</time>
      </trkpt>
      <trkpt lat="45.96236" lon="3.8913">
        <ele>782.65</ele>
        <time>2013-12-08T01:55:22Z</time>
      </trkpt>
      <trkpt lat="45.96235" lon="3.89128">
        <ele>783.13</ele>
        <time>2013-12-08T01:55:23Z</time>
      </trkpt>
      <trkpt lat="45.96234" lon="3.89127">
        <ele>783.13</ele>
        <time>2013-12-08T01:55:24Z</time>
      </trkpt>
      <trkpt lat="45.96233" lon="3.89125">
        <ele>783.13</ele>
        <time>2013-12-08T01:55:25Z</time>
      </trkpt>
      <trkpt lat="45.96231" lon="3.89125">
        <ele>783.13</ele>
        <time>2013-12-08T01:55:26Z</time>
      </trkpt>
      <trkpt lat="45.96213" lon="3.89117">
        <ele>785.05</ele>
        <time>2013-12-08T01:55:39Z</time>
      </trkpt>
      <trkpt lat="45.96212" lon="3.89116">
        <ele>785.05</ele>
        <time>2013-12-08T01:55:40Z</time>
      </trkpt>
      <trkpt lat="45.96195" lon="3.89103">
        <ele>787.46</ele>
        <time>2013-12-08T01:55:53Z</time>
      </trkpt>
      <trkpt lat="45.96178" lon="3.89091">
        <ele>789.38</ele>
        <time>2013-12-08T01:56:07Z</time>
      </trkpt>
      <trkpt lat="45.96176" lon="3.8909">
        <ele>789.86</ele>
        <time>2013-12-08T01:56:08Z</time>
      </trkpt>
      <trkpt lat="45.96159" lon="3.8908">
        <ele>791.78</ele>
        <time>2013-12-08T01:56:22Z</time>
      </trkpt>
      <trkpt lat="45.96155" lon="3.89077">
        <ele>792.26</ele>
        <time>2013-12-08T01:56:25Z</time>
      </trkpt>
      <trkpt lat="45.96154" lon="3.89076">
        <ele>792.74</ele>
        <time>2013-12-08T01:56:26Z</time>
      </trkpt>
      <trkpt lat="45.96153" lon="3.89075">
        <ele>792.74</ele>
        <time>2013-12-08T01:56:27Z</time>
      </trkpt>
      <trkpt lat="45.96152" lon="3.89074">
        <ele>792.74</ele>
        <time>2013-12-08T01:56:28Z</time>
      </trkpt>
      <trkpt lat="45.96151" lon="3.89074">
        <ele>793.22</ele>
        <time>2013-12-08T01:56:29Z</time>
      </trkpt>
      <trkpt lat="45.96146" lon="3.89073">
        <ele>793.71</ele>
        <time>2013-12-08T01:56:33Z</time>
      </trkpt>
      <trkpt lat="45.96139" lon="3.8907">
        <ele>794.67</ele>
        <time>2013-12-08T01:56:40Z</time>
      </trkpt>
      <trkpt lat="45.96132" lon="3.89066">
        <ele>795.63</ele>
        <time>2013-12-08T01:56:46Z</time>
      </trkpt>
      <trkpt lat="45.9613" lon="3.89064">
        <ele>795.63</ele>
        <time>2013-12-08T01:56:48Z</time>
      </trkpt>
      <trkpt lat="45.96114" lon="3.89055">
        <ele>798.03</ele>
        <time>2013-12-08T01:57:00Z</time>
      </trkpt>
      <trkpt lat="45.96112" lon="3.89054">
        <ele>798.51</ele>
        <time>2013-12-08T01:57:01Z</time>
      </trkpt>
      <trkpt lat="45.9611" lon="3.89053">
        <ele>798.51</ele>
        <time>2013-12-08T01:57:02Z</time>
      </trkpt>
      <trkpt lat="45.96109" lon="3.89053">
        <ele>798.99</ele>
        <time>2013-12-08T01:57:03Z</time>
      </trkpt>
      <trkpt lat="45.96108" lon="3.89052">
        <ele>798.99</ele>
        <time>2013-12-08T01:57:04Z</time>
      </trkpt>
      <trkpt lat="45.96106" lon="3.89052">
        <ele>798.99</ele>
        <time>2013-12-08T01:57:05Z</time>
      </trkpt>
      <trkpt lat="45.96087" lon="3.89041">
        <ele>800.92</ele>
        <time>2013-12-08T01:57:19Z</time>
      </trkpt>
      <trkpt lat="45.96065" lon="3.89028">
        <ele>803.32</ele>
        <time>2013-12-08T01:57:37Z</time>
      </trkpt>
      <trkpt lat="45.96054" lon="3.89022">
        <ele>805.24</ele>
        <time>2013-12-08T01:57:46Z</time>
      </trkpt>
      <trkpt lat="45.96052" lon="3.89021">
        <ele>805.24</ele>
        <time>2013-12-08T01:57:48Z</time>
      </trkpt>
      <trkpt lat="45.96051" lon="3.8902">
        <ele>805.72</ele>
        <time>2013-12-08T01:57:49Z</time>
      </trkpt>
      <trkpt lat="45.96049" lon="3.89019">
        <ele>805.72</ele>
        <time>2013-12-08T01:57:50Z</time>
      </trkpt>
      <trkpt lat="45.96028" lon="3.89007">
        <ele>808.13</ele>
        <time>2013-12-08T01:58:05Z</time>
      </trkpt>
      <trkpt lat="45.96009" lon="3.88999">
        <ele>810.53</ele>
        <time>2013-12-08T01:58:18Z</time>
      </trkpt>
      <trkpt lat="45.95992" lon="3.88991">
        <ele>812.45</ele>
        <time>2013-12-08T01:58:31Z</time>
      </trkpt>
      <trkpt lat="45.95969" lon="3.88984">
        <ele>813.89</ele>
        <time>2013-12-08T01:58:47Z</time>
      </trkpt>
      <trkpt lat="45.95953" lon="3.88985">
        <ele>814.85</ele>
        <time>2013-12-08T01:58:56Z</time>
      </trkpt>
      <trkpt lat="45.95935" lon="3.88982">
        <ele>816.78</ele>
        <time>2013-12-08T01:59:08Z</time>
      </trkpt>
      <trkpt lat="45.95924" lon="3.88977">
        <ele>817.26</ele>
        <time>2013-12-08T01:59:15Z</time>
      </trkpt>
      <trkpt lat="45.95923" lon="3.88978">
        <ele>817.26</ele>
        <time>2013-12-08T01:59:16Z</time>
      </trkpt>
      <trkpt lat="45.95921" lon="3.88977">
        <ele>817.26</ele>
        <time>2013-12-08T01:59:17Z</time>
      </trkpt>
      <trkpt lat="45.95919" lon="3.88977">
        <ele>817.74</ele>
        <time>2013-12-08T01:59:18Z</time>
      </trkpt>
      <trkpt lat="45.95918" lon="3.88977">
        <ele>817.74</ele>
        <time>2013-12-08T01:59:19Z</time>
      </trkpt>
      <trkpt lat="45.95899" lon="3.88975">
        <ele>819.18</ele>
        <time>2013-12-08T01:59:32Z</time>
      </trkpt>
      <trkpt lat="45.95881" lon="3.88972">
        <ele>821.1</ele>
        <time>2013-12-08T01:59:45Z</time>
      </trkpt>
      <trkpt lat="45.95862" lon="3.88968">
        <ele>821.58</ele>
        <time>2013-12-08T01:59:58Z</time>
      </trkpt>
      <trkpt lat="45.9584" lon="3.8896">
        <ele>823.51</ele>
        <time>2013-12-08T02:00:14Z</time>
      </trkpt>
      <trkpt lat="45.9583" lon="3.88957">
        <ele>824.47</ele>
        <time>2013-12-08T02:00:23Z</time>
      </trkpt>
      <trkpt lat="45.95828" lon="3.88956">
        <ele>824.47</ele>
        <time>2013-12-08T02:00:24Z</time>
      </trkpt>
      <trkpt lat="45.95827" lon="3.88957">
        <ele>824.95</ele>
        <time>2013-12-08T02:00:25Z</time>
      </trkpt>
      <trkpt lat="45.95807" lon="3.88952">
        <ele>826.39</ele>
        <time>2013-12-08T02:00:39Z</time>
      </trkpt>
      <trkpt lat="45.95786" lon="3.88946">
        <ele>827.83</ele>
        <time>2013-12-08T02:00:52Z</time>
      </trkpt>
      <trkpt lat="45.9577" lon="3.88941">
        <ele>828.79</ele>
        <time>2013-12-08T02:01:03Z</time>
      </trkpt>
      <trkpt lat="45.95769" lon="3.8894">
        <ele>828.79</ele>
        <time>2013-12-08T02:01:04Z</time>
      </trkpt>
      <trkpt lat="45.95768" lon="3.88939">
        <ele>828.79</ele>
        <time>2013-12-08T02:01:05Z</time>
      </trkpt>
      <trkpt lat="45.95764" lon="3.88937">
        <ele>829.27</ele>
        <time>2013-12-08T02:01:08Z</time>
      </trkpt>
      <trkpt lat="45.95747" lon="3.88934">
        <ele>831.2</ele>
        <time>2013-12-08T02:01:21Z</time>
      </trkpt>
      <trkpt lat="45.95729" lon="3.88926">
        <ele>833.12</ele>
        <time>2013-12-08T02:01:35Z</time>
      </trkpt>
      <trkpt lat="45.95724" lon="3.88922">
        <ele>834.08</ele>
        <time>2013-12-08T02:01:40Z</time>
      </trkpt>
      <trkpt lat="45.95705" lon="3.88913">
        <ele>836</ele>
        <time>2013-12-08T02:01:54Z</time>
      </trkpt>
      <trkpt lat="45.95698" lon="3.8891">
        <ele>837.45</ele>
        <time>2013-12-08T02:02:00Z</time>
      </trkpt>
      <trkpt lat="45.95696" lon="3.88909">
        <ele>837.45</ele>
        <time>2013-12-08T02:02:01Z</time>
      </trkpt>
      <trkpt lat="45.95695" lon="3.88909">
        <ele>837.93</ele>
        <time>2013-12-08T02:02:02Z</time>
      </trkpt>
      <trkpt lat="45.95693" lon="3.88909">
        <ele>837.93</ele>
        <time>2013-12-08T02:02:03Z</time>
      </trkpt>
      <trkpt lat="45.95691" lon="3.88909">
        <ele>838.41</ele>
        <time>2013-12-08T02:02:04Z</time>
      </trkpt>
      <trkpt lat="45.95689" lon="3.88908">
        <ele>838.41</ele>
        <time>2013-12-08T02:02:05Z</time>
      </trkpt>
      <trkpt lat="45.95669" lon="3.88902">
        <ele>840.81</ele>
        <time>2013-12-08T02:02:19Z</time>
      </trkpt>
      <trkpt lat="45.95649" lon="3.88897">
        <ele>843.21</ele>
        <time>2013-12-08T02:02:35Z</time>
      </trkpt>
      <trkpt lat="45.95634" lon="3.88891">
        <ele>844.66</ele>
        <time>2013-12-08T02:02:48Z</time>
      </trkpt>
      <trkpt lat="45.95631" lon="3.88891">
        <ele>845.62</ele>
        <time>2013-12-08T02:02:50Z</time>
      </trkpt>
      <trkpt lat="45.95609" lon="3.88892">
        <ele>847.54</ele>
        <time>2013-12-08T02:03:06Z</time>
      </trkpt>
      <trkpt lat="45.9559" lon="3.88891">
        <ele>849.46</ele>
        <time>2013-12-08T02:03:19Z</time>
      </trkpt>
      <trkpt lat="45.95583" lon="3.88889">
        <ele>850.42</ele>
        <time>2013-12-08T02:03:26Z</time>
      </trkpt>
      <trkpt lat="45.95581" lon="3.88888">
        <ele>850.42</ele>
        <time>2013-12-08T02:03:27Z</time>
      </trkpt>
      <trkpt lat="45.9558" lon="3.88887">
        <ele>850.9</ele>
        <time>2013-12-08T02:03:28Z</time>
      </trkpt>
      <trkpt lat="45.95578" lon="3.88886">
        <ele>850.9</ele>
        <time>2013-12-08T02:03:29Z</time>
      </trkpt>
      <trkpt lat="45.95577" lon="3.88886">
        <ele>850.9</ele>
        <time>2013-12-08T02:03:30Z</time>
      </trkpt>
      <trkpt lat="45.95576" lon="3.88885">
        <ele>851.38</ele>
        <time>2013-12-08T02:03:31Z</time>
      </trkpt>
      <trkpt lat="45.95556" lon="3.88877">
        <ele>853.31</ele>
        <time>2013-12-08T02:03:47Z</time>
      </trkpt>
      <trkpt lat="45.95533" lon="3.88874">
        <ele>856.19</ele>
        <time>2013-12-08T02:04:04Z</time>
      </trkpt>
      <trkpt lat="45.95512" lon="3.88869">
        <ele>858.59</ele>
        <time>2013-12-08T02:04:19Z</time>
      </trkpt>
      <trkpt lat="45.95492" lon="3.88866">
        <ele>860.52</ele>
        <time>2013-12-08T02:04:34Z</time>
      </trkpt>
      <trkpt lat="45.95473" lon="3.88861">
        <ele>862.44</ele>
        <time>2013-12-08T02:04:49Z</time>
      </trkpt>
      <trkpt lat="45.95452" lon="3.88852">
        <ele>865.32</ele>
        <time>2013-12-08T02:05:05Z</time>
      </trkpt>
      <trkpt lat="45.95435" lon="3.88847">
        <ele>867.25</ele>
        <time>2013-12-08T02:05:17Z</time>
      </trkpt>
      <trkpt lat="45.95418" lon="3.88842">
        <ele>869.17</ele>
        <time>2013-12-08T02:05:31Z</time>
      </trkpt>
      <trkpt lat="45.95398" lon="3.88837">
        <ele>872.05</ele>
        <time>2013-12-08T02:05:46Z</time>
      </trkpt>
      <trkpt lat="45.95392" lon="3.88835">
        <ele>872.53</ele>
        <time>2013-12-08T02:05:52Z</time>
      </trkpt>
      <trkpt lat="45.9539" lon="3.88835">
        <ele>872.53</ele>
        <time>2013-12-08T02:05:53Z</time>
      </trkpt>
      <trkpt lat="45.95389" lon="3.88835">
        <ele>873.01</ele>
        <time>2013-12-08T02:05:54Z</time>
      </trkpt>
      <trkpt lat="45.95387" lon="3.88835">
        <ele>873.01</ele>
        <time>2013-12-08T02:05:55Z</time>
      </trkpt>
      <trkpt lat="45.95386" lon="3.88835">
        <ele>873.01</ele>
        <time>2013-12-08T02:05:56Z</time>
      </trkpt>
      <trkpt lat="45.95384" lon="3.88834">
        <ele>873.01</ele>
        <time>2013-12-08T02:05:57Z</time>
      </trkpt>
      <trkpt lat="45.95369" lon="3.88829">
        <ele>874.94</ele>
        <time>2013-12-08T02:06:09Z</time>
      </trkpt>
      <trkpt lat="45.95365" lon="3.88829">
        <ele>875.9</ele>
        <time>2013-12-08T02:06:12Z</time>
      </trkpt>
      <trkpt lat="45.95364" lon="3.88829">
        <ele>875.9</ele>
        <time>2013-12-08T02:06:13Z</time>
      </trkpt>
      <trkpt lat="45.95358" lon="3.88827">
        <ele>876.38</ele>
        <time>2013-12-08T02:06:17Z</time>
      </trkpt>
      <trkpt lat="45.95357" lon="3.88827">
        <ele>876.38</ele>
        <time>2013-12-08T02:06:18Z</time>
      </trkpt>
      <trkpt lat="45.95356" lon="3.88826">
        <ele>876.86</ele>
        <time>2013-12-08T02:06:19Z</time>
      </trkpt>
      <trkpt lat="45.95354" lon="3.88826">
        <ele>876.86</ele>
        <time>2013-12-08T02:06:20Z</time>
      </trkpt>
      <trkpt lat="45.95353" lon="3.88825">
        <ele>876.86</ele>
        <time>2013-12-08T02:06:21Z</time>
      </trkpt>
      <trkpt lat="45.95351" lon="3.88825">
        <ele>877.34</ele>
        <time>2013-12-08T02:06:22Z</time>
      </trkpt>
      <trkpt lat="45.9535" lon="3.88824">
        <ele>877.34</ele>
        <time>2013-12-08T02:06:23Z</time>
      </trkpt>
      <trkpt lat="45.95348" lon="3.88824">
        <ele>877.34</ele>
        <time>2013-12-08T02:06:24Z</time>
      </trkpt>
      <trkpt lat="45.95347" lon="3.88823">
        <ele>877.82</ele>
        <time>2013-12-08T02:06:25Z</time>
      </trkpt>
      <trkpt lat="45.95346" lon="3.88821">
        <ele>877.82</ele>
        <time>2013-12-08T02:06:26Z</time>
      </trkpt>
      <trkpt lat="45.9534" lon="3.88809">
        <ele>878.78</ele>
        <time>2013-12-08T02:06:36Z</time>
      </trkpt>
      <trkpt lat="45.95338" lon="3.88803">
        <ele>878.3</ele>
        <time>2013-12-08T02:06:51Z</time>
      </trkpt>
      <trkpt lat="45.95336" lon="3.88802">
        <ele>878.78</ele>
        <time>2013-12-08T02:07:04Z</time>
      </trkpt>
      <trkpt lat="45.95335" lon="3.88804">
        <ele>878.78</ele>
        <time>2013-12-08T02:07:19Z</time>
      </trkpt>
      <trkpt lat="45.95334" lon="3.88796">
        <ele>878.3</ele>
        <time>2013-12-08T02:07:34Z</time>
      </trkpt>
      <trkpt lat="45.95334" lon="3.88795">
        <ele>878.3</ele>
        <time>2013-12-08T02:07:35Z</time>
      </trkpt>
      <trkpt lat="45.95331" lon="3.88778">
        <ele>878.3</ele>
        <time>2013-12-08T02:07:49Z</time>
      </trkpt>
      <trkpt lat="45.95331" lon="3.88776">
        <ele>878.3</ele>
        <time>2013-12-08T02:07:51Z</time>
      </trkpt>
      <trkpt lat="45.95332" lon="3.88774">
        <ele>878.3</ele>
        <time>2013-12-08T02:07:52Z</time>
      </trkpt>
      <trkpt lat="45.95331" lon="3.88772">
        <ele>878.3</ele>
        <time>2013-12-08T02:07:53Z</time>
      </trkpt>
      <trkpt lat="45.95331" lon="3.8877">
        <ele>878.3</ele>
        <time>2013-12-08T02:07:54Z</time>
      </trkpt>
      <trkpt lat="45.95331" lon="3.88768">
        <ele>878.3</ele>
        <time>2013-12-08T02:07:55Z</time>
      </trkpt>
      <trkpt lat="45.9533" lon="3.88766">
        <ele>878.3</ele>
        <time>2013-12-08T02:07:56Z</time>
      </trkpt>
      <trkpt lat="45.9533" lon="3.8876">
        <ele>878.3</ele>
        <time>2013-12-08T02:07:58Z</time>
      </trkpt>
      <trkpt lat="45.9533" lon="3.88758">
        <ele>878.3</ele>
        <time>2013-12-08T02:07:59Z</time>
      </trkpt>
      <trkpt lat="45.95332" lon="3.88735">
        <ele>878.3</ele>
        <time>2013-12-08T02:08:11Z</time>
      </trkpt>
      <trkpt lat="45.95333" lon="3.88714">
        <ele>878.3</ele>
        <time>2013-12-08T02:08:22Z</time>
      </trkpt>
      <trkpt lat="45.95333" lon="3.88712">
        <ele>878.3</ele>
        <time>2013-12-08T02:08:23Z</time>
      </trkpt>
      <trkpt lat="45.95334" lon="3.8871">
        <ele>878.3</ele>
        <time>2013-12-08T02:08:24Z</time>
      </trkpt>
      <trkpt lat="45.95334" lon="3.88708">
        <ele>878.3</ele>
        <time>2013-12-08T02:08:25Z</time>
      </trkpt>
      <trkpt lat="45.95334" lon="3.88706">
        <ele>878.3</ele>
        <time>2013-12-08T02:08:26Z</time>
      </trkpt>
      <trkpt lat="45.95335" lon="3.88704">
        <ele>878.3</ele>
        <time>2013-12-08T02:08:27Z</time>
      </trkpt>
      <trkpt lat="45.95335" lon="3.88702">
        <ele>878.3</ele>
        <time>2013-12-08T02:08:28Z</time>
      </trkpt>
      <trkpt lat="45.95339" lon="3.88673">
        <ele>877.82</ele>
        <time>2013-12-08T02:08:41Z</time>
      </trkpt>
      <trkpt lat="45.95341" lon="3.88643">
        <ele>877.82</ele>
        <time>2013-12-08T02:08:57Z</time>
      </trkpt>
      <trkpt lat="45.95342" lon="3.88632">
        <ele>877.82</ele>
        <time>2013-12-08T02:09:03Z</time>
      </trkpt>
      <trkpt lat="45.95347" lon="3.88605">
        <ele>878.3</ele>
        <time>2013-12-08T02:09:17Z</time>
      </trkpt>
      <trkpt lat="45.95353" lon="3.88574">
        <ele>878.3</ele>
        <time>2013-12-08T02:09:32Z</time>
      </trkpt>
      <trkpt lat="45.95357" lon="3.88557">
        <ele>875.42</ele>
        <time>2013-12-08T02:09:40Z</time>
      </trkpt>
      <trkpt lat="45.95357" lon="3.88554">
        <ele>880.71</ele>
        <time>2013-12-08T02:09:41Z</time>
      </trkpt>
      <trkpt lat="45.95361" lon="3.88543">
        <ele>877.82</ele>
        <time>2013-12-08T02:09:47Z</time>
      </trkpt>
      <trkpt lat="45.95369" lon="3.88518">
        <ele>882.63</ele>
        <time>2013-12-08T02:10:00Z</time>
      </trkpt>
      <trkpt lat="45.9537" lon="3.88516">
        <ele>878.3</ele>
        <time>2013-12-08T02:10:01Z</time>
      </trkpt>
      <trkpt lat="45.95387" lon="3.88502">
        <ele>873.98</ele>
        <time>2013-12-08T02:10:14Z</time>
      </trkpt>
      <trkpt lat="45.95388" lon="3.88501">
        <ele>884.55</ele>
        <time>2013-12-08T02:10:15Z</time>
      </trkpt>
      <trkpt lat="45.9539" lon="3.885">
        <ele>878.3</ele>
        <time>2013-12-08T02:10:16Z</time>
      </trkpt>
      <trkpt lat="45.95393" lon="3.88499">
        <ele>882.15</ele>
        <time>2013-12-08T02:10:18Z</time>
      </trkpt>
      <trkpt lat="45.95394" lon="3.88499">
        <ele>879.74</ele>
        <time>2013-12-08T02:10:19Z</time>
      </trkpt>
      <trkpt lat="45.95408" lon="3.88494">
        <ele>879.74</ele>
        <time>2013-12-08T02:10:28Z</time>
      </trkpt>
      <trkpt lat="45.95419" lon="3.88489">
        <ele>883.11</ele>
        <time>2013-12-08T02:10:36Z</time>
      </trkpt>
      <trkpt lat="45.9542" lon="3.88488">
        <ele>879.26</ele>
        <time>2013-12-08T02:10:37Z</time>
      </trkpt>
      <trkpt lat="45.95442" lon="3.8847">
        <ele>879.26</ele>
        <time>2013-12-08T02:10:54Z</time>
      </trkpt>
      <trkpt lat="45.95445" lon="3.88465">
        <ele>879.26</ele>
        <time>2013-12-08T02:10:57Z</time>
      </trkpt>
      <trkpt lat="45.95451" lon="3.88442">
        <ele>879.26</ele>
        <time>2013-12-08T02:11:09Z</time>
      </trkpt>
      <trkpt lat="45.95449" lon="3.88415">
        <ele>879.26</ele>
        <time>2013-12-08T02:11:22Z</time>
      </trkpt>
      <trkpt lat="45.95446" lon="3.88408">
        <ele>878.3</ele>
        <time>2013-12-08T02:11:27Z</time>
      </trkpt>
      <trkpt lat="45.95446" lon="3.88406">
        <ele>878.3</ele>
        <time>2013-12-08T02:11:28Z</time>
      </trkpt>
      <trkpt lat="45.95445" lon="3.88405">
        <ele>877.82</ele>
        <time>2013-12-08T02:11:29Z</time>
      </trkpt>
      <trkpt lat="45.95444" lon="3.88403">
        <ele>877.82</ele>
        <time>2013-12-08T02:11:30Z</time>
      </trkpt>
      <trkpt lat="45.95443" lon="3.88401">
        <ele>877.34</ele>
        <time>2013-12-08T02:11:31Z</time>
      </trkpt>
      <trkpt lat="45.95431" lon="3.88393">
        <ele>873.98</ele>
        <time>2013-12-08T02:11:38Z</time>
      </trkpt>
      <trkpt lat="45.95424" lon="3.8839">
        <ele>872.05</ele>
        <time>2013-12-08T02:11:41Z</time>
      </trkpt>
      <trkpt lat="45.95412" lon="3.88374">
        <ele>870.13</ele>
        <time>2013-12-08T02:11:49Z</time>
      </trkpt>
      <trkpt lat="45.95411" lon="3.88335">
        <ele>869.65</ele>
        <time>2013-12-08T02:12:02Z</time>
      </trkpt>
      <trkpt lat="45.9541" lon="3.88332">
        <ele>869.65</ele>
        <time>2013-12-08T02:12:03Z</time>
      </trkpt>
      <trkpt lat="45.95407" lon="3.88294">
        <ele>869.65</ele>
        <time>2013-12-08T02:12:17Z</time>
      </trkpt>
      <trkpt lat="45.95403" lon="3.88259">
        <ele>869.65</ele>
        <time>2013-12-08T02:12:29Z</time>
      </trkpt>
      <trkpt lat="45.95397" lon="3.88228">
        <ele>870.13</ele>
        <time>2013-12-08T02:12:42Z</time>
      </trkpt>
      <trkpt lat="45.95391" lon="3.88201">
        <ele>870.61</ele>
        <time>2013-12-08T02:12:56Z</time>
      </trkpt>
      <trkpt lat="45.95383" lon="3.88173">
        <ele>871.57</ele>
        <time>2013-12-08T02:13:09Z</time>
      </trkpt>
      <trkpt lat="45.95382" lon="3.88169">
        <ele>871.57</ele>
        <time>2013-12-08T02:13:11Z</time>
      </trkpt>
      <trkpt lat="45.95382" lon="3.88166">
        <ele>871.57</ele>
        <time>2013-12-08T02:13:12Z</time>
      </trkpt>
      <trkpt lat="45.95382" lon="3.88164">
        <ele>871.57</ele>
        <time>2013-12-08T02:13:13Z</time>
      </trkpt>
      <trkpt lat="45.95382" lon="3.88162">
        <ele>872.05</ele>
        <time>2013-12-08T02:13:14Z</time>
      </trkpt>
      <trkpt lat="45.95381" lon="3.8816">
        <ele>872.05</ele>
        <time>2013-12-08T02:13:15Z</time>
      </trkpt>
      <trkpt lat="45.95374" lon="3.8813">
        <ele>873.98</ele>
        <time>2013-12-08T02:13:30Z</time>
      </trkpt>
      <trkpt lat="45.95367" lon="3.88106">
        <ele>875.42</ele>
        <time>2013-12-08T02:13:43Z</time>
      </trkpt>
      <trkpt lat="45.95356" lon="3.88082">
        <ele>877.34</ele>
        <time>2013-12-08T02:13:58Z</time>
      </trkpt>
      <trkpt lat="45.95348" lon="3.88063">
        <ele>878.78</ele>
        <time>2013-12-08T02:14:10Z</time>
      </trkpt>
      <trkpt lat="45.95347" lon="3.88062">
        <ele>878.78</ele>
        <time>2013-12-08T02:14:11Z</time>
      </trkpt>
      <trkpt lat="45.95347" lon="3.8806">
        <ele>878.78</ele>
        <time>2013-12-08T02:14:12Z</time>
      </trkpt>
      <trkpt lat="45.95346" lon="3.88059">
        <ele>879.26</ele>
        <time>2013-12-08T02:14:13Z</time>
      </trkpt>
      <trkpt lat="45.95346" lon="3.88057">
        <ele>879.26</ele>
        <time>2013-12-08T02:14:14Z</time>
      </trkpt>
      <trkpt lat="45.95346" lon="3.88055">
        <ele>879.26</ele>
        <time>2013-12-08T02:14:15Z</time>
      </trkpt>
      <trkpt lat="45.95345" lon="3.88053">
        <ele>879.26</ele>
        <time>2013-12-08T02:14:16Z</time>
      </trkpt>
      <trkpt lat="45.95345" lon="3.88051">
        <ele>879.74</ele>
        <time>2013-12-08T02:14:17Z</time>
      </trkpt>
      <trkpt lat="45.95344" lon="3.8805">
        <ele>879.74</ele>
        <time>2013-12-08T02:14:18Z</time>
      </trkpt>
      <trkpt lat="45.95335" lon="3.88033">
        <ele>880.71</ele>
        <time>2013-12-08T02:14:30Z</time>
      </trkpt>
      <trkpt lat="45.95332" lon="3.88026">
        <ele>881.19</ele>
        <time>2013-12-08T02:14:34Z</time>
      </trkpt>
      <trkpt lat="45.95331" lon="3.88022">
        <ele>881.67</ele>
        <time>2013-12-08T02:14:37Z</time>
      </trkpt>
      <trkpt lat="45.95331" lon="3.8802">
        <ele>882.15</ele>
        <time>2013-12-08T02:14:38Z</time>
      </trkpt>
      <trkpt lat="45.9533" lon="3.88018">
        <ele>882.15</ele>
        <time>2013-12-08T02:14:39Z</time>
      </trkpt>
      <trkpt lat="45.9533" lon="3.88016">
        <ele>882.15</ele>
        <time>2013-12-08T02:14:40Z</time>
      </trkpt>
      <trkpt lat="45.95329" lon="3.88013">
        <ele>882.15</ele>
        <time>2013-12-08T02:14:41Z</time>
      </trkpt>
      <trkpt lat="45.95329" lon="3.88011">
        <ele>882.15</ele>
        <time>2013-12-08T02:14:42Z</time>
      </trkpt>
      <trkpt lat="45.95328" lon="3.88009">
        <ele>882.63</ele>
        <time>2013-12-08T02:14:43Z</time>
      </trkpt>
      <trkpt lat="45.95327" lon="3.88007">
        <ele>882.63</ele>
        <time>2013-12-08T02:14:44Z</time>
      </trkpt>
      <trkpt lat="45.95327" lon="3.88005">
        <ele>882.63</ele>
        <time>2013-12-08T02:14:45Z</time>
      </trkpt>
      <trkpt lat="45.95315" lon="3.8798">
        <ele>883.11</ele>
        <time>2013-12-08T02:14:56Z</time>
      </trkpt>
      <trkpt lat="45.95303" lon="3.87948">
        <ele>883.59</ele>
        <time>2013-12-08T02:15:12Z</time>
      </trkpt>
      <trkpt lat="45.95294" lon="3.87924">
        <ele>884.55</ele>
        <time>2013-12-08T02:15:24Z</time>
      </trkpt>
      <trkpt lat="45.95284" lon="3.87899">
        <ele>885.51</ele>
        <time>2013-12-08T02:15:36Z</time>
      </trkpt>
      <trkpt lat="45.95273" lon="3.87874">
        <ele>885.99</ele>
        <time>2013-12-08T02:15:49Z</time>
      </trkpt>
      <trkpt lat="45.95262" lon="3.87857">
        <ele>886.95</ele>
        <time>2013-12-08T02:16:00Z</time>
      </trkpt>
      <trkpt lat="45.95261" lon="3.87855">
        <ele>886.95</ele>
        <time>2013-12-08T02:16:01Z</time>
      </trkpt>
      <trkpt lat="45.9526" lon="3.87854">
        <ele>886.95</ele>
        <time>2013-12-08T02:16:02Z</time>
      </trkpt>
      <trkpt lat="45.95256" lon="3.87847">
        <ele>887.43</ele>
        <time>2013-12-08T02:16:06Z</time>
      </trkpt>
      <trkpt lat="45.95254" lon="3.87846">
        <ele>887.43</ele>
        <time>2013-12-08T02:16:07Z</time>
      </trkpt>
      <trkpt lat="45.95253" lon="3.87845">
        <ele>887.43</ele>
        <time>2013-12-08T02:16:08Z</time>
      </trkpt>
      <trkpt lat="45.95251" lon="3.87843">
        <ele>887.43</ele>
        <time>2013-12-08T02:16:09Z</time>
      </trkpt>
      <trkpt lat="45.9525" lon="3.87842">
        <ele>887.43</ele>
        <time>2013-12-08T02:16:10Z</time>
      </trkpt>
      <trkpt lat="45.95229" lon="3.87821">
        <ele>888.4</ele>
        <time>2013-12-08T02:16:26Z</time>
      </trkpt>
      <trkpt lat="45.95211" lon="3.87807">
        <ele>888.88</ele>
        <time>2013-12-08T02:16:38Z</time>
      </trkpt>
      <trkpt lat="45.9519" lon="3.87787">
        <ele>889.36</ele>
        <time>2013-12-08T02:16:53Z</time>
      </trkpt>
      <trkpt lat="45.95174" lon="3.8777">
        <ele>889.36</ele>
        <time>2013-12-08T02:17:06Z</time>
      </trkpt>
      <trkpt lat="45.95154" lon="3.87751">
        <ele>888.88</ele>
        <time>2013-12-08T02:17:20Z</time>
      </trkpt>
      <trkpt lat="45.9513" lon="3.87728">
        <ele>889.36</ele>
        <time>2013-12-08T02:17:38Z</time>
      </trkpt>
      <trkpt lat="45.9511" lon="3.87724">
        <ele>890.32</ele>
        <time>2013-12-08T02:17:52Z</time>
      </trkpt>
      <trkpt lat="45.95092" lon="3.87736">
        <ele>890.8</ele>
        <time>2013-12-08T02:18:05Z</time>
      </trkpt>
      <trkpt lat="45.9508" lon="3.87754">
        <ele>891.28</ele>
        <time>2013-12-08T02:18:16Z</time>
      </trkpt>
      <trkpt lat="45.95079" lon="3.87756">
        <ele>891.76</ele>
        <time>2013-12-08T02:18:17Z</time>
      </trkpt>
      <trkpt lat="45.95069" lon="3.87778">
        <ele>892.72</ele>
        <time>2013-12-08T02:18:30Z</time>
      </trkpt>
      <trkpt lat="45.95058" lon="3.87808">
        <ele>893.2</ele>
        <time>2013-12-08T02:18:45Z</time>
      </trkpt>
      <trkpt lat="45.95046" lon="3.87836">
        <ele>894.64</ele>
        <time>2013-12-08T02:18:59Z</time>
      </trkpt>
      <trkpt lat="45.95033" lon="3.87865">
        <ele>895.61</ele>
        <time>2013-12-08T02:19:13Z</time>
      </trkpt>
      <trkpt lat="45.9502" lon="3.87892">
        <ele>896.09</ele>
        <time>2013-12-08T02:19:27Z</time>
      </trkpt>
      <trkpt lat="45.95007" lon="3.87917">
        <ele>897.53</ele>
        <time>2013-12-08T02:19:41Z</time>
      </trkpt>
      <trkpt lat="45.94989" lon="3.87942">
        <ele>898.49</ele>
        <time>2013-12-08T02:19:57Z</time>
      </trkpt>
      <trkpt lat="45.94987" lon="3.87943">
        <ele>898.49</ele>
        <time>2013-12-08T02:19:58Z</time>
      </trkpt>
      <trkpt lat="45.94986" lon="3.87944">
        <ele>898.97</ele>
        <time>2013-12-08T02:19:59Z</time>
      </trkpt>
      <trkpt lat="45.94984" lon="3.87945">
        <ele>898.97</ele>
        <time>2013-12-08T02:20:00Z</time>
      </trkpt>
      <trkpt lat="45.94983" lon="3.87946">
        <ele>898.97</ele>
        <time>2013-12-08T02:20:01Z</time>
      </trkpt>
      <trkpt lat="45.94963" lon="3.87967">
        <ele>899.93</ele>
        <time>2013-12-08T02:20:17Z</time>
      </trkpt>
      <trkpt lat="45.94956" lon="3.87972">
        <ele>900.41</ele>
        <time>2013-12-08T02:20:22Z</time>
      </trkpt>
      <trkpt lat="45.94955" lon="3.87973">
        <ele>900.41</ele>
        <time>2013-12-08T02:20:23Z</time>
      </trkpt>
      <trkpt lat="45.94954" lon="3.87973">
        <ele>900.89</ele>
        <time>2013-12-08T02:20:24Z</time>
      </trkpt>
      <trkpt lat="45.94937" lon="3.87979">
        <ele>901.37</ele>
        <time>2013-12-08T02:20:38Z</time>
      </trkpt>
      <trkpt lat="45.94936" lon="3.87979">
        <ele>901.37</ele>
        <time>2013-12-08T02:20:39Z</time>
      </trkpt>
      <trkpt lat="45.94934" lon="3.87979">
        <ele>901.37</ele>
        <time>2013-12-08T02:20:40Z</time>
      </trkpt>
      <trkpt lat="45.94933" lon="3.87979">
        <ele>901.37</ele>
        <time>2013-12-08T02:20:41Z</time>
      </trkpt>
      <trkpt lat="45.94932" lon="3.87979">
        <ele>901.37</ele>
        <time>2013-12-08T02:20:42Z</time>
      </trkpt>
      <trkpt lat="45.9493" lon="3.87978">
        <ele>901.37</ele>
        <time>2013-12-08T02:20:43Z</time>
      </trkpt>
      <trkpt lat="45.94909" lon="3.87968">
        <ele>901.37</ele>
        <time>2013-12-08T02:21:00Z</time>
      </trkpt>
      <trkpt lat="45.94889" lon="3.87954">
        <ele>901.37</ele>
        <time>2013-12-08T02:21:17Z</time>
      </trkpt>
      <trkpt lat="45.94874" lon="3.87938">
        <ele>901.37</ele>
        <time>2013-12-08T02:21:31Z</time>
      </trkpt>
      <trkpt lat="45.9486" lon="3.87922">
        <ele>900.89</ele>
        <time>2013-12-08T02:21:45Z</time>
      </trkpt>
      <trkpt lat="45.94847" lon="3.87909">
        <ele>901.37</ele>
        <time>2013-12-08T02:21:59Z</time>
      </trkpt>
      <trkpt lat="45.94846" lon="3.87907">
        <ele>900.89</ele>
        <time>2013-12-08T02:22:00Z</time>
      </trkpt>
      <trkpt lat="45.94845" lon="3.87906">
        <ele>901.37</ele>
        <time>2013-12-08T02:22:01Z</time>
      </trkpt>
      <trkpt lat="45.94844" lon="3.87905">
        <ele>900.89</ele>
        <time>2013-12-08T02:22:02Z</time>
      </trkpt>
      <trkpt lat="45.94843" lon="3.87904">
        <ele>900.89</ele>
        <time>2013-12-08T02:22:03Z</time>
      </trkpt>
      <trkpt lat="45.94841" lon="3.87902">
        <ele>902.82</ele>
        <time>2013-12-08T02:22:04Z</time>
      </trkpt>
      <trkpt lat="45.9484" lon="3.879">
        <ele>901.37</ele>
        <time>2013-12-08T02:22:05Z</time>
      </trkpt>
      <trkpt lat="45.94823" lon="3.87875">
        <ele>900.89</ele>
        <time>2013-12-08T02:22:18Z</time>
      </trkpt>
      <trkpt lat="45.94814" lon="3.87862">
        <ele>900.41</ele>
        <time>2013-12-08T02:22:27Z</time>
      </trkpt>
      <trkpt lat="45.94798" lon="3.87841">
        <ele>899.93</ele>
        <time>2013-12-08T02:22:42Z</time>
      </trkpt>
      <trkpt lat="45.94786" lon="3.87827">
        <ele>899.93</ele>
        <time>2013-12-08T02:22:53Z</time>
      </trkpt>
      <trkpt lat="45.94769" lon="3.87814">
        <ele>899.93</ele>
        <time>2013-12-08T02:23:07Z</time>
      </trkpt>
      <trkpt lat="45.94753" lon="3.87808">
        <ele>899.45</ele>
        <time>2013-12-08T02:23:21Z</time>
      </trkpt>
      <trkpt lat="45.94735" lon="3.878">
        <ele>899.45</ele>
        <time>2013-12-08T02:23:35Z</time>
      </trkpt>
      <trkpt lat="45.94722" lon="3.878">
        <ele>898.97</ele>
        <time>2013-12-08T02:23:49Z</time>
      </trkpt>
      <trkpt lat="45.94711" lon="3.87807">
        <ele>898.97</ele>
        <time>2013-12-08T02:23:59Z</time>
      </trkpt>
      <trkpt lat="45.94709" lon="3.87808">
        <ele>898.97</ele>
        <time>2013-12-08T02:24:00Z</time>
      </trkpt>
      <trkpt lat="45.94707" lon="3.87809">
        <ele>898.97</ele>
        <time>2013-12-08T02:24:01Z</time>
      </trkpt>
      <trkpt lat="45.94685" lon="3.8782">
        <ele>898.97</ele>
        <time>2013-12-08T02:24:15Z</time>
      </trkpt>
      <trkpt lat="45.94655" lon="3.87824">
        <ele>898.49</ele>
        <time>2013-12-08T02:24:33Z</time>
      </trkpt>
      <trkpt lat="45.94642" lon="3.87825">
        <ele>898.49</ele>
        <time>2013-12-08T02:24:42Z</time>
      </trkpt>
      <trkpt lat="45.9464" lon="3.87825">
        <ele>898.49</ele>
        <time>2013-12-08T02:24:43Z</time>
      </trkpt>
      <trkpt lat="45.94626" lon="3.87822">
        <ele>898.49</ele>
        <time>2013-12-08T02:24:49Z</time>
      </trkpt>
      <trkpt lat="45.94619" lon="3.8782">
        <ele>898.49</ele>
        <time>2013-12-08T02:24:53Z</time>
      </trkpt>
      <trkpt lat="45.94615" lon="3.87817">
        <ele>898.01</ele>
        <time>2013-12-08T02:24:56Z</time>
      </trkpt>
      <trkpt lat="45.94607" lon="3.87811">
        <ele>898.01</ele>
        <time>2013-12-08T02:25:01Z</time>
      </trkpt>
      <trkpt lat="45.94584" lon="3.87792">
        <ele>898.01</ele>
        <time>2013-12-08T02:25:16Z</time>
      </trkpt>
      <trkpt lat="45.94573" lon="3.87767">
        <ele>897.53</ele>
        <time>2013-12-08T02:25:30Z</time>
      </trkpt>
      <trkpt lat="45.94563" lon="3.87739">
        <ele>897.53</ele>
        <time>2013-12-08T02:25:43Z</time>
      </trkpt>
      <trkpt lat="45.94554" lon="3.87707">
        <ele>897.53</ele>
        <time>2013-12-08T02:25:58Z</time>
      </trkpt>
      <trkpt lat="45.9455" lon="3.87682">
        <ele>898.01</ele>
        <time>2013-12-08T02:26:12Z</time>
      </trkpt>
      <trkpt lat="45.9455" lon="3.87673">
        <ele>896.57</ele>
        <time>2013-12-08T02:26:16Z</time>
      </trkpt>
      <trkpt lat="45.94549" lon="3.87659">
        <ele>897.05</ele>
        <time>2013-12-08T02:26:20Z</time>
      </trkpt>
      <trkpt lat="45.94539" lon="3.87628">
        <ele>892.72</ele>
        <time>2013-12-08T02:26:32Z</time>
      </trkpt>
      <trkpt lat="45.94538" lon="3.87626">
        <ele>898.01</ele>
        <time>2013-12-08T02:26:33Z</time>
      </trkpt>
      <trkpt lat="45.94528" lon="3.87603">
        <ele>896.57</ele>
        <time>2013-12-08T02:26:45Z</time>
      </trkpt>
      <trkpt lat="45.94527" lon="3.876">
        <ele>893.2</ele>
        <time>2013-12-08T02:26:47Z</time>
      </trkpt>
      <trkpt lat="45.94525" lon="3.87597">
        <ele>899.45</ele>
        <time>2013-12-08T02:26:49Z</time>
      </trkpt>
      <trkpt lat="45.94523" lon="3.87596">
        <ele>897.05</ele>
        <time>2013-12-08T02:26:50Z</time>
      </trkpt>
      <trkpt lat="45.94519" lon="3.87589">
        <ele>896.57</ele>
        <time>2013-12-08T02:26:54Z</time>
      </trkpt>
      <trkpt lat="45.94514" lon="3.87582">
        <ele>896.57</ele>
        <time>2013-12-08T02:26:58Z</time>
      </trkpt>
      <trkpt lat="45.94496" lon="3.87569">
        <ele>896.09</ele>
        <time>2013-12-08T02:27:12Z</time>
      </trkpt>
      <trkpt lat="45.9449" lon="3.87563">
        <ele>896.09</ele>
        <time>2013-12-08T02:27:18Z</time>
      </trkpt>
      <trkpt lat="45.94473" lon="3.87559">
        <ele>895.61</ele>
        <time>2013-12-08T02:27:29Z</time>
      </trkpt>
      <trkpt lat="45.94453" lon="3.87559">
        <ele>895.12</ele>
        <time>2013-12-08T02:27:43Z</time>
      </trkpt>
      <trkpt lat="45.94444" lon="3.87562">
        <ele>895.12</ele>
        <time>2013-12-08T02:27:49Z</time>
      </trkpt>
      <trkpt lat="45.94419" lon="3.87579">
        <ele>894.64</ele>
        <time>2013-12-08T02:28:03Z</time>
      </trkpt>
      <trkpt lat="45.94396" lon="3.87593">
        <ele>894.64</ele>
        <time>2013-12-08T02:28:19Z</time>
      </trkpt>
      <trkpt lat="45.9439" lon="3.87596">
        <ele>894.16</ele>
        <time>2013-12-08T02:28:23Z</time>
      </trkpt>
      <trkpt lat="45.94381" lon="3.876">
        <ele>894.16</ele>
        <time>2013-12-08T02:28:31Z</time>
      </trkpt>
      <trkpt lat="45.94375" lon="3.87603">
        <ele>894.16</ele>
        <time>2013-12-08T02:28:35Z</time>
      </trkpt>
      <trkpt lat="45.94354" lon="3.87613">
        <ele>893.68</ele>
        <time>2013-12-08T02:28:49Z</time>
      </trkpt>
      <trkpt lat="45.94345" lon="3.87619">
        <ele>893.68</ele>
        <time>2013-12-08T02:28:58Z</time>
      </trkpt>
      <trkpt lat="45.94329" lon="3.8763">
        <ele>893.2</ele>
        <time>2013-12-08T02:29:08Z</time>
      </trkpt>
      <trkpt lat="45.9432" lon="3.87634">
        <ele>893.2</ele>
        <time>2013-12-08T02:29:13Z</time>
      </trkpt>
      <trkpt lat="45.94298" lon="3.87646">
        <ele>893.2</ele>
        <time>2013-12-08T02:29:26Z</time>
      </trkpt>
      <trkpt lat="45.94281" lon="3.87658">
        <ele>892.72</ele>
        <time>2013-12-08T02:29:41Z</time>
      </trkpt>
      <trkpt lat="45.94261" lon="3.87668">
        <ele>892.72</ele>
        <time>2013-12-08T02:29:57Z</time>
      </trkpt>
      <trkpt lat="45.94232" lon="3.87683">
        <ele>892.24</ele>
        <time>2013-12-08T02:30:14Z</time>
      </trkpt>
      <trkpt lat="45.94209" lon="3.87697">
        <ele>892.24</ele>
        <time>2013-12-08T02:30:28Z</time>
      </trkpt>
      <trkpt lat="45.94184" lon="3.87703">
        <ele>892.24</ele>
        <time>2013-12-08T02:30:43Z</time>
      </trkpt>
      <trkpt lat="45.94149" lon="3.87718">
        <ele>891.76</ele>
        <time>2013-12-08T02:31:00Z</time>
      </trkpt>
      <trkpt lat="45.94124" lon="3.87714">
        <ele>891.28</ele>
        <time>2013-12-08T02:31:14Z</time>
      </trkpt>
      <trkpt lat="45.94107" lon="3.87696">
        <ele>890.8</ele>
        <time>2013-12-08T02:31:27Z</time>
      </trkpt>
      <trkpt lat="45.94097" lon="3.87668">
        <ele>890.32</ele>
        <time>2013-12-08T02:31:40Z</time>
      </trkpt>
      <trkpt lat="45.94096" lon="3.87635">
        <ele>890.32</ele>
        <time>2013-12-08T02:31:54Z</time>
      </trkpt>
      <trkpt lat="45.94098" lon="3.87604">
        <ele>889.84</ele>
        <time>2013-12-08T02:32:08Z</time>
      </trkpt>
      <trkpt lat="45.94098" lon="3.87599">
        <ele>889.84</ele>
        <time>2013-12-08T02:32:10Z</time>
      </trkpt>
      <trkpt lat="45.94098" lon="3.87588">
        <ele>889.36</ele>
        <time>2013-12-08T02:32:15Z</time>
      </trkpt>
      <trkpt lat="45.94098" lon="3.87569">
        <ele>888.88</ele>
        <time>2013-12-08T02:32:23Z</time>
      </trkpt>
      <trkpt lat="45.94098" lon="3.87559">
        <ele>888.88</ele>
        <time>2013-12-08T02:32:28Z</time>
      </trkpt>
      <trkpt lat="45.94098" lon="3.87522">
        <ele>887.91</ele>
        <time>2013-12-08T02:32:44Z</time>
      </trkpt>
      <trkpt lat="45.94098" lon="3.87493">
        <ele>887.43</ele>
        <time>2013-12-08T02:32:57Z</time>
      </trkpt>
      <trkpt lat="45.94098" lon="3.87463">
        <ele>886.47</ele>
        <time>2013-12-08T02:33:10Z</time>
      </trkpt>
      <trkpt lat="45.94099" lon="3.87434">
        <ele>885.99</ele>
        <time>2013-12-08T02:33:23Z</time>
      </trkpt>
      <trkpt lat="45.94102" lon="3.87405">
        <ele>885.03</ele>
        <time>2013-12-08T02:33:36Z</time>
      </trkpt>
      <trkpt lat="45.94109" lon="3.87372">
        <ele>885.03</ele>
        <time>2013-12-08T02:33:51Z</time>
      </trkpt>
      <trkpt lat="45.94116" lon="3.87348">
        <ele>884.07</ele>
        <time>2013-12-08T02:34:03Z</time>
      </trkpt>
      <trkpt lat="45.94116" lon="3.87344">
        <ele>884.07</ele>
        <time>2013-12-08T02:34:05Z</time>
      </trkpt>
      <trkpt lat="45.94124" lon="3.87317">
        <ele>883.11</ele>
        <time>2013-12-08T02:34:19Z</time>
      </trkpt>
      <trkpt lat="45.94132" lon="3.8729">
        <ele>882.63</ele>
        <time>2013-12-08T02:34:32Z</time>
      </trkpt>
      <trkpt lat="45.94141" lon="3.87261">
        <ele>882.15</ele>
        <time>2013-12-08T02:34:46Z</time>
      </trkpt>
      <trkpt lat="45.94145" lon="3.87243">
        <ele>881.67</ele>
        <time>2013-12-08T02:34:55Z</time>
      </trkpt>
      <trkpt lat="45.94148" lon="3.87228">
        <ele>881.19</ele>
        <time>2013-12-08T02:35:02Z</time>
      </trkpt>
      <trkpt lat="45.94153" lon="3.87214">
        <ele>881.19</ele>
        <time>2013-12-08T02:35:09Z</time>
      </trkpt>
      <trkpt lat="45.94153" lon="3.8721">
        <ele>880.71</ele>
        <time>2013-12-08T02:35:11Z</time>
      </trkpt>
      <trkpt lat="45.94158" lon="3.87196">
        <ele>880.22</ele>
        <time>2013-12-08T02:35:19Z</time>
      </trkpt>
      <trkpt lat="45.94169" lon="3.87182">
        <ele>881.19</ele>
        <time>2013-12-08T02:35:31Z</time>
      </trkpt>
      <trkpt lat="45.94171" lon="3.87176">
        <ele>881.19</ele>
        <time>2013-12-08T02:35:44Z</time>
      </trkpt>
      <trkpt lat="45.94172" lon="3.87175">
        <ele>881.19</ele>
        <time>2013-12-08T02:36:02Z</time>
      </trkpt>
      <trkpt lat="45.94172" lon="3.87174">
        <ele>881.19</ele>
        <time>2013-12-08T02:36:19Z</time>
      </trkpt>
      <trkpt lat="45.94174" lon="3.87174">
        <ele>881.19</ele>
        <time>2013-12-08T02:36:32Z</time>
      </trkpt>
      <trkpt lat="45.94175" lon="3.87173">
        <ele>881.19</ele>
        <time>2013-12-08T02:36:51Z</time>
      </trkpt>
      <trkpt lat="45.94175" lon="3.87173">
        <ele>881.19</ele>
        <time>2013-12-08T02:37:16Z</time>
      </trkpt>
      <trkpt lat="45.94175" lon="3.87173">
        <ele>881.19</ele>
        <time>2013-12-08T02:37:40Z</time>
      </trkpt>
      <trkpt lat="45.94175" lon="3.87172">
        <ele>881.19</ele>
        <time>2013-12-08T02:38:02Z</time>
      </trkpt>
      <trkpt lat="45.94175" lon="3.87174">
        <ele>881.19</ele>
        <time>2013-12-08T02:38:19Z</time>
      </trkpt>
      <trkpt lat="45.94175" lon="3.87179">
        <ele>881.19</ele>
        <time>2013-12-08T02:38:31Z</time>
      </trkpt>
      <trkpt lat="45.94175" lon="3.87181">
        <ele>881.19</ele>
        <time>2013-12-08T02:38:53Z</time>
      </trkpt>
      <trkpt lat="45.94174" lon="3.87182">
        <ele>881.19</ele>
        <time>2013-12-08T02:39:09Z</time>
      </trkpt>
      <trkpt lat="45.94174" lon="3.87182">
        <ele>881.19</ele>
        <time>2013-12-08T02:39:29Z</time>
      </trkpt>
      <trkpt lat="45.94174" lon="3.87183">
        <ele>881.19</ele>
        <time>2013-12-08T02:39:52Z</time>
      </trkpt>
      <trkpt lat="45.94174" lon="3.87183">
        <ele>881.19</ele>
        <time>2013-12-08T02:40:14Z</time>
      </trkpt>
      <trkpt lat="45.94168" lon="3.87189">
        <ele>880.22</ele>
        <time>2013-12-08T02:40:29Z</time>
      </trkpt>
      <trkpt lat="45.94167" lon="3.87189">
        <ele>880.71</ele>
        <time>2013-12-08T02:40:31Z</time>
      </trkpt>
      <trkpt lat="45.94161" lon="3.87186">
        <ele>880.22</ele>
        <time>2013-12-08T02:40:37Z</time>
      </trkpt>
      <trkpt lat="45.94161" lon="3.87181">
        <ele>879.74</ele>
        <time>2013-12-08T02:40:41Z</time>
      </trkpt>
      <trkpt lat="45.94164" lon="3.87172">
        <ele>879.74</ele>
        <time>2013-12-08T02:40:47Z</time>
      </trkpt>
      <trkpt lat="45.94172" lon="3.87143">
        <ele>879.26</ele>
        <time>2013-12-08T02:41:03Z</time>
      </trkpt>
      <trkpt lat="45.94175" lon="3.87132">
        <ele>878.78</ele>
        <time>2013-12-08T02:41:09Z</time>
      </trkpt>
      <trkpt lat="45.94176" lon="3.87123">
        <ele>878.78</ele>
        <time>2013-12-08T02:41:14Z</time>
      </trkpt>
      <trkpt lat="45.94176" lon="3.8712">
        <ele>878.78</ele>
        <time>2013-12-08T02:41:16Z</time>
      </trkpt>
      <trkpt lat="45.94183" lon="3.87091">
        <ele>877.82</ele>
        <time>2013-12-08T02:41:31Z</time>
      </trkpt>
      <trkpt lat="45.94185" lon="3.87054">
        <ele>877.34</ele>
        <time>2013-12-08T02:41:47Z</time>
      </trkpt>
      <trkpt lat="45.94179" lon="3.87024">
        <ele>876.86</ele>
        <time>2013-12-08T02:42:01Z</time>
      </trkpt>
      <trkpt lat="45.94162" lon="3.87">
        <ele>875.9</ele>
        <time>2013-12-08T02:42:17Z</time>
      </trkpt>
      <trkpt lat="45.9414" lon="3.86986">
        <ele>874.94</ele>
        <time>2013-12-08T02:42:32Z</time>
      </trkpt>
      <trkpt lat="45.94117" lon="3.86986">
        <ele>874.46</ele>
        <time>2013-12-08T02:42:47Z</time>
      </trkpt>
      <trkpt lat="45.94097" lon="3.87002">
        <ele>873.5</ele>
        <time>2013-12-08T02:43:01Z</time>
      </trkpt>
      <trkpt lat="45.94086" lon="3.87027">
        <ele>873.5</ele>
        <time>2013-12-08T02:43:14Z</time>
      </trkpt>
      <trkpt lat="45.94071" lon="3.87053">
        <ele>873.01</ele>
        <time>2013-12-08T02:43:27Z</time>
      </trkpt>
      <trkpt lat="45.94051" lon="3.87076">
        <ele>872.05</ele>
        <time>2013-12-08T02:43:42Z</time>
      </trkpt>
      <trkpt lat="45.94025" lon="3.87091">
        <ele>871.57</ele>
        <time>2013-12-08T02:43:58Z</time>
      </trkpt>
      <trkpt lat="45.94003" lon="3.871">
        <ele>871.09</ele>
        <time>2013-12-08T02:44:12Z</time>
      </trkpt>
      <trkpt lat="45.93979" lon="3.87109">
        <ele>870.13</ele>
        <time>2013-12-08T02:44:26Z</time>
      </trkpt>
      <trkpt lat="45.93954" lon="3.87118">
        <ele>869.65</ele>
        <time>2013-12-08T02:44:42Z</time>
      </trkpt>
      <trkpt lat="45.93932" lon="3.87124">
        <ele>869.17</ele>
        <time>2013-12-08T02:44:56Z</time>
      </trkpt>
      <trkpt lat="45.9391" lon="3.87124">
        <ele>868.69</ele>
        <time>2013-12-08T02:45:10Z</time>
      </trkpt>
      <trkpt lat="45.93884" lon="3.87123">
        <ele>868.21</ele>
        <time>2013-12-08T02:45:24Z</time>
      </trkpt>
      <trkpt lat="45.93857" lon="3.87119">
        <ele>867.25</ele>
        <time>2013-12-08T02:45:40Z</time>
      </trkpt>
      <trkpt lat="45.93836" lon="3.87119">
        <ele>866.77</ele>
        <time>2013-12-08T02:45:53Z</time>
      </trkpt>
      <trkpt lat="45.93813" lon="3.87123">
        <ele>866.29</ele>
        <time>2013-12-08T02:46:07Z</time>
      </trkpt>
      <trkpt lat="45.93795" lon="3.87127">
        <ele>865.8</ele>
        <time>2013-12-08T02:46:19Z</time>
      </trkpt>
      <trkpt lat="45.93772" lon="3.87136">
        <ele>865.32</ele>
        <time>2013-12-08T02:46:34Z</time>
      </trkpt>
      <trkpt lat="45.9375" lon="3.87139">
        <ele>864.84</ele>
        <time>2013-12-08T02:46:49Z</time>
      </trkpt>
      <trkpt lat="45.93728" lon="3.87144">
        <ele>864.84</ele>
        <time>2013-12-08T02:47:03Z</time>
      </trkpt>
      <trkpt lat="45.9371" lon="3.87148">
        <ele>860.52</ele>
        <time>2013-12-08T02:47:12Z</time>
      </trkpt>
      <trkpt lat="45.93709" lon="3.87149">
        <ele>864.84</ele>
        <time>2013-12-08T02:47:13Z</time>
      </trkpt>
      <trkpt lat="45.93681" lon="3.87151">
        <ele>859.56</ele>
        <time>2013-12-08T02:47:29Z</time>
      </trkpt>
      <trkpt lat="45.9368" lon="3.8715">
        <ele>865.8</ele>
        <time>2013-12-08T02:47:30Z</time>
      </trkpt>
      <trkpt lat="45.93678" lon="3.8715">
        <ele>862.44</ele>
        <time>2013-12-08T02:47:31Z</time>
      </trkpt>
      <trkpt lat="45.93677" lon="3.8715">
        <ele>850.9</ele>
        <time>2013-12-08T02:47:32Z</time>
      </trkpt>
      <trkpt lat="45.93675" lon="3.87149">
        <ele>871.57</ele>
        <time>2013-12-08T02:47:33Z</time>
      </trkpt>
      <trkpt lat="45.93674" lon="3.87149">
        <ele>863.88</ele>
        <time>2013-12-08T02:47:34Z</time>
      </trkpt>
      <trkpt lat="45.93668" lon="3.87147">
        <ele>862.92</ele>
        <time>2013-12-08T02:47:38Z</time>
      </trkpt>
      <trkpt lat="45.93646" lon="3.87137">
        <ele>858.11</ele>
        <time>2013-12-08T02:47:53Z</time>
      </trkpt>
      <trkpt lat="45.93644" lon="3.87136">
        <ele>859.56</ele>
        <time>2013-12-08T02:47:54Z</time>
      </trkpt>
      <trkpt lat="45.93642" lon="3.87133">
        <ele>865.32</ele>
        <time>2013-12-08T02:47:56Z</time>
      </trkpt>
      <trkpt lat="45.9364" lon="3.87132">
        <ele>861</ele>
        <time>2013-12-08T02:47:57Z</time>
      </trkpt>
      <trkpt lat="45.93618" lon="3.87111">
        <ele>861</ele>
        <time>2013-12-08T02:48:14Z</time>
      </trkpt>
      <trkpt lat="45.936" lon="3.87085">
        <ele>860.52</ele>
        <time>2013-12-08T02:48:30Z</time>
      </trkpt>
      <trkpt lat="45.93584" lon="3.87062">
        <ele>859.56</ele>
        <time>2013-12-08T02:48:44Z</time>
      </trkpt>
      <trkpt lat="45.93568" lon="3.87036">
        <ele>859.08</ele>
        <time>2013-12-08T02:48:59Z</time>
      </trkpt>
      <trkpt lat="45.93556" lon="3.87009">
        <ele>858.59</ele>
        <time>2013-12-08T02:49:13Z</time>
      </trkpt>
      <trkpt lat="45.93542" lon="3.86981">
        <ele>857.63</ele>
        <time>2013-12-08T02:49:28Z</time>
      </trkpt>
      <trkpt lat="45.93532" lon="3.86955">
        <ele>857.15</ele>
        <time>2013-12-08T02:49:41Z</time>
      </trkpt>
      <trkpt lat="45.93522" lon="3.86927">
        <ele>856.67</ele>
        <time>2013-12-08T02:49:54Z</time>
      </trkpt>
      <trkpt lat="45.93521" lon="3.86926">
        <ele>856.67</ele>
        <time>2013-12-08T02:49:55Z</time>
      </trkpt>
      <trkpt lat="45.93496" lon="3.86922">
        <ele>856.19</ele>
        <time>2013-12-08T02:50:13Z</time>
      </trkpt>
      <trkpt lat="45.93491" lon="3.86922">
        <ele>855.71</ele>
        <time>2013-12-08T02:50:17Z</time>
      </trkpt>
      <trkpt lat="45.93467" lon="3.86921">
        <ele>856.19</ele>
        <time>2013-12-08T02:50:31Z</time>
      </trkpt>
      <trkpt lat="45.93445" lon="3.8692">
        <ele>856.19</ele>
        <time>2013-12-08T02:50:44Z</time>
      </trkpt>
      <trkpt lat="45.9344" lon="3.8692">
        <ele>856.19</ele>
        <time>2013-12-08T02:50:47Z</time>
      </trkpt>
      <trkpt lat="45.93414" lon="3.86919">
        <ele>856.67</ele>
        <time>2013-12-08T02:51:03Z</time>
      </trkpt>
      <trkpt lat="45.93394" lon="3.86916">
        <ele>858.11</ele>
        <time>2013-12-08T02:51:18Z</time>
      </trkpt>
      <trkpt lat="45.93372" lon="3.86915">
        <ele>859.56</ele>
        <time>2013-12-08T02:51:35Z</time>
      </trkpt>
      <trkpt lat="45.93343" lon="3.86912">
        <ele>861</ele>
        <time>2013-12-08T02:51:50Z</time>
      </trkpt>
      <trkpt lat="45.93316" lon="3.8691">
        <ele>862.44</ele>
        <time>2013-12-08T02:52:07Z</time>
      </trkpt>
      <trkpt lat="45.93291" lon="3.86909">
        <ele>864.36</ele>
        <time>2013-12-08T02:52:23Z</time>
      </trkpt>
      <trkpt lat="45.93284" lon="3.86907">
        <ele>864.84</ele>
        <time>2013-12-08T02:52:28Z</time>
      </trkpt>
      <trkpt lat="45.93276" lon="3.86907">
        <ele>865.8</ele>
        <time>2013-12-08T02:52:33Z</time>
      </trkpt>
      <trkpt lat="45.93268" lon="3.86905">
        <ele>866.29</ele>
        <time>2013-12-08T02:52:39Z</time>
      </trkpt>
      <trkpt lat="45.93245" lon="3.86904">
        <ele>869.17</ele>
        <time>2013-12-08T02:52:55Z</time>
      </trkpt>
      <trkpt lat="45.93224" lon="3.86902">
        <ele>871.57</ele>
        <time>2013-12-08T02:53:10Z</time>
      </trkpt>
      <trkpt lat="45.932" lon="3.86899">
        <ele>873.98</ele>
        <time>2013-12-08T02:53:27Z</time>
      </trkpt>
      <trkpt lat="45.93178" lon="3.86895">
        <ele>875.9</ele>
        <time>2013-12-08T02:53:41Z</time>
      </trkpt>
      <trkpt lat="45.93157" lon="3.86894">
        <ele>876.86</ele>
        <time>2013-12-08T02:53:55Z</time>
      </trkpt>
      <trkpt lat="45.93137" lon="3.86889">
        <ele>878.3</ele>
        <time>2013-12-08T02:54:08Z</time>
      </trkpt>
      <trkpt lat="45.93115" lon="3.86884">
        <ele>879.74</ele>
        <time>2013-12-08T02:54:23Z</time>
      </trkpt>
      <trkpt lat="45.931" lon="3.86872">
        <ele>880.22</ele>
        <time>2013-12-08T02:54:33Z</time>
      </trkpt>
      <trkpt lat="45.93091" lon="3.86864">
        <ele>880.71</ele>
        <time>2013-12-08T02:54:40Z</time>
      </trkpt>
      <trkpt lat="45.93076" lon="3.86847">
        <ele>880.71</ele>
        <time>2013-12-08T02:54:53Z</time>
      </trkpt>
      <trkpt lat="45.93074" lon="3.86842">
        <ele>881.19</ele>
        <time>2013-12-08T02:54:56Z</time>
      </trkpt>
      <trkpt lat="45.9306" lon="3.8682">
        <ele>881.19</ele>
        <time>2013-12-08T02:55:10Z</time>
      </trkpt>
      <trkpt lat="45.93056" lon="3.86816">
        <ele>881.19</ele>
        <time>2013-12-08T02:55:13Z</time>
      </trkpt>
      <trkpt lat="45.9305" lon="3.86805">
        <ele>880.71</ele>
        <time>2013-12-08T02:55:19Z</time>
      </trkpt>
      <trkpt lat="45.93034" lon="3.86781">
        <ele>880.22</ele>
        <time>2013-12-08T02:55:33Z</time>
      </trkpt>
      <trkpt lat="45.93022" lon="3.8676">
        <ele>879.74</ele>
        <time>2013-12-08T02:55:45Z</time>
      </trkpt>
      <trkpt lat="45.93009" lon="3.86739">
        <ele>878.78</ele>
        <time>2013-12-08T02:55:57Z</time>
      </trkpt>
      <trkpt lat="45.92995" lon="3.86716">
        <ele>876.38</ele>
        <time>2013-12-08T02:56:10Z</time>
      </trkpt>
      <trkpt lat="45.92994" lon="3.86714">
        <ele>879.74</ele>
        <time>2013-12-08T02:56:11Z</time>
      </trkpt>
      <trkpt lat="45.92992" lon="3.86709">
        <ele>876.86</ele>
        <time>2013-12-08T02:56:13Z</time>
      </trkpt>
      <trkpt lat="45.92978" lon="3.86686">
        <ele>877.82</ele>
        <time>2013-12-08T02:56:27Z</time>
      </trkpt>
      <trkpt lat="45.92964" lon="3.86662">
        <ele>876.86</ele>
        <time>2013-12-08T02:56:41Z</time>
      </trkpt>
      <trkpt lat="45.92948" lon="3.86639">
        <ele>876.38</ele>
        <time>2013-12-08T02:56:56Z</time>
      </trkpt>
      <trkpt lat="45.92933" lon="3.86614">
        <ele>875.9</ele>
        <time>2013-12-08T02:57:10Z</time>
      </trkpt>
      <trkpt lat="45.9292" lon="3.86592">
        <ele>875.9</ele>
        <time>2013-12-08T02:57:23Z</time>
      </trkpt>
      <trkpt lat="45.92919" lon="3.86591">
        <ele>875.42</ele>
        <time>2013-12-08T02:57:24Z</time>
      </trkpt>
      <trkpt lat="45.92903" lon="3.86561">
        <ele>874.94</ele>
        <time>2013-12-08T02:57:41Z</time>
      </trkpt>
      <trkpt lat="45.92888" lon="3.86538">
        <ele>874.46</ele>
        <time>2013-12-08T02:57:55Z</time>
      </trkpt>
      <trkpt lat="45.92873" lon="3.86514">
        <ele>874.46</ele>
        <time>2013-12-08T02:58:09Z</time>
      </trkpt>
      <trkpt lat="45.9286" lon="3.86485">
        <ele>873.98</ele>
        <time>2013-12-08T02:58:24Z</time>
      </trkpt>
      <trkpt lat="45.9285" lon="3.86451">
        <ele>874.46</ele>
        <time>2013-12-08T02:58:39Z</time>
      </trkpt>
      <trkpt lat="45.92845" lon="3.86423">
        <ele>874.94</ele>
        <time>2013-12-08T02:58:53Z</time>
      </trkpt>
      <trkpt lat="45.92842" lon="3.86392">
        <ele>875.9</ele>
        <time>2013-12-08T02:59:08Z</time>
      </trkpt>
      <trkpt lat="45.92839" lon="3.86365">
        <ele>876.86</ele>
        <time>2013-12-08T02:59:21Z</time>
      </trkpt>
      <trkpt lat="45.92839" lon="3.86363">
        <ele>876.86</ele>
        <time>2013-12-08T02:59:22Z</time>
      </trkpt>
      <trkpt lat="45.92841" lon="3.86333">
        <ele>877.82</ele>
        <time>2013-12-08T02:59:37Z</time>
      </trkpt>
      <trkpt lat="45.9284" lon="3.8632">
        <ele>878.3</ele>
        <time>2013-12-08T02:59:43Z</time>
      </trkpt>
      <trkpt lat="45.92838" lon="3.86304">
        <ele>878.78</ele>
        <time>2013-12-08T02:59:50Z</time>
      </trkpt>
      <trkpt lat="45.92838" lon="3.86293">
        <ele>879.26</ele>
        <time>2013-12-08T02:59:56Z</time>
      </trkpt>
      <trkpt lat="45.92837" lon="3.86265">
        <ele>880.71</ele>
        <time>2013-12-08T03:00:10Z</time>
      </trkpt>
      <trkpt lat="45.92832" lon="3.86246">
        <ele>881.19</ele>
        <time>2013-12-08T03:00:19Z</time>
      </trkpt>
      <trkpt lat="45.92828" lon="3.86231">
        <ele>881.67</ele>
        <time>2013-12-08T03:00:26Z</time>
      </trkpt>
      <trkpt lat="45.92825" lon="3.86197">
        <ele>882.63</ele>
        <time>2013-12-08T03:00:41Z</time>
      </trkpt>
      <trkpt lat="45.92823" lon="3.86179">
        <ele>883.11</ele>
        <time>2013-12-08T03:00:49Z</time>
      </trkpt>
      <trkpt lat="45.92819" lon="3.8615">
        <ele>884.07</ele>
        <time>2013-12-08T03:01:03Z</time>
      </trkpt>
      <trkpt lat="45.92817" lon="3.86146">
        <ele>884.07</ele>
        <time>2013-12-08T03:01:05Z</time>
      </trkpt>
      <trkpt lat="45.92816" lon="3.86136">
        <ele>884.55</ele>
        <time>2013-12-08T03:01:10Z</time>
      </trkpt>
      <trkpt lat="45.92814" lon="3.86133">
        <ele>885.03</ele>
        <time>2013-12-08T03:01:12Z</time>
      </trkpt>
      <trkpt lat="45.92811" lon="3.86124">
        <ele>885.51</ele>
        <time>2013-12-08T03:01:17Z</time>
      </trkpt>
      <trkpt lat="45.92808" lon="3.86105">
        <ele>885.99</ele>
        <time>2013-12-08T03:01:26Z</time>
      </trkpt>
      <trkpt lat="45.92809" lon="3.86086">
        <ele>886.47</ele>
        <time>2013-12-08T03:01:34Z</time>
      </trkpt>
      <trkpt lat="45.92806" lon="3.86061">
        <ele>886.95</ele>
        <time>2013-12-08T03:01:45Z</time>
      </trkpt>
      <trkpt lat="45.92805" lon="3.86053">
        <ele>887.43</ele>
        <time>2013-12-08T03:01:49Z</time>
      </trkpt>
      <trkpt lat="45.92794" lon="3.86021">
        <ele>887.43</ele>
        <time>2013-12-08T03:02:05Z</time>
      </trkpt>
      <trkpt lat="45.92793" lon="3.86018">
        <ele>887.43</ele>
        <time>2013-12-08T03:02:06Z</time>
      </trkpt>
      <trkpt lat="45.92786" lon="3.86008">
        <ele>886.47</ele>
        <time>2013-12-08T03:02:11Z</time>
      </trkpt>
      <trkpt lat="45.92767" lon="3.85978">
        <ele>884.07</ele>
        <time>2013-12-08T03:02:23Z</time>
      </trkpt>
      <trkpt lat="45.92763" lon="3.85974">
        <ele>883.11</ele>
        <time>2013-12-08T03:02:25Z</time>
      </trkpt>
      <trkpt lat="45.92739" lon="3.85952">
        <ele>880.71</ele>
        <time>2013-12-08T03:02:34Z</time>
      </trkpt>
      <trkpt lat="45.92735" lon="3.85949">
        <ele>880.71</ele>
        <time>2013-12-08T03:02:35Z</time>
      </trkpt>
      <trkpt lat="45.92717" lon="3.85928">
        <ele>878.3</ele>
        <time>2013-12-08T03:02:43Z</time>
      </trkpt>
      <trkpt lat="45.927" lon="3.85905">
        <ele>875.9</ele>
        <time>2013-12-08T03:02:52Z</time>
      </trkpt>
      <trkpt lat="45.92685" lon="3.85886">
        <ele>873.98</ele>
        <time>2013-12-08T03:03:00Z</time>
      </trkpt>
      <trkpt lat="45.92683" lon="3.85881">
        <ele>873.5</ele>
        <time>2013-12-08T03:03:02Z</time>
      </trkpt>
      <trkpt lat="45.92682" lon="3.85878">
        <ele>873.01</ele>
        <time>2013-12-08T03:03:03Z</time>
      </trkpt>
      <trkpt lat="45.92681" lon="3.85876">
        <ele>873.01</ele>
        <time>2013-12-08T03:03:04Z</time>
      </trkpt>
      <trkpt lat="45.92678" lon="3.85873">
        <ele>873.01</ele>
        <time>2013-12-08T03:03:05Z</time>
      </trkpt>
      <trkpt lat="45.92676" lon="3.85871">
        <ele>872.53</ele>
        <time>2013-12-08T03:03:06Z</time>
      </trkpt>
      <trkpt lat="45.92673" lon="3.85868">
        <ele>872.05</ele>
        <time>2013-12-08T03:03:07Z</time>
      </trkpt>
      <trkpt lat="45.92671" lon="3.85867">
        <ele>872.05</ele>
        <time>2013-12-08T03:03:08Z</time>
      </trkpt>
      <trkpt lat="45.92669" lon="3.85865">
        <ele>871.57</ele>
        <time>2013-12-08T03:03:09Z</time>
      </trkpt>
      <trkpt lat="45.92667" lon="3.85863">
        <ele>871.57</ele>
        <time>2013-12-08T03:03:10Z</time>
      </trkpt>
      <trkpt lat="45.92665" lon="3.85861">
        <ele>871.09</ele>
        <time>2013-12-08T03:03:11Z</time>
      </trkpt>
      <trkpt lat="45.92664" lon="3.8586">
        <ele>871.09</ele>
        <time>2013-12-08T03:03:12Z</time>
      </trkpt>
      <trkpt lat="45.92662" lon="3.85858">
        <ele>870.61</ele>
        <time>2013-12-08T03:03:13Z</time>
      </trkpt>
      <trkpt lat="45.9266" lon="3.85857">
        <ele>870.13</ele>
        <time>2013-12-08T03:03:14Z</time>
      </trkpt>
      <trkpt lat="45.92659" lon="3.85856">
        <ele>870.13</ele>
        <time>2013-12-08T03:03:15Z</time>
      </trkpt>
      <trkpt lat="45.92657" lon="3.85854">
        <ele>870.13</ele>
        <time>2013-12-08T03:03:16Z</time>
      </trkpt>
      <trkpt lat="45.92656" lon="3.85851">
        <ele>869.65</ele>
        <time>2013-12-08T03:03:17Z</time>
      </trkpt>
      <trkpt lat="45.92655" lon="3.85848">
        <ele>869.65</ele>
        <time>2013-12-08T03:03:18Z</time>
      </trkpt>
      <trkpt lat="45.92653" lon="3.85845">
        <ele>869.17</ele>
        <time>2013-12-08T03:03:19Z</time>
      </trkpt>
      <trkpt lat="45.92652" lon="3.85842">
        <ele>869.17</ele>
        <time>2013-12-08T03:03:20Z</time>
      </trkpt>
      <trkpt lat="45.92651" lon="3.85839">
        <ele>868.69</ele>
        <time>2013-12-08T03:03:21Z</time>
      </trkpt>
      <trkpt lat="45.92649" lon="3.85837">
        <ele>868.69</ele>
        <time>2013-12-08T03:03:22Z</time>
      </trkpt>
      <trkpt lat="45.92647" lon="3.85835">
        <ele>868.21</ele>
        <time>2013-12-08T03:03:23Z</time>
      </trkpt>
      <trkpt lat="45.92645" lon="3.85832">
        <ele>868.21</ele>
        <time>2013-12-08T03:03:24Z</time>
      </trkpt>
      <trkpt lat="45.92644" lon="3.85829">
        <ele>867.73</ele>
        <time>2013-12-08T03:03:25Z</time>
      </trkpt>
      <trkpt lat="45.92642" lon="3.85826">
        <ele>867.73</ele>
        <time>2013-12-08T03:03:26Z</time>
      </trkpt>
      <trkpt lat="45.9264" lon="3.85823">
        <ele>867.25</ele>
        <time>2013-12-08T03:03:27Z</time>
      </trkpt>
      <trkpt lat="45.92638" lon="3.8582">
        <ele>867.25</ele>
        <time>2013-12-08T03:03:28Z</time>
      </trkpt>
      <trkpt lat="45.92636" lon="3.85818">
        <ele>866.77</ele>
        <time>2013-12-08T03:03:29Z</time>
      </trkpt>
      <trkpt lat="45.92626" lon="3.85805">
        <ele>865.8</ele>
        <time>2013-12-08T03:03:34Z</time>
      </trkpt>
      <trkpt lat="45.92625" lon="3.85802">
        <ele>865.32</ele>
        <time>2013-12-08T03:03:35Z</time>
      </trkpt>
      <trkpt lat="45.92619" lon="3.85793">
        <ele>864.36</ele>
        <time>2013-12-08T03:03:39Z</time>
      </trkpt>
      <trkpt lat="45.92617" lon="3.8579">
        <ele>863.88</ele>
        <time>2013-12-08T03:03:40Z</time>
      </trkpt>
      <trkpt lat="45.92615" lon="3.85787">
        <ele>863.4</ele>
        <time>2013-12-08T03:03:41Z</time>
      </trkpt>
      <trkpt lat="45.92613" lon="3.85785">
        <ele>863.4</ele>
        <time>2013-12-08T03:03:42Z</time>
      </trkpt>
      <trkpt lat="45.9261" lon="3.85783">
        <ele>862.92</ele>
        <time>2013-12-08T03:03:43Z</time>
      </trkpt>
      <trkpt lat="45.92608" lon="3.85781">
        <ele>862.92</ele>
        <time>2013-12-08T03:03:44Z</time>
      </trkpt>
      <trkpt lat="45.92606" lon="3.85779">
        <ele>862.92</ele>
        <time>2013-12-08T03:03:45Z</time>
      </trkpt>
      <trkpt lat="45.92604" lon="3.85776">
        <ele>862.44</ele>
        <time>2013-12-08T03:03:46Z</time>
      </trkpt>
      <trkpt lat="45.92602" lon="3.85774">
        <ele>862.44</ele>
        <time>2013-12-08T03:03:47Z</time>
      </trkpt>
      <trkpt lat="45.92599" lon="3.85771">
        <ele>861.96</ele>
        <time>2013-12-08T03:03:48Z</time>
      </trkpt>
      <trkpt lat="45.92574" lon="3.85751">
        <ele>859.56</ele>
        <time>2013-12-08T03:03:58Z</time>
      </trkpt>
      <trkpt lat="45.92539" lon="3.85728">
        <ele>856.67</ele>
        <time>2013-12-08T03:04:10Z</time>
      </trkpt>
      <trkpt lat="45.9251" lon="3.85713">
        <ele>854.75</ele>
        <time>2013-12-08T03:04:21Z</time>
      </trkpt>
      <trkpt lat="45.92482" lon="3.85701">
        <ele>852.35</ele>
        <time>2013-12-08T03:04:32Z</time>
      </trkpt>
      <trkpt lat="45.9246" lon="3.85693">
        <ele>850.42</ele>
        <time>2013-12-08T03:04:41Z</time>
      </trkpt>
      <trkpt lat="45.92424" lon="3.85692">
        <ele>848.98</ele>
        <time>2013-12-08T03:04:53Z</time>
      </trkpt>
      <trkpt lat="45.92416" lon="3.85692">
        <ele>847.54</ele>
        <time>2013-12-08T03:04:56Z</time>
      </trkpt>
      <trkpt lat="45.92412" lon="3.85693">
        <ele>847.06</ele>
        <time>2013-12-08T03:04:58Z</time>
      </trkpt>
      <trkpt lat="45.92408" lon="3.85693">
        <ele>846.58</ele>
        <time>2013-12-08T03:04:59Z</time>
      </trkpt>
      <trkpt lat="45.92405" lon="3.85693">
        <ele>846.1</ele>
        <time>2013-12-08T03:05:00Z</time>
      </trkpt>
      <trkpt lat="45.92403" lon="3.85694">
        <ele>846.1</ele>
        <time>2013-12-08T03:05:01Z</time>
      </trkpt>
      <trkpt lat="45.92401" lon="3.85694">
        <ele>846.1</ele>
        <time>2013-12-08T03:05:02Z</time>
      </trkpt>
      <trkpt lat="45.92398" lon="3.85694">
        <ele>845.62</ele>
        <time>2013-12-08T03:05:03Z</time>
      </trkpt>
      <trkpt lat="45.9239" lon="3.85695">
        <ele>845.14</ele>
        <time>2013-12-08T03:05:06Z</time>
      </trkpt>
      <trkpt lat="45.92388" lon="3.85695">
        <ele>844.18</ele>
        <time>2013-12-08T03:05:07Z</time>
      </trkpt>
      <trkpt lat="45.92385" lon="3.85695">
        <ele>844.18</ele>
        <time>2013-12-08T03:05:08Z</time>
      </trkpt>
      <trkpt lat="45.92383" lon="3.85696">
        <ele>844.18</ele>
        <time>2013-12-08T03:05:09Z</time>
      </trkpt>
      <trkpt lat="45.92381" lon="3.85696">
        <ele>843.69</ele>
        <time>2013-12-08T03:05:10Z</time>
      </trkpt>
      <trkpt lat="45.92378" lon="3.85697">
        <ele>843.69</ele>
        <time>2013-12-08T03:05:11Z</time>
      </trkpt>
      <trkpt lat="45.9237" lon="3.85697">
        <ele>842.73</ele>
        <time>2013-12-08T03:05:14Z</time>
      </trkpt>
      <trkpt lat="45.92367" lon="3.85697">
        <ele>843.21</ele>
        <time>2013-12-08T03:05:15Z</time>
      </trkpt>
      <trkpt lat="45.92336" lon="3.85698">
        <ele>839.85</ele>
        <time>2013-12-08T03:05:26Z</time>
      </trkpt>
      <trkpt lat="45.9231" lon="3.85699">
        <ele>837.93</ele>
        <time>2013-12-08T03:05:35Z</time>
      </trkpt>
      <trkpt lat="45.92287" lon="3.85697">
        <ele>835.04</ele>
        <time>2013-12-08T03:05:44Z</time>
      </trkpt>
      <trkpt lat="45.92272" lon="3.85702">
        <ele>833.6</ele>
        <time>2013-12-08T03:05:50Z</time>
      </trkpt>
      <trkpt lat="45.92269" lon="3.85702">
        <ele>833.12</ele>
        <time>2013-12-08T03:05:51Z</time>
      </trkpt>
      <trkpt lat="45.92265" lon="3.85702">
        <ele>833.12</ele>
        <time>2013-12-08T03:05:52Z</time>
      </trkpt>
      <trkpt lat="45.92261" lon="3.85702">
        <ele>832.64</ele>
        <time>2013-12-08T03:05:53Z</time>
      </trkpt>
      <trkpt lat="45.92258" lon="3.85704">
        <ele>832.64</ele>
        <time>2013-12-08T03:05:54Z</time>
      </trkpt>
      <trkpt lat="45.9223" lon="3.85705">
        <ele>829.76</ele>
        <time>2013-12-08T03:06:03Z</time>
      </trkpt>
      <trkpt lat="45.92202" lon="3.85706">
        <ele>826.39</ele>
        <time>2013-12-08T03:06:13Z</time>
      </trkpt>
      <trkpt lat="45.92179" lon="3.85707">
        <ele>823.99</ele>
        <time>2013-12-08T03:06:21Z</time>
      </trkpt>
      <trkpt lat="45.92151" lon="3.85705">
        <ele>821.1</ele>
        <time>2013-12-08T03:06:31Z</time>
      </trkpt>
      <trkpt lat="45.92146" lon="3.85703">
        <ele>820.62</ele>
        <time>2013-12-08T03:06:33Z</time>
      </trkpt>
      <trkpt lat="45.92145" lon="3.85701">
        <ele>820.14</ele>
        <time>2013-12-08T03:06:34Z</time>
      </trkpt>
      <trkpt lat="45.92142" lon="3.857">
        <ele>819.66</ele>
        <time>2013-12-08T03:06:35Z</time>
      </trkpt>
      <trkpt lat="45.92116" lon="3.85686">
        <ele>816.3</ele>
        <time>2013-12-08T03:06:44Z</time>
      </trkpt>
      <trkpt lat="45.92092" lon="3.8567">
        <ele>813.41</ele>
        <time>2013-12-08T03:06:53Z</time>
      </trkpt>
      <trkpt lat="45.92071" lon="3.85653">
        <ele>810.05</ele>
        <time>2013-12-08T03:07:01Z</time>
      </trkpt>
      <trkpt lat="45.92069" lon="3.8565">
        <ele>810.05</ele>
        <time>2013-12-08T03:07:02Z</time>
      </trkpt>
      <trkpt lat="45.92044" lon="3.85634">
        <ele>807.16</ele>
        <time>2013-12-08T03:07:11Z</time>
      </trkpt>
      <trkpt lat="45.9202" lon="3.85618">
        <ele>803.8</ele>
        <time>2013-12-08T03:07:20Z</time>
      </trkpt>
      <trkpt lat="45.92005" lon="3.85598">
        <ele>800.92</ele>
        <time>2013-12-08T03:07:28Z</time>
      </trkpt>
      <trkpt lat="45.91979" lon="3.85577">
        <ele>797.55</ele>
        <time>2013-12-08T03:07:37Z</time>
      </trkpt>
      <trkpt lat="45.91965" lon="3.85566">
        <ele>795.63</ele>
        <time>2013-12-08T03:07:42Z</time>
      </trkpt>
      <trkpt lat="45.91962" lon="3.85564">
        <ele>795.63</ele>
        <time>2013-12-08T03:07:43Z</time>
      </trkpt>
      <trkpt lat="45.91959" lon="3.85562">
        <ele>795.15</ele>
        <time>2013-12-08T03:07:44Z</time>
      </trkpt>
      <trkpt lat="45.91956" lon="3.85561">
        <ele>794.67</ele>
        <time>2013-12-08T03:07:45Z</time>
      </trkpt>
      <trkpt lat="45.91952" lon="3.8556">
        <ele>794.19</ele>
        <time>2013-12-08T03:07:46Z</time>
      </trkpt>
      <trkpt lat="45.91949" lon="3.85558">
        <ele>794.19</ele>
        <time>2013-12-08T03:07:47Z</time>
      </trkpt>
      <trkpt lat="45.91927" lon="3.85549">
        <ele>790.82</ele>
        <time>2013-12-08T03:07:55Z</time>
      </trkpt>
      <trkpt lat="45.91924" lon="3.85547">
        <ele>790.34</ele>
        <time>2013-12-08T03:07:56Z</time>
      </trkpt>
      <trkpt lat="45.91899" lon="3.85528">
        <ele>787.46</ele>
        <time>2013-12-08T03:08:05Z</time>
      </trkpt>
      <trkpt lat="45.91891" lon="3.85521">
        <ele>786.02</ele>
        <time>2013-12-08T03:08:08Z</time>
      </trkpt>
      <trkpt lat="45.91866" lon="3.8551">
        <ele>783.13</ele>
        <time>2013-12-08T03:08:17Z</time>
      </trkpt>
      <trkpt lat="45.91858" lon="3.85506">
        <ele>782.17</ele>
        <time>2013-12-08T03:08:20Z</time>
      </trkpt>
      <trkpt lat="45.91855" lon="3.85505">
        <ele>782.17</ele>
        <time>2013-12-08T03:08:21Z</time>
      </trkpt>
      <trkpt lat="45.91853" lon="3.85503">
        <ele>781.69</ele>
        <time>2013-12-08T03:08:22Z</time>
      </trkpt>
      <trkpt lat="45.9185" lon="3.85501">
        <ele>781.69</ele>
        <time>2013-12-08T03:08:23Z</time>
      </trkpt>
      <trkpt lat="45.91847" lon="3.85499">
        <ele>781.21</ele>
        <time>2013-12-08T03:08:24Z</time>
      </trkpt>
      <trkpt lat="45.91845" lon="3.85498">
        <ele>781.21</ele>
        <time>2013-12-08T03:08:25Z</time>
      </trkpt>
      <trkpt lat="45.91842" lon="3.85496">
        <ele>780.73</ele>
        <time>2013-12-08T03:08:26Z</time>
      </trkpt>
      <trkpt lat="45.91839" lon="3.85495">
        <ele>780.73</ele>
        <time>2013-12-08T03:08:27Z</time>
      </trkpt>
      <trkpt lat="45.91837" lon="3.85493">
        <ele>780.73</ele>
        <time>2013-12-08T03:08:28Z</time>
      </trkpt>
      <trkpt lat="45.91825" lon="3.85479">
        <ele>779.29</ele>
        <time>2013-12-08T03:08:35Z</time>
      </trkpt>
      <trkpt lat="45.91824" lon="3.85477">
        <ele>779.29</ele>
        <time>2013-12-08T03:08:36Z</time>
      </trkpt>
      <trkpt lat="45.91815" lon="3.85452">
        <ele>777.84</ele>
        <time>2013-12-08T03:08:49Z</time>
      </trkpt>
      <trkpt lat="45.91814" lon="3.85451">
        <ele>777.84</ele>
        <time>2013-12-08T03:08:50Z</time>
      </trkpt>
      <trkpt lat="45.91812" lon="3.85448">
        <ele>777.84</ele>
        <time>2013-12-08T03:08:52Z</time>
      </trkpt>
      <trkpt lat="45.91797" lon="3.8544">
        <ele>775.92</ele>
        <time>2013-12-08T03:09:01Z</time>
      </trkpt>
      <trkpt lat="45.91796" lon="3.85439">
        <ele>779.29</ele>
        <time>2013-12-08T03:09:02Z</time>
      </trkpt>
      <trkpt lat="45.91794" lon="3.85438">
        <ele>777.84</ele>
        <time>2013-12-08T03:09:03Z</time>
      </trkpt>
      <trkpt lat="45.91772" lon="3.85423">
        <ele>775.92</ele>
        <time>2013-12-08T03:09:15Z</time>
      </trkpt>
      <trkpt lat="45.91765" lon="3.85415">
        <ele>775.44</ele>
        <time>2013-12-08T03:09:21Z</time>
      </trkpt>
      <trkpt lat="45.91761" lon="3.85406">
        <ele>774.96</ele>
        <time>2013-12-08T03:09:26Z</time>
      </trkpt>
      <trkpt lat="45.9176" lon="3.85403">
        <ele>774.96</ele>
        <time>2013-12-08T03:09:28Z</time>
      </trkpt>
      <trkpt lat="45.91757" lon="3.85396">
        <ele>774</ele>
        <time>2013-12-08T03:09:32Z</time>
      </trkpt>
      <trkpt lat="45.91756" lon="3.85392">
        <ele>774</ele>
        <time>2013-12-08T03:09:34Z</time>
      </trkpt>
      <trkpt lat="45.91754" lon="3.85378">
        <ele>772.56</ele>
        <time>2013-12-08T03:09:40Z</time>
      </trkpt>
      <trkpt lat="45.91752" lon="3.85362">
        <ele>771.11</ele>
        <time>2013-12-08T03:09:46Z</time>
      </trkpt>
      <trkpt lat="45.91754" lon="3.85357">
        <ele>771.11</ele>
        <time>2013-12-08T03:09:48Z</time>
      </trkpt>
      <trkpt lat="45.91752" lon="3.85335">
        <ele>767.75</ele>
        <time>2013-12-08T03:10:00Z</time>
      </trkpt>
      <trkpt lat="45.91756" lon="3.85305">
        <ele>764.39</ele>
        <time>2013-12-08T03:10:10Z</time>
      </trkpt>
      <trkpt lat="45.91763" lon="3.85272">
        <ele>761.02</ele>
        <time>2013-12-08T03:10:19Z</time>
      </trkpt>
      <trkpt lat="45.91766" lon="3.85251">
        <ele>758.14</ele>
        <time>2013-12-08T03:10:24Z</time>
      </trkpt>
      <trkpt lat="45.91772" lon="3.85227">
        <ele>755.25</ele>
        <time>2013-12-08T03:10:30Z</time>
      </trkpt>
      <trkpt lat="45.91773" lon="3.85223">
        <ele>755.25</ele>
        <time>2013-12-08T03:10:31Z</time>
      </trkpt>
      <trkpt lat="45.91777" lon="3.85198">
        <ele>752.37</ele>
        <time>2013-12-08T03:10:37Z</time>
      </trkpt>
      <trkpt lat="45.91782" lon="3.85177">
        <ele>749.97</ele>
        <time>2013-12-08T03:10:42Z</time>
      </trkpt>
      <trkpt lat="45.91788" lon="3.85152">
        <ele>746.6</ele>
        <time>2013-12-08T03:10:48Z</time>
      </trkpt>
      <trkpt lat="45.9179" lon="3.85136">
        <ele>745.16</ele>
        <time>2013-12-08T03:10:52Z</time>
      </trkpt>
      <trkpt lat="45.91796" lon="3.85106">
        <ele>741.79</ele>
        <time>2013-12-08T03:10:59Z</time>
      </trkpt>
      <trkpt lat="45.91798" lon="3.85083">
        <ele>739.87</ele>
        <time>2013-12-08T03:11:04Z</time>
      </trkpt>
      <trkpt lat="45.91797" lon="3.85074">
        <ele>738.91</ele>
        <time>2013-12-08T03:11:06Z</time>
      </trkpt>
      <trkpt lat="45.91788" lon="3.85045">
        <ele>735.55</ele>
        <time>2013-12-08T03:11:13Z</time>
      </trkpt>
      <trkpt lat="45.91776" lon="3.85019">
        <ele>732.18</ele>
        <time>2013-12-08T03:11:20Z</time>
      </trkpt>
      <trkpt lat="45.9177" lon="3.85009">
        <ele>730.74</ele>
        <time>2013-12-08T03:11:23Z</time>
      </trkpt>
      <trkpt lat="45.91767" lon="3.85003">
        <ele>729.78</ele>
        <time>2013-12-08T03:11:25Z</time>
      </trkpt>
      <trkpt lat="45.91753" lon="3.84971">
        <ele>726.41</ele>
        <time>2013-12-08T03:11:33Z</time>
      </trkpt>
      <trkpt lat="45.9175" lon="3.84963">
        <ele>725.45</ele>
        <time>2013-12-08T03:11:35Z</time>
      </trkpt>
      <trkpt lat="45.91742" lon="3.84948">
        <ele>723.05</ele>
        <time>2013-12-08T03:11:39Z</time>
      </trkpt>
      <trkpt lat="45.91729" lon="3.84921">
        <ele>720.16</ele>
        <time>2013-12-08T03:11:46Z</time>
      </trkpt>
      <trkpt lat="45.91715" lon="3.84896">
        <ele>717.28</ele>
        <time>2013-12-08T03:11:54Z</time>
      </trkpt>
      <trkpt lat="45.91712" lon="3.84888">
        <ele>716.32</ele>
        <time>2013-12-08T03:11:56Z</time>
      </trkpt>
      <trkpt lat="45.91696" lon="3.84858">
        <ele>712.95</ele>
        <time>2013-12-08T03:12:05Z</time>
      </trkpt>
      <trkpt lat="45.91683" lon="3.84827">
        <ele>709.59</ele>
        <time>2013-12-08T03:12:14Z</time>
      </trkpt>
      <trkpt lat="45.9167" lon="3.84799">
        <ele>706.23</ele>
        <time>2013-12-08T03:12:23Z</time>
      </trkpt>
      <trkpt lat="45.9166" lon="3.84776">
        <ele>703.34</ele>
        <time>2013-12-08T03:12:30Z</time>
      </trkpt>
      <trkpt lat="45.91647" lon="3.84751">
        <ele>699.98</ele>
        <time>2013-12-08T03:12:39Z</time>
      </trkpt>
      <trkpt lat="45.91632" lon="3.84725">
        <ele>697.09</ele>
        <time>2013-12-08T03:12:49Z</time>
      </trkpt>
      <trkpt lat="45.91625" lon="3.84715">
        <ele>695.17</ele>
        <time>2013-12-08T03:12:53Z</time>
      </trkpt>
      <trkpt lat="45.9162" lon="3.84701">
        <ele>693.73</ele>
        <time>2013-12-08T03:12:57Z</time>
      </trkpt>
      <trkpt lat="45.91608" lon="3.84674">
        <ele>690.36</ele>
        <time>2013-12-08T03:13:05Z</time>
      </trkpt>
      <trkpt lat="45.91596" lon="3.84645">
        <ele>687</ele>
        <time>2013-12-08T03:13:14Z</time>
      </trkpt>
      <trkpt lat="45.91592" lon="3.84617">
        <ele>683.63</ele>
        <time>2013-12-08T03:13:22Z</time>
      </trkpt>
      <trkpt lat="45.91591" lon="3.84585">
        <ele>680.75</ele>
        <time>2013-12-08T03:13:30Z</time>
      </trkpt>
      <trkpt lat="45.91592" lon="3.84562">
        <ele>677.39</ele>
        <time>2013-12-08T03:13:36Z</time>
      </trkpt>
      <trkpt lat="45.91589" lon="3.84541">
        <ele>674.5</ele>
        <time>2013-12-08T03:13:42Z</time>
      </trkpt>
      <trkpt lat="45.91587" lon="3.84535">
        <ele>673.06</ele>
        <time>2013-12-08T03:13:44Z</time>
      </trkpt>
      <trkpt lat="45.91579" lon="3.8453">
        <ele>671.14</ele>
        <time>2013-12-08T03:13:48Z</time>
      </trkpt>
      <trkpt lat="45.9157" lon="3.84534">
        <ele>669.7</ele>
        <time>2013-12-08T03:13:52Z</time>
      </trkpt>
      <trkpt lat="45.9155" lon="3.84539">
        <ele>666.33</ele>
        <time>2013-12-08T03:14:01Z</time>
      </trkpt>
      <trkpt lat="45.91544" lon="3.84541">
        <ele>665.37</ele>
        <time>2013-12-08T03:14:05Z</time>
      </trkpt>
      <trkpt lat="45.91521" lon="3.84543">
        <ele>662.01</ele>
        <time>2013-12-08T03:14:17Z</time>
      </trkpt>
      <trkpt lat="45.91499" lon="3.84548">
        <ele>658.64</ele>
        <time>2013-12-08T03:14:29Z</time>
      </trkpt>
      <trkpt lat="45.91476" lon="3.84569">
        <ele>655.28</ele>
        <time>2013-12-08T03:14:39Z</time>
      </trkpt>
      <trkpt lat="45.91461" lon="3.84591">
        <ele>653.35</ele>
        <time>2013-12-08T03:14:48Z</time>
      </trkpt>
      <trkpt lat="45.91457" lon="3.84592">
        <ele>652.87</ele>
        <time>2013-12-08T03:14:50Z</time>
      </trkpt>
      <trkpt lat="45.9145" lon="3.84586">
        <ele>651.91</ele>
        <time>2013-12-08T03:14:57Z</time>
      </trkpt>
      <trkpt lat="45.91453" lon="3.84566">
        <ele>650.95</ele>
        <time>2013-12-08T03:15:04Z</time>
      </trkpt>
      <trkpt lat="45.91462" lon="3.84528">
        <ele>649.03</ele>
        <time>2013-12-08T03:15:14Z</time>
      </trkpt>
      <trkpt lat="45.91466" lon="3.845">
        <ele>646.14</ele>
        <time>2013-12-08T03:15:22Z</time>
      </trkpt>
      <trkpt lat="45.91466" lon="3.84462">
        <ele>642.3</ele>
        <time>2013-12-08T03:15:33Z</time>
      </trkpt>
      <trkpt lat="45.91471" lon="3.84419">
        <ele>639.41</ele>
        <time>2013-12-08T03:15:44Z</time>
      </trkpt>
      <trkpt lat="45.91473" lon="3.84382">
        <ele>636.05</ele>
        <time>2013-12-08T03:15:54Z</time>
      </trkpt>
      <trkpt lat="45.91474" lon="3.84351">
        <ele>633.65</ele>
        <time>2013-12-08T03:16:03Z</time>
      </trkpt>
      <trkpt lat="45.91474" lon="3.84314">
        <ele>630.28</ele>
        <time>2013-12-08T03:16:14Z</time>
      </trkpt>
      <trkpt lat="45.91472" lon="3.84309">
        <ele>629.32</ele>
        <time>2013-12-08T03:16:16Z</time>
      </trkpt>
      <trkpt lat="45.91469" lon="3.84303">
        <ele>628.84</ele>
        <time>2013-12-08T03:16:19Z</time>
      </trkpt>
      <trkpt lat="45.9146" lon="3.84303">
        <ele>626.44</ele>
        <time>2013-12-08T03:16:27Z</time>
      </trkpt>
      <trkpt lat="45.91448" lon="3.8431">
        <ele>625.47</ele>
        <time>2013-12-08T03:16:42Z</time>
      </trkpt>
      <trkpt lat="45.91444" lon="3.8431">
        <ele>625.47</ele>
        <time>2013-12-08T03:16:59Z</time>
      </trkpt>
      <trkpt lat="45.91436" lon="3.84307">
        <ele>625.96</ele>
        <time>2013-12-08T03:17:15Z</time>
      </trkpt>
      <trkpt lat="45.91433" lon="3.84306">
        <ele>625.47</ele>
        <time>2013-12-08T03:17:34Z</time>
      </trkpt>
      <trkpt lat="45.91433" lon="3.84306">
        <ele>626.44</ele>
        <time>2013-12-08T03:17:40Z</time>
      </trkpt>
      <trkpt lat="45.91432" lon="3.84306">
        <ele>625.96</ele>
        <time>2013-12-08T03:17:59Z</time>
      </trkpt>
      <trkpt lat="45.91432" lon="3.84306">
        <ele>625.96</ele>
        <time>2013-12-08T03:18:24Z</time>
      </trkpt>
      <trkpt lat="45.91432" lon="3.84307">
        <ele>625.96</ele>
        <time>2013-12-08T03:18:57Z</time>
      </trkpt>
      <trkpt lat="45.91431" lon="3.84307">
        <ele>626.44</ele>
        <time>2013-12-08T03:19:30Z</time>
      </trkpt>
      <trkpt lat="45.91431" lon="3.84307">
        <ele>626.44</ele>
        <time>2013-12-08T03:19:59Z</time>
      </trkpt>
      <trkpt lat="45.91432" lon="3.84307">
        <ele>626.44</ele>
        <time>2013-12-08T03:20:34Z</time>
      </trkpt>
      <trkpt lat="45.91433" lon="3.84306">
        <ele>626.44</ele>
        <time>2013-12-08T03:20:58Z</time>
      </trkpt>
      <trkpt lat="45.91433" lon="3.84306">
        <ele>626.92</ele>
        <time>2013-12-08T03:21:29Z</time>
      </trkpt>
      <trkpt lat="45.91433" lon="3.84306">
        <ele>626.92</ele>
        <time>2013-12-08T03:22:04Z</time>
      </trkpt>
      <trkpt lat="45.91433" lon="3.84306">
        <ele>626.92</ele>
        <time>2013-12-08T03:22:36Z</time>
      </trkpt>
      <trkpt lat="45.91433" lon="3.84306">
        <ele>626.92</ele>
        <time>2013-12-08T03:23:08Z</time>
      </trkpt>
      <trkpt lat="45.91432" lon="3.84306">
        <ele>627.4</ele>
        <time>2013-12-08T03:23:38Z</time>
      </trkpt>
      <trkpt lat="45.91432" lon="3.84306">
        <ele>627.4</ele>
        <time>2013-12-08T03:24:11Z</time>
      </trkpt>
      <trkpt lat="45.91433" lon="3.84307">
        <ele>627.88</ele>
        <time>2013-12-08T03:24:41Z</time>
      </trkpt>
      <trkpt lat="45.91433" lon="3.84307">
        <ele>627.88</ele>
        <time>2013-12-08T03:25:18Z</time>
      </trkpt>
      <trkpt lat="45.91432" lon="3.84307">
        <ele>627.88</ele>
        <time>2013-12-08T03:25:50Z</time>
      </trkpt>
      <trkpt lat="45.91432" lon="3.84308">
        <ele>627.88</ele>
        <time>2013-12-08T03:26:26Z</time>
      </trkpt>
      <trkpt lat="45.91432" lon="3.84308">
        <ele>627.88</ele>
        <time>2013-12-08T03:26:59Z</time>
      </trkpt>
      <trkpt lat="45.91432" lon="3.84307">
        <ele>629.32</ele>
        <time>2013-12-08T03:27:25Z</time>
      </trkpt>
      <trkpt lat="45.91432" lon="3.84308">
        <ele>628.84</ele>
        <time>2013-12-08T03:27:44Z</time>
      </trkpt>
      <trkpt lat="45.91432" lon="3.84307">
        <ele>628.84</ele>
        <time>2013-12-08T03:28:01Z</time>
      </trkpt>
      <trkpt lat="45.91436" lon="3.84297">
        <ele>628.36</ele>
        <time>2013-12-08T03:28:15Z</time>
      </trkpt>
      <trkpt lat="45.91435" lon="3.84291">
        <ele>627.88</ele>
        <time>2013-12-08T03:28:21Z</time>
      </trkpt>
      <trkpt lat="45.91429" lon="3.84282">
        <ele>625.47</ele>
        <time>2013-12-08T03:28:33Z</time>
      </trkpt>
      <trkpt lat="45.91415" lon="3.84273">
        <ele>624.51</ele>
        <time>2013-12-08T03:28:45Z</time>
      </trkpt>
      <trkpt lat="45.91407" lon="3.84268">
        <ele>624.03</ele>
        <time>2013-12-08T03:28:51Z</time>
      </trkpt>
      <trkpt lat="45.91404" lon="3.84267">
        <ele>624.03</ele>
        <time>2013-12-08T03:28:53Z</time>
      </trkpt>
      <trkpt lat="45.91391" lon="3.84258">
        <ele>623.07</ele>
        <time>2013-12-08T03:29:03Z</time>
      </trkpt>
      <trkpt lat="45.91387" lon="3.84252">
        <ele>622.59</ele>
        <time>2013-12-08T03:29:07Z</time>
      </trkpt>
      <trkpt lat="45.91375" lon="3.8424">
        <ele>621.15</ele>
        <time>2013-12-08T03:29:16Z</time>
      </trkpt>
      <trkpt lat="45.91365" lon="3.84236">
        <ele>620.19</ele>
        <time>2013-12-08T03:29:22Z</time>
      </trkpt>
      <trkpt lat="45.91362" lon="3.84234">
        <ele>619.71</ele>
        <time>2013-12-08T03:29:24Z</time>
      </trkpt>
      <trkpt lat="45.91354" lon="3.8423">
        <ele>619.23</ele>
        <time>2013-12-08T03:29:30Z</time>
      </trkpt>
      <trkpt lat="45.91351" lon="3.84229">
        <ele>618.75</ele>
        <time>2013-12-08T03:29:33Z</time>
      </trkpt>
      <trkpt lat="45.91349" lon="3.84228">
        <ele>618.75</ele>
        <time>2013-12-08T03:29:35Z</time>
      </trkpt>
      <trkpt lat="45.91328" lon="3.84217">
        <ele>616.82</ele>
        <time>2013-12-08T03:29:48Z</time>
      </trkpt>
      <trkpt lat="45.9131" lon="3.8421">
        <ele>615.38</ele>
        <time>2013-12-08T03:30:01Z</time>
      </trkpt>
      <trkpt lat="45.91292" lon="3.842">
        <ele>613.46</ele>
        <time>2013-12-08T03:30:13Z</time>
      </trkpt>
      <trkpt lat="45.91278" lon="3.84191">
        <ele>612.02</ele>
        <time>2013-12-08T03:30:24Z</time>
      </trkpt>
      <trkpt lat="45.91259" lon="3.84182">
        <ele>610.09</ele>
        <time>2013-12-08T03:30:37Z</time>
      </trkpt>
      <trkpt lat="45.91242" lon="3.84174">
        <ele>608.17</ele>
        <time>2013-12-08T03:30:50Z</time>
      </trkpt>
      <trkpt lat="45.91229" lon="3.84167">
        <ele>607.21</ele>
        <time>2013-12-08T03:31:00Z</time>
      </trkpt>
      <trkpt lat="45.91226" lon="3.84165">
        <ele>607.21</ele>
        <time>2013-12-08T03:31:03Z</time>
      </trkpt>
      <trkpt lat="45.91208" lon="3.84155">
        <ele>605.77</ele>
        <time>2013-12-08T03:31:16Z</time>
      </trkpt>
      <trkpt lat="45.9119" lon="3.84147">
        <ele>604.81</ele>
        <time>2013-12-08T03:31:27Z</time>
      </trkpt>
      <trkpt lat="45.91171" lon="3.84137">
        <ele>604.33</ele>
        <time>2013-12-08T03:31:38Z</time>
      </trkpt>
      <trkpt lat="45.9115" lon="3.84126">
        <ele>603.85</ele>
        <time>2013-12-08T03:31:52Z</time>
      </trkpt>
      <trkpt lat="45.91148" lon="3.84125">
        <ele>603.36</ele>
        <time>2013-12-08T03:31:54Z</time>
      </trkpt>
      <trkpt lat="45.91139" lon="3.8412">
        <ele>603.36</ele>
        <time>2013-12-08T03:32:01Z</time>
      </trkpt>
      <trkpt lat="45.91125" lon="3.84112">
        <ele>602.88</ele>
        <time>2013-12-08T03:32:11Z</time>
      </trkpt>
      <trkpt lat="45.91116" lon="3.84109">
        <ele>602.88</ele>
        <time>2013-12-08T03:32:16Z</time>
      </trkpt>
      <trkpt lat="45.911" lon="3.84101">
        <ele>602.4</ele>
        <time>2013-12-08T03:32:28Z</time>
      </trkpt>
      <trkpt lat="45.91091" lon="3.84098">
        <ele>602.4</ele>
        <time>2013-12-08T03:32:34Z</time>
      </trkpt>
      <trkpt lat="45.9108" lon="3.84095">
        <ele>602.4</ele>
        <time>2013-12-08T03:32:41Z</time>
      </trkpt>
      <trkpt lat="45.9107" lon="3.84088">
        <ele>601.92</ele>
        <time>2013-12-08T03:32:49Z</time>
      </trkpt>
      <trkpt lat="45.91048" lon="3.84072">
        <ele>601.92</ele>
        <time>2013-12-08T03:33:05Z</time>
      </trkpt>
      <trkpt lat="45.91031" lon="3.84056">
        <ele>601.92</ele>
        <time>2013-12-08T03:33:18Z</time>
      </trkpt>
      <trkpt lat="45.91028" lon="3.8405">
        <ele>601.92</ele>
        <time>2013-12-08T03:33:21Z</time>
      </trkpt>
      <trkpt lat="45.91023" lon="3.84042">
        <ele>601.44</ele>
        <time>2013-12-08T03:33:26Z</time>
      </trkpt>
      <trkpt lat="45.91017" lon="3.8403">
        <ele>601.44</ele>
        <time>2013-12-08T03:33:32Z</time>
      </trkpt>
      <trkpt lat="45.91014" lon="3.84021">
        <ele>601.44</ele>
        <time>2013-12-08T03:33:36Z</time>
      </trkpt>
      <trkpt lat="45.9101" lon="3.84012">
        <ele>600.96</ele>
        <time>2013-12-08T03:33:40Z</time>
      </trkpt>
      <trkpt lat="45.91002" lon="3.83974">
        <ele>601.44</ele>
        <time>2013-12-08T03:33:57Z</time>
      </trkpt>
      <trkpt lat="45.91008" lon="3.8394">
        <ele>601.92</ele>
        <time>2013-12-08T03:34:12Z</time>
      </trkpt>
      <trkpt lat="45.9101" lon="3.83936">
        <ele>601.92</ele>
        <time>2013-12-08T03:34:14Z</time>
      </trkpt>
      <trkpt lat="45.91012" lon="3.83924">
        <ele>602.88</ele>
        <time>2013-12-08T03:34:21Z</time>
      </trkpt>
      <trkpt lat="45.91016" lon="3.8391">
        <ele>600</ele>
        <time>2013-12-08T03:34:26Z</time>
      </trkpt>
      <trkpt lat="45.91017" lon="3.83905">
        <ele>603.85</ele>
        <time>2013-12-08T03:34:28Z</time>
      </trkpt>
      <trkpt lat="45.91018" lon="3.83903">
        <ele>602.4</ele>
        <time>2013-12-08T03:34:29Z</time>
      </trkpt>
      <trkpt lat="45.91019" lon="3.83899">
        <ele>598.56</ele>
        <time>2013-12-08T03:34:31Z</time>
      </trkpt>
      <trkpt lat="45.91019" lon="3.83897">
        <ele>604.33</ele>
        <time>2013-12-08T03:34:32Z</time>
      </trkpt>
      <trkpt lat="45.9102" lon="3.8389">
        <ele>600.96</ele>
        <time>2013-12-08T03:34:35Z</time>
      </trkpt>
      <trkpt lat="45.9102" lon="3.83887">
        <ele>601.92</ele>
        <time>2013-12-08T03:34:36Z</time>
      </trkpt>
      <trkpt lat="45.91021" lon="3.83882">
        <ele>605.29</ele>
        <time>2013-12-08T03:34:38Z</time>
      </trkpt>
      <trkpt lat="45.91021" lon="3.8388">
        <ele>595.67</ele>
        <time>2013-12-08T03:34:39Z</time>
      </trkpt>
      <trkpt lat="45.91022" lon="3.83878">
        <ele>607.69</ele>
        <time>2013-12-08T03:34:40Z</time>
      </trkpt>
      <trkpt lat="45.91022" lon="3.83876">
        <ele>602.88</ele>
        <time>2013-12-08T03:34:41Z</time>
      </trkpt>
      <trkpt lat="45.91025" lon="3.83861">
        <ele>598.56</ele>
        <time>2013-12-08T03:34:48Z</time>
      </trkpt>
      <trkpt lat="45.91026" lon="3.83859">
        <ele>606.25</ele>
        <time>2013-12-08T03:34:49Z</time>
      </trkpt>
      <trkpt lat="45.91027" lon="3.83854">
        <ele>603.36</ele>
        <time>2013-12-08T03:34:51Z</time>
      </trkpt>
      <trkpt lat="45.91032" lon="3.83826">
        <ele>605.77</ele>
        <time>2013-12-08T03:35:05Z</time>
      </trkpt>
      <trkpt lat="45.91033" lon="3.83824">
        <ele>602.4</ele>
        <time>2013-12-08T03:35:06Z</time>
      </trkpt>
      <trkpt lat="45.91033" lon="3.83822">
        <ele>606.25</ele>
        <time>2013-12-08T03:35:07Z</time>
      </trkpt>
      <trkpt lat="45.91036" lon="3.83809">
        <ele>605.77</ele>
        <time>2013-12-08T03:35:13Z</time>
      </trkpt>
      <trkpt lat="45.9104" lon="3.83792">
        <ele>608.17</ele>
        <time>2013-12-08T03:35:22Z</time>
      </trkpt>
      <trkpt lat="45.91041" lon="3.83785">
        <ele>607.69</ele>
        <time>2013-12-08T03:35:25Z</time>
      </trkpt>
      <trkpt lat="45.91045" lon="3.83777">
        <ele>608.17</ele>
        <time>2013-12-08T03:35:29Z</time>
      </trkpt>
      <trkpt lat="45.91048" lon="3.8375">
        <ele>611.54</ele>
        <time>2013-12-08T03:35:43Z</time>
      </trkpt>
      <trkpt lat="45.9105" lon="3.83742">
        <ele>611.54</ele>
        <time>2013-12-08T03:35:48Z</time>
      </trkpt>
      <trkpt lat="45.91052" lon="3.83714">
        <ele>613.94</ele>
        <time>2013-12-08T03:36:02Z</time>
      </trkpt>
      <trkpt lat="45.91054" lon="3.83694">
        <ele>614.9</ele>
        <time>2013-12-08T03:36:12Z</time>
      </trkpt>
      <trkpt lat="45.91065" lon="3.83662">
        <ele>617.3</ele>
        <time>2013-12-08T03:36:28Z</time>
      </trkpt>
      <trkpt lat="45.91069" lon="3.83649">
        <ele>618.26</ele>
        <time>2013-12-08T03:36:35Z</time>
      </trkpt>
      <trkpt lat="45.91071" lon="3.83622">
        <ele>620.67</ele>
        <time>2013-12-08T03:36:48Z</time>
      </trkpt>
      <trkpt lat="45.91073" lon="3.83618">
        <ele>620.67</ele>
        <time>2013-12-08T03:36:50Z</time>
      </trkpt>
      <trkpt lat="45.91071" lon="3.83601">
        <ele>622.59</ele>
        <time>2013-12-08T03:37:00Z</time>
      </trkpt>
      <trkpt lat="45.9108" lon="3.83567">
        <ele>624.51</ele>
        <time>2013-12-08T03:37:16Z</time>
      </trkpt>
      <trkpt lat="45.9108" lon="3.83563">
        <ele>624.99</ele>
        <time>2013-12-08T03:37:18Z</time>
      </trkpt>
      <trkpt lat="45.9108" lon="3.83559">
        <ele>624.99</ele>
        <time>2013-12-08T03:37:20Z</time>
      </trkpt>
      <trkpt lat="45.91084" lon="3.83537">
        <ele>626.44</ele>
        <time>2013-12-08T03:37:30Z</time>
      </trkpt>
      <trkpt lat="45.91093" lon="3.83506">
        <ele>628.36</ele>
        <time>2013-12-08T03:37:44Z</time>
      </trkpt>
      <trkpt lat="45.91096" lon="3.83477">
        <ele>630.28</ele>
        <time>2013-12-08T03:37:59Z</time>
      </trkpt>
      <trkpt lat="45.91093" lon="3.83447">
        <ele>632.2</ele>
        <time>2013-12-08T03:38:13Z</time>
      </trkpt>
      <trkpt lat="45.9108" lon="3.83435">
        <ele>634.13</ele>
        <time>2013-12-08T03:38:25Z</time>
      </trkpt>
      <trkpt lat="45.91076" lon="3.83433">
        <ele>635.09</ele>
        <time>2013-12-08T03:38:28Z</time>
      </trkpt>
      <trkpt lat="45.91056" lon="3.83421">
        <ele>637.49</ele>
        <time>2013-12-08T03:38:44Z</time>
      </trkpt>
      <trkpt lat="45.91038" lon="3.83414">
        <ele>639.89</ele>
        <time>2013-12-08T03:38:57Z</time>
      </trkpt>
      <trkpt lat="45.91021" lon="3.83405">
        <ele>641.82</ele>
        <time>2013-12-08T03:39:10Z</time>
      </trkpt>
      <trkpt lat="45.91018" lon="3.83405">
        <ele>642.3</ele>
        <time>2013-12-08T03:39:12Z</time>
      </trkpt>
      <trkpt lat="45.9101" lon="3.83399">
        <ele>643.26</ele>
        <time>2013-12-08T03:39:18Z</time>
      </trkpt>
      <trkpt lat="45.91004" lon="3.83398">
        <ele>644.22</ele>
        <time>2013-12-08T03:39:23Z</time>
      </trkpt>
      <trkpt lat="45.90988" lon="3.83386">
        <ele>646.62</ele>
        <time>2013-12-08T03:39:37Z</time>
      </trkpt>
      <trkpt lat="45.9098" lon="3.83377">
        <ele>648.07</ele>
        <time>2013-12-08T03:39:44Z</time>
      </trkpt>
      <trkpt lat="45.90976" lon="3.83349">
        <ele>650.95</ele>
        <time>2013-12-08T03:40:00Z</time>
      </trkpt>
      <trkpt lat="45.90982" lon="3.83319">
        <ele>652.87</ele>
        <time>2013-12-08T03:40:15Z</time>
      </trkpt>
      <trkpt lat="45.90993" lon="3.8329">
        <ele>655.28</ele>
        <time>2013-12-08T03:40:31Z</time>
      </trkpt>
      <trkpt lat="45.91007" lon="3.83263">
        <ele>657.2</ele>
        <time>2013-12-08T03:40:47Z</time>
      </trkpt>
      <trkpt lat="45.9101" lon="3.83257">
        <ele>657.68</ele>
        <time>2013-12-08T03:40:51Z</time>
      </trkpt>
      <trkpt lat="45.91022" lon="3.83236">
        <ele>659.6</ele>
        <time>2013-12-08T03:41:04Z</time>
      </trkpt>
      <trkpt lat="45.91031" lon="3.83216">
        <ele>661.52</ele>
        <time>2013-12-08T03:41:17Z</time>
      </trkpt>
      <trkpt lat="45.91038" lon="3.83206">
        <ele>662.49</ele>
        <time>2013-12-08T03:41:23Z</time>
      </trkpt>
      <trkpt lat="45.91046" lon="3.83189">
        <ele>663.93</ele>
        <time>2013-12-08T03:41:34Z</time>
      </trkpt>
      <trkpt lat="45.91048" lon="3.83184">
        <ele>664.41</ele>
        <time>2013-12-08T03:41:37Z</time>
      </trkpt>
      <trkpt lat="45.9105" lon="3.83177">
        <ele>664.89</ele>
        <time>2013-12-08T03:41:41Z</time>
      </trkpt>
      <trkpt lat="45.91054" lon="3.83171">
        <ele>665.37</ele>
        <time>2013-12-08T03:41:45Z</time>
      </trkpt>
      <trkpt lat="45.9106" lon="3.83162">
        <ele>666.33</ele>
        <time>2013-12-08T03:41:51Z</time>
      </trkpt>
      <trkpt lat="45.91071" lon="3.83142">
        <ele>668.73</ele>
        <time>2013-12-08T03:42:04Z</time>
      </trkpt>
      <trkpt lat="45.91083" lon="3.83118">
        <ele>670.18</ele>
        <time>2013-12-08T03:42:18Z</time>
      </trkpt>
      <trkpt lat="45.91089" lon="3.83104">
        <ele>671.14</ele>
        <time>2013-12-08T03:42:26Z</time>
      </trkpt>
      <trkpt lat="45.91094" lon="3.83093">
        <ele>671.62</ele>
        <time>2013-12-08T03:42:33Z</time>
      </trkpt>
      <trkpt lat="45.91093" lon="3.8307">
        <ele>673.06</ele>
        <time>2013-12-08T03:42:44Z</time>
      </trkpt>
      <trkpt lat="45.9109" lon="3.83054">
        <ele>674.02</ele>
        <time>2013-12-08T03:42:52Z</time>
      </trkpt>
      <trkpt lat="45.91081" lon="3.83028">
        <ele>675.94</ele>
        <time>2013-12-08T03:43:07Z</time>
      </trkpt>
      <trkpt lat="45.91071" lon="3.82993">
        <ele>677.87</ele>
        <time>2013-12-08T03:43:23Z</time>
      </trkpt>
      <trkpt lat="45.91063" lon="3.82971">
        <ele>679.31</ele>
        <time>2013-12-08T03:43:35Z</time>
      </trkpt>
      <trkpt lat="45.9106" lon="3.82963">
        <ele>679.79</ele>
        <time>2013-12-08T03:43:39Z</time>
      </trkpt>
      <trkpt lat="45.9105" lon="3.82945">
        <ele>681.23</ele>
        <time>2013-12-08T03:43:50Z</time>
      </trkpt>
      <trkpt lat="45.91047" lon="3.82939">
        <ele>681.71</ele>
        <time>2013-12-08T03:43:54Z</time>
      </trkpt>
      <trkpt lat="45.91035" lon="3.82921">
        <ele>683.15</ele>
        <time>2013-12-08T03:44:07Z</time>
      </trkpt>
      <trkpt lat="45.91033" lon="3.8292">
        <ele>683.63</ele>
        <time>2013-12-08T03:44:08Z</time>
      </trkpt>
      <trkpt lat="45.91025" lon="3.8291">
        <ele>684.6</ele>
        <time>2013-12-08T03:44:16Z</time>
      </trkpt>
      <trkpt lat="45.91011" lon="3.8289">
        <ele>687</ele>
        <time>2013-12-08T03:44:32Z</time>
      </trkpt>
      <trkpt lat="45.91005" lon="3.82884">
        <ele>687.96</ele>
        <time>2013-12-08T03:44:38Z</time>
      </trkpt>
      <trkpt lat="45.90993" lon="3.8287">
        <ele>690.36</ele>
        <time>2013-12-08T03:44:51Z</time>
      </trkpt>
      <trkpt lat="45.90977" lon="3.82858">
        <ele>692.29</ele>
        <time>2013-12-08T03:45:03Z</time>
      </trkpt>
      <trkpt lat="45.90967" lon="3.8285">
        <ele>693.73</ele>
        <time>2013-12-08T03:45:11Z</time>
      </trkpt>
      <trkpt lat="45.90947" lon="3.82838">
        <ele>695.65</ele>
        <time>2013-12-08T03:45:26Z</time>
      </trkpt>
      <trkpt lat="45.90934" lon="3.82827">
        <ele>697.57</ele>
        <time>2013-12-08T03:45:39Z</time>
      </trkpt>
      <trkpt lat="45.90928" lon="3.82823">
        <ele>698.53</ele>
        <time>2013-12-08T03:45:45Z</time>
      </trkpt>
      <trkpt lat="45.90917" lon="3.8282">
        <ele>699.5</ele>
        <time>2013-12-08T03:45:51Z</time>
      </trkpt>
      <trkpt lat="45.90898" lon="3.82811">
        <ele>701.9</ele>
        <time>2013-12-08T03:46:06Z</time>
      </trkpt>
      <trkpt lat="45.90882" lon="3.82802">
        <ele>703.34</ele>
        <time>2013-12-08T03:46:16Z</time>
      </trkpt>
      <trkpt lat="45.90874" lon="3.82799">
        <ele>704.3</ele>
        <time>2013-12-08T03:46:22Z</time>
      </trkpt>
      <trkpt lat="45.9087" lon="3.82796">
        <ele>704.78</ele>
        <time>2013-12-08T03:46:25Z</time>
      </trkpt>
      <trkpt lat="45.90852" lon="3.82789">
        <ele>706.71</ele>
        <time>2013-12-08T03:46:36Z</time>
      </trkpt>
      <trkpt lat="45.90845" lon="3.82786">
        <ele>707.19</ele>
        <time>2013-12-08T03:46:41Z</time>
      </trkpt>
      <trkpt lat="45.90836" lon="3.82776">
        <ele>708.63</ele>
        <time>2013-12-08T03:46:49Z</time>
      </trkpt>
      <trkpt lat="45.90824" lon="3.82771">
        <ele>710.07</ele>
        <time>2013-12-08T03:46:57Z</time>
      </trkpt>
      <trkpt lat="45.90812" lon="3.82765">
        <ele>711.51</ele>
        <time>2013-12-08T03:47:06Z</time>
      </trkpt>
      <trkpt lat="45.90798" lon="3.82762">
        <ele>713.44</ele>
        <time>2013-12-08T03:47:15Z</time>
      </trkpt>
      <trkpt lat="45.90794" lon="3.82761">
        <ele>708.63</ele>
        <time>2013-12-08T03:47:18Z</time>
      </trkpt>
      <trkpt lat="45.90793" lon="3.8276">
        <ele>715.84</ele>
        <time>2013-12-08T03:47:19Z</time>
      </trkpt>
      <trkpt lat="45.90789" lon="3.82757">
        <ele>712.47</ele>
        <time>2013-12-08T03:47:22Z</time>
      </trkpt>
      <trkpt lat="45.9077" lon="3.82747">
        <ele>714.88</ele>
        <time>2013-12-08T03:47:34Z</time>
      </trkpt>
      <trkpt lat="45.90766" lon="3.82739">
        <ele>716.32</ele>
        <time>2013-12-08T03:47:40Z</time>
      </trkpt>
      <trkpt lat="45.90755" lon="3.8273">
        <ele>722.57</ele>
        <time>2013-12-08T03:47:49Z</time>
      </trkpt>
      <trkpt lat="45.90754" lon="3.82729">
        <ele>718.24</ele>
        <time>2013-12-08T03:47:50Z</time>
      </trkpt>
      <trkpt lat="45.90747" lon="3.82711">
        <ele>719.68</ele>
        <time>2013-12-08T03:48:01Z</time>
      </trkpt>
      <trkpt lat="45.90733" lon="3.82691">
        <ele>721.61</ele>
        <time>2013-12-08T03:48:16Z</time>
      </trkpt>
      <trkpt lat="45.9073" lon="3.82678">
        <ele>722.57</ele>
        <time>2013-12-08T03:48:22Z</time>
      </trkpt>
      <trkpt lat="45.90729" lon="3.82672">
        <ele>723.05</ele>
        <time>2013-12-08T03:48:25Z</time>
      </trkpt>
      <trkpt lat="45.90727" lon="3.82662">
        <ele>723.53</ele>
        <time>2013-12-08T03:48:30Z</time>
      </trkpt>
      <trkpt lat="45.90726" lon="3.82651">
        <ele>724.01</ele>
        <time>2013-12-08T03:48:36Z</time>
      </trkpt>
      <trkpt lat="45.90724" lon="3.8264">
        <ele>724.97</ele>
        <time>2013-12-08T03:48:41Z</time>
      </trkpt>
      <trkpt lat="45.90722" lon="3.82634">
        <ele>724.97</ele>
        <time>2013-12-08T03:48:44Z</time>
      </trkpt>
      <trkpt lat="45.9072" lon="3.82624">
        <ele>725.93</ele>
        <time>2013-12-08T03:48:49Z</time>
      </trkpt>
      <trkpt lat="45.90718" lon="3.82595">
        <ele>727.37</ele>
        <time>2013-12-08T03:49:04Z</time>
      </trkpt>
      <trkpt lat="45.90719" lon="3.82586">
        <ele>727.86</ele>
        <time>2013-12-08T03:49:09Z</time>
      </trkpt>
      <trkpt lat="45.9072" lon="3.82578">
        <ele>728.82</ele>
        <time>2013-12-08T03:49:13Z</time>
      </trkpt>
      <trkpt lat="45.90727" lon="3.8255">
        <ele>730.74</ele>
        <time>2013-12-08T03:49:29Z</time>
      </trkpt>
      <trkpt lat="45.90733" lon="3.82525">
        <ele>732.66</ele>
        <time>2013-12-08T03:49:42Z</time>
      </trkpt>
      <trkpt lat="45.90739" lon="3.82503">
        <ele>734.1</ele>
        <time>2013-12-08T03:49:53Z</time>
      </trkpt>
      <trkpt lat="45.9074" lon="3.82499">
        <ele>734.1</ele>
        <time>2013-12-08T03:49:55Z</time>
      </trkpt>
      <trkpt lat="45.90742" lon="3.82492">
        <ele>735.07</ele>
        <time>2013-12-08T03:49:59Z</time>
      </trkpt>
      <trkpt lat="45.90745" lon="3.82483">
        <ele>735.07</ele>
        <time>2013-12-08T03:50:03Z</time>
      </trkpt>
      <trkpt lat="45.90748" lon="3.82473">
        <ele>736.03</ele>
        <time>2013-12-08T03:50:08Z</time>
      </trkpt>
      <trkpt lat="45.90758" lon="3.8244">
        <ele>737.47</ele>
        <time>2013-12-08T03:50:24Z</time>
      </trkpt>
      <trkpt lat="45.90764" lon="3.82408">
        <ele>738.91</ele>
        <time>2013-12-08T03:50:40Z</time>
      </trkpt>
      <trkpt lat="45.9076" lon="3.82381">
        <ele>739.39</ele>
        <time>2013-12-08T03:50:53Z</time>
      </trkpt>
      <trkpt lat="45.90745" lon="3.82356">
        <ele>739.87</ele>
        <time>2013-12-08T03:51:07Z</time>
      </trkpt>
      <trkpt lat="45.90741" lon="3.82353">
        <ele>739.39</ele>
        <time>2013-12-08T03:51:10Z</time>
      </trkpt>
      <trkpt lat="45.90724" lon="3.82331">
        <ele>739.87</ele>
        <time>2013-12-08T03:51:25Z</time>
      </trkpt>
      <trkpt lat="45.90705" lon="3.8231">
        <ele>739.87</ele>
        <time>2013-12-08T03:51:40Z</time>
      </trkpt>
      <trkpt lat="45.90686" lon="3.82284">
        <ele>739.87</ele>
        <time>2013-12-08T03:51:56Z</time>
      </trkpt>
      <trkpt lat="45.9067" lon="3.82265">
        <ele>740.35</ele>
        <time>2013-12-08T03:52:09Z</time>
      </trkpt>
      <trkpt lat="45.90654" lon="3.82239">
        <ele>740.83</ele>
        <time>2013-12-08T03:52:25Z</time>
      </trkpt>
      <trkpt lat="45.90651" lon="3.82235">
        <ele>740.83</ele>
        <time>2013-12-08T03:52:28Z</time>
      </trkpt>
      <trkpt lat="45.90638" lon="3.82223">
        <ele>741.31</ele>
        <time>2013-12-08T03:52:39Z</time>
      </trkpt>
      <trkpt lat="45.90632" lon="3.82219">
        <ele>741.79</ele>
        <time>2013-12-08T03:52:43Z</time>
      </trkpt>
      <trkpt lat="45.90628" lon="3.82217">
        <ele>741.79</ele>
        <time>2013-12-08T03:52:46Z</time>
      </trkpt>
      <trkpt lat="45.90625" lon="3.82214">
        <ele>741.79</ele>
        <time>2013-12-08T03:52:49Z</time>
      </trkpt>
      <trkpt lat="45.90608" lon="3.82199">
        <ele>742.76</ele>
        <time>2013-12-08T03:53:02Z</time>
      </trkpt>
      <trkpt lat="45.90583" lon="3.82174">
        <ele>743.24</ele>
        <time>2013-12-08T03:53:20Z</time>
      </trkpt>
      <trkpt lat="45.90565" lon="3.82154">
        <ele>744.2</ele>
        <time>2013-12-08T03:53:35Z</time>
      </trkpt>
      <trkpt lat="45.90557" lon="3.82143">
        <ele>744.2</ele>
        <time>2013-12-08T03:53:43Z</time>
      </trkpt>
      <trkpt lat="45.90535" lon="3.82114">
        <ele>743.72</ele>
        <time>2013-12-08T03:54:01Z</time>
      </trkpt>
      <trkpt lat="45.90524" lon="3.82099">
        <ele>743.72</ele>
        <time>2013-12-08T03:54:11Z</time>
      </trkpt>
      <trkpt lat="45.9052" lon="3.82096">
        <ele>743.24</ele>
        <time>2013-12-08T03:54:14Z</time>
      </trkpt>
      <trkpt lat="45.90506" lon="3.82079">
        <ele>742.76</ele>
        <time>2013-12-08T03:54:26Z</time>
      </trkpt>
      <trkpt lat="45.90496" lon="3.82069">
        <ele>742.28</ele>
        <time>2013-12-08T03:54:33Z</time>
      </trkpt>
      <trkpt lat="45.90481" lon="3.8205">
        <ele>741.79</ele>
        <time>2013-12-08T03:54:46Z</time>
      </trkpt>
      <trkpt lat="45.90463" lon="3.82031">
        <ele>741.31</ele>
        <time>2013-12-08T03:55:00Z</time>
      </trkpt>
      <trkpt lat="45.90446" lon="3.82006">
        <ele>740.35</ele>
        <time>2013-12-08T03:55:14Z</time>
      </trkpt>
      <trkpt lat="45.90431" lon="3.81984">
        <ele>739.87</ele>
        <time>2013-12-08T03:55:28Z</time>
      </trkpt>
      <trkpt lat="45.90413" lon="3.81963">
        <ele>739.87</ele>
        <time>2013-12-08T03:55:43Z</time>
      </trkpt>
      <trkpt lat="45.90397" lon="3.81944">
        <ele>739.39</ele>
        <time>2013-12-08T03:55:56Z</time>
      </trkpt>
      <trkpt lat="45.90382" lon="3.81923">
        <ele>739.39</ele>
        <time>2013-12-08T03:56:10Z</time>
      </trkpt>
      <trkpt lat="45.90363" lon="3.81901">
        <ele>739.39</ele>
        <time>2013-12-08T03:56:25Z</time>
      </trkpt>
      <trkpt lat="45.90345" lon="3.8188">
        <ele>739.87</ele>
        <time>2013-12-08T03:56:40Z</time>
      </trkpt>
      <trkpt lat="45.90339" lon="3.81871">
        <ele>740.35</ele>
        <time>2013-12-08T03:56:45Z</time>
      </trkpt>
      <trkpt lat="45.90318" lon="3.81852">
        <ele>740.83</ele>
        <time>2013-12-08T03:57:01Z</time>
      </trkpt>
      <trkpt lat="45.90311" lon="3.81845">
        <ele>740.83</ele>
        <time>2013-12-08T03:57:07Z</time>
      </trkpt>
      <trkpt lat="45.90306" lon="3.81843">
        <ele>740.83</ele>
        <time>2013-12-08T03:57:10Z</time>
      </trkpt>
      <trkpt lat="45.90301" lon="3.81837">
        <ele>739.87</ele>
        <time>2013-12-08T03:57:14Z</time>
      </trkpt>
      <trkpt lat="45.90296" lon="3.81827">
        <ele>741.31</ele>
        <time>2013-12-08T03:57:18Z</time>
      </trkpt>
      <trkpt lat="45.90275" lon="3.81806">
        <ele>741.31</ele>
        <time>2013-12-08T03:57:34Z</time>
      </trkpt>
      <trkpt lat="45.90262" lon="3.81794">
        <ele>740.83</ele>
        <time>2013-12-08T03:57:44Z</time>
      </trkpt>
      <trkpt lat="45.90252" lon="3.81787">
        <ele>740.83</ele>
        <time>2013-12-08T03:57:52Z</time>
      </trkpt>
      <trkpt lat="45.90233" lon="3.81766">
        <ele>740.83</ele>
        <time>2013-12-08T03:58:07Z</time>
      </trkpt>
      <trkpt lat="45.90216" lon="3.81748">
        <ele>740.35</ele>
        <time>2013-12-08T03:58:19Z</time>
      </trkpt>
      <trkpt lat="45.902" lon="3.81729">
        <ele>740.35</ele>
        <time>2013-12-08T03:58:33Z</time>
      </trkpt>
      <trkpt lat="45.90187" lon="3.81717">
        <ele>740.35</ele>
        <time>2013-12-08T03:58:43Z</time>
      </trkpt>
      <trkpt lat="45.90168" lon="3.81702">
        <ele>740.35</ele>
        <time>2013-12-08T03:58:57Z</time>
      </trkpt>
      <trkpt lat="45.90164" lon="3.81698">
        <ele>739.87</ele>
        <time>2013-12-08T03:59:01Z</time>
      </trkpt>
      <trkpt lat="45.90159" lon="3.81696">
        <ele>739.87</ele>
        <time>2013-12-08T03:59:05Z</time>
      </trkpt>
      <trkpt lat="45.90156" lon="3.81693">
        <ele>739.87</ele>
        <time>2013-12-08T03:59:09Z</time>
      </trkpt>
      <trkpt lat="45.90152" lon="3.81686">
        <ele>739.87</ele>
        <time>2013-12-08T03:59:13Z</time>
      </trkpt>
      <trkpt lat="45.90139" lon="3.81671">
        <ele>739.87</ele>
        <time>2013-12-08T03:59:25Z</time>
      </trkpt>
      <trkpt lat="45.90127" lon="3.81658">
        <ele>739.39</ele>
        <time>2013-12-08T03:59:35Z</time>
      </trkpt>
      <trkpt lat="45.90103" lon="3.81644">
        <ele>738.43</ele>
        <time>2013-12-08T03:59:51Z</time>
      </trkpt>
      <trkpt lat="45.90102" lon="3.81643">
        <ele>738.91</ele>
        <time>2013-12-08T03:59:52Z</time>
      </trkpt>
      <trkpt lat="45.90087" lon="3.81631">
        <ele>736.99</ele>
        <time>2013-12-08T04:00:00Z</time>
      </trkpt>
      <trkpt lat="45.90059" lon="3.81608">
        <ele>734.1</ele>
        <time>2013-12-08T04:00:12Z</time>
      </trkpt>
      <trkpt lat="45.90036" lon="3.81585">
        <ele>730.74</ele>
        <time>2013-12-08T04:00:22Z</time>
      </trkpt>
      <trkpt lat="45.90024" lon="3.81573">
        <ele>729.3</ele>
        <time>2013-12-08T04:00:27Z</time>
      </trkpt>
      <trkpt lat="45.90013" lon="3.81564">
        <ele>727.86</ele>
        <time>2013-12-08T04:00:32Z</time>
      </trkpt>
      <trkpt lat="45.89992" lon="3.81545">
        <ele>724.97</ele>
        <time>2013-12-08T04:00:41Z</time>
      </trkpt>
      <trkpt lat="45.89983" lon="3.81532">
        <ele>723.53</ele>
        <time>2013-12-08T04:00:45Z</time>
      </trkpt>
      <trkpt lat="45.89962" lon="3.81511">
        <ele>720.16</ele>
        <time>2013-12-08T04:00:54Z</time>
      </trkpt>
      <trkpt lat="45.89956" lon="3.81509">
        <ele>720.16</ele>
        <time>2013-12-08T04:00:56Z</time>
      </trkpt>
      <trkpt lat="45.89945" lon="3.81496">
        <ele>718.24</ele>
        <time>2013-12-08T04:01:01Z</time>
      </trkpt>
      <trkpt lat="45.89933" lon="3.81487">
        <ele>716.32</ele>
        <time>2013-12-08T04:01:06Z</time>
      </trkpt>
      <trkpt lat="45.89908" lon="3.81462">
        <ele>712.47</ele>
        <time>2013-12-08T04:01:16Z</time>
      </trkpt>
      <trkpt lat="45.89892" lon="3.81436">
        <ele>709.59</ele>
        <time>2013-12-08T04:01:25Z</time>
      </trkpt>
      <trkpt lat="45.89874" lon="3.81399">
        <ele>706.71</ele>
        <time>2013-12-08T04:01:35Z</time>
      </trkpt>
      <trkpt lat="45.89861" lon="3.81357">
        <ele>703.82</ele>
        <time>2013-12-08T04:01:46Z</time>
      </trkpt>
      <trkpt lat="45.89854" lon="3.8131">
        <ele>701.42</ele>
        <time>2013-12-08T04:01:57Z</time>
      </trkpt>
      <trkpt lat="45.8985" lon="3.81292">
        <ele>699.5</ele>
        <time>2013-12-08T04:02:02Z</time>
      </trkpt>
      <trkpt lat="45.89835" lon="3.81261">
        <ele>696.13</ele>
        <time>2013-12-08T04:02:11Z</time>
      </trkpt>
      <trkpt lat="45.89804" lon="3.81243">
        <ele>692.77</ele>
        <time>2013-12-08T04:02:22Z</time>
      </trkpt>
      <trkpt lat="45.89796" lon="3.81238">
        <ele>691.81</ele>
        <time>2013-12-08T04:02:25Z</time>
      </trkpt>
      <trkpt lat="45.89767" lon="3.81225">
        <ele>688.44</ele>
        <time>2013-12-08T04:02:35Z</time>
      </trkpt>
      <trkpt lat="45.89738" lon="3.81214">
        <ele>685.56</ele>
        <time>2013-12-08T04:02:45Z</time>
      </trkpt>
      <trkpt lat="45.89721" lon="3.81206">
        <ele>683.15</ele>
        <time>2013-12-08T04:02:51Z</time>
      </trkpt>
      <trkpt lat="45.897" lon="3.81195">
        <ele>680.27</ele>
        <time>2013-12-08T04:03:00Z</time>
      </trkpt>
      <trkpt lat="45.89676" lon="3.81179">
        <ele>676.42</ele>
        <time>2013-12-08T04:03:10Z</time>
      </trkpt>
      <trkpt lat="45.89671" lon="3.81171">
        <ele>675.94</ele>
        <time>2013-12-08T04:03:12Z</time>
      </trkpt>
      <trkpt lat="45.89667" lon="3.81158">
        <ele>674.02</ele>
        <time>2013-12-08T04:03:15Z</time>
      </trkpt>
      <trkpt lat="45.89672" lon="3.81134">
        <ele>671.14</ele>
        <time>2013-12-08T04:03:22Z</time>
      </trkpt>
      <trkpt lat="45.89686" lon="3.81108">
        <ele>668.25</ele>
        <time>2013-12-08T04:03:29Z</time>
      </trkpt>
      <trkpt lat="45.89696" lon="3.81091">
        <ele>666.81</ele>
        <time>2013-12-08T04:03:34Z</time>
      </trkpt>
      <trkpt lat="45.89714" lon="3.81065">
        <ele>662.97</ele>
        <time>2013-12-08T04:03:42Z</time>
      </trkpt>
      <trkpt lat="45.89716" lon="3.81062">
        <ele>662.97</ele>
        <time>2013-12-08T04:03:43Z</time>
      </trkpt>
      <trkpt lat="45.89735" lon="3.81036">
        <ele>659.6</ele>
        <time>2013-12-08T04:03:51Z</time>
      </trkpt>
      <trkpt lat="45.89745" lon="3.81019">
        <ele>656.72</ele>
        <time>2013-12-08T04:03:57Z</time>
      </trkpt>
      <trkpt lat="45.89763" lon="3.80993">
        <ele>653.35</ele>
        <time>2013-12-08T04:04:06Z</time>
      </trkpt>
      <trkpt lat="45.89767" lon="3.80987">
        <ele>652.39</ele>
        <time>2013-12-08T04:04:08Z</time>
      </trkpt>
      <trkpt lat="45.89782" lon="3.8096">
        <ele>649.03</ele>
        <time>2013-12-08T04:04:16Z</time>
      </trkpt>
      <trkpt lat="45.89784" lon="3.80953">
        <ele>648.07</ele>
        <time>2013-12-08T04:04:18Z</time>
      </trkpt>
      <trkpt lat="45.89786" lon="3.80937">
        <ele>646.62</ele>
        <time>2013-12-08T04:04:22Z</time>
      </trkpt>
      <trkpt lat="45.89787" lon="3.80901">
        <ele>643.26</ele>
        <time>2013-12-08T04:04:31Z</time>
      </trkpt>
      <trkpt lat="45.89782" lon="3.80858">
        <ele>640.86</ele>
        <time>2013-12-08T04:04:42Z</time>
      </trkpt>
      <trkpt lat="45.89775" lon="3.80812">
        <ele>638.45</ele>
        <time>2013-12-08T04:04:54Z</time>
      </trkpt>
      <trkpt lat="45.8977" lon="3.80773">
        <ele>637.49</ele>
        <time>2013-12-08T04:05:05Z</time>
      </trkpt>
      <trkpt lat="45.89767" lon="3.80742">
        <ele>637.49</ele>
        <time>2013-12-08T04:05:18Z</time>
      </trkpt>
      <trkpt lat="45.89766" lon="3.80738">
        <ele>637.01</ele>
        <time>2013-12-08T04:05:20Z</time>
      </trkpt>
      <trkpt lat="45.89765" lon="3.8073">
        <ele>637.49</ele>
        <time>2013-12-08T04:05:24Z</time>
      </trkpt>
      <trkpt lat="45.89763" lon="3.80715">
        <ele>637.49</ele>
        <time>2013-12-08T04:05:33Z</time>
      </trkpt>
      <trkpt lat="45.89759" lon="3.80691">
        <ele>637.49</ele>
        <time>2013-12-08T04:05:49Z</time>
      </trkpt>
      <trkpt lat="45.89757" lon="3.80675">
        <ele>637.49</ele>
        <time>2013-12-08T04:05:58Z</time>
      </trkpt>
      <trkpt lat="45.89757" lon="3.80668">
        <ele>637.49</ele>
        <time>2013-12-08T04:06:02Z</time>
      </trkpt>
      <trkpt lat="45.89755" lon="3.80661">
        <ele>637.97</ele>
        <time>2013-12-08T04:06:06Z</time>
      </trkpt>
      <trkpt lat="45.89752" lon="3.80638">
        <ele>637.97</ele>
        <time>2013-12-08T04:06:18Z</time>
      </trkpt>
      <trkpt lat="45.89748" lon="3.80608">
        <ele>638.45</ele>
        <time>2013-12-08T04:06:32Z</time>
      </trkpt>
      <trkpt lat="45.89744" lon="3.80579">
        <ele>639.89</ele>
        <time>2013-12-08T04:06:48Z</time>
      </trkpt>
      <trkpt lat="45.89742" lon="3.80549">
        <ele>640.86</ele>
        <time>2013-12-08T04:07:03Z</time>
      </trkpt>
      <trkpt lat="45.89739" lon="3.80515">
        <ele>642.78</ele>
        <time>2013-12-08T04:07:19Z</time>
      </trkpt>
      <trkpt lat="45.89737" lon="3.80488">
        <ele>642.78</ele>
        <time>2013-12-08T04:07:31Z</time>
      </trkpt>
      <trkpt lat="45.89737" lon="3.80483">
        <ele>643.74</ele>
        <time>2013-12-08T04:07:33Z</time>
      </trkpt>
      <trkpt lat="45.89736" lon="3.80479">
        <ele>642.78</ele>
        <time>2013-12-08T04:07:35Z</time>
      </trkpt>
      <trkpt lat="45.89734" lon="3.80463">
        <ele>641.34</ele>
        <time>2013-12-08T04:07:43Z</time>
      </trkpt>
      <trkpt lat="45.89734" lon="3.80461">
        <ele>647.59</ele>
        <time>2013-12-08T04:07:44Z</time>
      </trkpt>
      <trkpt lat="45.89734" lon="3.80459">
        <ele>642.78</ele>
        <time>2013-12-08T04:07:45Z</time>
      </trkpt>
      <trkpt lat="45.89733" lon="3.80457">
        <ele>646.14</ele>
        <time>2013-12-08T04:07:46Z</time>
      </trkpt>
      <trkpt lat="45.89733" lon="3.80455">
        <ele>640.86</ele>
        <time>2013-12-08T04:07:47Z</time>
      </trkpt>
      <trkpt lat="45.89733" lon="3.80453">
        <ele>644.7</ele>
        <time>2013-12-08T04:07:48Z</time>
      </trkpt>
      <trkpt lat="45.89731" lon="3.80424">
        <ele>644.7</ele>
        <time>2013-12-08T04:08:02Z</time>
      </trkpt>
      <trkpt lat="45.89729" lon="3.80399">
        <ele>646.14</ele>
        <time>2013-12-08T04:08:14Z</time>
      </trkpt>
      <trkpt lat="45.89729" lon="3.80398">
        <ele>646.14</ele>
        <time>2013-12-08T04:08:15Z</time>
      </trkpt>
      <trkpt lat="45.89726" lon="3.80375">
        <ele>648.07</ele>
        <time>2013-12-08T04:08:27Z</time>
      </trkpt>
      <trkpt lat="45.89723" lon="3.80356">
        <ele>648.07</ele>
        <time>2013-12-08T04:08:36Z</time>
      </trkpt>
      <trkpt lat="45.89725" lon="3.80348">
        <ele>648.55</ele>
        <time>2013-12-08T04:08:40Z</time>
      </trkpt>
      <trkpt lat="45.8972" lon="3.80314">
        <ele>649.99</ele>
        <time>2013-12-08T04:08:57Z</time>
      </trkpt>
      <trkpt lat="45.89716" lon="3.80287">
        <ele>651.91</ele>
        <time>2013-12-08T04:09:11Z</time>
      </trkpt>
      <trkpt lat="45.89716" lon="3.80281">
        <ele>652.39</ele>
        <time>2013-12-08T04:09:14Z</time>
      </trkpt>
      <trkpt lat="45.89714" lon="3.80278">
        <ele>652.39</ele>
        <time>2013-12-08T04:09:16Z</time>
      </trkpt>
      <trkpt lat="45.89705" lon="3.80251">
        <ele>654.31</ele>
        <time>2013-12-08T04:09:31Z</time>
      </trkpt>
      <trkpt lat="45.89705" lon="3.80241">
        <ele>655.28</ele>
        <time>2013-12-08T04:09:36Z</time>
      </trkpt>
      <trkpt lat="45.89702" lon="3.80206">
        <ele>657.68</ele>
        <time>2013-12-08T04:09:53Z</time>
      </trkpt>
      <trkpt lat="45.89697" lon="3.80176">
        <ele>660.08</ele>
        <time>2013-12-08T04:10:08Z</time>
      </trkpt>
      <trkpt lat="45.89693" lon="3.80147">
        <ele>661.52</ele>
        <time>2013-12-08T04:10:23Z</time>
      </trkpt>
      <trkpt lat="45.8969" lon="3.80112">
        <ele>662.97</ele>
        <time>2013-12-08T04:10:39Z</time>
      </trkpt>
      <trkpt lat="45.89689" lon="3.8008">
        <ele>662.49</ele>
        <time>2013-12-08T04:10:52Z</time>
      </trkpt>
      <trkpt lat="45.89688" lon="3.80052">
        <ele>661.52</ele>
        <time>2013-12-08T04:11:05Z</time>
      </trkpt>
      <trkpt lat="45.89682" lon="3.80018">
        <ele>660.08</ele>
        <time>2013-12-08T04:11:20Z</time>
      </trkpt>
      <trkpt lat="45.89677" lon="3.79991">
        <ele>659.12</ele>
        <time>2013-12-08T04:11:32Z</time>
      </trkpt>
      <trkpt lat="45.89674" lon="3.79955">
        <ele>658.64</ele>
        <time>2013-12-08T04:11:46Z</time>
      </trkpt>
      <trkpt lat="45.89671" lon="3.79915">
        <ele>658.64</ele>
        <time>2013-12-08T04:12:02Z</time>
      </trkpt>
      <trkpt lat="45.89668" lon="3.79886">
        <ele>657.68</ele>
        <time>2013-12-08T04:12:16Z</time>
      </trkpt>
      <trkpt lat="45.89667" lon="3.79855">
        <ele>657.68</ele>
        <time>2013-12-08T04:12:30Z</time>
      </trkpt>
      <trkpt lat="45.89662" lon="3.79825">
        <ele>657.68</ele>
        <time>2013-12-08T04:12:44Z</time>
      </trkpt>
      <trkpt lat="45.89658" lon="3.7979">
        <ele>658.64</ele>
        <time>2013-12-08T04:13:01Z</time>
      </trkpt>
      <trkpt lat="45.89657" lon="3.79786">
        <ele>658.64</ele>
        <time>2013-12-08T04:13:03Z</time>
      </trkpt>
      <trkpt lat="45.89654" lon="3.79773">
        <ele>658.64</ele>
        <time>2013-12-08T04:13:09Z</time>
      </trkpt>
      <trkpt lat="45.89651" lon="3.79757">
        <ele>659.12</ele>
        <time>2013-12-08T04:13:17Z</time>
      </trkpt>
      <trkpt lat="45.89643" lon="3.79729">
        <ele>660.56</ele>
        <time>2013-12-08T04:13:31Z</time>
      </trkpt>
      <trkpt lat="45.89636" lon="3.79701">
        <ele>662.49</ele>
        <time>2013-12-08T04:13:46Z</time>
      </trkpt>
      <trkpt lat="45.89632" lon="3.7968">
        <ele>663.93</ele>
        <time>2013-12-08T04:13:58Z</time>
      </trkpt>
      <trkpt lat="45.89629" lon="3.7967">
        <ele>664.89</ele>
        <time>2013-12-08T04:14:03Z</time>
      </trkpt>
      <trkpt lat="45.89629" lon="3.79661">
        <ele>665.37</ele>
        <time>2013-12-08T04:14:07Z</time>
      </trkpt>
      <trkpt lat="45.89624" lon="3.79627">
        <ele>667.29</ele>
        <time>2013-12-08T04:14:23Z</time>
      </trkpt>
      <trkpt lat="45.89621" lon="3.79593">
        <ele>669.22</ele>
        <time>2013-12-08T04:14:39Z</time>
      </trkpt>
      <trkpt lat="45.89619" lon="3.79562">
        <ele>670.66</ele>
        <time>2013-12-08T04:14:52Z</time>
      </trkpt>
      <trkpt lat="45.89615" lon="3.79529">
        <ele>672.58</ele>
        <time>2013-12-08T04:15:07Z</time>
      </trkpt>
      <trkpt lat="45.89614" lon="3.79505">
        <ele>673.54</ele>
        <time>2013-12-08T04:15:18Z</time>
      </trkpt>
      <trkpt lat="45.8961" lon="3.79492">
        <ele>674.5</ele>
        <time>2013-12-08T04:15:25Z</time>
      </trkpt>
      <trkpt lat="45.89609" lon="3.79464">
        <ele>675.46</ele>
        <time>2013-12-08T04:15:39Z</time>
      </trkpt>
      <trkpt lat="45.89603" lon="3.79433">
        <ele>675.94</ele>
        <time>2013-12-08T04:15:54Z</time>
      </trkpt>
      <trkpt lat="45.89601" lon="3.79405">
        <ele>676.42</ele>
        <time>2013-12-08T04:16:07Z</time>
      </trkpt>
      <trkpt lat="45.89595" lon="3.79373">
        <ele>676.42</ele>
        <time>2013-12-08T04:16:21Z</time>
      </trkpt>
      <trkpt lat="45.89596" lon="3.79372">
        <ele>676.42</ele>
        <time>2013-12-08T04:16:22Z</time>
      </trkpt>
      <trkpt lat="45.89595" lon="3.79359">
        <ele>676.91</ele>
        <time>2013-12-08T04:16:27Z</time>
      </trkpt>
      <trkpt lat="45.89592" lon="3.79326">
        <ele>677.39</ele>
        <time>2013-12-08T04:16:42Z</time>
      </trkpt>
      <trkpt lat="45.89592" lon="3.79324">
        <ele>677.39</ele>
        <time>2013-12-08T04:16:43Z</time>
      </trkpt>
      <trkpt lat="45.89591" lon="3.79285">
        <ele>677.87</ele>
        <time>2013-12-08T04:16:59Z</time>
      </trkpt>
      <trkpt lat="45.89588" lon="3.79255">
        <ele>678.83</ele>
        <time>2013-12-08T04:17:12Z</time>
      </trkpt>
      <trkpt lat="45.89586" lon="3.79242">
        <ele>679.31</ele>
        <time>2013-12-08T04:17:18Z</time>
      </trkpt>
      <trkpt lat="45.89582" lon="3.79211">
        <ele>680.75</ele>
        <time>2013-12-08T04:17:32Z</time>
      </trkpt>
      <trkpt lat="45.89581" lon="3.79205">
        <ele>681.23</ele>
        <time>2013-12-08T04:17:35Z</time>
      </trkpt>
      <trkpt lat="45.89579" lon="3.79176">
        <ele>683.63</ele>
        <time>2013-12-08T04:17:51Z</time>
      </trkpt>
      <trkpt lat="45.89574" lon="3.7915">
        <ele>685.56</ele>
        <time>2013-12-08T04:18:03Z</time>
      </trkpt>
      <trkpt lat="45.89571" lon="3.7913">
        <ele>687</ele>
        <time>2013-12-08T04:18:13Z</time>
      </trkpt>
      <trkpt lat="45.89569" lon="3.79101">
        <ele>689.4</ele>
        <time>2013-12-08T04:18:28Z</time>
      </trkpt>
      <trkpt lat="45.89564" lon="3.79067">
        <ele>691.81</ele>
        <time>2013-12-08T04:18:44Z</time>
      </trkpt>
      <trkpt lat="45.89563" lon="3.79053">
        <ele>692.77</ele>
        <time>2013-12-08T04:18:51Z</time>
      </trkpt>
      <trkpt lat="45.89555" lon="3.79022">
        <ele>694.21</ele>
        <time>2013-12-08T04:19:06Z</time>
      </trkpt>
      <trkpt lat="45.89553" lon="3.79004">
        <ele>694.69</ele>
        <time>2013-12-08T04:19:14Z</time>
      </trkpt>
      <trkpt lat="45.89551" lon="3.79">
        <ele>695.17</ele>
        <time>2013-12-08T04:19:16Z</time>
      </trkpt>
      <trkpt lat="45.89543" lon="3.7897">
        <ele>695.65</ele>
        <time>2013-12-08T04:19:30Z</time>
      </trkpt>
      <trkpt lat="45.89537" lon="3.7895">
        <ele>696.13</ele>
        <time>2013-12-08T04:19:40Z</time>
      </trkpt>
      <trkpt lat="45.89531" lon="3.78938">
        <ele>696.13</ele>
        <time>2013-12-08T04:19:47Z</time>
      </trkpt>
      <trkpt lat="45.89523" lon="3.78905">
        <ele>696.61</ele>
        <time>2013-12-08T04:20:02Z</time>
      </trkpt>
      <trkpt lat="45.89514" lon="3.78877">
        <ele>697.09</ele>
        <time>2013-12-08T04:20:15Z</time>
      </trkpt>
      <trkpt lat="45.89512" lon="3.78869">
        <ele>697.09</ele>
        <time>2013-12-08T04:20:19Z</time>
      </trkpt>
      <trkpt lat="45.89508" lon="3.78857">
        <ele>697.57</ele>
        <time>2013-12-08T04:20:24Z</time>
      </trkpt>
      <trkpt lat="45.89499" lon="3.78829">
        <ele>697.57</ele>
        <time>2013-12-08T04:20:37Z</time>
      </trkpt>
      <trkpt lat="45.89489" lon="3.78797">
        <ele>698.53</ele>
        <time>2013-12-08T04:20:52Z</time>
      </trkpt>
      <trkpt lat="45.89478" lon="3.78759">
        <ele>699.98</ele>
        <time>2013-12-08T04:21:08Z</time>
      </trkpt>
      <trkpt lat="45.89469" lon="3.78732">
        <ele>699.98</ele>
        <time>2013-12-08T04:21:21Z</time>
      </trkpt>
      <trkpt lat="45.89462" lon="3.78707">
        <ele>699.98</ele>
        <time>2013-12-08T04:21:33Z</time>
      </trkpt>
      <trkpt lat="45.89453" lon="3.78679">
        <ele>700.94</ele>
        <time>2013-12-08T04:21:46Z</time>
      </trkpt>
      <trkpt lat="45.89446" lon="3.78654">
        <ele>701.42</ele>
        <time>2013-12-08T04:21:58Z</time>
      </trkpt>
      <trkpt lat="45.89436" lon="3.78623">
        <ele>702.38</ele>
        <time>2013-12-08T04:22:12Z</time>
      </trkpt>
      <trkpt lat="45.8943" lon="3.78604">
        <ele>703.34</ele>
        <time>2013-12-08T04:22:22Z</time>
      </trkpt>
      <trkpt lat="45.89422" lon="3.78576">
        <ele>704.3</ele>
        <time>2013-12-08T04:22:37Z</time>
      </trkpt>
      <trkpt lat="45.89415" lon="3.78556">
        <ele>704.78</ele>
        <time>2013-12-08T04:22:47Z</time>
      </trkpt>
      <trkpt lat="45.89412" lon="3.7855">
        <ele>704.78</ele>
        <time>2013-12-08T04:22:50Z</time>
      </trkpt>
      <trkpt lat="45.89404" lon="3.78519">
        <ele>706.23</ele>
        <time>2013-12-08T04:23:05Z</time>
      </trkpt>
      <trkpt lat="45.89396" lon="3.78492">
        <ele>706.23</ele>
        <time>2013-12-08T04:23:18Z</time>
      </trkpt>
      <trkpt lat="45.89391" lon="3.78472">
        <ele>706.23</ele>
        <time>2013-12-08T04:23:28Z</time>
      </trkpt>
      <trkpt lat="45.8939" lon="3.78463">
        <ele>706.71</ele>
        <time>2013-12-08T04:23:32Z</time>
      </trkpt>
      <trkpt lat="45.89383" lon="3.78436">
        <ele>707.19</ele>
        <time>2013-12-08T04:23:45Z</time>
      </trkpt>
      <trkpt lat="45.89373" lon="3.78402">
        <ele>708.63</ele>
        <time>2013-12-08T04:24:01Z</time>
      </trkpt>
      <trkpt lat="45.89364" lon="3.78372">
        <ele>709.11</ele>
        <time>2013-12-08T04:24:16Z</time>
      </trkpt>
      <trkpt lat="45.89361" lon="3.78363">
        <ele>709.11</ele>
        <time>2013-12-08T04:24:22Z</time>
      </trkpt>
      <trkpt lat="45.89359" lon="3.78355">
        <ele>709.59</ele>
        <time>2013-12-08T04:24:27Z</time>
      </trkpt>
      <trkpt lat="45.89356" lon="3.78343">
        <ele>709.59</ele>
        <time>2013-12-08T04:24:33Z</time>
      </trkpt>
      <trkpt lat="45.89355" lon="3.78337">
        <ele>709.59</ele>
        <time>2013-12-08T04:24:37Z</time>
      </trkpt>
      <trkpt lat="45.89352" lon="3.78314">
        <ele>710.07</ele>
        <time>2013-12-08T04:24:50Z</time>
      </trkpt>
      <trkpt lat="45.89339" lon="3.78284">
        <ele>710.07</ele>
        <time>2013-12-08T04:25:04Z</time>
      </trkpt>
      <trkpt lat="45.89335" lon="3.78273">
        <ele>710.55</ele>
        <time>2013-12-08T04:25:09Z</time>
      </trkpt>
      <trkpt lat="45.89322" lon="3.7823">
        <ele>711.03</ele>
        <time>2013-12-08T04:25:28Z</time>
      </trkpt>
      <trkpt lat="45.89308" lon="3.78188">
        <ele>711.99</ele>
        <time>2013-12-08T04:25:47Z</time>
      </trkpt>
      <trkpt lat="45.89298" lon="3.78162">
        <ele>713.44</ele>
        <time>2013-12-08T04:25:59Z</time>
      </trkpt>
      <trkpt lat="45.89296" lon="3.78153">
        <ele>713.92</ele>
        <time>2013-12-08T04:26:03Z</time>
      </trkpt>
      <trkpt lat="45.89287" lon="3.78132">
        <ele>715.36</ele>
        <time>2013-12-08T04:26:15Z</time>
      </trkpt>
      <trkpt lat="45.89283" lon="3.78117">
        <ele>716.32</ele>
        <time>2013-12-08T04:26:23Z</time>
      </trkpt>
      <trkpt lat="45.89276" lon="3.7809">
        <ele>718.24</ele>
        <time>2013-12-08T04:26:37Z</time>
      </trkpt>
      <trkpt lat="45.89274" lon="3.78078">
        <ele>718.72</ele>
        <time>2013-12-08T04:26:41Z</time>
      </trkpt>
      <trkpt lat="45.8927" lon="3.78063">
        <ele>719.68</ele>
        <time>2013-12-08T04:26:48Z</time>
      </trkpt>
      <trkpt lat="45.8926" lon="3.7803">
        <ele>721.13</ele>
        <time>2013-12-08T04:27:03Z</time>
      </trkpt>
      <trkpt lat="45.89257" lon="3.78021">
        <ele>721.61</ele>
        <time>2013-12-08T04:27:07Z</time>
      </trkpt>
      <trkpt lat="45.89251" lon="3.78015">
        <ele>722.09</ele>
        <time>2013-12-08T04:27:11Z</time>
      </trkpt>
      <trkpt lat="45.89248" lon="3.78001">
        <ele>723.05</ele>
        <time>2013-12-08T04:27:18Z</time>
      </trkpt>
      <trkpt lat="45.89246" lon="3.77983">
        <ele>724.01</ele>
        <time>2013-12-08T04:27:27Z</time>
      </trkpt>
      <trkpt lat="45.89243" lon="3.77975">
        <ele>724.49</ele>
        <time>2013-12-08T04:27:31Z</time>
      </trkpt>
      <trkpt lat="45.89237" lon="3.77955">
        <ele>725.45</ele>
        <time>2013-12-08T04:27:41Z</time>
      </trkpt>
      <trkpt lat="45.89236" lon="3.7795">
        <ele>725.93</ele>
        <time>2013-12-08T04:27:43Z</time>
      </trkpt>
      <trkpt lat="45.89228" lon="3.77926">
        <ele>726.89</ele>
        <time>2013-12-08T04:27:55Z</time>
      </trkpt>
      <trkpt lat="45.89226" lon="3.77919">
        <ele>726.89</ele>
        <time>2013-12-08T04:27:59Z</time>
      </trkpt>
      <trkpt lat="45.89216" lon="3.77892">
        <ele>728.82</ele>
        <time>2013-12-08T04:28:13Z</time>
      </trkpt>
      <trkpt lat="45.89216" lon="3.77888">
        <ele>728.82</ele>
        <time>2013-12-08T04:28:15Z</time>
      </trkpt>
      <trkpt lat="45.89213" lon="3.77877">
        <ele>729.78</ele>
        <time>2013-12-08T04:28:20Z</time>
      </trkpt>
      <trkpt lat="45.89206" lon="3.7785">
        <ele>732.18</ele>
        <time>2013-12-08T04:28:35Z</time>
      </trkpt>
      <trkpt lat="45.89205" lon="3.77844">
        <ele>733.14</ele>
        <time>2013-12-08T04:28:39Z</time>
      </trkpt>
      <trkpt lat="45.89199" lon="3.77832">
        <ele>734.1</ele>
        <time>2013-12-08T04:28:47Z</time>
      </trkpt>
      <trkpt lat="45.89198" lon="3.77823">
        <ele>734.58</ele>
        <time>2013-12-08T04:28:52Z</time>
      </trkpt>
      <trkpt lat="45.89198" lon="3.77817">
        <ele>735.55</ele>
        <time>2013-12-08T04:28:56Z</time>
      </trkpt>
      <trkpt lat="45.89197" lon="3.7781">
        <ele>736.03</ele>
        <time>2013-12-08T04:29:00Z</time>
      </trkpt>
      <trkpt lat="45.89193" lon="3.77797">
        <ele>736.99</ele>
        <time>2013-12-08T04:29:07Z</time>
      </trkpt>
      <trkpt lat="45.89188" lon="3.7779">
        <ele>737.95</ele>
        <time>2013-12-08T04:29:11Z</time>
      </trkpt>
      <trkpt lat="45.89186" lon="3.7778">
        <ele>739.39</ele>
        <time>2013-12-08T04:29:17Z</time>
      </trkpt>
      <trkpt lat="45.89185" lon="3.77776">
        <ele>739.39</ele>
        <time>2013-12-08T04:29:19Z</time>
      </trkpt>
      <trkpt lat="45.89176" lon="3.77757">
        <ele>740.83</ele>
        <time>2013-12-08T04:29:29Z</time>
      </trkpt>
      <trkpt lat="45.89175" lon="3.77743">
        <ele>741.79</ele>
        <time>2013-12-08T04:29:36Z</time>
      </trkpt>
      <trkpt lat="45.89171" lon="3.77734">
        <ele>742.28</ele>
        <time>2013-12-08T04:29:40Z</time>
      </trkpt>
      <trkpt lat="45.89162" lon="3.77717">
        <ele>742.76</ele>
        <time>2013-12-08T04:29:49Z</time>
      </trkpt>
      <trkpt lat="45.89158" lon="3.77702">
        <ele>743.24</ele>
        <time>2013-12-08T04:29:57Z</time>
      </trkpt>
      <trkpt lat="45.89153" lon="3.77693">
        <ele>744.68</ele>
        <time>2013-12-08T04:30:02Z</time>
      </trkpt>
      <trkpt lat="45.89147" lon="3.77666">
        <ele>745.64</ele>
        <time>2013-12-08T04:30:16Z</time>
      </trkpt>
      <trkpt lat="45.89147" lon="3.7766">
        <ele>746.12</ele>
        <time>2013-12-08T04:30:19Z</time>
      </trkpt>
      <trkpt lat="45.8914" lon="3.77636">
        <ele>747.56</ele>
        <time>2013-12-08T04:30:31Z</time>
      </trkpt>
      <trkpt lat="45.89138" lon="3.77619">
        <ele>748.52</ele>
        <time>2013-12-08T04:30:39Z</time>
      </trkpt>
      <trkpt lat="45.89129" lon="3.77592">
        <ele>749.49</ele>
        <time>2013-12-08T04:30:52Z</time>
      </trkpt>
      <trkpt lat="45.89126" lon="3.77583">
        <ele>749.97</ele>
        <time>2013-12-08T04:30:57Z</time>
      </trkpt>
      <trkpt lat="45.89125" lon="3.77579">
        <ele>749.97</ele>
        <time>2013-12-08T04:30:59Z</time>
      </trkpt>
      <trkpt lat="45.89114" lon="3.7755">
        <ele>750.93</ele>
        <time>2013-12-08T04:31:14Z</time>
      </trkpt>
      <trkpt lat="45.89105" lon="3.77521">
        <ele>751.41</ele>
        <time>2013-12-08T04:31:27Z</time>
      </trkpt>
      <trkpt lat="45.89096" lon="3.77497">
        <ele>751.89</ele>
        <time>2013-12-08T04:31:40Z</time>
      </trkpt>
      <trkpt lat="45.8909" lon="3.77473">
        <ele>751.89</ele>
        <time>2013-12-08T04:31:50Z</time>
      </trkpt>
      <trkpt lat="45.8908" lon="3.77447">
        <ele>753.33</ele>
        <time>2013-12-08T04:32:04Z</time>
      </trkpt>
      <trkpt lat="45.89071" lon="3.77422">
        <ele>753.33</ele>
        <time>2013-12-08T04:32:16Z</time>
      </trkpt>
      <trkpt lat="45.8907" lon="3.77418">
        <ele>753.81</ele>
        <time>2013-12-08T04:32:18Z</time>
      </trkpt>
      <trkpt lat="45.89068" lon="3.77408">
        <ele>753.81</ele>
        <time>2013-12-08T04:32:23Z</time>
      </trkpt>
      <trkpt lat="45.89067" lon="3.77402">
        <ele>754.77</ele>
        <time>2013-12-08T04:32:27Z</time>
      </trkpt>
      <trkpt lat="45.89066" lon="3.77398">
        <ele>754.77</ele>
        <time>2013-12-08T04:32:29Z</time>
      </trkpt>
      <trkpt lat="45.89061" lon="3.77382">
        <ele>755.73</ele>
        <time>2013-12-08T04:32:38Z</time>
      </trkpt>
      <trkpt lat="45.89052" lon="3.77355">
        <ele>758.14</ele>
        <time>2013-12-08T04:32:54Z</time>
      </trkpt>
      <trkpt lat="45.8905" lon="3.77346">
        <ele>758.62</ele>
        <time>2013-12-08T04:32:59Z</time>
      </trkpt>
      <trkpt lat="45.89044" lon="3.77328">
        <ele>761.02</ele>
        <time>2013-12-08T04:33:09Z</time>
      </trkpt>
      <trkpt lat="45.8904" lon="3.77318">
        <ele>762.46</ele>
        <time>2013-12-08T04:33:15Z</time>
      </trkpt>
      <trkpt lat="45.89039" lon="3.7731">
        <ele>763.42</ele>
        <time>2013-12-08T04:33:19Z</time>
      </trkpt>
      <trkpt lat="45.89036" lon="3.77298">
        <ele>764.39</ele>
        <time>2013-12-08T04:33:26Z</time>
      </trkpt>
      <trkpt lat="45.89034" lon="3.77291">
        <ele>765.35</ele>
        <time>2013-12-08T04:33:30Z</time>
      </trkpt>
      <trkpt lat="45.89024" lon="3.77269">
        <ele>768.23</ele>
        <time>2013-12-08T04:33:44Z</time>
      </trkpt>
      <trkpt lat="45.89018" lon="3.77247">
        <ele>770.15</ele>
        <time>2013-12-08T04:33:57Z</time>
      </trkpt>
      <trkpt lat="45.89014" lon="3.77234">
        <ele>771.6</ele>
        <time>2013-12-08T04:34:03Z</time>
      </trkpt>
      <trkpt lat="45.89014" lon="3.77229">
        <ele>771.6</ele>
        <time>2013-12-08T04:34:06Z</time>
      </trkpt>
      <trkpt lat="45.89013" lon="3.77224">
        <ele>772.56</ele>
        <time>2013-12-08T04:34:09Z</time>
      </trkpt>
      <trkpt lat="45.89" lon="3.77199">
        <ele>775.44</ele>
        <time>2013-12-08T04:34:25Z</time>
      </trkpt>
      <trkpt lat="45.88995" lon="3.77187">
        <ele>776.4</ele>
        <time>2013-12-08T04:34:31Z</time>
      </trkpt>
      <trkpt lat="45.88991" lon="3.77153">
        <ele>779.77</ele>
        <time>2013-12-08T04:34:48Z</time>
      </trkpt>
      <trkpt lat="45.88996" lon="3.77124">
        <ele>781.21</ele>
        <time>2013-12-08T04:35:02Z</time>
      </trkpt>
      <trkpt lat="45.88999" lon="3.77096">
        <ele>783.61</ele>
        <time>2013-12-08T04:35:15Z</time>
      </trkpt>
      <trkpt lat="45.89002" lon="3.77069">
        <ele>785.53</ele>
        <time>2013-12-08T04:35:28Z</time>
      </trkpt>
      <trkpt lat="45.89008" lon="3.77036">
        <ele>786.98</ele>
        <time>2013-12-08T04:35:42Z</time>
      </trkpt>
      <trkpt lat="45.89011" lon="3.77002">
        <ele>788.9</ele>
        <time>2013-12-08T04:35:57Z</time>
      </trkpt>
      <trkpt lat="45.89015" lon="3.76977">
        <ele>789.86</ele>
        <time>2013-12-08T04:36:07Z</time>
      </trkpt>
      <trkpt lat="45.89018" lon="3.7695">
        <ele>789.86</ele>
        <time>2013-12-08T04:36:18Z</time>
      </trkpt>
      <trkpt lat="45.89017" lon="3.76946">
        <ele>789.86</ele>
        <time>2013-12-08T04:36:20Z</time>
      </trkpt>
      <trkpt lat="45.89019" lon="3.76914">
        <ele>790.82</ele>
        <time>2013-12-08T04:36:34Z</time>
      </trkpt>
      <trkpt lat="45.89021" lon="3.7688">
        <ele>792.26</ele>
        <time>2013-12-08T04:36:49Z</time>
      </trkpt>
      <trkpt lat="45.8902" lon="3.76845">
        <ele>794.67</ele>
        <time>2013-12-08T04:37:04Z</time>
      </trkpt>
      <trkpt lat="45.89013" lon="3.76825">
        <ele>797.55</ele>
        <time>2013-12-08T04:37:18Z</time>
      </trkpt>
      <trkpt lat="45.89008" lon="3.76809">
        <ele>799.47</ele>
        <time>2013-12-08T04:37:28Z</time>
      </trkpt>
      <trkpt lat="45.89002" lon="3.76799">
        <ele>800.44</ele>
        <time>2013-12-08T04:37:34Z</time>
      </trkpt>
      <trkpt lat="45.88997" lon="3.76786">
        <ele>801.88</ele>
        <time>2013-12-08T04:37:43Z</time>
      </trkpt>
      <trkpt lat="45.88992" lon="3.76776">
        <ele>802.36</ele>
        <time>2013-12-08T04:37:49Z</time>
      </trkpt>
      <trkpt lat="45.88984" lon="3.76757">
        <ele>803.8</ele>
        <time>2013-12-08T04:38:01Z</time>
      </trkpt>
      <trkpt lat="45.88972" lon="3.76731">
        <ele>804.76</ele>
        <time>2013-12-08T04:38:15Z</time>
      </trkpt>
      <trkpt lat="45.88964" lon="3.76704">
        <ele>806.2</ele>
        <time>2013-12-08T04:38:28Z</time>
      </trkpt>
      <trkpt lat="45.8896" lon="3.76671">
        <ele>807.16</ele>
        <time>2013-12-08T04:38:42Z</time>
      </trkpt>
      <trkpt lat="45.8896" lon="3.76648">
        <ele>808.61</ele>
        <time>2013-12-08T04:38:54Z</time>
      </trkpt>
      <trkpt lat="45.88962" lon="3.76635">
        <ele>809.09</ele>
        <time>2013-12-08T04:39:01Z</time>
      </trkpt>
      <trkpt lat="45.88972" lon="3.76604">
        <ele>810.05</ele>
        <time>2013-12-08T04:39:17Z</time>
      </trkpt>
      <trkpt lat="45.88982" lon="3.76578">
        <ele>810.05</ele>
        <time>2013-12-08T04:39:30Z</time>
      </trkpt>
      <trkpt lat="45.88989" lon="3.76555">
        <ele>810.05</ele>
        <time>2013-12-08T04:39:39Z</time>
      </trkpt>
      <trkpt lat="45.88991" lon="3.76543">
        <ele>810.05</ele>
        <time>2013-12-08T04:39:44Z</time>
      </trkpt>
      <trkpt lat="45.8899" lon="3.76505">
        <ele>810.05</ele>
        <time>2013-12-08T04:40:00Z</time>
      </trkpt>
      <trkpt lat="45.88989" lon="3.7648">
        <ele>810.05</ele>
        <time>2013-12-08T04:40:12Z</time>
      </trkpt>
      <trkpt lat="45.88985" lon="3.76456">
        <ele>810.53</ele>
        <time>2013-12-08T04:40:23Z</time>
      </trkpt>
      <trkpt lat="45.88979" lon="3.76431">
        <ele>811.49</ele>
        <time>2013-12-08T04:40:36Z</time>
      </trkpt>
      <trkpt lat="45.88975" lon="3.76392">
        <ele>811.97</ele>
        <time>2013-12-08T04:40:52Z</time>
      </trkpt>
      <trkpt lat="45.8897" lon="3.76376">
        <ele>813.41</ele>
        <time>2013-12-08T04:41:02Z</time>
      </trkpt>
      <trkpt lat="45.88967" lon="3.76357">
        <ele>814.37</ele>
        <time>2013-12-08T04:41:11Z</time>
      </trkpt>
      <trkpt lat="45.8896" lon="3.76323">
        <ele>816.3</ele>
        <time>2013-12-08T04:41:29Z</time>
      </trkpt>
      <trkpt lat="45.8896" lon="3.76321">
        <ele>816.3</ele>
        <time>2013-12-08T04:41:30Z</time>
      </trkpt>
      <trkpt lat="45.88959" lon="3.76315">
        <ele>816.78</ele>
        <time>2013-12-08T04:41:33Z</time>
      </trkpt>
      <trkpt lat="45.88959" lon="3.76304">
        <ele>816.78</ele>
        <time>2013-12-08T04:41:38Z</time>
      </trkpt>
      <trkpt lat="45.88956" lon="3.76269">
        <ele>818.7</ele>
        <time>2013-12-08T04:41:54Z</time>
      </trkpt>
      <trkpt lat="45.88955" lon="3.76267">
        <ele>819.18</ele>
        <time>2013-12-08T04:41:55Z</time>
      </trkpt>
      <trkpt lat="45.88954" lon="3.76253">
        <ele>819.66</ele>
        <time>2013-12-08T04:42:00Z</time>
      </trkpt>
      <trkpt lat="45.88952" lon="3.76238">
        <ele>820.62</ele>
        <time>2013-12-08T04:42:07Z</time>
      </trkpt>
      <trkpt lat="45.88951" lon="3.76225">
        <ele>821.58</ele>
        <time>2013-12-08T04:42:13Z</time>
      </trkpt>
      <trkpt lat="45.88949" lon="3.76212">
        <ele>822.55</ele>
        <time>2013-12-08T04:42:20Z</time>
      </trkpt>
      <trkpt lat="45.88942" lon="3.76199">
        <ele>823.99</ele>
        <time>2013-12-08T04:42:28Z</time>
      </trkpt>
      <trkpt lat="45.88941" lon="3.76183">
        <ele>825.43</ele>
        <time>2013-12-08T04:42:36Z</time>
      </trkpt>
      <trkpt lat="45.88933" lon="3.76159">
        <ele>827.35</ele>
        <time>2013-12-08T04:42:48Z</time>
      </trkpt>
      <trkpt lat="45.88932" lon="3.7615">
        <ele>828.31</ele>
        <time>2013-12-08T04:42:52Z</time>
      </trkpt>
      <trkpt lat="45.88931" lon="3.76145">
        <ele>828.79</ele>
        <time>2013-12-08T04:42:55Z</time>
      </trkpt>
      <trkpt lat="45.88932" lon="3.76138">
        <ele>829.76</ele>
        <time>2013-12-08T04:42:59Z</time>
      </trkpt>
      <trkpt lat="45.8893" lon="3.76129">
        <ele>830.72</ele>
        <time>2013-12-08T04:43:04Z</time>
      </trkpt>
      <trkpt lat="45.88928" lon="3.76125">
        <ele>831.2</ele>
        <time>2013-12-08T04:43:07Z</time>
      </trkpt>
      <trkpt lat="45.88928" lon="3.76116">
        <ele>832.64</ele>
        <time>2013-12-08T04:43:11Z</time>
      </trkpt>
      <trkpt lat="45.88929" lon="3.76113">
        <ele>832.64</ele>
        <time>2013-12-08T04:43:13Z</time>
      </trkpt>
      <trkpt lat="45.88937" lon="3.76087">
        <ele>835.52</ele>
        <time>2013-12-08T04:43:26Z</time>
      </trkpt>
      <trkpt lat="45.8895" lon="3.76081">
        <ele>837.93</ele>
        <time>2013-12-08T04:43:37Z</time>
      </trkpt>
      <trkpt lat="45.8897" lon="3.7608">
        <ele>840.33</ele>
        <time>2013-12-08T04:43:54Z</time>
      </trkpt>
      <trkpt lat="45.88984" lon="3.76071">
        <ele>842.25</ele>
        <time>2013-12-08T04:44:07Z</time>
      </trkpt>
      <trkpt lat="45.88997" lon="3.76065">
        <ele>843.69</ele>
        <time>2013-12-08T04:44:17Z</time>
      </trkpt>
      <trkpt lat="45.89004" lon="3.76065">
        <ele>844.66</ele>
        <time>2013-12-08T04:44:22Z</time>
      </trkpt>
      <trkpt lat="45.89024" lon="3.76066">
        <ele>846.58</ele>
        <time>2013-12-08T04:44:37Z</time>
      </trkpt>
      <trkpt lat="45.89031" lon="3.76064">
        <ele>847.54</ele>
        <time>2013-12-08T04:44:44Z</time>
      </trkpt>
      <trkpt lat="45.89062" lon="3.76064">
        <ele>849.94</ele>
        <time>2013-12-08T04:44:59Z</time>
      </trkpt>
      <trkpt lat="45.89064" lon="3.76065">
        <ele>849.94</ele>
        <time>2013-12-08T04:45:01Z</time>
      </trkpt>
      <trkpt lat="45.89082" lon="3.76054">
        <ele>852.83</ele>
        <time>2013-12-08T04:45:16Z</time>
      </trkpt>
      <trkpt lat="45.89082" lon="3.76054">
        <ele>852.83</ele>
        <time>2013-12-08T04:45:17Z</time>
      </trkpt>
      <trkpt lat="45.89077" lon="3.76035">
        <ele>855.23</ele>
        <time>2013-12-08T04:45:31Z</time>
      </trkpt>
      <trkpt lat="45.89075" lon="3.76031">
        <ele>855.71</ele>
        <time>2013-12-08T04:45:34Z</time>
      </trkpt>
      <trkpt lat="45.89062" lon="3.76016">
        <ele>857.63</ele>
        <time>2013-12-08T04:45:46Z</time>
      </trkpt>
      <trkpt lat="45.89056" lon="3.76008">
        <ele>858.59</ele>
        <time>2013-12-08T04:45:53Z</time>
      </trkpt>
      <trkpt lat="45.8905" lon="3.76005">
        <ele>859.08</ele>
        <time>2013-12-08T04:45:58Z</time>
      </trkpt>
      <trkpt lat="45.89043" lon="3.76">
        <ele>860.52</ele>
        <time>2013-12-08T04:46:04Z</time>
      </trkpt>
      <trkpt lat="45.89042" lon="3.75997">
        <ele>860.52</ele>
        <time>2013-12-08T04:46:07Z</time>
      </trkpt>
      <trkpt lat="45.89029" lon="3.75976">
        <ele>862.92</ele>
        <time>2013-12-08T04:46:24Z</time>
      </trkpt>
      <trkpt lat="45.89016" lon="3.75957">
        <ele>865.32</ele>
        <time>2013-12-08T04:46:37Z</time>
      </trkpt>
      <trkpt lat="45.89007" lon="3.7594">
        <ele>867.25</ele>
        <time>2013-12-08T04:46:48Z</time>
      </trkpt>
      <trkpt lat="45.89002" lon="3.75929">
        <ele>868.21</ele>
        <time>2013-12-08T04:46:54Z</time>
      </trkpt>
      <trkpt lat="45.88999" lon="3.75921">
        <ele>869.17</ele>
        <time>2013-12-08T04:46:58Z</time>
      </trkpt>
      <trkpt lat="45.88986" lon="3.75903">
        <ele>871.09</ele>
        <time>2013-12-08T04:47:11Z</time>
      </trkpt>
      <trkpt lat="45.88977" lon="3.75894">
        <ele>872.53</ele>
        <time>2013-12-08T04:47:19Z</time>
      </trkpt>
      <trkpt lat="45.88954" lon="3.75882">
        <ele>874.94</ele>
        <time>2013-12-08T04:47:34Z</time>
      </trkpt>
      <trkpt lat="45.8894" lon="3.75878">
        <ele>876.86</ele>
        <time>2013-12-08T04:47:47Z</time>
      </trkpt>
      <trkpt lat="45.88933" lon="3.75875">
        <ele>877.82</ele>
        <time>2013-12-08T04:47:54Z</time>
      </trkpt>
      <trkpt lat="45.88929" lon="3.75875">
        <ele>878.3</ele>
        <time>2013-12-08T04:47:57Z</time>
      </trkpt>
      <trkpt lat="45.88922" lon="3.75868">
        <ele>879.74</ele>
        <time>2013-12-08T04:48:04Z</time>
      </trkpt>
      <trkpt lat="45.88899" lon="3.75849">
        <ele>881.67</ele>
        <time>2013-12-08T04:48:19Z</time>
      </trkpt>
      <trkpt lat="45.88898" lon="3.75849">
        <ele>881.67</ele>
        <time>2013-12-08T04:48:20Z</time>
      </trkpt>
      <trkpt lat="45.8889" lon="3.75843">
        <ele>882.63</ele>
        <time>2013-12-08T04:48:25Z</time>
      </trkpt>
      <trkpt lat="45.88876" lon="3.75829">
        <ele>884.55</ele>
        <time>2013-12-08T04:48:40Z</time>
      </trkpt>
      <trkpt lat="45.88853" lon="3.75824">
        <ele>886.47</ele>
        <time>2013-12-08T04:48:54Z</time>
      </trkpt>
      <trkpt lat="45.88839" lon="3.75813">
        <ele>887.91</ele>
        <time>2013-12-08T04:49:07Z</time>
      </trkpt>
      <trkpt lat="45.88832" lon="3.75807">
        <ele>888.88</ele>
        <time>2013-12-08T04:49:12Z</time>
      </trkpt>
      <trkpt lat="45.88816" lon="3.75794">
        <ele>890.32</ele>
        <time>2013-12-08T04:49:24Z</time>
      </trkpt>
      <trkpt lat="45.88794" lon="3.75781">
        <ele>892.24</ele>
        <time>2013-12-08T04:49:40Z</time>
      </trkpt>
      <trkpt lat="45.88789" lon="3.7578">
        <ele>893.2</ele>
        <time>2013-12-08T04:49:44Z</time>
      </trkpt>
      <trkpt lat="45.88776" lon="3.75781">
        <ele>894.64</ele>
        <time>2013-12-08T04:49:55Z</time>
      </trkpt>
      <trkpt lat="45.88752" lon="3.75781">
        <ele>897.05</ele>
        <time>2013-12-08T04:50:09Z</time>
      </trkpt>
      <trkpt lat="45.8873" lon="3.75776">
        <ele>899.45</ele>
        <time>2013-12-08T04:50:24Z</time>
      </trkpt>
      <trkpt lat="45.88719" lon="3.75767">
        <ele>901.37</ele>
        <time>2013-12-08T04:50:33Z</time>
      </trkpt>
      <trkpt lat="45.88711" lon="3.75767">
        <ele>902.33</ele>
        <time>2013-12-08T04:50:40Z</time>
      </trkpt>
      <trkpt lat="45.88691" lon="3.75763">
        <ele>904.74</ele>
        <time>2013-12-08T04:50:54Z</time>
      </trkpt>
      <trkpt lat="45.8866" lon="3.75761">
        <ele>907.62</ele>
        <time>2013-12-08T04:51:10Z</time>
      </trkpt>
      <trkpt lat="45.88653" lon="3.75756">
        <ele>908.58</ele>
        <time>2013-12-08T04:51:17Z</time>
      </trkpt>
      <trkpt lat="45.8865" lon="3.75755">
        <ele>909.06</ele>
        <time>2013-12-08T04:51:19Z</time>
      </trkpt>
      <trkpt lat="45.88646" lon="3.7575">
        <ele>909.54</ele>
        <time>2013-12-08T04:51:23Z</time>
      </trkpt>
      <trkpt lat="45.88639" lon="3.75739">
        <ele>910.99</ele>
        <time>2013-12-08T04:51:31Z</time>
      </trkpt>
      <trkpt lat="45.88633" lon="3.75732">
        <ele>911.47</ele>
        <time>2013-12-08T04:51:36Z</time>
      </trkpt>
      <trkpt lat="45.88617" lon="3.75705">
        <ele>914.35</ele>
        <time>2013-12-08T04:51:54Z</time>
      </trkpt>
      <trkpt lat="45.88614" lon="3.75699">
        <ele>914.83</ele>
        <time>2013-12-08T04:51:58Z</time>
      </trkpt>
      <trkpt lat="45.88612" lon="3.75694">
        <ele>915.31</ele>
        <time>2013-12-08T04:52:01Z</time>
      </trkpt>
      <trkpt lat="45.88602" lon="3.75685">
        <ele>916.75</ele>
        <time>2013-12-08T04:52:09Z</time>
      </trkpt>
      <trkpt lat="45.88593" lon="3.75666">
        <ele>918.68</ele>
        <time>2013-12-08T04:52:21Z</time>
      </trkpt>
      <trkpt lat="45.88587" lon="3.75658">
        <ele>919.64</ele>
        <time>2013-12-08T04:52:26Z</time>
      </trkpt>
      <trkpt lat="45.88583" lon="3.75651">
        <ele>920.12</ele>
        <time>2013-12-08T04:52:30Z</time>
      </trkpt>
      <trkpt lat="45.88576" lon="3.7564">
        <ele>921.56</ele>
        <time>2013-12-08T04:52:37Z</time>
      </trkpt>
      <trkpt lat="45.88571" lon="3.75626">
        <ele>923</ele>
        <time>2013-12-08T04:52:45Z</time>
      </trkpt>
      <trkpt lat="45.88558" lon="3.75604">
        <ele>925.41</ele>
        <time>2013-12-08T04:52:58Z</time>
      </trkpt>
      <trkpt lat="45.8855" lon="3.75585">
        <ele>927.33</ele>
        <time>2013-12-08T04:53:09Z</time>
      </trkpt>
      <trkpt lat="45.88546" lon="3.75564">
        <ele>929.25</ele>
        <time>2013-12-08T04:53:19Z</time>
      </trkpt>
      <trkpt lat="45.88552" lon="3.75542">
        <ele>931.65</ele>
        <time>2013-12-08T04:53:31Z</time>
      </trkpt>
      <trkpt lat="45.88562" lon="3.7552">
        <ele>933.1</ele>
        <time>2013-12-08T04:53:44Z</time>
      </trkpt>
      <trkpt lat="45.88577" lon="3.75508">
        <ele>934.54</ele>
        <time>2013-12-08T04:53:56Z</time>
      </trkpt>
      <trkpt lat="45.88588" lon="3.7549">
        <ele>935.98</ele>
        <time>2013-12-08T04:54:07Z</time>
      </trkpt>
      <trkpt lat="45.88599" lon="3.75465">
        <ele>937.9</ele>
        <time>2013-12-08T04:54:21Z</time>
      </trkpt>
      <trkpt lat="45.8861" lon="3.75445">
        <ele>939.83</ele>
        <time>2013-12-08T04:54:37Z</time>
      </trkpt>
      <trkpt lat="45.88618" lon="3.75435">
        <ele>940.31</ele>
        <time>2013-12-08T04:54:50Z</time>
      </trkpt>
      <trkpt lat="45.88619" lon="3.75434">
        <ele>940.31</ele>
        <time>2013-12-08T04:55:08Z</time>
      </trkpt>
      <trkpt lat="45.88619" lon="3.75434">
        <ele>940.31</ele>
        <time>2013-12-08T04:55:28Z</time>
      </trkpt>
      <trkpt lat="45.88618" lon="3.75434">
        <ele>940.31</ele>
        <time>2013-12-08T04:55:50Z</time>
      </trkpt>
      <trkpt lat="45.88618" lon="3.75435">
        <ele>940.31</ele>
        <time>2013-12-08T04:56:10Z</time>
      </trkpt>
      <trkpt lat="45.88618" lon="3.75436">
        <ele>940.31</ele>
        <time>2013-12-08T04:56:24Z</time>
      </trkpt>
      <trkpt lat="45.88619" lon="3.75437">
        <ele>940.31</ele>
        <time>2013-12-08T04:56:49Z</time>
      </trkpt>
      <trkpt lat="45.88621" lon="3.75435">
        <ele>940.31</ele>
        <time>2013-12-08T04:57:06Z</time>
      </trkpt>
      <trkpt lat="45.88622" lon="3.75435">
        <ele>939.83</ele>
        <time>2013-12-08T04:57:27Z</time>
      </trkpt>
      <trkpt lat="45.88622" lon="3.75435">
        <ele>939.83</ele>
        <time>2013-12-08T04:57:48Z</time>
      </trkpt>
      <trkpt lat="45.88622" lon="3.75434">
        <ele>939.83</ele>
        <time>2013-12-08T04:58:02Z</time>
      </trkpt>
      <trkpt lat="45.88622" lon="3.75434">
        <ele>939.83</ele>
        <time>2013-12-08T04:58:26Z</time>
      </trkpt>
      <trkpt lat="45.88621" lon="3.75433">
        <ele>939.83</ele>
        <time>2013-12-08T04:58:53Z</time>
      </trkpt>
      <trkpt lat="45.88621" lon="3.75434">
        <ele>939.83</ele>
        <time>2013-12-08T04:59:16Z</time>
      </trkpt>
      <trkpt lat="45.88618" lon="3.75435">
        <ele>939.83</ele>
        <time>2013-12-08T04:59:28Z</time>
      </trkpt>
      <trkpt lat="45.88616" lon="3.7543">
        <ele>939.83</ele>
        <time>2013-12-08T04:59:40Z</time>
      </trkpt>
      <trkpt lat="45.88611" lon="3.75428">
        <ele>939.35</ele>
        <time>2013-12-08T04:59:55Z</time>
      </trkpt>
      <trkpt lat="45.88611" lon="3.75428">
        <ele>939.35</ele>
        <time>2013-12-08T05:00:15Z</time>
      </trkpt>
      <trkpt lat="45.88611" lon="3.75428">
        <ele>938.86</ele>
        <time>2013-12-08T05:00:30Z</time>
      </trkpt>
      <trkpt lat="45.88611" lon="3.75429">
        <ele>939.35</ele>
        <time>2013-12-08T05:00:44Z</time>
      </trkpt>
      <trkpt lat="45.88612" lon="3.7543">
        <ele>939.35</ele>
        <time>2013-12-08T05:01:00Z</time>
      </trkpt>
      <trkpt lat="45.88612" lon="3.7543">
        <ele>939.35</ele>
        <time>2013-12-08T05:01:13Z</time>
      </trkpt>
      <trkpt lat="45.88613" lon="3.75429">
        <ele>939.35</ele>
        <time>2013-12-08T05:01:25Z</time>
      </trkpt>
      <trkpt lat="45.88613" lon="3.75429">
        <ele>939.35</ele>
        <time>2013-12-08T05:01:30Z</time>
      </trkpt>
      <trkpt lat="45.88616" lon="3.75438">
        <ele>938.86</ele>
        <time>2013-12-08T05:01:43Z</time>
      </trkpt>
      <trkpt lat="45.88617" lon="3.75439">
        <ele>939.35</ele>
        <time>2013-12-08T05:02:01Z</time>
      </trkpt>
      <trkpt lat="45.88616" lon="3.75435">
        <ele>939.35</ele>
        <time>2013-12-08T05:02:12Z</time>
      </trkpt>
      <trkpt lat="45.88615" lon="3.75429">
        <ele>939.35</ele>
        <time>2013-12-08T05:02:23Z</time>
      </trkpt>
      <trkpt lat="45.88615" lon="3.75429">
        <ele>938.86</ele>
        <time>2013-12-08T05:02:44Z</time>
      </trkpt>
      <trkpt lat="45.88615" lon="3.7543">
        <ele>938.86</ele>
        <time>2013-12-08T05:03:10Z</time>
      </trkpt>
      <trkpt lat="45.88616" lon="3.7543">
        <ele>938.86</ele>
        <time>2013-12-08T05:03:22Z</time>
      </trkpt>
      <trkpt lat="45.88613" lon="3.75426">
        <ele>938.38</ele>
        <time>2013-12-08T05:03:29Z</time>
      </trkpt>
      <trkpt lat="45.88605" lon="3.75418">
        <ele>937.9</ele>
        <time>2013-12-08T05:03:38Z</time>
      </trkpt>
      <trkpt lat="45.88591" lon="3.75393">
        <ele>936.94</ele>
        <time>2013-12-08T05:03:56Z</time>
      </trkpt>
      <trkpt lat="45.88576" lon="3.7537">
        <ele>935.02</ele>
        <time>2013-12-08T05:04:14Z</time>
      </trkpt>
      <trkpt lat="45.88565" lon="3.75351">
        <ele>932.62</ele>
        <time>2013-12-08T05:04:28Z</time>
      </trkpt>
      <trkpt lat="45.8855" lon="3.7533">
        <ele>929.73</ele>
        <time>2013-12-08T05:04:43Z</time>
      </trkpt>
      <trkpt lat="45.88549" lon="3.75329">
        <ele>929.25</ele>
        <time>2013-12-08T05:04:44Z</time>
      </trkpt>
      <trkpt lat="45.88538" lon="3.75316">
        <ele>927.33</ele>
        <time>2013-12-08T05:04:55Z</time>
      </trkpt>
      <trkpt lat="45.88533" lon="3.75311">
        <ele>926.37</ele>
        <time>2013-12-08T05:05:00Z</time>
      </trkpt>
      <trkpt lat="45.88529" lon="3.75307">
        <ele>925.89</ele>
        <time>2013-12-08T05:05:03Z</time>
      </trkpt>
      <trkpt lat="45.88514" lon="3.75285">
        <ele>923</ele>
        <time>2013-12-08T05:05:17Z</time>
      </trkpt>
      <trkpt lat="45.88499" lon="3.75265">
        <ele>920.12</ele>
        <time>2013-12-08T05:05:32Z</time>
      </trkpt>
      <trkpt lat="45.88486" lon="3.75243">
        <ele>917.24</ele>
        <time>2013-12-08T05:05:46Z</time>
      </trkpt>
      <trkpt lat="45.88475" lon="3.75226">
        <ele>913.87</ele>
        <time>2013-12-08T05:05:56Z</time>
      </trkpt>
      <trkpt lat="45.88458" lon="3.75205">
        <ele>910.51</ele>
        <time>2013-12-08T05:06:07Z</time>
      </trkpt>
      <trkpt lat="45.88446" lon="3.75181">
        <ele>907.14</ele>
        <time>2013-12-08T05:06:16Z</time>
      </trkpt>
      <trkpt lat="45.88443" lon="3.75171">
        <ele>906.18</ele>
        <time>2013-12-08T05:06:19Z</time>
      </trkpt>
      <trkpt lat="45.88441" lon="3.75152">
        <ele>902.82</ele>
        <time>2013-12-08T05:06:25Z</time>
      </trkpt>
      <trkpt lat="45.88437" lon="3.75127">
        <ele>899.93</ele>
        <time>2013-12-08T05:06:32Z</time>
      </trkpt>
      <trkpt lat="45.88434" lon="3.75103">
        <ele>896.57</ele>
        <time>2013-12-08T05:06:40Z</time>
      </trkpt>
      <trkpt lat="45.88429" lon="3.75063">
        <ele>893.2</ele>
        <time>2013-12-08T05:06:48Z</time>
      </trkpt>
      <trkpt lat="45.88425" lon="3.75051">
        <ele>891.76</ele>
        <time>2013-12-08T05:06:51Z</time>
      </trkpt>
      <trkpt lat="45.88418" lon="3.75036">
        <ele>889.36</ele>
        <time>2013-12-08T05:06:56Z</time>
      </trkpt>
      <trkpt lat="45.88417" lon="3.75032">
        <ele>888.88</ele>
        <time>2013-12-08T05:06:57Z</time>
      </trkpt>
      <trkpt lat="45.88408" lon="3.75004">
        <ele>885.51</ele>
        <time>2013-12-08T05:07:05Z</time>
      </trkpt>
      <trkpt lat="45.88408" lon="3.74968">
        <ele>882.15</ele>
        <time>2013-12-08T05:07:12Z</time>
      </trkpt>
      <trkpt lat="45.88415" lon="3.74931">
        <ele>879.26</ele>
        <time>2013-12-08T05:07:20Z</time>
      </trkpt>
      <trkpt lat="45.88428" lon="3.74885">
        <ele>875.9</ele>
        <time>2013-12-08T05:07:30Z</time>
      </trkpt>
      <trkpt lat="45.88429" lon="3.74873">
        <ele>874.94</ele>
        <time>2013-12-08T05:07:32Z</time>
      </trkpt>
      <trkpt lat="45.88438" lon="3.74828">
        <ele>871.57</ele>
        <time>2013-12-08T05:07:41Z</time>
      </trkpt>
      <trkpt lat="45.88445" lon="3.74791">
        <ele>868.21</ele>
        <time>2013-12-08T05:07:50Z</time>
      </trkpt>
      <trkpt lat="45.88446" lon="3.74759">
        <ele>865.32</ele>
        <time>2013-12-08T05:07:57Z</time>
      </trkpt>
      <trkpt lat="45.88446" lon="3.74756">
        <ele>864.84</ele>
        <time>2013-12-08T05:07:58Z</time>
      </trkpt>
      <trkpt lat="45.88446" lon="3.74748">
        <ele>863.88</ele>
        <time>2013-12-08T05:08:00Z</time>
      </trkpt>
      <trkpt lat="45.88447" lon="3.7472">
        <ele>861</ele>
        <time>2013-12-08T05:08:07Z</time>
      </trkpt>
      <trkpt lat="45.88446" lon="3.74706">
        <ele>859.08</ele>
        <time>2013-12-08T05:08:11Z</time>
      </trkpt>
      <trkpt lat="45.88449" lon="3.74688">
        <ele>857.15</ele>
        <time>2013-12-08T05:08:16Z</time>
      </trkpt>
      <trkpt lat="45.88444" lon="3.74669">
        <ele>853.31</ele>
        <time>2013-12-08T05:08:24Z</time>
      </trkpt>
      <trkpt lat="45.8844" lon="3.74659">
        <ele>850.9</ele>
        <time>2013-12-08T05:08:29Z</time>
      </trkpt>
      <trkpt lat="45.88433" lon="3.7464">
        <ele>847.54</ele>
        <time>2013-12-08T05:08:36Z</time>
      </trkpt>
      <trkpt lat="45.8843" lon="3.74619">
        <ele>844.66</ele>
        <time>2013-12-08T05:08:42Z</time>
      </trkpt>
      <trkpt lat="45.8843" lon="3.74616">
        <ele>844.66</ele>
        <time>2013-12-08T05:08:43Z</time>
      </trkpt>
      <trkpt lat="45.88427" lon="3.74571">
        <ele>841.29</ele>
        <time>2013-12-08T05:08:50Z</time>
      </trkpt>
      <trkpt lat="45.88422" lon="3.74562">
        <ele>839.85</ele>
        <time>2013-12-08T05:08:53Z</time>
      </trkpt>
      <trkpt lat="45.88416" lon="3.74509">
        <ele>836</ele>
        <time>2013-12-08T05:09:02Z</time>
      </trkpt>
      <trkpt lat="45.88418" lon="3.74466">
        <ele>833.12</ele>
        <time>2013-12-08T05:09:10Z</time>
      </trkpt>
      <trkpt lat="45.88417" lon="3.74434">
        <ele>829.76</ele>
        <time>2013-12-08T05:09:17Z</time>
      </trkpt>
      <trkpt lat="45.88416" lon="3.74424">
        <ele>828.79</ele>
        <time>2013-12-08T05:09:19Z</time>
      </trkpt>
      <trkpt lat="45.88412" lon="3.74394">
        <ele>825.91</ele>
        <time>2013-12-08T05:09:25Z</time>
      </trkpt>
      <trkpt lat="45.8841" lon="3.7437">
        <ele>823.51</ele>
        <time>2013-12-08T05:09:30Z</time>
      </trkpt>
      <trkpt lat="45.88406" lon="3.74344">
        <ele>821.1</ele>
        <time>2013-12-08T05:09:36Z</time>
      </trkpt>
      <trkpt lat="45.88408" lon="3.74316">
        <ele>817.74</ele>
        <time>2013-12-08T05:09:42Z</time>
      </trkpt>
      <trkpt lat="45.88407" lon="3.74288">
        <ele>814.85</ele>
        <time>2013-12-08T05:09:48Z</time>
      </trkpt>
      <trkpt lat="45.88407" lon="3.74277">
        <ele>813.89</ele>
        <time>2013-12-08T05:09:50Z</time>
      </trkpt>
      <trkpt lat="45.88406" lon="3.74268">
        <ele>812.93</ele>
        <time>2013-12-08T05:09:52Z</time>
      </trkpt>
      <trkpt lat="45.88404" lon="3.74236">
        <ele>810.53</ele>
        <time>2013-12-08T05:09:58Z</time>
      </trkpt>
      <trkpt lat="45.88403" lon="3.74224">
        <ele>809.09</ele>
        <time>2013-12-08T05:10:01Z</time>
      </trkpt>
      <trkpt lat="45.88403" lon="3.74211">
        <ele>807.64</ele>
        <time>2013-12-08T05:10:04Z</time>
      </trkpt>
      <trkpt lat="45.88401" lon="3.74189">
        <ele>805.72</ele>
        <time>2013-12-08T05:10:09Z</time>
      </trkpt>
      <trkpt lat="45.88401" lon="3.74162">
        <ele>803.8</ele>
        <time>2013-12-08T05:10:15Z</time>
      </trkpt>
      <trkpt lat="45.88408" lon="3.74127">
        <ele>800.92</ele>
        <time>2013-12-08T05:10:24Z</time>
      </trkpt>
      <trkpt lat="45.88409" lon="3.74123">
        <ele>800.44</ele>
        <time>2013-12-08T05:10:25Z</time>
      </trkpt>
      <trkpt lat="45.88417" lon="3.74092">
        <ele>798.03</ele>
        <time>2013-12-08T05:10:33Z</time>
      </trkpt>
      <trkpt lat="45.88419" lon="3.74083">
        <ele>797.55</ele>
        <time>2013-12-08T05:10:35Z</time>
      </trkpt>
      <trkpt lat="45.88423" lon="3.74067">
        <ele>796.59</ele>
        <time>2013-12-08T05:10:39Z</time>
      </trkpt>
      <trkpt lat="45.88434" lon="3.74032">
        <ele>795.15</ele>
        <time>2013-12-08T05:10:50Z</time>
      </trkpt>
      <trkpt lat="45.88444" lon="3.74007">
        <ele>794.19</ele>
        <time>2013-12-08T05:11:03Z</time>
      </trkpt>
      <trkpt lat="45.88449" lon="3.73984">
        <ele>793.22</ele>
        <time>2013-12-08T05:11:16Z</time>
      </trkpt>
      <trkpt lat="45.8845" lon="3.73983">
        <ele>793.71</ele>
        <time>2013-12-08T05:11:17Z</time>
      </trkpt>
      <trkpt lat="45.88454" lon="3.73968">
        <ele>793.71</ele>
        <time>2013-12-08T05:11:24Z</time>
      </trkpt>
      <trkpt lat="45.8846" lon="3.73943">
        <ele>794.19</ele>
        <time>2013-12-08T05:11:37Z</time>
      </trkpt>
      <trkpt lat="45.88463" lon="3.73931">
        <ele>794.67</ele>
        <time>2013-12-08T05:11:44Z</time>
      </trkpt>
      <trkpt lat="45.88467" lon="3.7391">
        <ele>794.19</ele>
        <time>2013-12-08T05:11:57Z</time>
      </trkpt>
      <trkpt lat="45.88468" lon="3.73904">
        <ele>794.19</ele>
        <time>2013-12-08T05:12:01Z</time>
      </trkpt>
      <trkpt lat="45.88479" lon="3.73868">
        <ele>794.19</ele>
        <time>2013-12-08T05:12:16Z</time>
      </trkpt>
      <trkpt lat="45.88482" lon="3.73855">
        <ele>793.71</ele>
        <time>2013-12-08T05:12:23Z</time>
      </trkpt>
      <trkpt lat="45.88486" lon="3.73825">
        <ele>793.71</ele>
        <time>2013-12-08T05:12:37Z</time>
      </trkpt>
      <trkpt lat="45.88487" lon="3.73797">
        <ele>792.26</ele>
        <time>2013-12-08T05:12:49Z</time>
      </trkpt>
      <trkpt lat="45.88488" lon="3.73788">
        <ele>791.3</ele>
        <time>2013-12-08T05:12:53Z</time>
      </trkpt>
      <trkpt lat="45.88485" lon="3.73776">
        <ele>790.34</ele>
        <time>2013-12-08T05:12:59Z</time>
      </trkpt>
      <trkpt lat="45.88483" lon="3.73769">
        <ele>789.38</ele>
        <time>2013-12-08T05:13:03Z</time>
      </trkpt>
      <trkpt lat="45.88475" lon="3.73737">
        <ele>786.98</ele>
        <time>2013-12-08T05:13:18Z</time>
      </trkpt>
      <trkpt lat="45.88469" lon="3.7371">
        <ele>784.57</ele>
        <time>2013-12-08T05:13:30Z</time>
      </trkpt>
      <trkpt lat="45.88469" lon="3.73706">
        <ele>784.09</ele>
        <time>2013-12-08T05:13:32Z</time>
      </trkpt>
      <trkpt lat="45.88465" lon="3.73688">
        <ele>782.65</ele>
        <time>2013-12-08T05:13:40Z</time>
      </trkpt>
      <trkpt lat="45.88465" lon="3.73684">
        <ele>782.17</ele>
        <time>2013-12-08T05:13:42Z</time>
      </trkpt>
      <trkpt lat="45.88464" lon="3.73678">
        <ele>781.69</ele>
        <time>2013-12-08T05:13:45Z</time>
      </trkpt>
      <trkpt lat="45.88459" lon="3.73659">
        <ele>779.77</ele>
        <time>2013-12-08T05:13:53Z</time>
      </trkpt>
      <trkpt lat="45.88448" lon="3.73629">
        <ele>777.84</ele>
        <time>2013-12-08T05:14:08Z</time>
      </trkpt>
      <trkpt lat="45.88442" lon="3.7361">
        <ele>776.88</ele>
        <time>2013-12-08T05:14:17Z</time>
      </trkpt>
      <trkpt lat="45.88432" lon="3.73586">
        <ele>775.92</ele>
        <time>2013-12-08T05:14:30Z</time>
      </trkpt>
      <trkpt lat="45.88427" lon="3.73577">
        <ele>775.44</ele>
        <time>2013-12-08T05:14:36Z</time>
      </trkpt>
      <trkpt lat="45.88423" lon="3.73565">
        <ele>775.44</ele>
        <time>2013-12-08T05:14:42Z</time>
      </trkpt>
      <trkpt lat="45.88415" lon="3.73535">
        <ele>774.48</ele>
        <time>2013-12-08T05:14:56Z</time>
      </trkpt>
      <trkpt lat="45.8841" lon="3.73513">
        <ele>774</ele>
        <time>2013-12-08T05:15:07Z</time>
      </trkpt>
      <trkpt lat="45.88399" lon="3.7348">
        <ele>773.52</ele>
        <time>2013-12-08T05:15:23Z</time>
      </trkpt>
      <trkpt lat="45.88391" lon="3.73449">
        <ele>773.52</ele>
        <time>2013-12-08T05:15:38Z</time>
      </trkpt>
      <trkpt lat="45.88382" lon="3.73426">
        <ele>773.04</ele>
        <time>2013-12-08T05:15:52Z</time>
      </trkpt>
      <trkpt lat="45.88377" lon="3.73401">
        <ele>772.56</ele>
        <time>2013-12-08T05:16:05Z</time>
      </trkpt>
      <trkpt lat="45.88372" lon="3.73372">
        <ele>771.11</ele>
        <time>2013-12-08T05:16:18Z</time>
      </trkpt>
      <trkpt lat="45.8837" lon="3.73362">
        <ele>773.52</ele>
        <time>2013-12-08T05:16:21Z</time>
      </trkpt>
      <trkpt lat="45.88367" lon="3.73342">
        <ele>772.08</ele>
        <time>2013-12-08T05:16:30Z</time>
      </trkpt>
      <trkpt lat="45.88361" lon="3.7331">
        <ele>771.11</ele>
        <time>2013-12-08T05:16:44Z</time>
      </trkpt>
      <trkpt lat="45.8836" lon="3.73301">
        <ele>771.11</ele>
        <time>2013-12-08T05:16:48Z</time>
      </trkpt>
      <trkpt lat="45.88358" lon="3.7328">
        <ele>770.15</ele>
        <time>2013-12-08T05:16:59Z</time>
      </trkpt>
      <trkpt lat="45.88358" lon="3.73271">
        <ele>769.67</ele>
        <time>2013-12-08T05:17:04Z</time>
      </trkpt>
      <trkpt lat="45.88356" lon="3.73246">
        <ele>769.19</ele>
        <time>2013-12-08T05:17:15Z</time>
      </trkpt>
      <trkpt lat="45.88357" lon="3.7324">
        <ele>769.19</ele>
        <time>2013-12-08T05:17:18Z</time>
      </trkpt>
      <trkpt lat="45.8836" lon="3.73214">
        <ele>768.23</ele>
        <time>2013-12-08T05:17:31Z</time>
      </trkpt>
      <trkpt lat="45.88357" lon="3.73206">
        <ele>768.23</ele>
        <time>2013-12-08T05:17:35Z</time>
      </trkpt>
      <trkpt lat="45.88357" lon="3.73203">
        <ele>768.23</ele>
        <time>2013-12-08T05:17:37Z</time>
      </trkpt>
      <trkpt lat="45.88355" lon="3.73183">
        <ele>767.75</ele>
        <time>2013-12-08T05:17:45Z</time>
      </trkpt>
      <trkpt lat="45.8834" lon="3.73152">
        <ele>767.75</ele>
        <time>2013-12-08T05:18:00Z</time>
      </trkpt>
      <trkpt lat="45.88325" lon="3.73126">
        <ele>768.23</ele>
        <time>2013-12-08T05:18:12Z</time>
      </trkpt>
      <trkpt lat="45.88322" lon="3.73095">
        <ele>769.19</ele>
        <time>2013-12-08T05:18:26Z</time>
      </trkpt>
      <trkpt lat="45.88334" lon="3.73065">
        <ele>771.11</ele>
        <time>2013-12-08T05:18:40Z</time>
      </trkpt>
      <trkpt lat="45.88338" lon="3.73029">
        <ele>773.04</ele>
        <time>2013-12-08T05:18:57Z</time>
      </trkpt>
      <trkpt lat="45.88349" lon="3.73009">
        <ele>774</ele>
        <time>2013-12-08T05:19:07Z</time>
      </trkpt>
      <trkpt lat="45.88352" lon="3.72992">
        <ele>774.96</ele>
        <time>2013-12-08T05:19:16Z</time>
      </trkpt>
      <trkpt lat="45.88351" lon="3.72987">
        <ele>775.92</ele>
        <time>2013-12-08T05:19:19Z</time>
      </trkpt>
      <trkpt lat="45.88351" lon="3.72979">
        <ele>776.4</ele>
        <time>2013-12-08T05:19:23Z</time>
      </trkpt>
      <trkpt lat="45.8835" lon="3.72947">
        <ele>778.32</ele>
        <time>2013-12-08T05:19:38Z</time>
      </trkpt>
      <trkpt lat="45.88348" lon="3.7293">
        <ele>779.77</ele>
        <time>2013-12-08T05:19:47Z</time>
      </trkpt>
      <trkpt lat="45.88349" lon="3.72913">
        <ele>780.73</ele>
        <time>2013-12-08T05:19:55Z</time>
      </trkpt>
      <trkpt lat="45.88349" lon="3.72886">
        <ele>783.13</ele>
        <time>2013-12-08T05:20:08Z</time>
      </trkpt>
      <trkpt lat="45.88348" lon="3.72856">
        <ele>784.09</ele>
        <time>2013-12-08T05:20:22Z</time>
      </trkpt>
      <trkpt lat="45.8835" lon="3.72828">
        <ele>786.02</ele>
        <time>2013-12-08T05:20:35Z</time>
      </trkpt>
      <trkpt lat="45.88349" lon="3.72822">
        <ele>786.5</ele>
        <time>2013-12-08T05:20:38Z</time>
      </trkpt>
      <trkpt lat="45.88351" lon="3.72793">
        <ele>787.94</ele>
        <time>2013-12-08T05:20:52Z</time>
      </trkpt>
      <trkpt lat="45.88347" lon="3.72762">
        <ele>789.38</ele>
        <time>2013-12-08T05:21:07Z</time>
      </trkpt>
      <trkpt lat="45.88348" lon="3.72735">
        <ele>789.86</ele>
        <time>2013-12-08T05:21:20Z</time>
      </trkpt>
      <trkpt lat="45.8835" lon="3.72718">
        <ele>789.38</ele>
        <time>2013-12-08T05:21:27Z</time>
      </trkpt>
      <trkpt lat="45.8835" lon="3.72693">
        <ele>787.94</ele>
        <time>2013-12-08T05:21:39Z</time>
      </trkpt>
      <trkpt lat="45.8835" lon="3.72686">
        <ele>787.46</ele>
        <time>2013-12-08T05:21:43Z</time>
      </trkpt>
      <trkpt lat="45.88353" lon="3.72659">
        <ele>785.53</ele>
        <time>2013-12-08T05:21:57Z</time>
      </trkpt>
      <trkpt lat="45.88353" lon="3.72651">
        <ele>784.57</ele>
        <time>2013-12-08T05:22:01Z</time>
      </trkpt>
      <trkpt lat="45.88353" lon="3.72633">
        <ele>782.65</ele>
        <time>2013-12-08T05:22:09Z</time>
      </trkpt>
      <trkpt lat="45.88354" lon="3.72625">
        <ele>781.69</ele>
        <time>2013-12-08T05:22:12Z</time>
      </trkpt>
      <trkpt lat="45.88354" lon="3.72607">
        <ele>779.77</ele>
        <time>2013-12-08T05:22:18Z</time>
      </trkpt>
      <trkpt lat="45.88354" lon="3.72604">
        <ele>779.77</ele>
        <time>2013-12-08T05:22:19Z</time>
      </trkpt>
      <trkpt lat="45.88357" lon="3.72566">
        <ele>775.92</ele>
        <time>2013-12-08T05:22:30Z</time>
      </trkpt>
      <trkpt lat="45.8836" lon="3.72533">
        <ele>773.52</ele>
        <time>2013-12-08T05:22:38Z</time>
      </trkpt>
      <trkpt lat="45.88361" lon="3.72518">
        <ele>772.08</ele>
        <time>2013-12-08T05:22:42Z</time>
      </trkpt>
      <trkpt lat="45.88363" lon="3.72472">
        <ele>767.75</ele>
        <time>2013-12-08T05:22:54Z</time>
      </trkpt>
      <trkpt lat="45.88366" lon="3.72428">
        <ele>764.39</ele>
        <time>2013-12-08T05:23:05Z</time>
      </trkpt>
      <trkpt lat="45.88367" lon="3.72421">
        <ele>763.42</ele>
        <time>2013-12-08T05:23:07Z</time>
      </trkpt>
      <trkpt lat="45.88368" lon="3.72397">
        <ele>761.5</ele>
        <time>2013-12-08T05:23:13Z</time>
      </trkpt>
      <trkpt lat="45.88371" lon="3.72355">
        <ele>759.1</ele>
        <time>2013-12-08T05:23:24Z</time>
      </trkpt>
      <trkpt lat="45.88372" lon="3.72317">
        <ele>757.66</ele>
        <time>2013-12-08T05:23:34Z</time>
      </trkpt>
      <trkpt lat="45.88372" lon="3.72276">
        <ele>755.73</ele>
        <time>2013-12-08T05:23:44Z</time>
      </trkpt>
      <trkpt lat="45.88371" lon="3.72269">
        <ele>756.21</ele>
        <time>2013-12-08T05:23:46Z</time>
      </trkpt>
      <trkpt lat="45.88365" lon="3.72235">
        <ele>755.25</ele>
        <time>2013-12-08T05:23:56Z</time>
      </trkpt>
      <trkpt lat="45.88365" lon="3.72232">
        <ele>755.25</ele>
        <time>2013-12-08T05:23:57Z</time>
      </trkpt>
      <trkpt lat="45.88352" lon="3.72193">
        <ele>754.77</ele>
        <time>2013-12-08T05:24:09Z</time>
      </trkpt>
      <trkpt lat="45.88346" lon="3.7218">
        <ele>754.29</ele>
        <time>2013-12-08T05:24:13Z</time>
      </trkpt>
      <trkpt lat="45.88338" lon="3.7216">
        <ele>753.81</ele>
        <time>2013-12-08T05:24:20Z</time>
      </trkpt>
      <trkpt lat="45.8833" lon="3.72122">
        <ele>751.41</ele>
        <time>2013-12-08T05:24:31Z</time>
      </trkpt>
      <trkpt lat="45.88328" lon="3.72078">
        <ele>749</ele>
        <time>2013-12-08T05:24:41Z</time>
      </trkpt>
      <trkpt lat="45.88325" lon="3.72024">
        <ele>745.64</ele>
        <time>2013-12-08T05:24:54Z</time>
      </trkpt>
      <trkpt lat="45.88318" lon="3.71978">
        <ele>742.76</ele>
        <time>2013-12-08T05:25:07Z</time>
      </trkpt>
      <trkpt lat="45.88311" lon="3.71942">
        <ele>739.39</ele>
        <time>2013-12-08T05:25:18Z</time>
      </trkpt>
      <trkpt lat="45.88298" lon="3.71899">
        <ele>736.51</ele>
        <time>2013-12-08T05:25:30Z</time>
      </trkpt>
      <trkpt lat="45.88295" lon="3.71846">
        <ele>733.62</ele>
        <time>2013-12-08T05:25:41Z</time>
      </trkpt>
      <trkpt lat="45.88293" lon="3.71801">
        <ele>731.7</ele>
        <time>2013-12-08T05:25:50Z</time>
      </trkpt>
      <trkpt lat="45.88289" lon="3.71763">
        <ele>729.3</ele>
        <time>2013-12-08T05:25:58Z</time>
      </trkpt>
      <trkpt lat="45.88284" lon="3.71743">
        <ele>727.86</ele>
        <time>2013-12-08T05:26:03Z</time>
      </trkpt>
      <trkpt lat="45.88275" lon="3.71695">
        <ele>724.97</ele>
        <time>2013-12-08T05:26:15Z</time>
      </trkpt>
      <trkpt lat="45.88273" lon="3.71639">
        <ele>722.09</ele>
        <time>2013-12-08T05:26:27Z</time>
      </trkpt>
      <trkpt lat="45.88267" lon="3.71594">
        <ele>718.72</ele>
        <time>2013-12-08T05:26:38Z</time>
      </trkpt>
      <trkpt lat="45.88262" lon="3.71555">
        <ele>716.32</ele>
        <time>2013-12-08T05:26:48Z</time>
      </trkpt>
      <trkpt lat="45.88257" lon="3.71509">
        <ele>712.47</ele>
        <time>2013-12-08T05:26:59Z</time>
      </trkpt>
      <trkpt lat="45.8825" lon="3.71463">
        <ele>710.55</ele>
        <time>2013-12-08T05:27:10Z</time>
      </trkpt>
      <trkpt lat="45.88244" lon="3.71413">
        <ele>707.67</ele>
        <time>2013-12-08T05:27:22Z</time>
      </trkpt>
      <trkpt lat="45.88241" lon="3.71371">
        <ele>705.75</ele>
        <time>2013-12-08T05:27:32Z</time>
      </trkpt>
      <trkpt lat="45.88236" lon="3.7133">
        <ele>703.82</ele>
        <time>2013-12-08T05:27:42Z</time>
      </trkpt>
      <trkpt lat="45.88229" lon="3.71276">
        <ele>701.42</ele>
        <time>2013-12-08T05:27:55Z</time>
      </trkpt>
      <trkpt lat="45.88223" lon="3.71226">
        <ele>698.53</ele>
        <time>2013-12-08T05:28:07Z</time>
      </trkpt>
      <trkpt lat="45.88219" lon="3.71184">
        <ele>696.61</ele>
        <time>2013-12-08T05:28:17Z</time>
      </trkpt>
      <trkpt lat="45.88212" lon="3.71146">
        <ele>694.69</ele>
        <time>2013-12-08T05:28:26Z</time>
      </trkpt>
      <trkpt lat="45.8821" lon="3.71132">
        <ele>693.73</ele>
        <time>2013-12-08T05:28:30Z</time>
      </trkpt>
      <trkpt lat="45.88206" lon="3.71083">
        <ele>691.81</ele>
        <time>2013-12-08T05:28:43Z</time>
      </trkpt>
      <trkpt lat="45.88199" lon="3.71054">
        <ele>689.88</ele>
        <time>2013-12-08T05:28:51Z</time>
      </trkpt>
      <trkpt lat="45.88192" lon="3.71001">
        <ele>687</ele>
        <time>2013-12-08T05:29:05Z</time>
      </trkpt>
      <trkpt lat="45.88187" lon="3.70956">
        <ele>684.6</ele>
        <time>2013-12-08T05:29:16Z</time>
      </trkpt>
      <trkpt lat="45.88184" lon="3.70915">
        <ele>682.67</ele>
        <time>2013-12-08T05:29:26Z</time>
      </trkpt>
      <trkpt lat="45.88179" lon="3.70867">
        <ele>680.27</ele>
        <time>2013-12-08T05:29:38Z</time>
      </trkpt>
      <trkpt lat="45.88174" lon="3.70828">
        <ele>678.35</ele>
        <time>2013-12-08T05:29:48Z</time>
      </trkpt>
      <trkpt lat="45.8817" lon="3.70806">
        <ele>676.91</ele>
        <time>2013-12-08T05:29:54Z</time>
      </trkpt>
      <trkpt lat="45.88166" lon="3.70761">
        <ele>674.5</ele>
        <time>2013-12-08T05:30:05Z</time>
      </trkpt>
      <trkpt lat="45.88162" lon="3.70726">
        <ele>673.06</ele>
        <time>2013-12-08T05:30:14Z</time>
      </trkpt>
      <trkpt lat="45.88155" lon="3.70684">
        <ele>671.14</ele>
        <time>2013-12-08T05:30:25Z</time>
      </trkpt>
      <trkpt lat="45.88155" lon="3.70663">
        <ele>670.18</ele>
        <time>2013-12-08T05:30:31Z</time>
      </trkpt>
      <trkpt lat="45.88147" lon="3.70609">
        <ele>667.29</ele>
        <time>2013-12-08T05:30:45Z</time>
      </trkpt>
      <trkpt lat="45.88139" lon="3.70567">
        <ele>664.89</ele>
        <time>2013-12-08T05:30:57Z</time>
      </trkpt>
      <trkpt lat="45.88122" lon="3.70518">
        <ele>662.01</ele>
        <time>2013-12-08T05:31:11Z</time>
      </trkpt>
      <trkpt lat="45.88112" lon="3.70478">
        <ele>660.08</ele>
        <time>2013-12-08T05:31:22Z</time>
      </trkpt>
      <trkpt lat="45.88097" lon="3.70445">
        <ele>658.16</ele>
        <time>2013-12-08T05:31:32Z</time>
      </trkpt>
      <trkpt lat="45.88093" lon="3.70437">
        <ele>657.68</ele>
        <time>2013-12-08T05:31:35Z</time>
      </trkpt>
      <trkpt lat="45.88074" lon="3.704">
        <ele>656.24</ele>
        <time>2013-12-08T05:31:47Z</time>
      </trkpt>
      <trkpt lat="45.88059" lon="3.70368">
        <ele>654.31</ele>
        <time>2013-12-08T05:31:57Z</time>
      </trkpt>
      <trkpt lat="45.88046" lon="3.70335">
        <ele>652.87</ele>
        <time>2013-12-08T05:32:08Z</time>
      </trkpt>
      <trkpt lat="45.88044" lon="3.70328">
        <ele>652.39</ele>
        <time>2013-12-08T05:32:10Z</time>
      </trkpt>
      <trkpt lat="45.8803" lon="3.70284">
        <ele>650.95</ele>
        <time>2013-12-08T05:32:22Z</time>
      </trkpt>
      <trkpt lat="45.8802" lon="3.70238">
        <ele>649.51</ele>
        <time>2013-12-08T05:32:34Z</time>
      </trkpt>
      <trkpt lat="45.88015" lon="3.70204">
        <ele>648.07</ele>
        <time>2013-12-08T05:32:44Z</time>
      </trkpt>
      <trkpt lat="45.88008" lon="3.70159">
        <ele>646.62</ele>
        <time>2013-12-08T05:32:55Z</time>
      </trkpt>
      <trkpt lat="45.88001" lon="3.70125">
        <ele>645.18</ele>
        <time>2013-12-08T05:33:06Z</time>
      </trkpt>
      <trkpt lat="45.87997" lon="3.70097">
        <ele>643.74</ele>
        <time>2013-12-08T05:33:19Z</time>
      </trkpt>
      <trkpt lat="45.87996" lon="3.70083">
        <ele>643.26</ele>
        <time>2013-12-08T05:33:25Z</time>
      </trkpt>
      <trkpt lat="45.87992" lon="3.7006">
        <ele>642.3</ele>
        <time>2013-12-08T05:33:36Z</time>
      </trkpt>
      <trkpt lat="45.8799" lon="3.70049">
        <ele>641.82</ele>
        <time>2013-12-08T05:33:41Z</time>
      </trkpt>
      <trkpt lat="45.8799" lon="3.70035">
        <ele>641.34</ele>
        <time>2013-12-08T05:33:48Z</time>
      </trkpt>
      <trkpt lat="45.87989" lon="3.70027">
        <ele>640.86</ele>
        <time>2013-12-08T05:33:52Z</time>
      </trkpt>
      <trkpt lat="45.87987" lon="3.70001">
        <ele>639.89</ele>
        <time>2013-12-08T05:34:03Z</time>
      </trkpt>
      <trkpt lat="45.87982" lon="3.69976">
        <ele>638.93</ele>
        <time>2013-12-08T05:34:16Z</time>
      </trkpt>
      <trkpt lat="45.87979" lon="3.6995">
        <ele>637.49</ele>
        <time>2013-12-08T05:34:29Z</time>
      </trkpt>
      <trkpt lat="45.87975" lon="3.6992">
        <ele>636.53</ele>
        <time>2013-12-08T05:34:42Z</time>
      </trkpt>
      <trkpt lat="45.87968" lon="3.6989">
        <ele>635.09</ele>
        <time>2013-12-08T05:34:57Z</time>
      </trkpt>
      <trkpt lat="45.87963" lon="3.6986">
        <ele>633.65</ele>
        <time>2013-12-08T05:35:11Z</time>
      </trkpt>
      <trkpt lat="45.87959" lon="3.69835">
        <ele>632.68</ele>
        <time>2013-12-08T05:35:23Z</time>
      </trkpt>
      <trkpt lat="45.87957" lon="3.69823">
        <ele>632.2</ele>
        <time>2013-12-08T05:35:29Z</time>
      </trkpt>
      <trkpt lat="45.87956" lon="3.69814">
        <ele>631.72</ele>
        <time>2013-12-08T05:35:33Z</time>
      </trkpt>
      <trkpt lat="45.8795" lon="3.69793">
        <ele>630.28</ele>
        <time>2013-12-08T05:35:44Z</time>
      </trkpt>
      <trkpt lat="45.87947" lon="3.69776">
        <ele>629.8</ele>
        <time>2013-12-08T05:35:52Z</time>
      </trkpt>
      <trkpt lat="45.87942" lon="3.69744">
        <ele>628.36</ele>
        <time>2013-12-08T05:36:06Z</time>
      </trkpt>
      <trkpt lat="45.87938" lon="3.69718">
        <ele>626.92</ele>
        <time>2013-12-08T05:36:19Z</time>
      </trkpt>
      <trkpt lat="45.87936" lon="3.69698">
        <ele>624.99</ele>
        <time>2013-12-08T05:36:29Z</time>
      </trkpt>
      <trkpt lat="45.87935" lon="3.69693">
        <ele>624.99</ele>
        <time>2013-12-08T05:36:32Z</time>
      </trkpt>
      <trkpt lat="45.87935" lon="3.69674">
        <ele>624.03</ele>
        <time>2013-12-08T05:36:40Z</time>
      </trkpt>
      <trkpt lat="45.87933" lon="3.69671">
        <ele>624.03</ele>
        <time>2013-12-08T05:36:42Z</time>
      </trkpt>
      <trkpt lat="45.87931" lon="3.69667">
        <ele>623.55</ele>
        <time>2013-12-08T05:36:45Z</time>
      </trkpt>
      <trkpt lat="45.87931" lon="3.69658">
        <ele>623.07</ele>
        <time>2013-12-08T05:36:49Z</time>
      </trkpt>
      <trkpt lat="45.87933" lon="3.69621">
        <ele>621.63</ele>
        <time>2013-12-08T05:37:06Z</time>
      </trkpt>
      <trkpt lat="45.8793" lon="3.69599">
        <ele>621.63</ele>
        <time>2013-12-08T05:37:17Z</time>
      </trkpt>
      <trkpt lat="45.87928" lon="3.69586">
        <ele>621.63</ele>
        <time>2013-12-08T05:37:23Z</time>
      </trkpt>
      <trkpt lat="45.8793" lon="3.69576">
        <ele>621.63</ele>
        <time>2013-12-08T05:37:28Z</time>
      </trkpt>
      <trkpt lat="45.87929" lon="3.69571">
        <ele>621.15</ele>
        <time>2013-12-08T05:37:30Z</time>
      </trkpt>
      <trkpt lat="45.87927" lon="3.69537">
        <ele>621.15</ele>
        <time>2013-12-08T05:37:46Z</time>
      </trkpt>
      <trkpt lat="45.87932" lon="3.69502">
        <ele>621.15</ele>
        <time>2013-12-08T05:38:03Z</time>
      </trkpt>
      <trkpt lat="45.87933" lon="3.695">
        <ele>620.67</ele>
        <time>2013-12-08T05:38:04Z</time>
      </trkpt>
      <trkpt lat="45.87933" lon="3.69496">
        <ele>620.67</ele>
        <time>2013-12-08T05:38:06Z</time>
      </trkpt>
      <trkpt lat="45.87934" lon="3.69486">
        <ele>623.07</ele>
        <time>2013-12-08T05:38:11Z</time>
      </trkpt>
      <trkpt lat="45.87934" lon="3.69471">
        <ele>621.15</ele>
        <time>2013-12-08T05:38:18Z</time>
      </trkpt>
      <trkpt lat="45.87934" lon="3.69461">
        <ele>621.15</ele>
        <time>2013-12-08T05:38:22Z</time>
      </trkpt>
      <trkpt lat="45.87935" lon="3.69454">
        <ele>621.15</ele>
        <time>2013-12-08T05:38:25Z</time>
      </trkpt>
      <trkpt lat="45.87931" lon="3.69434">
        <ele>621.15</ele>
        <time>2013-12-08T05:38:34Z</time>
      </trkpt>
      <trkpt lat="45.8793" lon="3.69424">
        <ele>621.15</ele>
        <time>2013-12-08T05:38:39Z</time>
      </trkpt>
      <trkpt lat="45.87926" lon="3.6941">
        <ele>621.63</ele>
        <time>2013-12-08T05:38:47Z</time>
      </trkpt>
      <trkpt lat="45.87916" lon="3.69411">
        <ele>620.67</ele>
        <time>2013-12-08T05:38:55Z</time>
      </trkpt>
      <trkpt lat="45.87895" lon="3.69421">
        <ele>619.23</ele>
        <time>2013-12-08T05:39:12Z</time>
      </trkpt>
      <trkpt lat="45.87873" lon="3.69435">
        <ele>618.75</ele>
        <time>2013-12-08T05:39:26Z</time>
      </trkpt>
      <trkpt lat="45.87861" lon="3.69445">
        <ele>618.75</ele>
        <time>2013-12-08T05:39:36Z</time>
      </trkpt>
      <trkpt lat="45.87854" lon="3.69448">
        <ele>618.75</ele>
        <time>2013-12-08T05:39:42Z</time>
      </trkpt>
      <trkpt lat="45.87836" lon="3.6944">
        <ele>618.26</ele>
        <time>2013-12-08T05:39:56Z</time>
      </trkpt>
      <trkpt lat="45.87824" lon="3.69447">
        <ele>618.75</ele>
        <time>2013-12-08T05:40:06Z</time>
      </trkpt>
      <trkpt lat="45.87814" lon="3.69451">
        <ele>618.75</ele>
        <time>2013-12-08T05:40:16Z</time>
      </trkpt>
      <trkpt lat="45.87809" lon="3.69448">
        <ele>619.23</ele>
        <time>2013-12-08T05:40:28Z</time>
      </trkpt>
      <trkpt lat="45.87808" lon="3.69445">
        <ele>619.23</ele>
        <time>2013-12-08T05:40:47Z</time>
      </trkpt>
      <trkpt lat="45.87798" lon="3.69444">
        <ele>619.71</ele>
        <time>2013-12-08T05:41:06Z</time>
      </trkpt>
      <trkpt lat="45.87799" lon="3.69447">
        <ele>619.23</ele>
        <time>2013-12-08T05:41:27Z</time>
      </trkpt>
      <trkpt lat="45.87797" lon="3.69435">
        <ele>618.75</ele>
        <time>2013-12-08T05:41:50Z</time>
      </trkpt>
      <trkpt lat="45.87809" lon="3.69415">
        <ele>620.19</ele>
        <time>2013-12-08T05:46:33Z</time>
      </trkpt>
      <trkpt lat="45.87809" lon="3.69416">
        <ele>619.71</ele>
        <time>2013-12-08T05:46:58Z</time>
      </trkpt>
      <trkpt lat="45.87806" lon="3.69423">
        <ele>619.23</ele>
        <time>2013-12-08T05:47:29Z</time>
      </trkpt>
      <trkpt lat="45.87801" lon="3.69425">
        <ele>619.71</ele>
        <time>2013-12-08T05:47:56Z</time>
      </trkpt>
      <trkpt lat="45.87806" lon="3.69434">
        <ele>619.71</ele>
        <time>2013-12-08T05:48:23Z</time>
      </trkpt>
      <trkpt lat="45.87807" lon="3.69431">
        <ele>619.23</ele>
        <time>2013-12-08T05:48:50Z</time>
      </trkpt>
      <trkpt lat="45.87806" lon="3.69427">
        <ele>619.23</ele>
        <time>2013-12-08T05:49:14Z</time>
      </trkpt>
      <trkpt lat="45.87801" lon="3.69428">
        <ele>619.23</ele>
        <time>2013-12-08T05:49:42Z</time>
      </trkpt>
      <trkpt lat="45.878" lon="3.69425">
        <ele>619.23</ele>
        <time>2013-12-08T05:50:08Z</time>
      </trkpt>
      <trkpt lat="45.87799" lon="3.69425">
        <ele>619.23</ele>
        <time>2013-12-08T05:50:29Z</time>
      </trkpt>
      <trkpt lat="45.87799" lon="3.69425">
        <ele>619.71</ele>
        <time>2013-12-08T05:50:50Z</time>
      </trkpt>
      <trkpt lat="45.878" lon="3.69426">
        <ele>617.78</ele>
        <time>2013-12-08T05:50:53Z</time>
      </trkpt>
      <trkpt lat="45.87802" lon="3.69426">
        <ele>617.78</ele>
        <time>2013-12-08T05:51:21Z</time>
      </trkpt>
      <trkpt lat="45.87803" lon="3.69426">
        <ele>617.3</ele>
        <time>2013-12-08T05:51:47Z</time>
      </trkpt>
      <trkpt lat="45.87804" lon="3.69424">
        <ele>617.3</ele>
        <time>2013-12-08T05:52:17Z</time>
      </trkpt>
      <trkpt lat="45.87805" lon="3.69423">
        <ele>617.3</ele>
        <time>2013-12-08T05:52:50Z</time>
      </trkpt>
      <trkpt lat="45.87806" lon="3.69423">
        <ele>617.3</ele>
        <time>2013-12-08T05:53:24Z</time>
      </trkpt>
      <trkpt lat="45.87805" lon="3.69424">
        <ele>617.3</ele>
        <time>2013-12-08T05:53:50Z</time>
      </trkpt>
      <trkpt lat="45.87803" lon="3.69431">
        <ele>617.3</ele>
        <time>2013-12-08T05:54:11Z</time>
      </trkpt>
      <trkpt lat="45.87803" lon="3.6943">
        <ele>616.82</ele>
        <time>2013-12-08T05:54:35Z</time>
      </trkpt>
      <trkpt lat="45.87801" lon="3.69432">
        <ele>616.82</ele>
        <time>2013-12-08T05:54:58Z</time>
      </trkpt>
      <trkpt lat="45.878" lon="3.69431">
        <ele>617.3</ele>
        <time>2013-12-08T05:55:16Z</time>
      </trkpt>
      <trkpt lat="45.87799" lon="3.6943">
        <ele>616.82</ele>
        <time>2013-12-08T05:55:37Z</time>
      </trkpt>
      <trkpt lat="45.87803" lon="3.69441">
        <ele>616.82</ele>
        <time>2013-12-08T05:55:56Z</time>
      </trkpt>
      <trkpt lat="45.87802" lon="3.69455">
        <ele>616.34</ele>
        <time>2013-12-08T05:56:09Z</time>
      </trkpt>
      <trkpt lat="45.87805" lon="3.69453">
        <ele>616.34</ele>
        <time>2013-12-08T05:56:16Z</time>
      </trkpt>
      <trkpt lat="45.87811" lon="3.69448">
        <ele>616.34</ele>
        <time>2013-12-08T05:56:22Z</time>
      </trkpt>
      <trkpt lat="45.87816" lon="3.69446">
        <ele>616.34</ele>
        <time>2013-12-08T05:56:28Z</time>
      </trkpt>
      <trkpt lat="45.87836" lon="3.69439">
        <ele>616.34</ele>
        <time>2013-12-08T05:56:42Z</time>
      </trkpt>
      <trkpt lat="45.87848" lon="3.69449">
        <ele>616.82</ele>
        <time>2013-12-08T05:56:52Z</time>
      </trkpt>
      <trkpt lat="45.87853" lon="3.69448">
        <ele>616.82</ele>
        <time>2013-12-08T05:56:57Z</time>
      </trkpt>
      <trkpt lat="45.87857" lon="3.69446">
        <ele>616.82</ele>
        <time>2013-12-08T05:57:00Z</time>
      </trkpt>
      <trkpt lat="45.87869" lon="3.69437">
        <ele>616.82</ele>
        <time>2013-12-08T05:57:09Z</time>
      </trkpt>
      <trkpt lat="45.87884" lon="3.69425">
        <ele>617.3</ele>
        <time>2013-12-08T05:57:22Z</time>
      </trkpt>
      <trkpt lat="45.87905" lon="3.6941">
        <ele>618.26</ele>
        <time>2013-12-08T05:57:38Z</time>
      </trkpt>
      <trkpt lat="45.8792" lon="3.69396">
        <ele>620.19</ele>
        <time>2013-12-08T05:57:52Z</time>
      </trkpt>
      <trkpt lat="45.87921" lon="3.69393">
        <ele>620.19</ele>
        <time>2013-12-08T05:57:54Z</time>
      </trkpt>
      <trkpt lat="45.87919" lon="3.69361">
        <ele>621.15</ele>
        <time>2013-12-08T05:58:09Z</time>
      </trkpt>
      <trkpt lat="45.87917" lon="3.6935">
        <ele>621.15</ele>
        <time>2013-12-08T05:58:14Z</time>
      </trkpt>
      <trkpt lat="45.87918" lon="3.69338">
        <ele>621.15</ele>
        <time>2013-12-08T05:58:20Z</time>
      </trkpt>
      <trkpt lat="45.87919" lon="3.69334">
        <ele>621.15</ele>
        <time>2013-12-08T05:58:22Z</time>
      </trkpt>
      <trkpt lat="45.87919" lon="3.69327">
        <ele>621.15</ele>
        <time>2013-12-08T05:58:26Z</time>
      </trkpt>
      <trkpt lat="45.87916" lon="3.69299">
        <ele>621.15</ele>
        <time>2013-12-08T05:58:40Z</time>
      </trkpt>
      <trkpt lat="45.87915" lon="3.69297">
        <ele>621.15</ele>
        <time>2013-12-08T05:58:41Z</time>
      </trkpt>
      <trkpt lat="45.87912" lon="3.69283">
        <ele>621.15</ele>
        <time>2013-12-08T05:58:48Z</time>
      </trkpt>
      <trkpt lat="45.87908" lon="3.69265">
        <ele>620.67</ele>
        <time>2013-12-08T05:58:57Z</time>
      </trkpt>
      <trkpt lat="45.87904" lon="3.6925">
        <ele>620.67</ele>
        <time>2013-12-08T05:59:04Z</time>
      </trkpt>
      <trkpt lat="45.87899" lon="3.69219">
        <ele>620.19</ele>
        <time>2013-12-08T05:59:20Z</time>
      </trkpt>
      <trkpt lat="45.87896" lon="3.69187">
        <ele>619.71</ele>
        <time>2013-12-08T05:59:35Z</time>
      </trkpt>
      <trkpt lat="45.87896" lon="3.69157">
        <ele>619.71</ele>
        <time>2013-12-08T05:59:48Z</time>
      </trkpt>
      <trkpt lat="45.87891" lon="3.69127">
        <ele>619.23</ele>
        <time>2013-12-08T06:00:03Z</time>
      </trkpt>
      <trkpt lat="45.87887" lon="3.69093">
        <ele>618.75</ele>
        <time>2013-12-08T06:00:18Z</time>
      </trkpt>
      <trkpt lat="45.87887" lon="3.69089">
        <ele>618.75</ele>
        <time>2013-12-08T06:00:20Z</time>
      </trkpt>
      <trkpt lat="45.87884" lon="3.69068">
        <ele>618.26</ele>
        <time>2013-12-08T06:00:29Z</time>
      </trkpt>
      <trkpt lat="45.87878" lon="3.69029">
        <ele>617.78</ele>
        <time>2013-12-08T06:00:47Z</time>
      </trkpt>
      <trkpt lat="45.87875" lon="3.68997">
        <ele>617.3</ele>
        <time>2013-12-08T06:01:01Z</time>
      </trkpt>
      <trkpt lat="45.87871" lon="3.68964">
        <ele>616.82</ele>
        <time>2013-12-08T06:01:16Z</time>
      </trkpt>
      <trkpt lat="45.87863" lon="3.68932">
        <ele>616.34</ele>
        <time>2013-12-08T06:01:32Z</time>
      </trkpt>
      <trkpt lat="45.87851" lon="3.68905">
        <ele>615.86</ele>
        <time>2013-12-08T06:01:47Z</time>
      </trkpt>
      <trkpt lat="45.87845" lon="3.68893">
        <ele>615.86</ele>
        <time>2013-12-08T06:01:53Z</time>
      </trkpt>
      <trkpt lat="45.87832" lon="3.68868">
        <ele>615.86</ele>
        <time>2013-12-08T06:02:07Z</time>
      </trkpt>
      <trkpt lat="45.87828" lon="3.68836">
        <ele>615.38</ele>
        <time>2013-12-08T06:02:22Z</time>
      </trkpt>
      <trkpt lat="45.87829" lon="3.68807">
        <ele>614.42</ele>
        <time>2013-12-08T06:02:35Z</time>
      </trkpt>
      <trkpt lat="45.87835" lon="3.6877">
        <ele>613.46</ele>
        <time>2013-12-08T06:02:52Z</time>
      </trkpt>
      <trkpt lat="45.87841" lon="3.68733">
        <ele>612.5</ele>
        <time>2013-12-08T06:03:09Z</time>
      </trkpt>
      <trkpt lat="45.87845" lon="3.68694">
        <ele>612.02</ele>
        <time>2013-12-08T06:03:26Z</time>
      </trkpt>
      <trkpt lat="45.87844" lon="3.6866">
        <ele>611.06</ele>
        <time>2013-12-08T06:03:41Z</time>
      </trkpt>
      <trkpt lat="45.87838" lon="3.68626">
        <ele>610.57</ele>
        <time>2013-12-08T06:03:57Z</time>
      </trkpt>
      <trkpt lat="45.8783" lon="3.68604">
        <ele>610.09</ele>
        <time>2013-12-08T06:04:09Z</time>
      </trkpt>
      <trkpt lat="45.87818" lon="3.68574">
        <ele>609.13</ele>
        <time>2013-12-08T06:04:24Z</time>
      </trkpt>
      <trkpt lat="45.87804" lon="3.68541">
        <ele>608.65</ele>
        <time>2013-12-08T06:04:40Z</time>
      </trkpt>
      <trkpt lat="45.87795" lon="3.68513">
        <ele>608.17</ele>
        <time>2013-12-08T06:04:54Z</time>
      </trkpt>
      <trkpt lat="45.8779" lon="3.68482">
        <ele>607.69</ele>
        <time>2013-12-08T06:05:08Z</time>
      </trkpt>
      <trkpt lat="45.87787" lon="3.68448">
        <ele>606.73</ele>
        <time>2013-12-08T06:05:24Z</time>
      </trkpt>
      <trkpt lat="45.87788" lon="3.68416">
        <ele>606.25</ele>
        <time>2013-12-08T06:05:38Z</time>
      </trkpt>
      <trkpt lat="45.87789" lon="3.68411">
        <ele>606.25</ele>
        <time>2013-12-08T06:05:40Z</time>
      </trkpt>
      <trkpt lat="45.8779" lon="3.68402">
        <ele>606.25</ele>
        <time>2013-12-08T06:05:44Z</time>
      </trkpt>
      <trkpt lat="45.87789" lon="3.68371">
        <ele>605.77</ele>
        <time>2013-12-08T06:05:59Z</time>
      </trkpt>
      <trkpt lat="45.87792" lon="3.68335">
        <ele>605.77</ele>
        <time>2013-12-08T06:06:14Z</time>
      </trkpt>
      <trkpt lat="45.87792" lon="3.68298">
        <ele>604.81</ele>
        <time>2013-12-08T06:06:30Z</time>
      </trkpt>
      <trkpt lat="45.87792" lon="3.68265">
        <ele>604.81</ele>
        <time>2013-12-08T06:06:44Z</time>
      </trkpt>
      <trkpt lat="45.87788" lon="3.68227">
        <ele>604.81</ele>
        <time>2013-12-08T06:06:59Z</time>
      </trkpt>
      <trkpt lat="45.87783" lon="3.68198">
        <ele>604.81</ele>
        <time>2013-12-08T06:07:12Z</time>
      </trkpt>
      <trkpt lat="45.87773" lon="3.68165">
        <ele>604.81</ele>
        <time>2013-12-08T06:07:28Z</time>
      </trkpt>
      <trkpt lat="45.87755" lon="3.68135">
        <ele>605.29</ele>
        <time>2013-12-08T06:07:44Z</time>
      </trkpt>
      <trkpt lat="45.87737" lon="3.68112">
        <ele>605.29</ele>
        <time>2013-12-08T06:07:59Z</time>
      </trkpt>
      <trkpt lat="45.87732" lon="3.68108">
        <ele>605.29</ele>
        <time>2013-12-08T06:08:03Z</time>
      </trkpt>
      <trkpt lat="45.87712" lon="3.68084">
        <ele>605.77</ele>
        <time>2013-12-08T06:08:20Z</time>
      </trkpt>
      <trkpt lat="45.87692" lon="3.68068">
        <ele>606.25</ele>
        <time>2013-12-08T06:08:35Z</time>
      </trkpt>
      <trkpt lat="45.87673" lon="3.68047">
        <ele>606.25</ele>
        <time>2013-12-08T06:08:50Z</time>
      </trkpt>
      <trkpt lat="45.87654" lon="3.68025">
        <ele>606.73</ele>
        <time>2013-12-08T06:09:05Z</time>
      </trkpt>
      <trkpt lat="45.87635" lon="3.68003">
        <ele>606.73</ele>
        <time>2013-12-08T06:09:20Z</time>
      </trkpt>
      <trkpt lat="45.87617" lon="3.67979">
        <ele>607.21</ele>
        <time>2013-12-08T06:09:35Z</time>
      </trkpt>
      <trkpt lat="45.87598" lon="3.67951">
        <ele>607.21</ele>
        <time>2013-12-08T06:09:51Z</time>
      </trkpt>
      <trkpt lat="45.8758" lon="3.67928">
        <ele>607.21</ele>
        <time>2013-12-08T06:10:05Z</time>
      </trkpt>
      <trkpt lat="45.87567" lon="3.67909">
        <ele>607.21</ele>
        <time>2013-12-08T06:10:16Z</time>
      </trkpt>
      <trkpt lat="45.87561" lon="3.67896">
        <ele>607.21</ele>
        <time>2013-12-08T06:10:23Z</time>
      </trkpt>
      <trkpt lat="45.8754" lon="3.67866">
        <ele>607.69</ele>
        <time>2013-12-08T06:10:40Z</time>
      </trkpt>
      <trkpt lat="45.87521" lon="3.67841">
        <ele>607.69</ele>
        <time>2013-12-08T06:10:56Z</time>
      </trkpt>
      <trkpt lat="45.875" lon="3.67818">
        <ele>607.21</ele>
        <time>2013-12-08T06:11:12Z</time>
      </trkpt>
      <trkpt lat="45.87475" lon="3.67796">
        <ele>606.73</ele>
        <time>2013-12-08T06:11:31Z</time>
      </trkpt>
      <trkpt lat="45.87457" lon="3.6778">
        <ele>605.77</ele>
        <time>2013-12-08T06:11:45Z</time>
      </trkpt>
      <trkpt lat="45.87445" lon="3.67771">
        <ele>605.29</ele>
        <time>2013-12-08T06:11:54Z</time>
      </trkpt>
      <trkpt lat="45.87425" lon="3.67755">
        <ele>604.33</ele>
        <time>2013-12-08T06:12:09Z</time>
      </trkpt>
      <trkpt lat="45.87415" lon="3.67747">
        <ele>604.81</ele>
        <time>2013-12-08T06:12:15Z</time>
      </trkpt>
      <trkpt lat="45.87408" lon="3.67743">
        <ele>604.33</ele>
        <time>2013-12-08T06:12:19Z</time>
      </trkpt>
      <trkpt lat="45.87397" lon="3.67736">
        <ele>603.85</ele>
        <time>2013-12-08T06:12:27Z</time>
      </trkpt>
      <trkpt lat="45.87372" lon="3.67721">
        <ele>603.36</ele>
        <time>2013-12-08T06:12:42Z</time>
      </trkpt>
      <trkpt lat="45.87354" lon="3.67706">
        <ele>602.88</ele>
        <time>2013-12-08T06:12:55Z</time>
      </trkpt>
      <trkpt lat="45.87336" lon="3.67688">
        <ele>602.4</ele>
        <time>2013-12-08T06:13:09Z</time>
      </trkpt>
      <trkpt lat="45.87318" lon="3.67666">
        <ele>601.92</ele>
        <time>2013-12-08T06:13:24Z</time>
      </trkpt>
      <trkpt lat="45.87305" lon="3.67649">
        <ele>601.44</ele>
        <time>2013-12-08T06:13:36Z</time>
      </trkpt>
      <trkpt lat="45.87288" lon="3.67623">
        <ele>601.44</ele>
        <time>2013-12-08T06:13:51Z</time>
      </trkpt>
      <trkpt lat="45.87272" lon="3.67598">
        <ele>601.44</ele>
        <time>2013-12-08T06:14:05Z</time>
      </trkpt>
      <trkpt lat="45.8726" lon="3.67574">
        <ele>601.44</ele>
        <time>2013-12-08T06:14:18Z</time>
      </trkpt>
      <trkpt lat="45.87244" lon="3.67532">
        <ele>601.92</ele>
        <time>2013-12-08T06:14:37Z</time>
      </trkpt>
      <trkpt lat="45.87236" lon="3.67502">
        <ele>601.92</ele>
        <time>2013-12-08T06:14:51Z</time>
      </trkpt>
      <trkpt lat="45.87228" lon="3.6747">
        <ele>602.4</ele>
        <time>2013-12-08T06:15:05Z</time>
      </trkpt>
      <trkpt lat="45.87223" lon="3.67439">
        <ele>602.88</ele>
        <time>2013-12-08T06:15:19Z</time>
      </trkpt>
      <trkpt lat="45.8722" lon="3.67401">
        <ele>602.88</ele>
        <time>2013-12-08T06:15:36Z</time>
      </trkpt>
      <trkpt lat="45.87219" lon="3.67358">
        <ele>603.36</ele>
        <time>2013-12-08T06:15:54Z</time>
      </trkpt>
      <trkpt lat="45.87221" lon="3.67321">
        <ele>603.36</ele>
        <time>2013-12-08T06:16:10Z</time>
      </trkpt>
      <trkpt lat="45.87225" lon="3.67282">
        <ele>603.36</ele>
        <time>2013-12-08T06:16:27Z</time>
      </trkpt>
      <trkpt lat="45.8723" lon="3.67247">
        <ele>603.85</ele>
        <time>2013-12-08T06:16:43Z</time>
      </trkpt>
      <trkpt lat="45.87235" lon="3.67211">
        <ele>603.85</ele>
        <time>2013-12-08T06:16:59Z</time>
      </trkpt>
      <trkpt lat="45.87238" lon="3.67173">
        <ele>603.36</ele>
        <time>2013-12-08T06:17:15Z</time>
      </trkpt>
      <trkpt lat="45.87239" lon="3.67139">
        <ele>602.88</ele>
        <time>2013-12-08T06:17:30Z</time>
      </trkpt>
      <trkpt lat="45.87238" lon="3.671">
        <ele>602.4</ele>
        <time>2013-12-08T06:17:46Z</time>
      </trkpt>
      <trkpt lat="45.87236" lon="3.67069">
        <ele>601.92</ele>
        <time>2013-12-08T06:17:59Z</time>
      </trkpt>
      <trkpt lat="45.87233" lon="3.67031">
        <ele>601.44</ele>
        <time>2013-12-08T06:18:15Z</time>
      </trkpt>
      <trkpt lat="45.8723" lon="3.66997">
        <ele>600.48</ele>
        <time>2013-12-08T06:18:30Z</time>
      </trkpt>
      <trkpt lat="45.87226" lon="3.66961">
        <ele>600</ele>
        <time>2013-12-08T06:18:45Z</time>
      </trkpt>
      <trkpt lat="45.87222" lon="3.66923">
        <ele>599.04</ele>
        <time>2013-12-08T06:19:01Z</time>
      </trkpt>
      <trkpt lat="45.8722" lon="3.66905">
        <ele>598.56</ele>
        <time>2013-12-08T06:19:09Z</time>
      </trkpt>
      <trkpt lat="45.87219" lon="3.66893">
        <ele>598.56</ele>
        <time>2013-12-08T06:19:15Z</time>
      </trkpt>
      <trkpt lat="45.87214" lon="3.66856">
        <ele>597.6</ele>
        <time>2013-12-08T06:19:31Z</time>
      </trkpt>
      <trkpt lat="45.87212" lon="3.66845">
        <ele>597.6</ele>
        <time>2013-12-08T06:19:36Z</time>
      </trkpt>
      <trkpt lat="45.8721" lon="3.66819">
        <ele>597.12</ele>
        <time>2013-12-08T06:19:47Z</time>
      </trkpt>
      <trkpt lat="45.87204" lon="3.66776">
        <ele>596.15</ele>
        <time>2013-12-08T06:20:05Z</time>
      </trkpt>
      <trkpt lat="45.87199" lon="3.66739">
        <ele>595.67</ele>
        <time>2013-12-08T06:20:20Z</time>
      </trkpt>
      <trkpt lat="45.87199" lon="3.66736">
        <ele>595.67</ele>
        <time>2013-12-08T06:20:21Z</time>
      </trkpt>
      <trkpt lat="45.87198" lon="3.66723">
        <ele>595.67</ele>
        <time>2013-12-08T06:20:27Z</time>
      </trkpt>
      <trkpt lat="45.87195" lon="3.66686">
        <ele>595.67</ele>
        <time>2013-12-08T06:20:43Z</time>
      </trkpt>
      <trkpt lat="45.87191" lon="3.66645">
        <ele>596.15</ele>
        <time>2013-12-08T06:21:00Z</time>
      </trkpt>
      <trkpt lat="45.87187" lon="3.66614">
        <ele>596.64</ele>
        <time>2013-12-08T06:21:14Z</time>
      </trkpt>
      <trkpt lat="45.87183" lon="3.66582">
        <ele>597.6</ele>
        <time>2013-12-08T06:21:28Z</time>
      </trkpt>
      <trkpt lat="45.87182" lon="3.66547">
        <ele>598.56</ele>
        <time>2013-12-08T06:21:44Z</time>
      </trkpt>
      <trkpt lat="45.87177" lon="3.66511">
        <ele>599.04</ele>
        <time>2013-12-08T06:22:00Z</time>
      </trkpt>
      <trkpt lat="45.87175" lon="3.6647">
        <ele>600</ele>
        <time>2013-12-08T06:22:18Z</time>
      </trkpt>
      <trkpt lat="45.87176" lon="3.66433">
        <ele>600</ele>
        <time>2013-12-08T06:22:34Z</time>
      </trkpt>
      <trkpt lat="45.87177" lon="3.66424">
        <ele>600</ele>
        <time>2013-12-08T06:22:38Z</time>
      </trkpt>
      <trkpt lat="45.87178" lon="3.66398">
        <ele>600.48</ele>
        <time>2013-12-08T06:22:49Z</time>
      </trkpt>
      <trkpt lat="45.87177" lon="3.66392">
        <ele>600.48</ele>
        <time>2013-12-08T06:22:52Z</time>
      </trkpt>
      <trkpt lat="45.87177" lon="3.66375">
        <ele>600</ele>
        <time>2013-12-08T06:23:00Z</time>
      </trkpt>
      <trkpt lat="45.87175" lon="3.66339">
        <ele>600</ele>
        <time>2013-12-08T06:23:16Z</time>
      </trkpt>
      <trkpt lat="45.87169" lon="3.66299">
        <ele>600</ele>
        <time>2013-12-08T06:23:33Z</time>
      </trkpt>
      <trkpt lat="45.87162" lon="3.66269">
        <ele>600</ele>
        <time>2013-12-08T06:23:46Z</time>
      </trkpt>
      <trkpt lat="45.87158" lon="3.66237">
        <ele>600</ele>
        <time>2013-12-08T06:24:00Z</time>
      </trkpt>
      <trkpt lat="45.87152" lon="3.66204">
        <ele>599.52</ele>
        <time>2013-12-08T06:24:14Z</time>
      </trkpt>
      <trkpt lat="45.87147" lon="3.66167">
        <ele>599.52</ele>
        <time>2013-12-08T06:24:30Z</time>
      </trkpt>
      <trkpt lat="45.87141" lon="3.66134">
        <ele>599.52</ele>
        <time>2013-12-08T06:24:45Z</time>
      </trkpt>
      <trkpt lat="45.87136" lon="3.66108">
        <ele>599.52</ele>
        <time>2013-12-08T06:24:57Z</time>
      </trkpt>
      <trkpt lat="45.87132" lon="3.66076">
        <ele>599.52</ele>
        <time>2013-12-08T06:25:12Z</time>
      </trkpt>
      <trkpt lat="45.87128" lon="3.66059">
        <ele>599.52</ele>
        <time>2013-12-08T06:25:19Z</time>
      </trkpt>
      <trkpt lat="45.87122" lon="3.6603">
        <ele>599.04</ele>
        <time>2013-12-08T06:25:32Z</time>
      </trkpt>
      <trkpt lat="45.87122" lon="3.66023">
        <ele>599.04</ele>
        <time>2013-12-08T06:25:35Z</time>
      </trkpt>
      <trkpt lat="45.87122" lon="3.66004">
        <ele>599.04</ele>
        <time>2013-12-08T06:25:42Z</time>
      </trkpt>
      <trkpt lat="45.87123" lon="3.65993">
        <ele>598.56</ele>
        <time>2013-12-08T06:25:47Z</time>
      </trkpt>
      <trkpt lat="45.87129" lon="3.65953">
        <ele>597.12</ele>
        <time>2013-12-08T06:26:04Z</time>
      </trkpt>
      <trkpt lat="45.87133" lon="3.65922">
        <ele>597.6</ele>
        <time>2013-12-08T06:26:17Z</time>
      </trkpt>
      <trkpt lat="45.87134" lon="3.65892">
        <ele>596.15</ele>
        <time>2013-12-08T06:26:31Z</time>
      </trkpt>
      <trkpt lat="45.87136" lon="3.65882">
        <ele>596.15</ele>
        <time>2013-12-08T06:26:35Z</time>
      </trkpt>
      <trkpt lat="45.87136" lon="3.65844">
        <ele>595.19</ele>
        <time>2013-12-08T06:26:50Z</time>
      </trkpt>
      <trkpt lat="45.87131" lon="3.65816">
        <ele>594.71</ele>
        <time>2013-12-08T06:27:02Z</time>
      </trkpt>
      <trkpt lat="45.87124" lon="3.65786">
        <ele>594.23</ele>
        <time>2013-12-08T06:27:16Z</time>
      </trkpt>
      <trkpt lat="45.87116" lon="3.65754">
        <ele>593.75</ele>
        <time>2013-12-08T06:27:31Z</time>
      </trkpt>
      <trkpt lat="45.87111" lon="3.65721">
        <ele>593.75</ele>
        <time>2013-12-08T06:27:45Z</time>
      </trkpt>
      <trkpt lat="45.87107" lon="3.65685">
        <ele>593.75</ele>
        <time>2013-12-08T06:28:00Z</time>
      </trkpt>
      <trkpt lat="45.8711" lon="3.65659">
        <ele>594.71</ele>
        <time>2013-12-08T06:28:13Z</time>
      </trkpt>
      <trkpt lat="45.87114" lon="3.65639">
        <ele>596.15</ele>
        <time>2013-12-08T06:28:22Z</time>
      </trkpt>
      <trkpt lat="45.87122" lon="3.65605">
        <ele>598.56</ele>
        <time>2013-12-08T06:28:37Z</time>
      </trkpt>
      <trkpt lat="45.87128" lon="3.65582">
        <ele>601.92</ele>
        <time>2013-12-08T06:28:49Z</time>
      </trkpt>
      <trkpt lat="45.87134" lon="3.65556">
        <ele>604.81</ele>
        <time>2013-12-08T06:29:03Z</time>
      </trkpt>
      <trkpt lat="45.87145" lon="3.65525">
        <ele>606.25</ele>
        <time>2013-12-08T06:29:18Z</time>
      </trkpt>
      <trkpt lat="45.87153" lon="3.65504">
        <ele>606.73</ele>
        <time>2013-12-08T06:29:28Z</time>
      </trkpt>
      <trkpt lat="45.87169" lon="3.6548">
        <ele>608.17</ele>
        <time>2013-12-08T06:29:42Z</time>
      </trkpt>
      <trkpt lat="45.87191" lon="3.65458">
        <ele>609.61</ele>
        <time>2013-12-08T06:29:59Z</time>
      </trkpt>
      <trkpt lat="45.87209" lon="3.65441">
        <ele>611.54</ele>
        <time>2013-12-08T06:30:13Z</time>
      </trkpt>
      <trkpt lat="45.87226" lon="3.65416">
        <ele>613.46</ele>
        <time>2013-12-08T06:30:29Z</time>
      </trkpt>
      <trkpt lat="45.87231" lon="3.65387">
        <ele>614.42</ele>
        <time>2013-12-08T06:30:44Z</time>
      </trkpt>
      <trkpt lat="45.8723" lon="3.65356">
        <ele>614.42</ele>
        <time>2013-12-08T06:30:57Z</time>
      </trkpt>
      <trkpt lat="45.87232" lon="3.65323">
        <ele>614.42</ele>
        <time>2013-12-08T06:31:12Z</time>
      </trkpt>
      <trkpt lat="45.87231" lon="3.65302">
        <ele>614.42</ele>
        <time>2013-12-08T06:31:22Z</time>
      </trkpt>
      <trkpt lat="45.87234" lon="3.65291">
        <ele>613.94</ele>
        <time>2013-12-08T06:31:27Z</time>
      </trkpt>
      <trkpt lat="45.87247" lon="3.65265">
        <ele>612.98</ele>
        <time>2013-12-08T06:31:42Z</time>
      </trkpt>
      <trkpt lat="45.87252" lon="3.6526">
        <ele>612.5</ele>
        <time>2013-12-08T06:31:46Z</time>
      </trkpt>
      <trkpt lat="45.87273" lon="3.65244">
        <ele>612.5</ele>
        <time>2013-12-08T06:32:01Z</time>
      </trkpt>
      <trkpt lat="45.87298" lon="3.6523">
        <ele>613.46</ele>
        <time>2013-12-08T06:32:20Z</time>
      </trkpt>
      <trkpt lat="45.87324" lon="3.65227">
        <ele>615.38</ele>
        <time>2013-12-08T06:32:34Z</time>
      </trkpt>
      <trkpt lat="45.87337" lon="3.65216">
        <ele>617.3</ele>
        <time>2013-12-08T06:32:46Z</time>
      </trkpt>
      <trkpt lat="45.87361" lon="3.65208">
        <ele>618.75</ele>
        <time>2013-12-08T06:33:03Z</time>
      </trkpt>
      <trkpt lat="45.87364" lon="3.65205">
        <ele>619.23</ele>
        <time>2013-12-08T06:33:06Z</time>
      </trkpt>
      <trkpt lat="45.87367" lon="3.65199">
        <ele>619.23</ele>
        <time>2013-12-08T06:33:10Z</time>
      </trkpt>
      <trkpt lat="45.8737" lon="3.65193">
        <ele>619.23</ele>
        <time>2013-12-08T06:33:13Z</time>
      </trkpt>
      <trkpt lat="45.87369" lon="3.65179">
        <ele>619.23</ele>
        <time>2013-12-08T06:33:20Z</time>
      </trkpt>
      <trkpt lat="45.87365" lon="3.65168">
        <ele>619.23</ele>
        <time>2013-12-08T06:33:26Z</time>
      </trkpt>
      <trkpt lat="45.87355" lon="3.65154">
        <ele>619.23</ele>
        <time>2013-12-08T06:33:37Z</time>
      </trkpt>
      <trkpt lat="45.87343" lon="3.65136">
        <ele>619.71</ele>
        <time>2013-12-08T06:33:49Z</time>
      </trkpt>
      <trkpt lat="45.87327" lon="3.65111">
        <ele>620.67</ele>
        <time>2013-12-08T06:34:04Z</time>
      </trkpt>
      <trkpt lat="45.87318" lon="3.65085">
        <ele>622.59</ele>
        <time>2013-12-08T06:34:19Z</time>
      </trkpt>
      <trkpt lat="45.87307" lon="3.65064">
        <ele>624.99</ele>
        <time>2013-12-08T06:34:34Z</time>
      </trkpt>
      <trkpt lat="45.87301" lon="3.65052">
        <ele>626.92</ele>
        <time>2013-12-08T06:34:41Z</time>
      </trkpt>
      <trkpt lat="45.87297" lon="3.65036">
        <ele>628.84</ele>
        <time>2013-12-08T06:34:49Z</time>
      </trkpt>
      <trkpt lat="45.87295" lon="3.65029">
        <ele>629.32</ele>
        <time>2013-12-08T06:34:53Z</time>
      </trkpt>
      <trkpt lat="45.87293" lon="3.65013">
        <ele>631.24</ele>
        <time>2013-12-08T06:35:01Z</time>
      </trkpt>
      <trkpt lat="45.87294" lon="3.64977">
        <ele>634.13</ele>
        <time>2013-12-08T06:35:16Z</time>
      </trkpt>
      <trkpt lat="45.87295" lon="3.64969">
        <ele>635.09</ele>
        <time>2013-12-08T06:35:20Z</time>
      </trkpt>
      <trkpt lat="45.87296" lon="3.64964">
        <ele>635.57</ele>
        <time>2013-12-08T06:35:22Z</time>
      </trkpt>
      <trkpt lat="45.87296" lon="3.64956">
        <ele>636.05</ele>
        <time>2013-12-08T06:35:26Z</time>
      </trkpt>
      <trkpt lat="45.87295" lon="3.64944">
        <ele>637.01</ele>
        <time>2013-12-08T06:35:31Z</time>
      </trkpt>
      <trkpt lat="45.87302" lon="3.64905">
        <ele>639.89</ele>
        <time>2013-12-08T06:35:50Z</time>
      </trkpt>
      <trkpt lat="45.87302" lon="3.64898">
        <ele>640.86</ele>
        <time>2013-12-08T06:35:54Z</time>
      </trkpt>
      <trkpt lat="45.87303" lon="3.64876">
        <ele>642.3</ele>
        <time>2013-12-08T06:36:05Z</time>
      </trkpt>
      <trkpt lat="45.87305" lon="3.6487">
        <ele>642.78</ele>
        <time>2013-12-08T06:36:08Z</time>
      </trkpt>
      <trkpt lat="45.87311" lon="3.64852">
        <ele>644.22</ele>
        <time>2013-12-08T06:36:17Z</time>
      </trkpt>
      <trkpt lat="45.87325" lon="3.64826">
        <ele>645.66</ele>
        <time>2013-12-08T06:36:33Z</time>
      </trkpt>
      <trkpt lat="45.87336" lon="3.64814">
        <ele>646.14</ele>
        <time>2013-12-08T06:36:43Z</time>
      </trkpt>
      <trkpt lat="45.87346" lon="3.64801">
        <ele>647.1</ele>
        <time>2013-12-08T06:36:52Z</time>
      </trkpt>
      <trkpt lat="45.87359" lon="3.64778">
        <ele>647.1</ele>
        <time>2013-12-08T06:37:06Z</time>
      </trkpt>
      <trkpt lat="45.87366" lon="3.64751">
        <ele>646.62</ele>
        <time>2013-12-08T06:37:19Z</time>
      </trkpt>
      <trkpt lat="45.87368" lon="3.64749">
        <ele>646.62</ele>
        <time>2013-12-08T06:37:20Z</time>
      </trkpt>
      <trkpt lat="45.87376" lon="3.64734">
        <ele>646.62</ele>
        <time>2013-12-08T06:37:28Z</time>
      </trkpt>
      <trkpt lat="45.87378" lon="3.6472">
        <ele>646.62</ele>
        <time>2013-12-08T06:37:35Z</time>
      </trkpt>
      <trkpt lat="45.87382" lon="3.647">
        <ele>647.1</ele>
        <time>2013-12-08T06:37:44Z</time>
      </trkpt>
      <trkpt lat="45.87387" lon="3.64669">
        <ele>648.07</ele>
        <time>2013-12-08T06:37:58Z</time>
      </trkpt>
      <trkpt lat="45.87394" lon="3.64642">
        <ele>649.03</ele>
        <time>2013-12-08T06:38:10Z</time>
      </trkpt>
      <trkpt lat="45.87396" lon="3.64635">
        <ele>649.03</ele>
        <time>2013-12-08T06:38:13Z</time>
      </trkpt>
      <trkpt lat="45.87397" lon="3.64629">
        <ele>649.03</ele>
        <time>2013-12-08T06:38:16Z</time>
      </trkpt>
      <trkpt lat="45.87406" lon="3.64596">
        <ele>649.51</ele>
        <time>2013-12-08T06:38:29Z</time>
      </trkpt>
      <trkpt lat="45.87421" lon="3.64588">
        <ele>649.99</ele>
        <time>2013-12-08T06:38:37Z</time>
      </trkpt>
      <trkpt lat="45.87429" lon="3.64564">
        <ele>650.47</ele>
        <time>2013-12-08T06:38:52Z</time>
      </trkpt>
      <trkpt lat="45.87433" lon="3.64549">
        <ele>651.91</ele>
        <time>2013-12-08T06:39:01Z</time>
      </trkpt>
      <trkpt lat="45.87434" lon="3.64544">
        <ele>651.91</ele>
        <time>2013-12-08T06:39:04Z</time>
      </trkpt>
      <trkpt lat="45.8743" lon="3.64516">
        <ele>654.31</ele>
        <time>2013-12-08T06:39:20Z</time>
      </trkpt>
      <trkpt lat="45.87429" lon="3.64507">
        <ele>655.28</ele>
        <time>2013-12-08T06:39:26Z</time>
      </trkpt>
      <trkpt lat="45.87426" lon="3.64478">
        <ele>656.24</ele>
        <time>2013-12-08T06:39:34Z</time>
      </trkpt>
      <trkpt lat="45.87432" lon="3.64434">
        <ele>656.72</ele>
        <time>2013-12-08T06:39:48Z</time>
      </trkpt>
      <trkpt lat="45.87434" lon="3.64396">
        <ele>658.16</ele>
        <time>2013-12-08T06:40:03Z</time>
      </trkpt>
      <trkpt lat="45.87437" lon="3.64362">
        <ele>660.56</ele>
        <time>2013-12-08T06:40:18Z</time>
      </trkpt>
      <trkpt lat="45.87439" lon="3.64344">
        <ele>660.56</ele>
        <time>2013-12-08T06:40:26Z</time>
      </trkpt>
      <trkpt lat="45.87442" lon="3.64323">
        <ele>661.52</ele>
        <time>2013-12-08T06:40:36Z</time>
      </trkpt>
      <trkpt lat="45.87447" lon="3.64289">
        <ele>662.49</ele>
        <time>2013-12-08T06:40:51Z</time>
      </trkpt>
      <trkpt lat="45.87449" lon="3.64277">
        <ele>658.16</ele>
        <time>2013-12-08T06:40:55Z</time>
      </trkpt>
      <trkpt lat="45.8745" lon="3.64275">
        <ele>663.93</ele>
        <time>2013-12-08T06:40:56Z</time>
      </trkpt>
      <trkpt lat="45.87452" lon="3.64272">
        <ele>661.04</ele>
        <time>2013-12-08T06:40:58Z</time>
      </trkpt>
      <trkpt lat="45.87458" lon="3.64242">
        <ele>660.08</ele>
        <time>2013-12-08T06:41:11Z</time>
      </trkpt>
      <trkpt lat="45.87463" lon="3.64217">
        <ele>657.68</ele>
        <time>2013-12-08T06:41:24Z</time>
      </trkpt>
      <trkpt lat="45.8747" lon="3.64186">
        <ele>656.24</ele>
        <time>2013-12-08T06:41:38Z</time>
      </trkpt>
      <trkpt lat="45.87477" lon="3.64159">
        <ele>654.31</ele>
        <time>2013-12-08T06:41:50Z</time>
      </trkpt>
      <trkpt lat="45.87486" lon="3.64136">
        <ele>652.39</ele>
        <time>2013-12-08T06:42:01Z</time>
      </trkpt>
      <trkpt lat="45.87491" lon="3.64127">
        <ele>650.95</ele>
        <time>2013-12-08T06:42:07Z</time>
      </trkpt>
      <trkpt lat="45.87494" lon="3.6412">
        <ele>649.99</ele>
        <time>2013-12-08T06:42:11Z</time>
      </trkpt>
      <trkpt lat="45.87502" lon="3.64105">
        <ele>647.1</ele>
        <time>2013-12-08T06:42:21Z</time>
      </trkpt>
      <trkpt lat="45.87515" lon="3.64091">
        <ele>643.74</ele>
        <time>2013-12-08T06:42:32Z</time>
      </trkpt>
      <trkpt lat="45.87526" lon="3.64055">
        <ele>642.3</ele>
        <time>2013-12-08T06:42:45Z</time>
      </trkpt>
      <trkpt lat="45.87542" lon="3.64026">
        <ele>643.74</ele>
        <time>2013-12-08T06:43:03Z</time>
      </trkpt>
      <trkpt lat="45.87545" lon="3.6402">
        <ele>644.22</ele>
        <time>2013-12-08T06:43:07Z</time>
      </trkpt>
      <trkpt lat="45.87556" lon="3.63995">
        <ele>646.62</ele>
        <time>2013-12-08T06:43:21Z</time>
      </trkpt>
      <trkpt lat="45.8757" lon="3.63978">
        <ele>647.59</ele>
        <time>2013-12-08T06:43:29Z</time>
      </trkpt>
      <trkpt lat="45.87593" lon="3.63966">
        <ele>648.55</ele>
        <time>2013-12-08T06:43:38Z</time>
      </trkpt>
      <trkpt lat="45.87599" lon="3.6396">
        <ele>649.51</ele>
        <time>2013-12-08T06:43:43Z</time>
      </trkpt>
      <trkpt lat="45.87614" lon="3.63949">
        <ele>649.99</ele>
        <time>2013-12-08T06:43:53Z</time>
      </trkpt>
      <trkpt lat="45.8762" lon="3.63942">
        <ele>650.47</ele>
        <time>2013-12-08T06:44:00Z</time>
      </trkpt>
      <trkpt lat="45.87624" lon="3.63938">
        <ele>649.99</ele>
        <time>2013-12-08T06:44:04Z</time>
      </trkpt>
      <trkpt lat="45.87627" lon="3.63937">
        <ele>649.51</ele>
        <time>2013-12-08T06:44:07Z</time>
      </trkpt>
      <trkpt lat="45.8764" lon="3.63929">
        <ele>648.55</ele>
        <time>2013-12-08T06:44:18Z</time>
      </trkpt>
      <trkpt lat="45.87651" lon="3.63922">
        <ele>647.1</ele>
        <time>2013-12-08T06:44:26Z</time>
      </trkpt>
      <trkpt lat="45.87661" lon="3.63915">
        <ele>646.62</ele>
        <time>2013-12-08T06:44:34Z</time>
      </trkpt>
      <trkpt lat="45.87679" lon="3.63904">
        <ele>645.66</ele>
        <time>2013-12-08T06:44:46Z</time>
      </trkpt>
      <trkpt lat="45.87692" lon="3.63892">
        <ele>645.66</ele>
        <time>2013-12-08T06:44:57Z</time>
      </trkpt>
      <trkpt lat="45.87704" lon="3.63871">
        <ele>645.66</ele>
        <time>2013-12-08T06:45:09Z</time>
      </trkpt>
      <trkpt lat="45.87718" lon="3.63873">
        <ele>646.14</ele>
        <time>2013-12-08T06:45:15Z</time>
      </trkpt>
      <trkpt lat="45.87722" lon="3.63855">
        <ele>646.62</ele>
        <time>2013-12-08T06:45:24Z</time>
      </trkpt>
      <trkpt lat="45.87723" lon="3.63839">
        <ele>647.1</ele>
        <time>2013-12-08T06:45:31Z</time>
      </trkpt>
      <trkpt lat="45.87724" lon="3.63795">
        <ele>648.07</ele>
        <time>2013-12-08T06:45:46Z</time>
      </trkpt>
      <trkpt lat="45.87733" lon="3.63769">
        <ele>649.51</ele>
        <time>2013-12-08T06:45:59Z</time>
      </trkpt>
      <trkpt lat="45.87751" lon="3.63746">
        <ele>650.95</ele>
        <time>2013-12-08T06:46:15Z</time>
      </trkpt>
      <trkpt lat="45.87754" lon="3.63744">
        <ele>651.43</ele>
        <time>2013-12-08T06:46:17Z</time>
      </trkpt>
      <trkpt lat="45.87762" lon="3.63735">
        <ele>651.91</ele>
        <time>2013-12-08T06:46:24Z</time>
      </trkpt>
      <trkpt lat="45.87765" lon="3.63733">
        <ele>651.91</ele>
        <time>2013-12-08T06:46:26Z</time>
      </trkpt>
      <trkpt lat="45.87778" lon="3.63715">
        <ele>651.43</ele>
        <time>2013-12-08T06:46:38Z</time>
      </trkpt>
      <trkpt lat="45.87788" lon="3.63698">
        <ele>650.47</ele>
        <time>2013-12-08T06:46:48Z</time>
      </trkpt>
      <trkpt lat="45.87797" lon="3.63684">
        <ele>649.51</ele>
        <time>2013-12-08T06:46:57Z</time>
      </trkpt>
      <trkpt lat="45.87804" lon="3.63671">
        <ele>648.07</ele>
        <time>2013-12-08T06:47:05Z</time>
      </trkpt>
      <trkpt lat="45.87807" lon="3.63665">
        <ele>647.59</ele>
        <time>2013-12-08T06:47:09Z</time>
      </trkpt>
      <trkpt lat="45.87823" lon="3.6364">
        <ele>644.7</ele>
        <time>2013-12-08T06:47:24Z</time>
      </trkpt>
      <trkpt lat="45.87832" lon="3.63628">
        <ele>643.74</ele>
        <time>2013-12-08T06:47:32Z</time>
      </trkpt>
      <trkpt lat="45.87846" lon="3.63615">
        <ele>643.26</ele>
        <time>2013-12-08T06:47:42Z</time>
      </trkpt>
      <trkpt lat="45.87861" lon="3.636">
        <ele>642.3</ele>
        <time>2013-12-08T06:47:53Z</time>
      </trkpt>
      <trkpt lat="45.87868" lon="3.63588">
        <ele>641.34</ele>
        <time>2013-12-08T06:48:00Z</time>
      </trkpt>
      <trkpt lat="45.87875" lon="3.63572">
        <ele>640.38</ele>
        <time>2013-12-08T06:48:08Z</time>
      </trkpt>
      <trkpt lat="45.87877" lon="3.63565">
        <ele>639.89</ele>
        <time>2013-12-08T06:48:12Z</time>
      </trkpt>
      <trkpt lat="45.87884" lon="3.63536">
        <ele>637.97</ele>
        <time>2013-12-08T06:48:26Z</time>
      </trkpt>
      <trkpt lat="45.87888" lon="3.63529">
        <ele>637.49</ele>
        <time>2013-12-08T06:48:31Z</time>
      </trkpt>
      <trkpt lat="45.87889" lon="3.63511">
        <ele>636.53</ele>
        <time>2013-12-08T06:48:38Z</time>
      </trkpt>
      <trkpt lat="45.87893" lon="3.63479">
        <ele>633.65</ele>
        <time>2013-12-08T06:48:51Z</time>
      </trkpt>
      <trkpt lat="45.87893" lon="3.63471">
        <ele>633.17</ele>
        <time>2013-12-08T06:48:54Z</time>
      </trkpt>
      <trkpt lat="45.87895" lon="3.63469">
        <ele>632.68</ele>
        <time>2013-12-08T06:48:56Z</time>
      </trkpt>
      <trkpt lat="45.87897" lon="3.63446">
        <ele>630.76</ele>
        <time>2013-12-08T06:49:08Z</time>
      </trkpt>
      <trkpt lat="45.87902" lon="3.63422">
        <ele>629.32</ele>
        <time>2013-12-08T06:49:19Z</time>
      </trkpt>
      <trkpt lat="45.87909" lon="3.63397">
        <ele>628.36</ele>
        <time>2013-12-08T06:49:31Z</time>
      </trkpt>
      <trkpt lat="45.8791" lon="3.6339">
        <ele>628.36</ele>
        <time>2013-12-08T06:49:35Z</time>
      </trkpt>
      <trkpt lat="45.87918" lon="3.63357">
        <ele>627.4</ele>
        <time>2013-12-08T06:49:49Z</time>
      </trkpt>
      <trkpt lat="45.87919" lon="3.63353">
        <ele>627.4</ele>
        <time>2013-12-08T06:49:51Z</time>
      </trkpt>
      <trkpt lat="45.87922" lon="3.63326">
        <ele>626.92</ele>
        <time>2013-12-08T06:50:03Z</time>
      </trkpt>
      <trkpt lat="45.87928" lon="3.63294">
        <ele>626.44</ele>
        <time>2013-12-08T06:50:17Z</time>
      </trkpt>
      <trkpt lat="45.87929" lon="3.63283">
        <ele>626.44</ele>
        <time>2013-12-08T06:50:22Z</time>
      </trkpt>
      <trkpt lat="45.87932" lon="3.63269">
        <ele>626.44</ele>
        <time>2013-12-08T06:50:28Z</time>
      </trkpt>
      <trkpt lat="45.87933" lon="3.63256">
        <ele>626.92</ele>
        <time>2013-12-08T06:50:34Z</time>
      </trkpt>
      <trkpt lat="45.87933" lon="3.6322">
        <ele>626.92</ele>
        <time>2013-12-08T06:50:48Z</time>
      </trkpt>
      <trkpt lat="45.87932" lon="3.6321">
        <ele>626.92</ele>
        <time>2013-12-08T06:50:52Z</time>
      </trkpt>
      <trkpt lat="45.8793" lon="3.632">
        <ele>626.92</ele>
        <time>2013-12-08T06:50:56Z</time>
      </trkpt>
      <trkpt lat="45.87928" lon="3.63173">
        <ele>627.88</ele>
        <time>2013-12-08T06:51:08Z</time>
      </trkpt>
      <trkpt lat="45.87928" lon="3.63171">
        <ele>627.88</ele>
        <time>2013-12-08T06:51:09Z</time>
      </trkpt>
      <trkpt lat="45.87928" lon="3.6316">
        <ele>628.36</ele>
        <time>2013-12-08T06:51:15Z</time>
      </trkpt>
      <trkpt lat="45.87916" lon="3.63127">
        <ele>626.92</ele>
        <time>2013-12-08T06:51:31Z</time>
      </trkpt>
      <trkpt lat="45.87913" lon="3.63122">
        <ele>628.36</ele>
        <time>2013-12-08T06:51:33Z</time>
      </trkpt>
      <trkpt lat="45.87898" lon="3.63096">
        <ele>626.44</ele>
        <time>2013-12-08T06:51:52Z</time>
      </trkpt>
      <trkpt lat="45.87876" lon="3.63032">
        <ele>626.44</ele>
        <time>2013-12-08T06:52:19Z</time>
      </trkpt>
      <trkpt lat="45.87873" lon="3.63028">
        <ele>625.96</ele>
        <time>2013-12-08T06:52:22Z</time>
      </trkpt>
      <trkpt lat="45.8786" lon="3.63011">
        <ele>625.47</ele>
        <time>2013-12-08T06:52:35Z</time>
      </trkpt>
      <trkpt lat="45.87852" lon="3.62987">
        <ele>624.03</ele>
        <time>2013-12-08T06:52:49Z</time>
      </trkpt>
      <trkpt lat="45.87838" lon="3.62949">
        <ele>622.11</ele>
        <time>2013-12-08T06:53:02Z</time>
      </trkpt>
      <trkpt lat="45.87835" lon="3.62923">
        <ele>621.15</ele>
        <time>2013-12-08T06:53:13Z</time>
      </trkpt>
      <trkpt lat="45.87832" lon="3.62895">
        <ele>619.71</ele>
        <time>2013-12-08T06:53:25Z</time>
      </trkpt>
      <trkpt lat="45.87829" lon="3.62865">
        <ele>618.75</ele>
        <time>2013-12-08T06:53:38Z</time>
      </trkpt>
      <trkpt lat="45.87829" lon="3.62838">
        <ele>617.78</ele>
        <time>2013-12-08T06:53:50Z</time>
      </trkpt>
      <trkpt lat="45.87838" lon="3.62813">
        <ele>616.34</ele>
        <time>2013-12-08T06:54:03Z</time>
      </trkpt>
      <trkpt lat="45.87836" lon="3.62783">
        <ele>615.86</ele>
        <time>2013-12-08T06:54:17Z</time>
      </trkpt>
      <trkpt lat="45.87839" lon="3.62743">
        <ele>614.9</ele>
        <time>2013-12-08T06:54:34Z</time>
      </trkpt>
      <trkpt lat="45.87839" lon="3.62737">
        <ele>614.9</ele>
        <time>2013-12-08T06:54:37Z</time>
      </trkpt>
      <trkpt lat="45.87841" lon="3.62728">
        <ele>614.42</ele>
        <time>2013-12-08T06:54:41Z</time>
      </trkpt>
      <trkpt lat="45.87841" lon="3.62718">
        <ele>614.42</ele>
        <time>2013-12-08T06:54:45Z</time>
      </trkpt>
      <trkpt lat="45.87839" lon="3.62705">
        <ele>613.94</ele>
        <time>2013-12-08T06:54:51Z</time>
      </trkpt>
      <trkpt lat="45.87822" lon="3.62679">
        <ele>614.42</ele>
        <time>2013-12-08T06:55:06Z</time>
      </trkpt>
      <trkpt lat="45.87808" lon="3.62664">
        <ele>615.38</ele>
        <time>2013-12-08T06:55:19Z</time>
      </trkpt>
      <trkpt lat="45.87803" lon="3.62659">
        <ele>616.34</ele>
        <time>2013-12-08T06:55:23Z</time>
      </trkpt>
      <trkpt lat="45.87797" lon="3.62652">
        <ele>617.3</ele>
        <time>2013-12-08T06:55:31Z</time>
      </trkpt>
      <trkpt lat="45.8778" lon="3.62631">
        <ele>618.75</ele>
        <time>2013-12-08T06:55:45Z</time>
      </trkpt>
      <trkpt lat="45.87763" lon="3.62602">
        <ele>619.23</ele>
        <time>2013-12-08T06:56:01Z</time>
      </trkpt>
      <trkpt lat="45.87761" lon="3.62599">
        <ele>618.75</ele>
        <time>2013-12-08T06:56:03Z</time>
      </trkpt>
      <trkpt lat="45.87757" lon="3.62593">
        <ele>618.75</ele>
        <time>2013-12-08T06:56:07Z</time>
      </trkpt>
      <trkpt lat="45.87753" lon="3.62589">
        <ele>617.78</ele>
        <time>2013-12-08T06:56:10Z</time>
      </trkpt>
      <trkpt lat="45.87752" lon="3.62585">
        <ele>621.15</ele>
        <time>2013-12-08T06:56:12Z</time>
      </trkpt>
      <trkpt lat="45.87751" lon="3.62582">
        <ele>619.23</ele>
        <time>2013-12-08T06:56:13Z</time>
      </trkpt>
      <trkpt lat="45.8775" lon="3.6258">
        <ele>618.75</ele>
        <time>2013-12-08T06:56:14Z</time>
      </trkpt>
      <trkpt lat="45.87744" lon="3.62551">
        <ele>619.23</ele>
        <time>2013-12-08T06:56:28Z</time>
      </trkpt>
      <trkpt lat="45.87743" lon="3.62545">
        <ele>621.15</ele>
        <time>2013-12-08T06:56:31Z</time>
      </trkpt>
      <trkpt lat="45.87743" lon="3.62543">
        <ele>620.19</ele>
        <time>2013-12-08T06:56:32Z</time>
      </trkpt>
      <trkpt lat="45.87741" lon="3.62516">
        <ele>619.23</ele>
        <time>2013-12-08T06:56:44Z</time>
      </trkpt>
      <trkpt lat="45.87741" lon="3.62505">
        <ele>619.23</ele>
        <time>2013-12-08T06:56:49Z</time>
      </trkpt>
      <trkpt lat="45.87745" lon="3.62475">
        <ele>618.75</ele>
        <time>2013-12-08T06:57:03Z</time>
      </trkpt>
      <trkpt lat="45.87746" lon="3.62467">
        <ele>619.71</ele>
        <time>2013-12-08T06:57:07Z</time>
      </trkpt>
      <trkpt lat="45.87752" lon="3.62456">
        <ele>620.19</ele>
        <time>2013-12-08T06:57:14Z</time>
      </trkpt>
      <trkpt lat="45.87761" lon="3.62427">
        <ele>620.19</ele>
        <time>2013-12-08T06:57:29Z</time>
      </trkpt>
      <trkpt lat="45.87771" lon="3.62398">
        <ele>620.67</ele>
        <time>2013-12-08T06:57:43Z</time>
      </trkpt>
      <trkpt lat="45.8778" lon="3.62369">
        <ele>621.15</ele>
        <time>2013-12-08T06:57:58Z</time>
      </trkpt>
      <trkpt lat="45.87793" lon="3.62339">
        <ele>621.63</ele>
        <time>2013-12-08T06:58:13Z</time>
      </trkpt>
      <trkpt lat="45.87808" lon="3.62313">
        <ele>621.63</ele>
        <time>2013-12-08T06:58:28Z</time>
      </trkpt>
      <trkpt lat="45.87823" lon="3.62294">
        <ele>622.11</ele>
        <time>2013-12-08T06:58:41Z</time>
      </trkpt>
      <trkpt lat="45.87839" lon="3.62278">
        <ele>622.59</ele>
        <time>2013-12-08T06:58:54Z</time>
      </trkpt>
      <trkpt lat="45.87857" lon="3.62261">
        <ele>623.07</ele>
        <time>2013-12-08T06:59:08Z</time>
      </trkpt>
      <trkpt lat="45.87872" lon="3.62251">
        <ele>623.55</ele>
        <time>2013-12-08T06:59:19Z</time>
      </trkpt>
      <trkpt lat="45.87877" lon="3.62247">
        <ele>623.55</ele>
        <time>2013-12-08T06:59:23Z</time>
      </trkpt>
      <trkpt lat="45.87893" lon="3.62233">
        <ele>624.03</ele>
        <time>2013-12-08T06:59:36Z</time>
      </trkpt>
      <trkpt lat="45.87907" lon="3.62224">
        <ele>624.51</ele>
        <time>2013-12-08T06:59:46Z</time>
      </trkpt>
      <trkpt lat="45.87924" lon="3.62207">
        <ele>625.47</ele>
        <time>2013-12-08T06:59:58Z</time>
      </trkpt>
      <trkpt lat="45.87925" lon="3.62206">
        <ele>625.47</ele>
        <time>2013-12-08T06:59:59Z</time>
      </trkpt>
      <trkpt lat="45.87929" lon="3.62201">
        <ele>625.47</ele>
        <time>2013-12-08T07:00:03Z</time>
      </trkpt>
      <trkpt lat="45.87941" lon="3.62193">
        <ele>625.96</ele>
        <time>2013-12-08T07:00:11Z</time>
      </trkpt>
      <trkpt lat="45.87951" lon="3.62188">
        <ele>626.44</ele>
        <time>2013-12-08T07:00:17Z</time>
      </trkpt>
      <trkpt lat="45.87964" lon="3.62178">
        <ele>626.92</ele>
        <time>2013-12-08T07:00:27Z</time>
      </trkpt>
      <trkpt lat="45.8797" lon="3.62172">
        <ele>627.4</ele>
        <time>2013-12-08T07:00:32Z</time>
      </trkpt>
      <trkpt lat="45.87989" lon="3.62157">
        <ele>628.36</ele>
        <time>2013-12-08T07:00:46Z</time>
      </trkpt>
      <trkpt lat="45.87999" lon="3.62145">
        <ele>628.84</ele>
        <time>2013-12-08T07:00:55Z</time>
      </trkpt>
      <trkpt lat="45.88014" lon="3.62132">
        <ele>629.8</ele>
        <time>2013-12-08T07:01:07Z</time>
      </trkpt>
      <trkpt lat="45.88028" lon="3.62116">
        <ele>630.28</ele>
        <time>2013-12-08T07:01:19Z</time>
      </trkpt>
      <trkpt lat="45.88032" lon="3.62109">
        <ele>630.76</ele>
        <time>2013-12-08T07:01:23Z</time>
      </trkpt>
      <trkpt lat="45.88037" lon="3.62102">
        <ele>631.24</ele>
        <time>2013-12-08T07:01:28Z</time>
      </trkpt>
      <trkpt lat="45.8805" lon="3.62079">
        <ele>632.2</ele>
        <time>2013-12-08T07:01:42Z</time>
      </trkpt>
      <trkpt lat="45.88065" lon="3.62054">
        <ele>633.65</ele>
        <time>2013-12-08T07:01:56Z</time>
      </trkpt>
      <trkpt lat="45.88077" lon="3.6203">
        <ele>634.61</ele>
        <time>2013-12-08T07:02:09Z</time>
      </trkpt>
      <trkpt lat="45.88089" lon="3.6201">
        <ele>636.05</ele>
        <time>2013-12-08T07:02:22Z</time>
      </trkpt>
      <trkpt lat="45.88105" lon="3.61986">
        <ele>636.05</ele>
        <time>2013-12-08T07:02:37Z</time>
      </trkpt>
      <trkpt lat="45.88112" lon="3.61974">
        <ele>636.05</ele>
        <time>2013-12-08T07:02:44Z</time>
      </trkpt>
      <trkpt lat="45.88126" lon="3.61954">
        <ele>634.13</ele>
        <time>2013-12-08T07:02:57Z</time>
      </trkpt>
      <trkpt lat="45.8813" lon="3.61948">
        <ele>633.65</ele>
        <time>2013-12-08T07:03:01Z</time>
      </trkpt>
      <trkpt lat="45.88134" lon="3.6194">
        <ele>632.68</ele>
        <time>2013-12-08T07:03:05Z</time>
      </trkpt>
      <trkpt lat="45.88138" lon="3.61934">
        <ele>631.72</ele>
        <time>2013-12-08T07:03:09Z</time>
      </trkpt>
      <trkpt lat="45.88148" lon="3.61918">
        <ele>629.8</ele>
        <time>2013-12-08T07:03:18Z</time>
      </trkpt>
      <trkpt lat="45.88156" lon="3.6191">
        <ele>628.84</ele>
        <time>2013-12-08T07:03:24Z</time>
      </trkpt>
      <trkpt lat="45.88163" lon="3.61898">
        <ele>627.4</ele>
        <time>2013-12-08T07:03:31Z</time>
      </trkpt>
      <trkpt lat="45.88167" lon="3.61887">
        <ele>625.96</ele>
        <time>2013-12-08T07:03:36Z</time>
      </trkpt>
      <trkpt lat="45.88178" lon="3.6187">
        <ele>624.03</ele>
        <time>2013-12-08T07:03:46Z</time>
      </trkpt>
      <trkpt lat="45.88181" lon="3.61858">
        <ele>622.59</ele>
        <time>2013-12-08T07:03:52Z</time>
      </trkpt>
      <trkpt lat="45.88186" lon="3.61835">
        <ele>619.23</ele>
        <time>2013-12-08T07:04:04Z</time>
      </trkpt>
      <trkpt lat="45.88186" lon="3.61829">
        <ele>618.75</ele>
        <time>2013-12-08T07:04:07Z</time>
      </trkpt>
      <trkpt lat="45.88185" lon="3.61824">
        <ele>620.67</ele>
        <time>2013-12-08T07:04:09Z</time>
      </trkpt>
      <trkpt lat="45.88185" lon="3.61815">
        <ele>617.78</ele>
        <time>2013-12-08T07:04:13Z</time>
      </trkpt>
      <trkpt lat="45.88183" lon="3.61799">
        <ele>616.34</ele>
        <time>2013-12-08T07:04:20Z</time>
      </trkpt>
      <trkpt lat="45.88181" lon="3.61791">
        <ele>614.9</ele>
        <time>2013-12-08T07:04:24Z</time>
      </trkpt>
      <trkpt lat="45.88179" lon="3.61789">
        <ele>614.42</ele>
        <time>2013-12-08T07:04:26Z</time>
      </trkpt>
      <trkpt lat="45.88178" lon="3.61776">
        <ele>612.98</ele>
        <time>2013-12-08T07:04:31Z</time>
      </trkpt>
      <trkpt lat="45.88179" lon="3.61774">
        <ele>612.98</ele>
        <time>2013-12-08T07:04:32Z</time>
      </trkpt>
      <trkpt lat="45.88179" lon="3.61747">
        <ele>610.09</ele>
        <time>2013-12-08T07:04:44Z</time>
      </trkpt>
      <trkpt lat="45.88181" lon="3.6173">
        <ele>608.65</ele>
        <time>2013-12-08T07:04:51Z</time>
      </trkpt>
      <trkpt lat="45.88181" lon="3.61716">
        <ele>607.69</ele>
        <time>2013-12-08T07:04:58Z</time>
      </trkpt>
      <trkpt lat="45.88183" lon="3.61686">
        <ele>606.25</ele>
        <time>2013-12-08T07:05:09Z</time>
      </trkpt>
      <trkpt lat="45.88184" lon="3.61681">
        <ele>606.25</ele>
        <time>2013-12-08T07:05:11Z</time>
      </trkpt>
      <trkpt lat="45.88188" lon="3.61671">
        <ele>605.29</ele>
        <time>2013-12-08T07:05:16Z</time>
      </trkpt>
      <trkpt lat="45.8819" lon="3.61666">
        <ele>604.33</ele>
        <time>2013-12-08T07:05:19Z</time>
      </trkpt>
      <trkpt lat="45.88192" lon="3.61653">
        <ele>602.88</ele>
        <time>2013-12-08T07:05:25Z</time>
      </trkpt>
      <trkpt lat="45.88191" lon="3.61625">
        <ele>600</ele>
        <time>2013-12-08T07:05:37Z</time>
      </trkpt>
      <trkpt lat="45.88192" lon="3.61617">
        <ele>599.04</ele>
        <time>2013-12-08T07:05:41Z</time>
      </trkpt>
      <trkpt lat="45.88191" lon="3.61613">
        <ele>598.56</ele>
        <time>2013-12-08T07:05:43Z</time>
      </trkpt>
      <trkpt lat="45.88189" lon="3.61602">
        <ele>598.08</ele>
        <time>2013-12-08T07:05:48Z</time>
      </trkpt>
      <trkpt lat="45.88182" lon="3.61581">
        <ele>596.64</ele>
        <time>2013-12-08T07:05:57Z</time>
      </trkpt>
      <trkpt lat="45.88177" lon="3.61571">
        <ele>596.15</ele>
        <time>2013-12-08T07:06:01Z</time>
      </trkpt>
      <trkpt lat="45.8817" lon="3.61554">
        <ele>594.71</ele>
        <time>2013-12-08T07:06:09Z</time>
      </trkpt>
      <trkpt lat="45.88165" lon="3.61539">
        <ele>593.75</ele>
        <time>2013-12-08T07:06:17Z</time>
      </trkpt>
      <trkpt lat="45.8816" lon="3.6153">
        <ele>593.27</ele>
        <time>2013-12-08T07:06:22Z</time>
      </trkpt>
      <trkpt lat="45.88143" lon="3.61508">
        <ele>590.87</ele>
        <time>2013-12-08T07:06:36Z</time>
      </trkpt>
      <trkpt lat="45.88128" lon="3.61499">
        <ele>589.43</ele>
        <time>2013-12-08T07:06:46Z</time>
      </trkpt>
      <trkpt lat="45.88116" lon="3.61495">
        <ele>587.02</ele>
        <time>2013-12-08T07:06:56Z</time>
      </trkpt>
      <trkpt lat="45.88113" lon="3.61494">
        <ele>586.54</ele>
        <time>2013-12-08T07:06:58Z</time>
      </trkpt>
      <trkpt lat="45.88105" lon="3.61488">
        <ele>585.1</ele>
        <time>2013-12-08T07:07:03Z</time>
      </trkpt>
      <trkpt lat="45.881" lon="3.61481">
        <ele>584.14</ele>
        <time>2013-12-08T07:07:08Z</time>
      </trkpt>
      <trkpt lat="45.88094" lon="3.6147">
        <ele>583.18</ele>
        <time>2013-12-08T07:07:15Z</time>
      </trkpt>
      <trkpt lat="45.88095" lon="3.61464">
        <ele>582.22</ele>
        <time>2013-12-08T07:07:19Z</time>
      </trkpt>
      <trkpt lat="45.88094" lon="3.61458">
        <ele>582.22</ele>
        <time>2013-12-08T07:07:22Z</time>
      </trkpt>
      <trkpt lat="45.88095" lon="3.61448">
        <ele>581.73</ele>
        <time>2013-12-08T07:07:26Z</time>
      </trkpt>
      <trkpt lat="45.88102" lon="3.61431">
        <ele>580.77</ele>
        <time>2013-12-08T07:07:37Z</time>
      </trkpt>
      <trkpt lat="45.88103" lon="3.61428">
        <ele>580.77</ele>
        <time>2013-12-08T07:07:38Z</time>
      </trkpt>
      <trkpt lat="45.88105" lon="3.61424">
        <ele>580.77</ele>
        <time>2013-12-08T07:07:40Z</time>
      </trkpt>
      <trkpt lat="45.88109" lon="3.6141">
        <ele>580.77</ele>
        <time>2013-12-08T07:07:46Z</time>
      </trkpt>
      <trkpt lat="45.88113" lon="3.61399">
        <ele>580.77</ele>
        <time>2013-12-08T07:07:51Z</time>
      </trkpt>
      <trkpt lat="45.88114" lon="3.61392">
        <ele>580.77</ele>
        <time>2013-12-08T07:07:54Z</time>
      </trkpt>
      <trkpt lat="45.88119" lon="3.6138">
        <ele>580.77</ele>
        <time>2013-12-08T07:08:01Z</time>
      </trkpt>
      <trkpt lat="45.88121" lon="3.6137">
        <ele>580.77</ele>
        <time>2013-12-08T07:08:06Z</time>
      </trkpt>
      <trkpt lat="45.88119" lon="3.61342">
        <ele>581.73</ele>
        <time>2013-12-08T07:08:19Z</time>
      </trkpt>
      <trkpt lat="45.8811" lon="3.61313">
        <ele>582.7</ele>
        <time>2013-12-08T07:08:33Z</time>
      </trkpt>
      <trkpt lat="45.88107" lon="3.61308">
        <ele>583.18</ele>
        <time>2013-12-08T07:08:36Z</time>
      </trkpt>
      <trkpt lat="45.88103" lon="3.613">
        <ele>583.66</ele>
        <time>2013-12-08T07:08:40Z</time>
      </trkpt>
      <trkpt lat="45.88099" lon="3.61283">
        <ele>584.14</ele>
        <time>2013-12-08T07:08:48Z</time>
      </trkpt>
      <trkpt lat="45.88095" lon="3.61275">
        <ele>584.62</ele>
        <time>2013-12-08T07:08:52Z</time>
      </trkpt>
      <trkpt lat="45.88083" lon="3.61249">
        <ele>587.02</ele>
        <time>2013-12-08T07:09:07Z</time>
      </trkpt>
      <trkpt lat="45.88082" lon="3.61233">
        <ele>587.98</ele>
        <time>2013-12-08T07:09:13Z</time>
      </trkpt>
      <trkpt lat="45.88083" lon="3.61214">
        <ele>589.91</ele>
        <time>2013-12-08T07:09:22Z</time>
      </trkpt>
      <trkpt lat="45.88088" lon="3.6119">
        <ele>591.35</ele>
        <time>2013-12-08T07:09:34Z</time>
      </trkpt>
      <trkpt lat="45.88089" lon="3.61188">
        <ele>591.83</ele>
        <time>2013-12-08T07:09:35Z</time>
      </trkpt>
      <trkpt lat="45.88093" lon="3.61176">
        <ele>591.83</ele>
        <time>2013-12-08T07:09:41Z</time>
      </trkpt>
      <trkpt lat="45.88097" lon="3.61159">
        <ele>593.27</ele>
        <time>2013-12-08T07:09:51Z</time>
      </trkpt>
      <trkpt lat="45.88106" lon="3.61125">
        <ele>594.71</ele>
        <time>2013-12-08T07:10:05Z</time>
      </trkpt>
      <trkpt lat="45.88111" lon="3.61105">
        <ele>595.67</ele>
        <time>2013-12-08T07:10:16Z</time>
      </trkpt>
      <trkpt lat="45.88116" lon="3.61086">
        <ele>597.12</ele>
        <time>2013-12-08T07:10:27Z</time>
      </trkpt>
      <trkpt lat="45.88119" lon="3.61074">
        <ele>597.6</ele>
        <time>2013-12-08T07:10:33Z</time>
      </trkpt>
      <trkpt lat="45.88129" lon="3.61035">
        <ele>598.56</ele>
        <time>2013-12-08T07:10:47Z</time>
      </trkpt>
      <trkpt lat="45.88129" lon="3.6102">
        <ele>599.04</ele>
        <time>2013-12-08T07:10:53Z</time>
      </trkpt>
      <trkpt lat="45.88131" lon="3.61015">
        <ele>599.52</ele>
        <time>2013-12-08T07:10:56Z</time>
      </trkpt>
      <trkpt lat="45.88135" lon="3.60993">
        <ele>600</ele>
        <time>2013-12-08T07:11:06Z</time>
      </trkpt>
      <trkpt lat="45.88138" lon="3.60974">
        <ele>600.48</ele>
        <time>2013-12-08T07:11:16Z</time>
      </trkpt>
      <trkpt lat="45.88139" lon="3.6096">
        <ele>600.96</ele>
        <time>2013-12-08T07:11:23Z</time>
      </trkpt>
      <trkpt lat="45.88141" lon="3.60944">
        <ele>601.44</ele>
        <time>2013-12-08T07:11:31Z</time>
      </trkpt>
      <trkpt lat="45.88143" lon="3.60914">
        <ele>601.92</ele>
        <time>2013-12-08T07:11:45Z</time>
      </trkpt>
      <trkpt lat="45.88144" lon="3.60903">
        <ele>602.88</ele>
        <time>2013-12-08T07:11:51Z</time>
      </trkpt>
      <trkpt lat="45.88145" lon="3.60894">
        <ele>602.88</ele>
        <time>2013-12-08T07:11:55Z</time>
      </trkpt>
      <trkpt lat="45.88149" lon="3.60874">
        <ele>603.85</ele>
        <time>2013-12-08T07:12:05Z</time>
      </trkpt>
      <trkpt lat="45.88152" lon="3.60859">
        <ele>604.81</ele>
        <time>2013-12-08T07:12:12Z</time>
      </trkpt>
      <trkpt lat="45.88161" lon="3.60833">
        <ele>605.77</ele>
        <time>2013-12-08T07:12:25Z</time>
      </trkpt>
      <trkpt lat="45.88168" lon="3.60807">
        <ele>606.25</ele>
        <time>2013-12-08T07:12:37Z</time>
      </trkpt>
      <trkpt lat="45.88173" lon="3.60792">
        <ele>606.25</ele>
        <time>2013-12-08T07:12:45Z</time>
      </trkpt>
      <trkpt lat="45.8818" lon="3.6076">
        <ele>607.21</ele>
        <time>2013-12-08T07:13:01Z</time>
      </trkpt>
      <trkpt lat="45.88184" lon="3.60743">
        <ele>607.69</ele>
        <time>2013-12-08T07:13:09Z</time>
      </trkpt>
      <trkpt lat="45.88193" lon="3.60718">
        <ele>610.09</ele>
        <time>2013-12-08T07:13:23Z</time>
      </trkpt>
      <trkpt lat="45.88198" lon="3.60705">
        <ele>611.54</ele>
        <time>2013-12-08T07:13:30Z</time>
      </trkpt>
      <trkpt lat="45.88204" lon="3.60697">
        <ele>612.5</ele>
        <time>2013-12-08T07:13:36Z</time>
      </trkpt>
      <trkpt lat="45.88212" lon="3.60685">
        <ele>613.46</ele>
        <time>2013-12-08T07:13:43Z</time>
      </trkpt>
      <trkpt lat="45.88216" lon="3.60681">
        <ele>613.94</ele>
        <time>2013-12-08T07:13:47Z</time>
      </trkpt>
      <trkpt lat="45.88229" lon="3.60663">
        <ele>615.38</ele>
        <time>2013-12-08T07:13:59Z</time>
      </trkpt>
      <trkpt lat="45.88236" lon="3.60653">
        <ele>615.86</ele>
        <time>2013-12-08T07:14:05Z</time>
      </trkpt>
      <trkpt lat="45.88249" lon="3.60633">
        <ele>617.3</ele>
        <time>2013-12-08T07:14:19Z</time>
      </trkpt>
      <trkpt lat="45.88254" lon="3.60619">
        <ele>617.78</ele>
        <time>2013-12-08T07:14:27Z</time>
      </trkpt>
      <trkpt lat="45.8826" lon="3.60602">
        <ele>618.26</ele>
        <time>2013-12-08T07:14:37Z</time>
      </trkpt>
      <trkpt lat="45.88266" lon="3.60567">
        <ele>619.71</ele>
        <time>2013-12-08T07:14:54Z</time>
      </trkpt>
      <trkpt lat="45.88266" lon="3.60555">
        <ele>620.19</ele>
        <time>2013-12-08T07:15:00Z</time>
      </trkpt>
      <trkpt lat="45.88267" lon="3.60549">
        <ele>620.67</ele>
        <time>2013-12-08T07:15:03Z</time>
      </trkpt>
      <trkpt lat="45.88268" lon="3.60532">
        <ele>621.63</ele>
        <time>2013-12-08T07:15:11Z</time>
      </trkpt>
      <trkpt lat="45.88269" lon="3.60502">
        <ele>623.07</ele>
        <time>2013-12-08T07:15:25Z</time>
      </trkpt>
      <trkpt lat="45.88269" lon="3.60488">
        <ele>624.03</ele>
        <time>2013-12-08T07:15:32Z</time>
      </trkpt>
      <trkpt lat="45.88269" lon="3.60468">
        <ele>625.47</ele>
        <time>2013-12-08T07:15:42Z</time>
      </trkpt>
      <trkpt lat="45.88269" lon="3.60461">
        <ele>625.47</ele>
        <time>2013-12-08T07:15:45Z</time>
      </trkpt>
      <trkpt lat="45.88266" lon="3.60425">
        <ele>626.92</ele>
        <time>2013-12-08T07:16:02Z</time>
      </trkpt>
      <trkpt lat="45.88263" lon="3.60401">
        <ele>627.88</ele>
        <time>2013-12-08T07:16:13Z</time>
      </trkpt>
      <trkpt lat="45.8826" lon="3.60377">
        <ele>628.84</ele>
        <time>2013-12-08T07:16:24Z</time>
      </trkpt>
      <trkpt lat="45.88259" lon="3.60369">
        <ele>629.32</ele>
        <time>2013-12-08T07:16:28Z</time>
      </trkpt>
      <trkpt lat="45.88257" lon="3.60338">
        <ele>630.76</ele>
        <time>2013-12-08T07:16:42Z</time>
      </trkpt>
      <trkpt lat="45.88255" lon="3.60321">
        <ele>631.72</ele>
        <time>2013-12-08T07:16:49Z</time>
      </trkpt>
      <trkpt lat="45.88249" lon="3.60294">
        <ele>633.17</ele>
        <time>2013-12-08T07:17:01Z</time>
      </trkpt>
      <trkpt lat="45.88239" lon="3.60274">
        <ele>635.09</ele>
        <time>2013-12-08T07:17:13Z</time>
      </trkpt>
      <trkpt lat="45.88233" lon="3.60262">
        <ele>636.05</ele>
        <time>2013-12-08T07:17:21Z</time>
      </trkpt>
      <trkpt lat="45.8822" lon="3.60248">
        <ele>637.49</ele>
        <time>2013-12-08T07:17:33Z</time>
      </trkpt>
      <trkpt lat="45.88206" lon="3.60238">
        <ele>638.93</ele>
        <time>2013-12-08T07:17:45Z</time>
      </trkpt>
      <trkpt lat="45.88204" lon="3.60237">
        <ele>639.41</ele>
        <time>2013-12-08T07:17:48Z</time>
      </trkpt>
      <trkpt lat="45.88186" lon="3.60231">
        <ele>640.86</ele>
        <time>2013-12-08T07:18:02Z</time>
      </trkpt>
      <trkpt lat="45.88162" lon="3.60229">
        <ele>641.82</ele>
        <time>2013-12-08T07:18:17Z</time>
      </trkpt>
      <trkpt lat="45.88139" lon="3.60224">
        <ele>642.3</ele>
        <time>2013-12-08T07:18:32Z</time>
      </trkpt>
      <trkpt lat="45.88119" lon="3.60218">
        <ele>642.78</ele>
        <time>2013-12-08T07:18:46Z</time>
      </trkpt>
      <trkpt lat="45.88102" lon="3.60207">
        <ele>643.26</ele>
        <time>2013-12-08T07:18:59Z</time>
      </trkpt>
      <trkpt lat="45.88098" lon="3.60205">
        <ele>643.26</ele>
        <time>2013-12-08T07:19:14Z</time>
      </trkpt>
      <trkpt lat="45.88096" lon="3.60204">
        <ele>643.26</ele>
        <time>2013-12-08T07:19:28Z</time>
      </trkpt>
      <trkpt lat="45.88096" lon="3.60204">
        <ele>643.26</ele>
        <time>2013-12-08T07:19:43Z</time>
      </trkpt>
      <trkpt lat="45.88095" lon="3.60205">
        <ele>643.26</ele>
        <time>2013-12-08T07:20:03Z</time>
      </trkpt>
      <trkpt lat="45.88094" lon="3.60204">
        <ele>642.78</ele>
        <time>2013-12-08T07:20:19Z</time>
      </trkpt>
      <trkpt lat="45.88093" lon="3.60204">
        <ele>642.78</ele>
        <time>2013-12-08T07:20:40Z</time>
      </trkpt>
      <trkpt lat="45.88093" lon="3.60202">
        <ele>642.78</ele>
        <time>2013-12-08T07:21:00Z</time>
      </trkpt>
      <trkpt lat="45.88091" lon="3.60203">
        <ele>642.78</ele>
        <time>2013-12-08T07:21:11Z</time>
      </trkpt>
      <trkpt lat="45.88089" lon="3.60202">
        <ele>642.78</ele>
        <time>2013-12-08T07:21:27Z</time>
      </trkpt>
      <trkpt lat="45.8809" lon="3.60201">
        <ele>642.78</ele>
        <time>2013-12-08T07:21:56Z</time>
      </trkpt>
      <trkpt lat="45.8809" lon="3.602">
        <ele>642.78</ele>
        <time>2013-12-08T07:22:14Z</time>
      </trkpt>
      <trkpt lat="45.8809" lon="3.60199">
        <ele>642.78</ele>
        <time>2013-12-08T07:22:34Z</time>
      </trkpt>
      <trkpt lat="45.8809" lon="3.60199">
        <ele>642.3</ele>
        <time>2013-12-08T07:22:55Z</time>
      </trkpt>
      <trkpt lat="45.8809" lon="3.60197">
        <ele>642.3</ele>
        <time>2013-12-08T07:23:22Z</time>
      </trkpt>
      <trkpt lat="45.88091" lon="3.602">
        <ele>642.3</ele>
        <time>2013-12-08T07:23:34Z</time>
      </trkpt>
      <trkpt lat="45.88092" lon="3.60202">
        <ele>642.3</ele>
        <time>2013-12-08T07:23:46Z</time>
      </trkpt>
      <trkpt lat="45.88092" lon="3.60202">
        <ele>642.3</ele>
        <time>2013-12-08T07:24:02Z</time>
      </trkpt>
      <trkpt lat="45.88091" lon="3.60204">
        <ele>641.82</ele>
        <time>2013-12-08T07:24:21Z</time>
      </trkpt>
      <trkpt lat="45.88091" lon="3.60205">
        <ele>642.3</ele>
        <time>2013-12-08T07:24:28Z</time>
      </trkpt>
      <trkpt lat="45.88087" lon="3.60202">
        <ele>642.3</ele>
        <time>2013-12-08T07:24:34Z</time>
      </trkpt>
      <trkpt lat="45.88071" lon="3.60188">
        <ele>641.82</ele>
        <time>2013-12-08T07:24:48Z</time>
      </trkpt>
      <trkpt lat="45.88059" lon="3.6018">
        <ele>641.82</ele>
        <time>2013-12-08T07:24:59Z</time>
      </trkpt>
      <trkpt lat="45.88042" lon="3.60162">
        <ele>641.34</ele>
        <time>2013-12-08T07:25:15Z</time>
      </trkpt>
      <trkpt lat="45.88027" lon="3.60153">
        <ele>639.89</ele>
        <time>2013-12-08T07:25:26Z</time>
      </trkpt>
      <trkpt lat="45.88015" lon="3.60143">
        <ele>638.93</ele>
        <time>2013-12-08T07:25:35Z</time>
      </trkpt>
      <trkpt lat="45.88007" lon="3.60137">
        <ele>637.97</ele>
        <time>2013-12-08T07:25:42Z</time>
      </trkpt>
      <trkpt lat="45.87992" lon="3.6012">
        <ele>634.61</ele>
        <time>2013-12-08T07:25:56Z</time>
      </trkpt>
      <trkpt lat="45.87984" lon="3.60098">
        <ele>631.72</ele>
        <time>2013-12-08T07:26:09Z</time>
      </trkpt>
      <trkpt lat="45.87981" lon="3.60079">
        <ele>629.8</ele>
        <time>2013-12-08T07:26:19Z</time>
      </trkpt>
      <trkpt lat="45.8798" lon="3.60071">
        <ele>628.36</ele>
        <time>2013-12-08T07:26:25Z</time>
      </trkpt>
      <trkpt lat="45.8798" lon="3.60061">
        <ele>627.88</ele>
        <time>2013-12-08T07:26:29Z</time>
      </trkpt>
      <trkpt lat="45.87981" lon="3.60053">
        <ele>626.92</ele>
        <time>2013-12-08T07:26:33Z</time>
      </trkpt>
      <trkpt lat="45.87981" lon="3.60045">
        <ele>625.96</ele>
        <time>2013-12-08T07:26:38Z</time>
      </trkpt>
      <trkpt lat="45.87982" lon="3.60038">
        <ele>625.47</ele>
        <time>2013-12-08T07:26:42Z</time>
      </trkpt>
      <trkpt lat="45.87984" lon="3.6003">
        <ele>624.99</ele>
        <time>2013-12-08T07:26:46Z</time>
      </trkpt>
      <trkpt lat="45.87986" lon="3.60025">
        <ele>624.51</ele>
        <time>2013-12-08T07:26:48Z</time>
      </trkpt>
      <trkpt lat="45.87996" lon="3.60008">
        <ele>623.07</ele>
        <time>2013-12-08T07:26:58Z</time>
      </trkpt>
      <trkpt lat="45.88011" lon="3.5999">
        <ele>620.67</ele>
        <time>2013-12-08T07:27:10Z</time>
      </trkpt>
      <trkpt lat="45.88012" lon="3.59989">
        <ele>620.67</ele>
        <time>2013-12-08T07:27:11Z</time>
      </trkpt>
      <trkpt lat="45.88017" lon="3.59986">
        <ele>620.19</ele>
        <time>2013-12-08T07:27:15Z</time>
      </trkpt>
      <trkpt lat="45.88033" lon="3.59979">
        <ele>618.26</ele>
        <time>2013-12-08T07:27:27Z</time>
      </trkpt>
      <trkpt lat="45.88038" lon="3.59977">
        <ele>617.3</ele>
        <time>2013-12-08T07:27:31Z</time>
      </trkpt>
      <trkpt lat="45.88044" lon="3.59979">
        <ele>616.82</ele>
        <time>2013-12-08T07:27:35Z</time>
      </trkpt>
      <trkpt lat="45.88047" lon="3.59979">
        <ele>616.34</ele>
        <time>2013-12-08T07:27:37Z</time>
      </trkpt>
      <trkpt lat="45.88065" lon="3.59974">
        <ele>614.42</ele>
        <time>2013-12-08T07:27:49Z</time>
      </trkpt>
      <trkpt lat="45.88069" lon="3.59973">
        <ele>614.42</ele>
        <time>2013-12-08T07:27:52Z</time>
      </trkpt>
      <trkpt lat="45.88074" lon="3.59971">
        <ele>614.9</ele>
        <time>2013-12-08T07:27:56Z</time>
      </trkpt>
      <trkpt lat="45.88093" lon="3.5997">
        <ele>615.86</ele>
        <time>2013-12-08T07:28:12Z</time>
      </trkpt>
      <trkpt lat="45.88108" lon="3.59973">
        <ele>616.82</ele>
        <time>2013-12-08T07:28:24Z</time>
      </trkpt>
      <trkpt lat="45.88111" lon="3.59973">
        <ele>616.82</ele>
        <time>2013-12-08T07:28:26Z</time>
      </trkpt>
      <trkpt lat="45.88127" lon="3.5998">
        <ele>617.3</ele>
        <time>2013-12-08T07:28:35Z</time>
      </trkpt>
      <trkpt lat="45.88147" lon="3.59987">
        <ele>618.26</ele>
        <time>2013-12-08T07:28:48Z</time>
      </trkpt>
      <trkpt lat="45.88171" lon="3.59991">
        <ele>619.23</ele>
        <time>2013-12-08T07:29:03Z</time>
      </trkpt>
      <trkpt lat="45.8819" lon="3.59994">
        <ele>619.71</ele>
        <time>2013-12-08T07:29:16Z</time>
      </trkpt>
      <trkpt lat="45.88205" lon="3.59995">
        <ele>620.19</ele>
        <time>2013-12-08T07:29:28Z</time>
      </trkpt>
      <trkpt lat="45.88216" lon="3.59995">
        <ele>620.19</ele>
        <time>2013-12-08T07:29:35Z</time>
      </trkpt>
      <trkpt lat="45.88227" lon="3.59992">
        <ele>620.19</ele>
        <time>2013-12-08T07:29:42Z</time>
      </trkpt>
      <trkpt lat="45.88244" lon="3.59976">
        <ele>620.19</ele>
        <time>2013-12-08T07:29:58Z</time>
      </trkpt>
      <trkpt lat="45.8825" lon="3.59974">
        <ele>620.19</ele>
        <time>2013-12-08T07:30:04Z</time>
      </trkpt>
      <trkpt lat="45.8826" lon="3.59972">
        <ele>620.67</ele>
        <time>2013-12-08T07:30:16Z</time>
      </trkpt>
      <trkpt lat="45.88274" lon="3.59981">
        <ele>620.67</ele>
        <time>2013-12-08T07:30:42Z</time>
      </trkpt>
      <trkpt lat="45.88315" lon="3.59919">
        <ele>620.67</ele>
        <time>2013-12-08T07:30:54Z</time>
      </trkpt>
      <trkpt lat="45.88314" lon="3.5991">
        <ele>620.67</ele>
        <time>2013-12-08T07:30:58Z</time>
      </trkpt>
      <trkpt lat="45.88315" lon="3.59897">
        <ele>620.19</ele>
        <time>2013-12-08T07:31:04Z</time>
      </trkpt>
      <trkpt lat="45.88315" lon="3.59891">
        <ele>620.19</ele>
        <time>2013-12-08T07:31:06Z</time>
      </trkpt>
      <trkpt lat="45.88314" lon="3.59877">
        <ele>619.71</ele>
        <time>2013-12-08T07:31:11Z</time>
      </trkpt>
      <trkpt lat="45.88313" lon="3.59853">
        <ele>619.23</ele>
        <time>2013-12-08T07:31:19Z</time>
      </trkpt>
      <trkpt lat="45.88312" lon="3.59843">
        <ele>618.75</ele>
        <time>2013-12-08T07:31:22Z</time>
      </trkpt>
      <trkpt lat="45.88311" lon="3.59828">
        <ele>618.75</ele>
        <time>2013-12-08T07:31:27Z</time>
      </trkpt>
      <trkpt lat="45.88304" lon="3.59782">
        <ele>617.3</ele>
        <time>2013-12-08T07:31:40Z</time>
      </trkpt>
      <trkpt lat="45.88297" lon="3.59743">
        <ele>616.82</ele>
        <time>2013-12-08T07:31:52Z</time>
      </trkpt>
      <trkpt lat="45.88297" lon="3.59737">
        <ele>616.82</ele>
        <time>2013-12-08T07:31:54Z</time>
      </trkpt>
      <trkpt lat="45.88292" lon="3.59712">
        <ele>616.34</ele>
        <time>2013-12-08T07:32:02Z</time>
      </trkpt>
      <trkpt lat="45.88282" lon="3.59672">
        <ele>616.34</ele>
        <time>2013-12-08T07:32:13Z</time>
      </trkpt>
      <trkpt lat="45.88272" lon="3.59639">
        <ele>617.78</ele>
        <time>2013-12-08T07:32:24Z</time>
      </trkpt>
      <trkpt lat="45.88271" lon="3.59636">
        <ele>617.3</ele>
        <time>2013-12-08T07:32:25Z</time>
      </trkpt>
      <trkpt lat="45.88266" lon="3.59621">
        <ele>617.3</ele>
        <time>2013-12-08T07:32:30Z</time>
      </trkpt>
      <trkpt lat="45.88256" lon="3.59593">
        <ele>618.75</ele>
        <time>2013-12-08T07:32:41Z</time>
      </trkpt>
      <trkpt lat="45.88255" lon="3.59588">
        <ele>618.75</ele>
        <time>2013-12-08T07:32:43Z</time>
      </trkpt>
      <trkpt lat="45.88253" lon="3.59581">
        <ele>619.23</ele>
        <time>2013-12-08T07:32:46Z</time>
      </trkpt>
      <trkpt lat="45.88251" lon="3.59571">
        <ele>620.19</ele>
        <time>2013-12-08T07:32:51Z</time>
      </trkpt>
      <trkpt lat="45.88256" lon="3.59539">
        <ele>622.11</ele>
        <time>2013-12-08T07:33:05Z</time>
      </trkpt>
      <trkpt lat="45.88265" lon="3.59524">
        <ele>623.55</ele>
        <time>2013-12-08T07:33:14Z</time>
      </trkpt>
      <trkpt lat="45.88283" lon="3.59508">
        <ele>626.92</ele>
        <time>2013-12-08T07:33:29Z</time>
      </trkpt>
      <trkpt lat="45.8829" lon="3.59495">
        <ele>628.36</ele>
        <time>2013-12-08T07:33:36Z</time>
      </trkpt>
      <trkpt lat="45.88299" lon="3.59471">
        <ele>629.8</ele>
        <time>2013-12-08T07:33:49Z</time>
      </trkpt>
      <trkpt lat="45.88304" lon="3.5945">
        <ele>631.24</ele>
        <time>2013-12-08T07:33:59Z</time>
      </trkpt>
      <trkpt lat="45.88309" lon="3.59435">
        <ele>632.2</ele>
        <time>2013-12-08T07:34:07Z</time>
      </trkpt>
      <trkpt lat="45.88309" lon="3.59427">
        <ele>632.68</ele>
        <time>2013-12-08T07:34:11Z</time>
      </trkpt>
      <trkpt lat="45.88307" lon="3.59404">
        <ele>634.13</ele>
        <time>2013-12-08T07:34:22Z</time>
      </trkpt>
      <trkpt lat="45.88304" lon="3.59385">
        <ele>636.05</ele>
        <time>2013-12-08T07:34:31Z</time>
      </trkpt>
      <trkpt lat="45.88298" lon="3.59354">
        <ele>638.93</ele>
        <time>2013-12-08T07:34:47Z</time>
      </trkpt>
      <trkpt lat="45.88295" lon="3.59341">
        <ele>639.41</ele>
        <time>2013-12-08T07:34:53Z</time>
      </trkpt>
      <trkpt lat="45.88287" lon="3.59319">
        <ele>641.34</ele>
        <time>2013-12-08T07:35:05Z</time>
      </trkpt>
      <trkpt lat="45.88279" lon="3.59294">
        <ele>642.3</ele>
        <time>2013-12-08T07:35:18Z</time>
      </trkpt>
      <trkpt lat="45.88279" lon="3.59292">
        <ele>642.3</ele>
        <time>2013-12-08T07:35:19Z</time>
      </trkpt>
      <trkpt lat="45.88277" lon="3.59284">
        <ele>642.78</ele>
        <time>2013-12-08T07:35:23Z</time>
      </trkpt>
      <trkpt lat="45.88271" lon="3.59257">
        <ele>644.22</ele>
        <time>2013-12-08T07:35:36Z</time>
      </trkpt>
      <trkpt lat="45.88271" lon="3.59247">
        <ele>644.7</ele>
        <time>2013-12-08T07:35:41Z</time>
      </trkpt>
      <trkpt lat="45.88292" lon="3.59235">
        <ele>645.66</ele>
        <time>2013-12-08T07:35:57Z</time>
      </trkpt>
      <trkpt lat="45.88312" lon="3.59224">
        <ele>647.59</ele>
        <time>2013-12-08T07:36:12Z</time>
      </trkpt>
      <trkpt lat="45.8833" lon="3.59216">
        <ele>649.51</ele>
        <time>2013-12-08T07:36:25Z</time>
      </trkpt>
      <trkpt lat="45.88349" lon="3.59208">
        <ele>651.43</ele>
        <time>2013-12-08T07:36:39Z</time>
      </trkpt>
      <trkpt lat="45.8836" lon="3.59192">
        <ele>652.39</ele>
        <time>2013-12-08T07:36:51Z</time>
      </trkpt>
      <trkpt lat="45.88374" lon="3.59169">
        <ele>652.87</ele>
        <time>2013-12-08T07:37:07Z</time>
      </trkpt>
      <trkpt lat="45.88387" lon="3.59152">
        <ele>653.35</ele>
        <time>2013-12-08T07:37:19Z</time>
      </trkpt>
      <trkpt lat="45.88388" lon="3.5915">
        <ele>653.35</ele>
        <time>2013-12-08T07:37:20Z</time>
      </trkpt>
      <trkpt lat="45.88398" lon="3.59134">
        <ele>653.35</ele>
        <time>2013-12-08T07:37:30Z</time>
      </trkpt>
      <trkpt lat="45.88403" lon="3.59125">
        <ele>653.35</ele>
        <time>2013-12-08T07:37:35Z</time>
      </trkpt>
      <trkpt lat="45.88405" lon="3.59122">
        <ele>653.83</ele>
        <time>2013-12-08T07:37:37Z</time>
      </trkpt>
      <trkpt lat="45.88409" lon="3.59112">
        <ele>653.83</ele>
        <time>2013-12-08T07:37:42Z</time>
      </trkpt>
      <trkpt lat="45.88421" lon="3.59093">
        <ele>653.83</ele>
        <time>2013-12-08T07:37:53Z</time>
      </trkpt>
      <trkpt lat="45.88425" lon="3.59087">
        <ele>654.31</ele>
        <time>2013-12-08T07:37:57Z</time>
      </trkpt>
      <trkpt lat="45.88436" lon="3.59067">
        <ele>655.28</ele>
        <time>2013-12-08T07:38:10Z</time>
      </trkpt>
      <trkpt lat="45.88449" lon="3.59043">
        <ele>656.72</ele>
        <time>2013-12-08T07:38:24Z</time>
      </trkpt>
      <trkpt lat="45.88459" lon="3.59029">
        <ele>657.2</ele>
        <time>2013-12-08T07:38:33Z</time>
      </trkpt>
      <trkpt lat="45.88474" lon="3.59005">
        <ele>658.64</ele>
        <time>2013-12-08T07:38:48Z</time>
      </trkpt>
      <trkpt lat="45.8849" lon="3.58981">
        <ele>659.6</ele>
        <time>2013-12-08T07:39:01Z</time>
      </trkpt>
      <trkpt lat="45.8849" lon="3.58979">
        <ele>659.6</ele>
        <time>2013-12-08T07:39:02Z</time>
      </trkpt>
      <trkpt lat="45.88496" lon="3.58969">
        <ele>660.08</ele>
        <time>2013-12-08T07:39:07Z</time>
      </trkpt>
      <trkpt lat="45.88516" lon="3.58946">
        <ele>661.04</ele>
        <time>2013-12-08T07:39:22Z</time>
      </trkpt>
      <trkpt lat="45.88522" lon="3.58941">
        <ele>661.52</ele>
        <time>2013-12-08T07:39:26Z</time>
      </trkpt>
      <trkpt lat="45.88539" lon="3.58934">
        <ele>662.01</ele>
        <time>2013-12-08T07:39:38Z</time>
      </trkpt>
      <trkpt lat="45.88559" lon="3.58933">
        <ele>662.49</ele>
        <time>2013-12-08T07:39:52Z</time>
      </trkpt>
      <trkpt lat="45.88576" lon="3.58934">
        <ele>662.97</ele>
        <time>2013-12-08T07:40:04Z</time>
      </trkpt>
      <trkpt lat="45.88596" lon="3.58937">
        <ele>663.45</ele>
        <time>2013-12-08T07:40:17Z</time>
      </trkpt>
      <trkpt lat="45.88614" lon="3.58945">
        <ele>664.41</ele>
        <time>2013-12-08T07:40:29Z</time>
      </trkpt>
      <trkpt lat="45.88632" lon="3.58956">
        <ele>665.37</ele>
        <time>2013-12-08T07:40:42Z</time>
      </trkpt>
      <trkpt lat="45.88651" lon="3.58962">
        <ele>666.81</ele>
        <time>2013-12-08T07:40:55Z</time>
      </trkpt>
      <trkpt lat="45.88672" lon="3.58971">
        <ele>668.25</ele>
        <time>2013-12-08T07:41:09Z</time>
      </trkpt>
      <trkpt lat="45.88689" lon="3.58977">
        <ele>669.7</ele>
        <time>2013-12-08T07:41:23Z</time>
      </trkpt>
      <trkpt lat="45.88691" lon="3.58978">
        <ele>669.7</ele>
        <time>2013-12-08T07:41:24Z</time>
      </trkpt>
      <trkpt lat="45.88717" lon="3.5899">
        <ele>672.1</ele>
        <time>2013-12-08T07:41:40Z</time>
      </trkpt>
      <trkpt lat="45.88736" lon="3.58999">
        <ele>674.02</ele>
        <time>2013-12-08T07:41:54Z</time>
      </trkpt>
      <trkpt lat="45.88756" lon="3.59006">
        <ele>675.94</ele>
        <time>2013-12-08T07:42:08Z</time>
      </trkpt>
      <trkpt lat="45.88776" lon="3.59016">
        <ele>677.39</ele>
        <time>2013-12-08T07:42:23Z</time>
      </trkpt>
      <trkpt lat="45.88795" lon="3.59026">
        <ele>679.79</ele>
        <time>2013-12-08T07:42:37Z</time>
      </trkpt>
      <trkpt lat="45.88813" lon="3.59037">
        <ele>681.23</ele>
        <time>2013-12-08T07:42:50Z</time>
      </trkpt>
      <trkpt lat="45.88838" lon="3.59054">
        <ele>683.15</ele>
        <time>2013-12-08T07:43:08Z</time>
      </trkpt>
      <trkpt lat="45.88859" lon="3.59068">
        <ele>685.08</ele>
        <time>2013-12-08T07:43:23Z</time>
      </trkpt>
      <trkpt lat="45.88878" lon="3.59079">
        <ele>686.04</ele>
        <time>2013-12-08T07:43:36Z</time>
      </trkpt>
      <trkpt lat="45.88898" lon="3.59084">
        <ele>687.48</ele>
        <time>2013-12-08T07:43:51Z</time>
      </trkpt>
      <trkpt lat="45.88917" lon="3.59091">
        <ele>688.44</ele>
        <time>2013-12-08T07:44:05Z</time>
      </trkpt>
      <trkpt lat="45.88936" lon="3.59107">
        <ele>690.36</ele>
        <time>2013-12-08T07:44:20Z</time>
      </trkpt>
      <trkpt lat="45.88945" lon="3.59126">
        <ele>691.81</ele>
        <time>2013-12-08T07:44:32Z</time>
      </trkpt>
      <trkpt lat="45.88948" lon="3.59134">
        <ele>692.29</ele>
        <time>2013-12-08T07:44:36Z</time>
      </trkpt>
      <trkpt lat="45.88952" lon="3.59157">
        <ele>694.21</ele>
        <time>2013-12-08T07:44:47Z</time>
      </trkpt>
      <trkpt lat="45.88962" lon="3.59161">
        <ele>693.73</ele>
        <time>2013-12-08T07:44:54Z</time>
      </trkpt>
      <trkpt lat="45.88982" lon="3.59149">
        <ele>692.29</ele>
        <time>2013-12-08T07:45:08Z</time>
      </trkpt>
      <trkpt lat="45.88995" lon="3.5913">
        <ele>691.33</ele>
        <time>2013-12-08T07:45:21Z</time>
      </trkpt>
      <trkpt lat="45.89004" lon="3.59109">
        <ele>690.36</ele>
        <time>2013-12-08T07:45:33Z</time>
      </trkpt>
      <trkpt lat="45.89017" lon="3.59081">
        <ele>687</ele>
        <time>2013-12-08T07:45:48Z</time>
      </trkpt>
      <trkpt lat="45.89031" lon="3.59055">
        <ele>688.92</ele>
        <time>2013-12-08T07:46:04Z</time>
      </trkpt>
      <trkpt lat="45.89037" lon="3.59044">
        <ele>686.52</ele>
        <time>2013-12-08T07:46:11Z</time>
      </trkpt>
      <trkpt lat="45.8905" lon="3.59023">
        <ele>685.08</ele>
        <time>2013-12-08T07:46:24Z</time>
      </trkpt>
      <trkpt lat="45.89064" lon="3.59009">
        <ele>684.12</ele>
        <time>2013-12-08T07:46:36Z</time>
      </trkpt>
      <trkpt lat="45.89081" lon="3.58987">
        <ele>682.67</ele>
        <time>2013-12-08T07:46:51Z</time>
      </trkpt>
      <trkpt lat="45.89093" lon="3.58966">
        <ele>681.71</ele>
        <time>2013-12-08T07:47:03Z</time>
      </trkpt>
      <trkpt lat="45.89098" lon="3.58956">
        <ele>681.23</ele>
        <time>2013-12-08T07:47:09Z</time>
      </trkpt>
      <trkpt lat="45.891" lon="3.58953">
        <ele>680.75</ele>
        <time>2013-12-08T07:47:11Z</time>
      </trkpt>
      <trkpt lat="45.89105" lon="3.58942">
        <ele>680.27</ele>
        <time>2013-12-08T07:47:17Z</time>
      </trkpt>
      <trkpt lat="45.8912" lon="3.58918">
        <ele>678.83</ele>
        <time>2013-12-08T07:47:31Z</time>
      </trkpt>
      <trkpt lat="45.89136" lon="3.58901">
        <ele>677.87</ele>
        <time>2013-12-08T07:47:43Z</time>
      </trkpt>
      <trkpt lat="45.89153" lon="3.58886">
        <ele>676.42</ele>
        <time>2013-12-08T07:47:57Z</time>
      </trkpt>
      <trkpt lat="45.89161" lon="3.58878">
        <ele>675.94</ele>
        <time>2013-12-08T07:48:04Z</time>
      </trkpt>
      <trkpt lat="45.89181" lon="3.58864">
        <ele>674.98</ele>
        <time>2013-12-08T07:48:18Z</time>
      </trkpt>
      <trkpt lat="45.89201" lon="3.58856">
        <ele>674.02</ele>
        <time>2013-12-08T07:48:32Z</time>
      </trkpt>
      <trkpt lat="45.89209" lon="3.58853">
        <ele>673.54</ele>
        <time>2013-12-08T07:48:37Z</time>
      </trkpt>
      <trkpt lat="45.89212" lon="3.5885">
        <ele>673.06</ele>
        <time>2013-12-08T07:48:41Z</time>
      </trkpt>
      <trkpt lat="45.89223" lon="3.58844">
        <ele>672.58</ele>
        <time>2013-12-08T07:48:49Z</time>
      </trkpt>
      <trkpt lat="45.89245" lon="3.58837">
        <ele>671.14</ele>
        <time>2013-12-08T07:49:03Z</time>
      </trkpt>
      <trkpt lat="45.89255" lon="3.58835">
        <ele>671.14</ele>
        <time>2013-12-08T07:49:08Z</time>
      </trkpt>
      <trkpt lat="45.89278" lon="3.58831">
        <ele>669.7</ele>
        <time>2013-12-08T07:49:23Z</time>
      </trkpt>
      <trkpt lat="45.89293" lon="3.58835">
        <ele>668.73</ele>
        <time>2013-12-08T07:49:32Z</time>
      </trkpt>
      <trkpt lat="45.89304" lon="3.58833">
        <ele>668.25</ele>
        <time>2013-12-08T07:49:39Z</time>
      </trkpt>
      <trkpt lat="45.89323" lon="3.5883">
        <ele>666.81</ele>
        <time>2013-12-08T07:49:52Z</time>
      </trkpt>
      <trkpt lat="45.89334" lon="3.58827">
        <ele>666.33</ele>
        <time>2013-12-08T07:50:00Z</time>
      </trkpt>
      <trkpt lat="45.8934" lon="3.58827">
        <ele>665.85</ele>
        <time>2013-12-08T07:50:04Z</time>
      </trkpt>
      <trkpt lat="45.89362" lon="3.58819">
        <ele>664.41</ele>
        <time>2013-12-08T07:50:19Z</time>
      </trkpt>
      <trkpt lat="45.89378" lon="3.58812">
        <ele>663.45</ele>
        <time>2013-12-08T07:50:29Z</time>
      </trkpt>
      <trkpt lat="45.89399" lon="3.58796">
        <ele>662.01</ele>
        <time>2013-12-08T07:50:42Z</time>
      </trkpt>
      <trkpt lat="45.89414" lon="3.58785">
        <ele>661.04</ele>
        <time>2013-12-08T07:50:53Z</time>
      </trkpt>
      <trkpt lat="45.89424" lon="3.58764">
        <ele>660.08</ele>
        <time>2013-12-08T07:51:04Z</time>
      </trkpt>
      <trkpt lat="45.89426" lon="3.58757">
        <ele>660.08</ele>
        <time>2013-12-08T07:51:07Z</time>
      </trkpt>
      <trkpt lat="45.89433" lon="3.58741">
        <ele>659.6</ele>
        <time>2013-12-08T07:51:15Z</time>
      </trkpt>
      <trkpt lat="45.89452" lon="3.58727">
        <ele>658.16</ele>
        <time>2013-12-08T07:51:28Z</time>
      </trkpt>
      <trkpt lat="45.89473" lon="3.58723">
        <ele>656.72</ele>
        <time>2013-12-08T07:51:40Z</time>
      </trkpt>
      <trkpt lat="45.89484" lon="3.58718">
        <ele>655.76</ele>
        <time>2013-12-08T07:51:48Z</time>
      </trkpt>
      <trkpt lat="45.89488" lon="3.58711">
        <ele>654.8</ele>
        <time>2013-12-08T07:51:54Z</time>
      </trkpt>
      <trkpt lat="45.89492" lon="3.58695">
        <ele>654.31</ele>
        <time>2013-12-08T07:52:02Z</time>
      </trkpt>
      <trkpt lat="45.89491" lon="3.58682">
        <ele>653.83</ele>
        <time>2013-12-08T07:52:08Z</time>
      </trkpt>
      <trkpt lat="45.89486" lon="3.58667">
        <ele>653.83</ele>
        <time>2013-12-08T07:52:16Z</time>
      </trkpt>
      <trkpt lat="45.89479" lon="3.58661">
        <ele>653.83</ele>
        <time>2013-12-08T07:52:23Z</time>
      </trkpt>
      <trkpt lat="45.89463" lon="3.58657">
        <ele>654.31</ele>
        <time>2013-12-08T07:52:35Z</time>
      </trkpt>
      <trkpt lat="45.89451" lon="3.58656">
        <ele>654.31</ele>
        <time>2013-12-08T07:52:43Z</time>
      </trkpt>
      <trkpt lat="45.89429" lon="3.58656">
        <ele>654.8</ele>
        <time>2013-12-08T07:52:58Z</time>
      </trkpt>
      <trkpt lat="45.89424" lon="3.58656">
        <ele>654.8</ele>
        <time>2013-12-08T07:53:02Z</time>
      </trkpt>
      <trkpt lat="45.89415" lon="3.5865">
        <ele>654.8</ele>
        <time>2013-12-08T07:53:08Z</time>
      </trkpt>
      <trkpt lat="45.89393" lon="3.58659">
        <ele>655.28</ele>
        <time>2013-12-08T07:53:22Z</time>
      </trkpt>
      <trkpt lat="45.89376" lon="3.58675">
        <ele>655.28</ele>
        <time>2013-12-08T07:53:35Z</time>
      </trkpt>
      <trkpt lat="45.89375" lon="3.58677">
        <ele>655.28</ele>
        <time>2013-12-08T07:53:36Z</time>
      </trkpt>
      <trkpt lat="45.89365" lon="3.58684">
        <ele>655.76</ele>
        <time>2013-12-08T07:53:44Z</time>
      </trkpt>
      <trkpt lat="45.8936" lon="3.58688">
        <ele>655.28</ele>
        <time>2013-12-08T07:53:49Z</time>
      </trkpt>
      <trkpt lat="45.89356" lon="3.58691">
        <ele>655.76</ele>
        <time>2013-12-08T07:53:52Z</time>
      </trkpt>
      <trkpt lat="45.89347" lon="3.58695">
        <ele>655.76</ele>
        <time>2013-12-08T07:53:59Z</time>
      </trkpt>
      <trkpt lat="45.89339" lon="3.58699">
        <ele>655.76</ele>
        <time>2013-12-08T07:54:06Z</time>
      </trkpt>
      <trkpt lat="45.89329" lon="3.587">
        <ele>655.76</ele>
        <time>2013-12-08T07:54:11Z</time>
      </trkpt>
      <trkpt lat="45.8931" lon="3.58696">
        <ele>655.76</ele>
        <time>2013-12-08T07:54:25Z</time>
      </trkpt>
      <trkpt lat="45.89292" lon="3.58691">
        <ele>655.76</ele>
        <time>2013-12-08T07:54:35Z</time>
      </trkpt>
      <trkpt lat="45.89271" lon="3.58684">
        <ele>655.76</ele>
        <time>2013-12-08T07:54:48Z</time>
      </trkpt>
      <trkpt lat="45.89254" lon="3.5868">
        <ele>655.76</ele>
        <time>2013-12-08T07:55:00Z</time>
      </trkpt>
      <trkpt lat="45.89234" lon="3.58677">
        <ele>655.76</ele>
        <time>2013-12-08T07:55:12Z</time>
      </trkpt>
      <trkpt lat="45.89216" lon="3.58674">
        <ele>656.24</ele>
        <time>2013-12-08T07:55:24Z</time>
      </trkpt>
      <trkpt lat="45.89198" lon="3.58667">
        <ele>656.24</ele>
        <time>2013-12-08T07:55:36Z</time>
      </trkpt>
      <trkpt lat="45.89182" lon="3.58655">
        <ele>656.24</ele>
        <time>2013-12-08T07:55:48Z</time>
      </trkpt>
      <trkpt lat="45.89165" lon="3.58634">
        <ele>656.72</ele>
        <time>2013-12-08T07:56:01Z</time>
      </trkpt>
      <trkpt lat="45.89164" lon="3.58633">
        <ele>656.72</ele>
        <time>2013-12-08T07:56:02Z</time>
      </trkpt>
      <trkpt lat="45.89159" lon="3.58626">
        <ele>656.72</ele>
        <time>2013-12-08T07:56:06Z</time>
      </trkpt>
      <trkpt lat="45.89144" lon="3.58596">
        <ele>656.24</ele>
        <time>2013-12-08T07:56:22Z</time>
      </trkpt>
      <trkpt lat="45.89139" lon="3.58574">
        <ele>656.24</ele>
        <time>2013-12-08T07:56:33Z</time>
      </trkpt>
      <trkpt lat="45.89129" lon="3.58544">
        <ele>655.76</ele>
        <time>2013-12-08T07:56:48Z</time>
      </trkpt>
      <trkpt lat="45.89119" lon="3.58523">
        <ele>655.76</ele>
        <time>2013-12-08T07:56:59Z</time>
      </trkpt>
      <trkpt lat="45.89108" lon="3.58505">
        <ele>655.76</ele>
        <time>2013-12-08T07:57:09Z</time>
      </trkpt>
      <trkpt lat="45.89096" lon="3.58486">
        <ele>655.76</ele>
        <time>2013-12-08T07:57:20Z</time>
      </trkpt>
      <trkpt lat="45.89083" lon="3.58462">
        <ele>655.28</ele>
        <time>2013-12-08T07:57:34Z</time>
      </trkpt>
      <trkpt lat="45.89072" lon="3.5845">
        <ele>655.28</ele>
        <time>2013-12-08T07:57:42Z</time>
      </trkpt>
      <trkpt lat="45.89065" lon="3.5844">
        <ele>654.8</ele>
        <time>2013-12-08T07:57:49Z</time>
      </trkpt>
      <trkpt lat="45.89049" lon="3.58418">
        <ele>654.8</ele>
        <time>2013-12-08T07:58:03Z</time>
      </trkpt>
      <trkpt lat="45.89046" lon="3.58414">
        <ele>654.8</ele>
        <time>2013-12-08T07:58:06Z</time>
      </trkpt>
      <trkpt lat="45.8903" lon="3.58399">
        <ele>654.31</ele>
        <time>2013-12-08T07:58:17Z</time>
      </trkpt>
      <trkpt lat="45.89023" lon="3.58388">
        <ele>654.31</ele>
        <time>2013-12-08T07:58:23Z</time>
      </trkpt>
      <trkpt lat="45.89008" lon="3.58369">
        <ele>653.83</ele>
        <time>2013-12-08T07:58:36Z</time>
      </trkpt>
      <trkpt lat="45.89004" lon="3.58364">
        <ele>653.83</ele>
        <time>2013-12-08T07:58:39Z</time>
      </trkpt>
      <trkpt lat="45.88996" lon="3.58351">
        <ele>654.31</ele>
        <time>2013-12-08T07:58:47Z</time>
      </trkpt>
      <trkpt lat="45.88979" lon="3.5833">
        <ele>654.31</ele>
        <time>2013-12-08T07:59:01Z</time>
      </trkpt>
      <trkpt lat="45.88978" lon="3.58328">
        <ele>654.31</ele>
        <time>2013-12-08T07:59:02Z</time>
      </trkpt>
      <trkpt lat="45.88965" lon="3.58306">
        <ele>653.83</ele>
        <time>2013-12-08T07:59:14Z</time>
      </trkpt>
      <trkpt lat="45.88951" lon="3.58284">
        <ele>653.83</ele>
        <time>2013-12-08T07:59:28Z</time>
      </trkpt>
      <trkpt lat="45.88943" lon="3.58268">
        <ele>653.35</ele>
        <time>2013-12-08T07:59:38Z</time>
      </trkpt>
      <trkpt lat="45.8894" lon="3.58259">
        <ele>653.35</ele>
        <time>2013-12-08T07:59:43Z</time>
      </trkpt>
      <trkpt lat="45.88939" lon="3.5824">
        <ele>653.35</ele>
        <time>2013-12-08T07:59:50Z</time>
      </trkpt>
      <trkpt lat="45.88938" lon="3.58236">
        <ele>653.35</ele>
        <time>2013-12-08T07:59:52Z</time>
      </trkpt>
      <trkpt lat="45.88933" lon="3.58212">
        <ele>653.35</ele>
        <time>2013-12-08T08:00:03Z</time>
      </trkpt>
      <trkpt lat="45.88933" lon="3.58208">
        <ele>652.87</ele>
        <time>2013-12-08T08:00:05Z</time>
      </trkpt>
      <trkpt lat="45.88928" lon="3.58189">
        <ele>653.35</ele>
        <time>2013-12-08T08:00:16Z</time>
      </trkpt>
      <trkpt lat="45.88928" lon="3.5818">
        <ele>653.35</ele>
        <time>2013-12-08T08:00:22Z</time>
      </trkpt>
      <trkpt lat="45.88926" lon="3.58174">
        <ele>653.35</ele>
        <time>2013-12-08T08:00:25Z</time>
      </trkpt>
      <trkpt lat="45.88926" lon="3.58168">
        <ele>653.35</ele>
        <time>2013-12-08T08:00:28Z</time>
      </trkpt>
      <trkpt lat="45.88924" lon="3.5815">
        <ele>653.35</ele>
        <time>2013-12-08T08:00:37Z</time>
      </trkpt>
      <trkpt lat="45.88922" lon="3.58132">
        <ele>653.83</ele>
        <time>2013-12-08T08:00:46Z</time>
      </trkpt>
      <trkpt lat="45.8892" lon="3.58112">
        <ele>653.83</ele>
        <time>2013-12-08T08:00:56Z</time>
      </trkpt>
      <trkpt lat="45.88918" lon="3.5809">
        <ele>653.83</ele>
        <time>2013-12-08T08:01:06Z</time>
      </trkpt>
      <trkpt lat="45.88916" lon="3.58079">
        <ele>653.83</ele>
        <time>2013-12-08T08:01:11Z</time>
      </trkpt>
      <trkpt lat="45.88915" lon="3.58073">
        <ele>654.31</ele>
        <time>2013-12-08T08:01:14Z</time>
      </trkpt>
      <trkpt lat="45.88913" lon="3.58061">
        <ele>654.31</ele>
        <time>2013-12-08T08:01:20Z</time>
      </trkpt>
      <trkpt lat="45.88913" lon="3.58031">
        <ele>654.8</ele>
        <time>2013-12-08T08:01:34Z</time>
      </trkpt>
      <trkpt lat="45.8891" lon="3.58012">
        <ele>654.8</ele>
        <time>2013-12-08T08:01:42Z</time>
      </trkpt>
      <trkpt lat="45.88908" lon="3.57995">
        <ele>655.28</ele>
        <time>2013-12-08T08:01:49Z</time>
      </trkpt>
      <trkpt lat="45.88904" lon="3.57967">
        <ele>655.28</ele>
        <time>2013-12-08T08:02:02Z</time>
      </trkpt>
      <trkpt lat="45.88902" lon="3.57941">
        <ele>655.28</ele>
        <time>2013-12-08T08:02:14Z</time>
      </trkpt>
      <trkpt lat="45.889" lon="3.5793">
        <ele>655.28</ele>
        <time>2013-12-08T08:02:20Z</time>
      </trkpt>
      <trkpt lat="45.88898" lon="3.57919">
        <ele>655.76</ele>
        <time>2013-12-08T08:02:26Z</time>
      </trkpt>
      <trkpt lat="45.88895" lon="3.57904">
        <ele>656.24</ele>
        <time>2013-12-08T08:02:34Z</time>
      </trkpt>
      <trkpt lat="45.88895" lon="3.57885">
        <ele>656.24</ele>
        <time>2013-12-08T08:02:44Z</time>
      </trkpt>
      <trkpt lat="45.88894" lon="3.5787">
        <ele>656.24</ele>
        <time>2013-12-08T08:02:48Z</time>
      </trkpt>
      <trkpt lat="45.88894" lon="3.5786">
        <ele>656.24</ele>
        <time>2013-12-08T08:02:51Z</time>
      </trkpt>
      <trkpt lat="45.88892" lon="3.57851">
        <ele>656.72</ele>
        <time>2013-12-08T08:02:56Z</time>
      </trkpt>
      <trkpt lat="45.88888" lon="3.5784">
        <ele>656.72</ele>
        <time>2013-12-08T08:03:01Z</time>
      </trkpt>
      <trkpt lat="45.88887" lon="3.57828">
        <ele>658.16</ele>
        <time>2013-12-08T08:03:06Z</time>
      </trkpt>
      <trkpt lat="45.88878" lon="3.57792">
        <ele>656.72</ele>
        <time>2013-12-08T08:03:20Z</time>
      </trkpt>
      <trkpt lat="45.88873" lon="3.57778">
        <ele>656.72</ele>
        <time>2013-12-08T08:03:27Z</time>
      </trkpt>
      <trkpt lat="45.88873" lon="3.57776">
        <ele>656.72</ele>
        <time>2013-12-08T08:03:29Z</time>
      </trkpt>
      <trkpt lat="45.88869" lon="3.5777">
        <ele>656.72</ele>
        <time>2013-12-08T08:03:34Z</time>
      </trkpt>
      <trkpt lat="45.88867" lon="3.57763">
        <ele>656.72</ele>
        <time>2013-12-08T08:03:38Z</time>
      </trkpt>
      <trkpt lat="45.88854" lon="3.57738">
        <ele>656.72</ele>
        <time>2013-12-08T08:03:52Z</time>
      </trkpt>
      <trkpt lat="45.88844" lon="3.57719">
        <ele>657.2</ele>
        <time>2013-12-08T08:04:02Z</time>
      </trkpt>
      <trkpt lat="45.88831" lon="3.57693">
        <ele>656.72</ele>
        <time>2013-12-08T08:04:16Z</time>
      </trkpt>
      <trkpt lat="45.88819" lon="3.5767">
        <ele>656.72</ele>
        <time>2013-12-08T08:04:30Z</time>
      </trkpt>
      <trkpt lat="45.88807" lon="3.57652">
        <ele>656.72</ele>
        <time>2013-12-08T08:04:43Z</time>
      </trkpt>
      <trkpt lat="45.88798" lon="3.57639">
        <ele>656.72</ele>
        <time>2013-12-08T08:04:52Z</time>
      </trkpt>
      <trkpt lat="45.88781" lon="3.57628">
        <ele>657.2</ele>
        <time>2013-12-08T08:05:05Z</time>
      </trkpt>
      <trkpt lat="45.88776" lon="3.57626">
        <ele>657.2</ele>
        <time>2013-12-08T08:05:09Z</time>
      </trkpt>
      <trkpt lat="45.88772" lon="3.57626">
        <ele>657.2</ele>
        <time>2013-12-08T08:05:12Z</time>
      </trkpt>
      <trkpt lat="45.88768" lon="3.57624">
        <ele>657.2</ele>
        <time>2013-12-08T08:05:15Z</time>
      </trkpt>
      <trkpt lat="45.88763" lon="3.57624">
        <ele>657.2</ele>
        <time>2013-12-08T08:05:18Z</time>
      </trkpt>
      <trkpt lat="45.88756" lon="3.57623">
        <ele>657.2</ele>
        <time>2013-12-08T08:05:22Z</time>
      </trkpt>
      <trkpt lat="45.88736" lon="3.5762">
        <ele>657.68</ele>
        <time>2013-12-08T08:05:35Z</time>
      </trkpt>
      <trkpt lat="45.88718" lon="3.5762">
        <ele>658.16</ele>
        <time>2013-12-08T08:05:47Z</time>
      </trkpt>
      <trkpt lat="45.88698" lon="3.57619">
        <ele>658.64</ele>
        <time>2013-12-08T08:06:01Z</time>
      </trkpt>
      <trkpt lat="45.88695" lon="3.57619">
        <ele>658.16</ele>
        <time>2013-12-08T08:06:03Z</time>
      </trkpt>
      <trkpt lat="45.88675" lon="3.57616">
        <ele>659.12</ele>
        <time>2013-12-08T08:06:16Z</time>
      </trkpt>
      <trkpt lat="45.88649" lon="3.57607">
        <ele>660.08</ele>
        <time>2013-12-08T08:06:32Z</time>
      </trkpt>
      <trkpt lat="45.88631" lon="3.57595">
        <ele>660.56</ele>
        <time>2013-12-08T08:06:45Z</time>
      </trkpt>
      <trkpt lat="45.88615" lon="3.57577">
        <ele>660.56</ele>
        <time>2013-12-08T08:06:58Z</time>
      </trkpt>
      <trkpt lat="45.88611" lon="3.57569">
        <ele>660.56</ele>
        <time>2013-12-08T08:07:03Z</time>
      </trkpt>
      <trkpt lat="45.88597" lon="3.57551">
        <ele>661.04</ele>
        <time>2013-12-08T08:07:14Z</time>
      </trkpt>
      <trkpt lat="45.88582" lon="3.57526">
        <ele>661.52</ele>
        <time>2013-12-08T08:07:28Z</time>
      </trkpt>
      <trkpt lat="45.8857" lon="3.57499">
        <ele>662.01</ele>
        <time>2013-12-08T08:07:43Z</time>
      </trkpt>
      <trkpt lat="45.88566" lon="3.57491">
        <ele>662.01</ele>
        <time>2013-12-08T08:07:47Z</time>
      </trkpt>
      <trkpt lat="45.88563" lon="3.57482">
        <ele>662.01</ele>
        <time>2013-12-08T08:07:51Z</time>
      </trkpt>
      <trkpt lat="45.88555" lon="3.57451">
        <ele>662.01</ele>
        <time>2013-12-08T08:08:06Z</time>
      </trkpt>
      <trkpt lat="45.88555" lon="3.57449">
        <ele>662.01</ele>
        <time>2013-12-08T08:08:07Z</time>
      </trkpt>
      <trkpt lat="45.8855" lon="3.57436">
        <ele>662.01</ele>
        <time>2013-12-08T08:08:13Z</time>
      </trkpt>
      <trkpt lat="45.88548" lon="3.57432">
        <ele>662.01</ele>
        <time>2013-12-08T08:08:15Z</time>
      </trkpt>
      <trkpt lat="45.88542" lon="3.57411">
        <ele>662.49</ele>
        <time>2013-12-08T08:08:26Z</time>
      </trkpt>
      <trkpt lat="45.88531" lon="3.57389">
        <ele>662.49</ele>
        <time>2013-12-08T08:08:38Z</time>
      </trkpt>
      <trkpt lat="45.88516" lon="3.57364">
        <ele>663.45</ele>
        <time>2013-12-08T08:08:54Z</time>
      </trkpt>
      <trkpt lat="45.88499" lon="3.57351">
        <ele>664.41</ele>
        <time>2013-12-08T08:09:08Z</time>
      </trkpt>
      <trkpt lat="45.88488" lon="3.5735">
        <ele>665.37</ele>
        <time>2013-12-08T08:09:19Z</time>
      </trkpt>
      <trkpt lat="45.88482" lon="3.57351">
        <ele>666.33</ele>
        <time>2013-12-08T08:09:24Z</time>
      </trkpt>
      <trkpt lat="45.88479" lon="3.57352">
        <ele>666.33</ele>
        <time>2013-12-08T08:09:26Z</time>
      </trkpt>
      <trkpt lat="45.88473" lon="3.57355">
        <ele>666.81</ele>
        <time>2013-12-08T08:09:32Z</time>
      </trkpt>
      <trkpt lat="45.88463" lon="3.57358">
        <ele>667.29</ele>
        <time>2013-12-08T08:09:37Z</time>
      </trkpt>
      <trkpt lat="45.88439" lon="3.57373">
        <ele>668.73</ele>
        <time>2013-12-08T08:09:54Z</time>
      </trkpt>
      <trkpt lat="45.88413" lon="3.57387">
        <ele>669.7</ele>
        <time>2013-12-08T08:10:10Z</time>
      </trkpt>
      <trkpt lat="45.8841" lon="3.57389">
        <ele>669.7</ele>
        <time>2013-12-08T08:10:12Z</time>
      </trkpt>
      <trkpt lat="45.88396" lon="3.574">
        <ele>670.18</ele>
        <time>2013-12-08T08:10:24Z</time>
      </trkpt>
      <trkpt lat="45.88376" lon="3.57419">
        <ele>670.66</ele>
        <time>2013-12-08T08:10:38Z</time>
      </trkpt>
      <trkpt lat="45.88373" lon="3.5742">
        <ele>670.66</ele>
        <time>2013-12-08T08:10:40Z</time>
      </trkpt>
      <trkpt lat="45.88357" lon="3.57442">
        <ele>671.14</ele>
        <time>2013-12-08T08:10:55Z</time>
      </trkpt>
      <trkpt lat="45.88344" lon="3.57466">
        <ele>670.66</ele>
        <time>2013-12-08T08:11:08Z</time>
      </trkpt>
      <trkpt lat="45.88335" lon="3.57477">
        <ele>670.66</ele>
        <time>2013-12-08T08:11:16Z</time>
      </trkpt>
      <trkpt lat="45.88313" lon="3.57491">
        <ele>669.7</ele>
        <time>2013-12-08T08:11:31Z</time>
      </trkpt>
      <trkpt lat="45.88296" lon="3.57509">
        <ele>669.22</ele>
        <time>2013-12-08T08:11:45Z</time>
      </trkpt>
      <trkpt lat="45.88275" lon="3.57521">
        <ele>669.22</ele>
        <time>2013-12-08T08:11:59Z</time>
      </trkpt>
      <trkpt lat="45.8826" lon="3.57531">
        <ele>668.73</ele>
        <time>2013-12-08T08:12:10Z</time>
      </trkpt>
      <trkpt lat="45.88236" lon="3.57535">
        <ele>667.29</ele>
        <time>2013-12-08T08:12:22Z</time>
      </trkpt>
      <trkpt lat="45.88209" lon="3.57527">
        <ele>664.89</ele>
        <time>2013-12-08T08:12:34Z</time>
      </trkpt>
      <trkpt lat="45.88183" lon="3.57517">
        <ele>662.01</ele>
        <time>2013-12-08T08:12:47Z</time>
      </trkpt>
      <trkpt lat="45.8815" lon="3.57508">
        <ele>660.08</ele>
        <time>2013-12-08T08:13:00Z</time>
      </trkpt>
      <trkpt lat="45.88115" lon="3.57498">
        <ele>658.64</ele>
        <time>2013-12-08T08:13:13Z</time>
      </trkpt>
      <trkpt lat="45.88084" lon="3.5749">
        <ele>657.2</ele>
        <time>2013-12-08T08:13:25Z</time>
      </trkpt>
      <trkpt lat="45.88057" lon="3.57482">
        <ele>656.24</ele>
        <time>2013-12-08T08:13:37Z</time>
      </trkpt>
      <trkpt lat="45.88048" lon="3.57478">
        <ele>655.76</ele>
        <time>2013-12-08T08:13:41Z</time>
      </trkpt>
      <trkpt lat="45.88021" lon="3.57457">
        <ele>654.31</ele>
        <time>2013-12-08T08:13:54Z</time>
      </trkpt>
      <trkpt lat="45.88004" lon="3.57433">
        <ele>653.35</ele>
        <time>2013-12-08T08:14:04Z</time>
      </trkpt>
      <trkpt lat="45.87999" lon="3.57423">
        <ele>652.39</ele>
        <time>2013-12-08T08:14:08Z</time>
      </trkpt>
      <trkpt lat="45.87991" lon="3.57384">
        <ele>651.43</ele>
        <time>2013-12-08T08:14:21Z</time>
      </trkpt>
      <trkpt lat="45.87991" lon="3.57376">
        <ele>650.95</ele>
        <time>2013-12-08T08:14:24Z</time>
      </trkpt>
      <trkpt lat="45.87987" lon="3.57358">
        <ele>650.47</ele>
        <time>2013-12-08T08:14:30Z</time>
      </trkpt>
      <trkpt lat="45.87974" lon="3.57315">
        <ele>649.51</ele>
        <time>2013-12-08T08:14:42Z</time>
      </trkpt>
      <trkpt lat="45.87954" lon="3.57275">
        <ele>648.07</ele>
        <time>2013-12-08T08:14:58Z</time>
      </trkpt>
      <trkpt lat="45.87948" lon="3.57265">
        <ele>647.59</ele>
        <time>2013-12-08T08:15:02Z</time>
      </trkpt>
      <trkpt lat="45.87942" lon="3.57254">
        <ele>647.59</ele>
        <time>2013-12-08T08:15:06Z</time>
      </trkpt>
      <trkpt lat="45.87926" lon="3.57227">
        <ele>646.14</ele>
        <time>2013-12-08T08:15:16Z</time>
      </trkpt>
      <trkpt lat="45.87912" lon="3.57194">
        <ele>644.7</ele>
        <time>2013-12-08T08:15:30Z</time>
      </trkpt>
      <trkpt lat="45.87911" lon="3.57191">
        <ele>644.7</ele>
        <time>2013-12-08T08:15:31Z</time>
      </trkpt>
      <trkpt lat="45.87908" lon="3.57182">
        <ele>643.74</ele>
        <time>2013-12-08T08:15:35Z</time>
      </trkpt>
      <trkpt lat="45.87902" lon="3.57173">
        <ele>643.26</ele>
        <time>2013-12-08T08:15:39Z</time>
      </trkpt>
      <trkpt lat="45.87881" lon="3.57145">
        <ele>641.82</ele>
        <time>2013-12-08T08:15:52Z</time>
      </trkpt>
      <trkpt lat="45.87853" lon="3.57117">
        <ele>639.89</ele>
        <time>2013-12-08T08:16:04Z</time>
      </trkpt>
      <trkpt lat="45.87846" lon="3.5711">
        <ele>639.41</ele>
        <time>2013-12-08T08:16:07Z</time>
      </trkpt>
      <trkpt lat="45.87834" lon="3.5709">
        <ele>638.93</ele>
        <time>2013-12-08T08:16:14Z</time>
      </trkpt>
      <trkpt lat="45.87813" lon="3.57076">
        <ele>637.97</ele>
        <time>2013-12-08T08:16:22Z</time>
      </trkpt>
      <trkpt lat="45.87808" lon="3.57075">
        <ele>637.49</ele>
        <time>2013-12-08T08:16:24Z</time>
      </trkpt>
      <trkpt lat="45.878" lon="3.57078">
        <ele>637.01</ele>
        <time>2013-12-08T08:16:28Z</time>
      </trkpt>
      <trkpt lat="45.87778" lon="3.57096">
        <ele>635.57</ele>
        <time>2013-12-08T08:16:40Z</time>
      </trkpt>
      <trkpt lat="45.87772" lon="3.57106">
        <ele>635.09</ele>
        <time>2013-12-08T08:16:44Z</time>
      </trkpt>
      <trkpt lat="45.87762" lon="3.5712">
        <ele>634.13</ele>
        <time>2013-12-08T08:16:51Z</time>
      </trkpt>
      <trkpt lat="45.87749" lon="3.57149">
        <ele>633.17</ele>
        <time>2013-12-08T08:17:06Z</time>
      </trkpt>
      <trkpt lat="45.87742" lon="3.57178">
        <ele>632.2</ele>
        <time>2013-12-08T08:17:18Z</time>
      </trkpt>
      <trkpt lat="45.87725" lon="3.57187">
        <ele>630.76</ele>
        <time>2013-12-08T08:17:31Z</time>
      </trkpt>
      <trkpt lat="45.877" lon="3.57174">
        <ele>629.32</ele>
        <time>2013-12-08T08:17:45Z</time>
      </trkpt>
      <trkpt lat="45.87691" lon="3.57166">
        <ele>628.36</ele>
        <time>2013-12-08T08:17:52Z</time>
      </trkpt>
      <trkpt lat="45.87682" lon="3.57156">
        <ele>627.88</ele>
        <time>2013-12-08T08:18:00Z</time>
      </trkpt>
      <trkpt lat="45.87678" lon="3.57149">
        <ele>627.88</ele>
        <time>2013-12-08T08:18:04Z</time>
      </trkpt>
      <trkpt lat="45.87665" lon="3.57127">
        <ele>626.44</ele>
        <time>2013-12-08T08:18:17Z</time>
      </trkpt>
      <trkpt lat="45.87646" lon="3.57116">
        <ele>624.51</ele>
        <time>2013-12-08T08:18:31Z</time>
      </trkpt>
      <trkpt lat="45.87638" lon="3.57116">
        <ele>624.03</ele>
        <time>2013-12-08T08:18:36Z</time>
      </trkpt>
      <trkpt lat="45.87622" lon="3.57125">
        <ele>623.07</ele>
        <time>2013-12-08T08:18:47Z</time>
      </trkpt>
      <trkpt lat="45.87619" lon="3.57128">
        <ele>623.07</ele>
        <time>2013-12-08T08:18:49Z</time>
      </trkpt>
      <trkpt lat="45.87606" lon="3.57153">
        <ele>621.63</ele>
        <time>2013-12-08T08:19:02Z</time>
      </trkpt>
      <trkpt lat="45.8761" lon="3.57185">
        <ele>619.71</ele>
        <time>2013-12-08T08:19:16Z</time>
      </trkpt>
      <trkpt lat="45.8763" lon="3.57211">
        <ele>618.26</ele>
        <time>2013-12-08T08:19:26Z</time>
      </trkpt>
      <trkpt lat="45.87632" lon="3.57212">
        <ele>617.78</ele>
        <time>2013-12-08T08:19:27Z</time>
      </trkpt>
      <trkpt lat="45.8764" lon="3.57236">
        <ele>616.34</ele>
        <time>2013-12-08T08:19:35Z</time>
      </trkpt>
      <trkpt lat="45.87639" lon="3.5726">
        <ele>615.38</ele>
        <time>2013-12-08T08:19:41Z</time>
      </trkpt>
      <trkpt lat="45.87622" lon="3.57285">
        <ele>613.46</ele>
        <time>2013-12-08T08:19:51Z</time>
      </trkpt>
      <trkpt lat="45.87613" lon="3.57292">
        <ele>612.98</ele>
        <time>2013-12-08T08:19:55Z</time>
      </trkpt>
      <trkpt lat="45.87593" lon="3.57312">
        <ele>611.54</ele>
        <time>2013-12-08T08:20:05Z</time>
      </trkpt>
      <trkpt lat="45.8759" lon="3.57317">
        <ele>611.06</ele>
        <time>2013-12-08T08:20:07Z</time>
      </trkpt>
      <trkpt lat="45.87576" lon="3.57352">
        <ele>609.13</ele>
        <time>2013-12-08T08:20:20Z</time>
      </trkpt>
      <trkpt lat="45.87574" lon="3.57376">
        <ele>608.17</ele>
        <time>2013-12-08T08:20:27Z</time>
      </trkpt>
      <trkpt lat="45.87565" lon="3.57413">
        <ele>607.21</ele>
        <time>2013-12-08T08:20:37Z</time>
      </trkpt>
      <trkpt lat="45.87549" lon="3.57444">
        <ele>605.77</ele>
        <time>2013-12-08T08:20:47Z</time>
      </trkpt>
      <trkpt lat="45.87524" lon="3.5746">
        <ele>603.85</ele>
        <time>2013-12-08T08:20:58Z</time>
      </trkpt>
      <trkpt lat="45.87503" lon="3.57456">
        <ele>602.4</ele>
        <time>2013-12-08T08:21:06Z</time>
      </trkpt>
      <trkpt lat="45.87494" lon="3.5745">
        <ele>601.44</ele>
        <time>2013-12-08T08:21:10Z</time>
      </trkpt>
      <trkpt lat="45.87489" lon="3.57445">
        <ele>601.44</ele>
        <time>2013-12-08T08:21:12Z</time>
      </trkpt>
      <trkpt lat="45.87482" lon="3.57428">
        <ele>600.48</ele>
        <time>2013-12-08T08:21:18Z</time>
      </trkpt>
      <trkpt lat="45.87466" lon="3.57388">
        <ele>598.56</ele>
        <time>2013-12-08T08:21:30Z</time>
      </trkpt>
      <trkpt lat="45.87452" lon="3.5735">
        <ele>596.64</ele>
        <time>2013-12-08T08:21:41Z</time>
      </trkpt>
      <trkpt lat="45.87437" lon="3.57313">
        <ele>595.19</ele>
        <time>2013-12-08T08:21:53Z</time>
      </trkpt>
      <trkpt lat="45.87435" lon="3.57308">
        <ele>594.23</ele>
        <time>2013-12-08T08:21:55Z</time>
      </trkpt>
      <trkpt lat="45.87419" lon="3.57275">
        <ele>593.27</ele>
        <time>2013-12-08T08:22:06Z</time>
      </trkpt>
      <trkpt lat="45.87404" lon="3.57238">
        <ele>591.35</ele>
        <time>2013-12-08T08:22:19Z</time>
      </trkpt>
      <trkpt lat="45.87402" lon="3.5723">
        <ele>590.87</ele>
        <time>2013-12-08T08:22:22Z</time>
      </trkpt>
      <trkpt lat="45.87395" lon="3.5722">
        <ele>590.39</ele>
        <time>2013-12-08T08:22:27Z</time>
      </trkpt>
      <trkpt lat="45.87375" lon="3.57206">
        <ele>588.95</ele>
        <time>2013-12-08T08:22:38Z</time>
      </trkpt>
      <trkpt lat="45.87375" lon="3.57206">
        <ele>589.43</ele>
        <time>2013-12-08T08:22:39Z</time>
      </trkpt>
      <trkpt lat="45.87359" lon="3.57191">
        <ele>587.98</ele>
        <time>2013-12-08T08:22:48Z</time>
      </trkpt>
      <trkpt lat="45.87355" lon="3.57179">
        <ele>587.5</ele>
        <time>2013-12-08T08:22:53Z</time>
      </trkpt>
      <trkpt lat="45.87352" lon="3.57167">
        <ele>587.02</ele>
        <time>2013-12-08T08:22:58Z</time>
      </trkpt>
      <trkpt lat="45.87349" lon="3.57162">
        <ele>587.02</ele>
        <time>2013-12-08T08:23:01Z</time>
      </trkpt>
      <trkpt lat="45.87345" lon="3.57148">
        <ele>586.06</ele>
        <time>2013-12-08T08:23:07Z</time>
      </trkpt>
      <trkpt lat="45.87344" lon="3.57141">
        <ele>586.06</ele>
        <time>2013-12-08T08:23:10Z</time>
      </trkpt>
      <trkpt lat="45.87335" lon="3.5711">
        <ele>585.1</ele>
        <time>2013-12-08T08:23:24Z</time>
      </trkpt>
      <trkpt lat="45.87317" lon="3.57086">
        <ele>585.1</ele>
        <time>2013-12-08T08:23:38Z</time>
      </trkpt>
      <trkpt lat="45.87311" lon="3.5708">
        <ele>585.1</ele>
        <time>2013-12-08T08:23:42Z</time>
      </trkpt>
      <trkpt lat="45.87297" lon="3.57059">
        <ele>584.62</ele>
        <time>2013-12-08T08:23:55Z</time>
      </trkpt>
      <trkpt lat="45.8729" lon="3.57044">
        <ele>584.62</ele>
        <time>2013-12-08T08:24:03Z</time>
      </trkpt>
      <trkpt lat="45.87279" lon="3.57016">
        <ele>584.14</ele>
        <time>2013-12-08T08:24:17Z</time>
      </trkpt>
      <trkpt lat="45.87272" lon="3.56987">
        <ele>584.14</ele>
        <time>2013-12-08T08:24:30Z</time>
      </trkpt>
      <trkpt lat="45.87256" lon="3.56961">
        <ele>583.66</ele>
        <time>2013-12-08T08:24:46Z</time>
      </trkpt>
      <trkpt lat="45.87238" lon="3.56941">
        <ele>583.66</ele>
        <time>2013-12-08T08:25:00Z</time>
      </trkpt>
      <trkpt lat="45.8722" lon="3.56929">
        <ele>583.18</ele>
        <time>2013-12-08T08:25:12Z</time>
      </trkpt>
      <trkpt lat="45.87203" lon="3.56914">
        <ele>582.7</ele>
        <time>2013-12-08T08:25:25Z</time>
      </trkpt>
      <trkpt lat="45.87194" lon="3.56907">
        <ele>582.22</ele>
        <time>2013-12-08T08:25:31Z</time>
      </trkpt>
      <trkpt lat="45.87178" lon="3.56891">
        <ele>580.77</ele>
        <time>2013-12-08T08:25:44Z</time>
      </trkpt>
      <trkpt lat="45.87164" lon="3.56869">
        <ele>580.29</ele>
        <time>2013-12-08T08:25:57Z</time>
      </trkpt>
      <trkpt lat="45.87161" lon="3.56862">
        <ele>579.81</ele>
        <time>2013-12-08T08:26:01Z</time>
      </trkpt>
      <trkpt lat="45.87152" lon="3.56839">
        <ele>578.85</ele>
        <time>2013-12-08T08:26:14Z</time>
      </trkpt>
      <trkpt lat="45.87136" lon="3.56814">
        <ele>577.41</ele>
        <time>2013-12-08T08:26:28Z</time>
      </trkpt>
      <trkpt lat="45.87133" lon="3.56808">
        <ele>577.41</ele>
        <time>2013-12-08T08:26:31Z</time>
      </trkpt>
      <trkpt lat="45.87116" lon="3.56782">
        <ele>575.97</ele>
        <time>2013-12-08T08:26:42Z</time>
      </trkpt>
      <trkpt lat="45.87104" lon="3.56763">
        <ele>575.01</ele>
        <time>2013-12-08T08:26:50Z</time>
      </trkpt>
      <trkpt lat="45.87081" lon="3.56742">
        <ele>573.56</ele>
        <time>2013-12-08T08:27:00Z</time>
      </trkpt>
      <trkpt lat="45.87061" lon="3.56733">
        <ele>572.12</ele>
        <time>2013-12-08T08:27:10Z</time>
      </trkpt>
      <trkpt lat="45.87027" lon="3.5674">
        <ele>570.2</ele>
        <time>2013-12-08T08:27:22Z</time>
      </trkpt>
      <trkpt lat="45.86998" lon="3.56747">
        <ele>568.76</ele>
        <time>2013-12-08T08:27:33Z</time>
      </trkpt>
      <trkpt lat="45.86984" lon="3.56744">
        <ele>568.28</ele>
        <time>2013-12-08T08:27:39Z</time>
      </trkpt>
      <trkpt lat="45.86964" lon="3.56733">
        <ele>567.32</ele>
        <time>2013-12-08T08:27:49Z</time>
      </trkpt>
      <trkpt lat="45.86957" lon="3.56729">
        <ele>566.83</ele>
        <time>2013-12-08T08:27:52Z</time>
      </trkpt>
      <trkpt lat="45.86951" lon="3.56724">
        <ele>566.35</ele>
        <time>2013-12-08T08:27:55Z</time>
      </trkpt>
      <trkpt lat="45.86935" lon="3.56703">
        <ele>564.91</ele>
        <time>2013-12-08T08:28:06Z</time>
      </trkpt>
      <trkpt lat="45.86919" lon="3.56689">
        <ele>563.95</ele>
        <time>2013-12-08T08:28:14Z</time>
      </trkpt>
      <trkpt lat="45.86915" lon="3.56687">
        <ele>563.95</ele>
        <time>2013-12-08T08:28:16Z</time>
      </trkpt>
      <trkpt lat="45.86905" lon="3.56677">
        <ele>563.47</ele>
        <time>2013-12-08T08:28:21Z</time>
      </trkpt>
      <trkpt lat="45.8688" lon="3.5666">
        <ele>562.51</ele>
        <time>2013-12-08T08:28:31Z</time>
      </trkpt>
      <trkpt lat="45.8686" lon="3.56647">
        <ele>561.55</ele>
        <time>2013-12-08T08:28:40Z</time>
      </trkpt>
      <trkpt lat="45.8683" lon="3.56648">
        <ele>559.62</ele>
        <time>2013-12-08T08:28:53Z</time>
      </trkpt>
      <trkpt lat="45.86807" lon="3.56646">
        <ele>559.14</ele>
        <time>2013-12-08T08:29:03Z</time>
      </trkpt>
      <trkpt lat="45.86806" lon="3.56645">
        <ele>558.66</ele>
        <time>2013-12-08T08:29:04Z</time>
      </trkpt>
      <trkpt lat="45.86776" lon="3.56635">
        <ele>557.22</ele>
        <time>2013-12-08T08:29:16Z</time>
      </trkpt>
      <trkpt lat="45.86744" lon="3.56631">
        <ele>556.26</ele>
        <time>2013-12-08T08:29:26Z</time>
      </trkpt>
      <trkpt lat="45.86712" lon="3.56631">
        <ele>554.82</ele>
        <time>2013-12-08T08:29:37Z</time>
      </trkpt>
      <trkpt lat="45.86681" lon="3.5662">
        <ele>553.86</ele>
        <time>2013-12-08T08:29:47Z</time>
      </trkpt>
      <trkpt lat="45.86657" lon="3.56586">
        <ele>551.93</ele>
        <time>2013-12-08T08:29:57Z</time>
      </trkpt>
      <trkpt lat="45.86641" lon="3.56553">
        <ele>550.97</ele>
        <time>2013-12-08T08:30:07Z</time>
      </trkpt>
      <trkpt lat="45.86622" lon="3.56529">
        <ele>549.05</ele>
        <time>2013-12-08T08:30:17Z</time>
      </trkpt>
      <trkpt lat="45.86612" lon="3.56526">
        <ele>548.57</ele>
        <time>2013-12-08T08:30:21Z</time>
      </trkpt>
      <trkpt lat="45.86578" lon="3.5652">
        <ele>546.65</ele>
        <time>2013-12-08T08:30:33Z</time>
      </trkpt>
      <trkpt lat="45.86545" lon="3.56527">
        <ele>544.72</ele>
        <time>2013-12-08T08:30:45Z</time>
      </trkpt>
      <trkpt lat="45.86533" lon="3.56528">
        <ele>544.24</ele>
        <time>2013-12-08T08:30:49Z</time>
      </trkpt>
      <trkpt lat="45.86515" lon="3.56509">
        <ele>543.28</ele>
        <time>2013-12-08T08:30:57Z</time>
      </trkpt>
      <trkpt lat="45.86513" lon="3.56458">
        <ele>541.36</ele>
        <time>2013-12-08T08:31:11Z</time>
      </trkpt>
      <trkpt lat="45.8653" lon="3.56419">
        <ele>539.92</ele>
        <time>2013-12-08T08:31:23Z</time>
      </trkpt>
      <trkpt lat="45.86534" lon="3.56414">
        <ele>539.92</ele>
        <time>2013-12-08T08:31:25Z</time>
      </trkpt>
      <trkpt lat="45.86551" lon="3.56386">
        <ele>537.51</ele>
        <time>2013-12-08T08:31:35Z</time>
      </trkpt>
      <trkpt lat="45.86573" lon="3.56356">
        <ele>536.07</ele>
        <time>2013-12-08T08:31:47Z</time>
      </trkpt>
      <trkpt lat="45.86594" lon="3.56335">
        <ele>534.63</ele>
        <time>2013-12-08T08:31:58Z</time>
      </trkpt>
      <trkpt lat="45.86621" lon="3.56309">
        <ele>533.67</ele>
        <time>2013-12-08T08:32:10Z</time>
      </trkpt>
      <trkpt lat="45.86648" lon="3.5629">
        <ele>532.23</ele>
        <time>2013-12-08T08:32:22Z</time>
      </trkpt>
      <trkpt lat="45.86666" lon="3.56291">
        <ele>531.27</ele>
        <time>2013-12-08T08:32:29Z</time>
      </trkpt>
      <trkpt lat="45.86687" lon="3.56291">
        <ele>529.82</ele>
        <time>2013-12-08T08:32:39Z</time>
      </trkpt>
      <trkpt lat="45.86699" lon="3.56285">
        <ele>528.86</ele>
        <time>2013-12-08T08:32:44Z</time>
      </trkpt>
      <trkpt lat="45.86704" lon="3.56252">
        <ele>526.94</ele>
        <time>2013-12-08T08:32:54Z</time>
      </trkpt>
      <trkpt lat="45.86703" lon="3.56238">
        <ele>526.46</ele>
        <time>2013-12-08T08:32:59Z</time>
      </trkpt>
      <trkpt lat="45.86697" lon="3.56224">
        <ele>525.98</ele>
        <time>2013-12-08T08:33:05Z</time>
      </trkpt>
      <trkpt lat="45.86685" lon="3.562">
        <ele>525.02</ele>
        <time>2013-12-08T08:33:19Z</time>
      </trkpt>
      <trkpt lat="45.86679" lon="3.56192">
        <ele>524.54</ele>
        <time>2013-12-08T08:33:24Z</time>
      </trkpt>
      <trkpt lat="45.8667" lon="3.56179">
        <ele>523.58</ele>
        <time>2013-12-08T08:33:33Z</time>
      </trkpt>
      <trkpt lat="45.86657" lon="3.56165">
        <ele>522.61</ele>
        <time>2013-12-08T08:33:45Z</time>
      </trkpt>
      <trkpt lat="45.86644" lon="3.5616">
        <ele>522.13</ele>
        <time>2013-12-08T08:33:54Z</time>
      </trkpt>
      <trkpt lat="45.86637" lon="3.56157">
        <ele>522.13</ele>
        <time>2013-12-08T08:33:58Z</time>
      </trkpt>
      <trkpt lat="45.86615" lon="3.56147">
        <ele>520.69</ele>
        <time>2013-12-08T08:34:13Z</time>
      </trkpt>
      <trkpt lat="45.86605" lon="3.5614">
        <ele>520.21</ele>
        <time>2013-12-08T08:34:21Z</time>
      </trkpt>
      <trkpt lat="45.86598" lon="3.56139">
        <ele>519.73</ele>
        <time>2013-12-08T08:34:26Z</time>
      </trkpt>
      <trkpt lat="45.86591" lon="3.56139">
        <ele>519.25</ele>
        <time>2013-12-08T08:34:31Z</time>
      </trkpt>
      <trkpt lat="45.86581" lon="3.5614">
        <ele>518.29</ele>
        <time>2013-12-08T08:34:38Z</time>
      </trkpt>
      <trkpt lat="45.86577" lon="3.5614">
        <ele>518.29</ele>
        <time>2013-12-08T08:34:40Z</time>
      </trkpt>
      <trkpt lat="45.86558" lon="3.56136">
        <ele>517.33</ele>
        <time>2013-12-08T08:34:52Z</time>
      </trkpt>
      <trkpt lat="45.86535" lon="3.56125">
        <ele>515.88</ele>
        <time>2013-12-08T08:35:07Z</time>
      </trkpt>
      <trkpt lat="45.86514" lon="3.56127">
        <ele>514.92</ele>
        <time>2013-12-08T08:35:20Z</time>
      </trkpt>
      <trkpt lat="45.86493" lon="3.56124">
        <ele>513.48</ele>
        <time>2013-12-08T08:35:33Z</time>
      </trkpt>
      <trkpt lat="45.86487" lon="3.56121">
        <ele>513</ele>
        <time>2013-12-08T08:35:37Z</time>
      </trkpt>
      <trkpt lat="45.8648" lon="3.5612">
        <ele>512.52</ele>
        <time>2013-12-08T08:35:41Z</time>
      </trkpt>
      <trkpt lat="45.86461" lon="3.56112">
        <ele>511.08</ele>
        <time>2013-12-08T08:35:53Z</time>
      </trkpt>
      <trkpt lat="45.86442" lon="3.56099">
        <ele>510.12</ele>
        <time>2013-12-08T08:36:07Z</time>
      </trkpt>
      <trkpt lat="45.86423" lon="3.56083">
        <ele>508.67</ele>
        <time>2013-12-08T08:36:20Z</time>
      </trkpt>
      <trkpt lat="45.86402" lon="3.56067">
        <ele>507.71</ele>
        <time>2013-12-08T08:36:36Z</time>
      </trkpt>
      <trkpt lat="45.86395" lon="3.56062">
        <ele>507.23</ele>
        <time>2013-12-08T08:36:41Z</time>
      </trkpt>
      <trkpt lat="45.86382" lon="3.56053">
        <ele>506.27</ele>
        <time>2013-12-08T08:36:50Z</time>
      </trkpt>
      <trkpt lat="45.8636" lon="3.56041">
        <ele>505.31</ele>
        <time>2013-12-08T08:37:04Z</time>
      </trkpt>
      <trkpt lat="45.86357" lon="3.56041">
        <ele>505.31</ele>
        <time>2013-12-08T08:37:06Z</time>
      </trkpt>
      <trkpt lat="45.86338" lon="3.56026">
        <ele>503.87</ele>
        <time>2013-12-08T08:37:21Z</time>
      </trkpt>
      <trkpt lat="45.86323" lon="3.56012">
        <ele>502.91</ele>
        <time>2013-12-08T08:37:34Z</time>
      </trkpt>
      <trkpt lat="45.86307" lon="3.55994">
        <ele>501.95</ele>
        <time>2013-12-08T08:37:48Z</time>
      </trkpt>
      <trkpt lat="45.86289" lon="3.55975">
        <ele>500.5</ele>
        <time>2013-12-08T08:38:01Z</time>
      </trkpt>
      <trkpt lat="45.86278" lon="3.55954">
        <ele>499.54</ele>
        <time>2013-12-08T08:38:12Z</time>
      </trkpt>
      <trkpt lat="45.86271" lon="3.55933">
        <ele>498.58</ele>
        <time>2013-12-08T08:38:23Z</time>
      </trkpt>
      <trkpt lat="45.86269" lon="3.55914">
        <ele>498.1</ele>
        <time>2013-12-08T08:38:32Z</time>
      </trkpt>
      <trkpt lat="45.86272" lon="3.55898">
        <ele>497.14</ele>
        <time>2013-12-08T08:38:40Z</time>
      </trkpt>
      <trkpt lat="45.86279" lon="3.5588">
        <ele>496.66</ele>
        <time>2013-12-08T08:38:49Z</time>
      </trkpt>
      <trkpt lat="45.86281" lon="3.55871">
        <ele>496.18</ele>
        <time>2013-12-08T08:38:53Z</time>
      </trkpt>
      <trkpt lat="45.86287" lon="3.55866">
        <ele>495.7</ele>
        <time>2013-12-08T08:38:58Z</time>
      </trkpt>
      <trkpt lat="45.86292" lon="3.55859">
        <ele>495.22</ele>
        <time>2013-12-08T08:39:10Z</time>
      </trkpt>
      <trkpt lat="45.86295" lon="3.55857">
        <ele>494.74</ele>
        <time>2013-12-08T08:39:15Z</time>
      </trkpt>
      <trkpt lat="45.86298" lon="3.55844">
        <ele>495.22</ele>
        <time>2013-12-08T08:39:20Z</time>
      </trkpt>
      <trkpt lat="45.86298" lon="3.55836">
        <ele>494.26</ele>
        <time>2013-12-08T08:39:22Z</time>
      </trkpt>
      <trkpt lat="45.86304" lon="3.55818">
        <ele>493.29</ele>
        <time>2013-12-08T08:39:29Z</time>
      </trkpt>
      <trkpt lat="45.86307" lon="3.55795">
        <ele>491.85</ele>
        <time>2013-12-08T08:39:35Z</time>
      </trkpt>
      <trkpt lat="45.86303" lon="3.55757">
        <ele>490.89</ele>
        <time>2013-12-08T08:39:46Z</time>
      </trkpt>
      <trkpt lat="45.86302" lon="3.55732">
        <ele>490.89</ele>
        <time>2013-12-08T08:39:51Z</time>
      </trkpt>
      <trkpt lat="45.86301" lon="3.55713">
        <ele>490.41</ele>
        <time>2013-12-08T08:39:56Z</time>
      </trkpt>
      <trkpt lat="45.86304" lon="3.55675">
        <ele>488.97</ele>
        <time>2013-12-08T08:40:06Z</time>
      </trkpt>
      <trkpt lat="45.86308" lon="3.55641">
        <ele>488.49</ele>
        <time>2013-12-08T08:40:15Z</time>
      </trkpt>
      <trkpt lat="45.86323" lon="3.5561">
        <ele>487.53</ele>
        <time>2013-12-08T08:40:26Z</time>
      </trkpt>
      <trkpt lat="45.86329" lon="3.55598">
        <ele>487.05</ele>
        <time>2013-12-08T08:40:30Z</time>
      </trkpt>
      <trkpt lat="45.86334" lon="3.55579">
        <ele>486.56</ele>
        <time>2013-12-08T08:40:35Z</time>
      </trkpt>
      <trkpt lat="45.8634" lon="3.55533">
        <ele>485.12</ele>
        <time>2013-12-08T08:40:47Z</time>
      </trkpt>
      <trkpt lat="45.86346" lon="3.55501">
        <ele>484.16</ele>
        <time>2013-12-08T08:40:57Z</time>
      </trkpt>
      <trkpt lat="45.86329" lon="3.55477">
        <ele>483.2</ele>
        <time>2013-12-08T08:41:07Z</time>
      </trkpt>
      <trkpt lat="45.86319" lon="3.5547">
        <ele>482.24</ele>
        <time>2013-12-08T08:41:12Z</time>
      </trkpt>
      <trkpt lat="45.86296" lon="3.55448">
        <ele>480.8</ele>
        <time>2013-12-08T08:41:24Z</time>
      </trkpt>
      <trkpt lat="45.86284" lon="3.55426">
        <ele>479.84</ele>
        <time>2013-12-08T08:41:32Z</time>
      </trkpt>
      <trkpt lat="45.86259" lon="3.55404">
        <ele>478.87</ele>
        <time>2013-12-08T08:41:44Z</time>
      </trkpt>
      <trkpt lat="45.8625" lon="3.55396">
        <ele>478.39</ele>
        <time>2013-12-08T08:41:49Z</time>
      </trkpt>
      <trkpt lat="45.86232" lon="3.55389">
        <ele>477.43</ele>
        <time>2013-12-08T08:41:56Z</time>
      </trkpt>
      <trkpt lat="45.8621" lon="3.55376">
        <ele>475.99</ele>
        <time>2013-12-08T08:42:06Z</time>
      </trkpt>
      <trkpt lat="45.86185" lon="3.5536">
        <ele>474.55</ele>
        <time>2013-12-08T08:42:18Z</time>
      </trkpt>
      <trkpt lat="45.8618" lon="3.55354">
        <ele>474.07</ele>
        <time>2013-12-08T08:42:22Z</time>
      </trkpt>
      <trkpt lat="45.86169" lon="3.55345">
        <ele>473.11</ele>
        <time>2013-12-08T08:42:27Z</time>
      </trkpt>
      <trkpt lat="45.86151" lon="3.55342">
        <ele>473.11</ele>
        <time>2013-12-08T08:42:33Z</time>
      </trkpt>
      <trkpt lat="45.8614" lon="3.55334">
        <ele>472.63</ele>
        <time>2013-12-08T08:42:37Z</time>
      </trkpt>
      <trkpt lat="45.86131" lon="3.55339">
        <ele>471.66</ele>
        <time>2013-12-08T08:42:40Z</time>
      </trkpt>
      <trkpt lat="45.86119" lon="3.55342">
        <ele>471.18</ele>
        <time>2013-12-08T08:42:44Z</time>
      </trkpt>
      <trkpt lat="45.8611" lon="3.55345">
        <ele>471.18</ele>
        <time>2013-12-08T08:42:47Z</time>
      </trkpt>
      <trkpt lat="45.86081" lon="3.55353">
        <ele>470.7</ele>
        <time>2013-12-08T08:42:58Z</time>
      </trkpt>
      <trkpt lat="45.86047" lon="3.55358">
        <ele>468.78</ele>
        <time>2013-12-08T08:43:12Z</time>
      </trkpt>
      <trkpt lat="45.86022" lon="3.55368">
        <ele>466.86</ele>
        <time>2013-12-08T08:43:22Z</time>
      </trkpt>
      <trkpt lat="45.86014" lon="3.5537">
        <ele>466.38</ele>
        <time>2013-12-08T08:43:25Z</time>
      </trkpt>
      <trkpt lat="45.85995" lon="3.55382">
        <ele>465.42</ele>
        <time>2013-12-08T08:43:33Z</time>
      </trkpt>
      <trkpt lat="45.85981" lon="3.55392">
        <ele>463.97</ele>
        <time>2013-12-08T08:43:40Z</time>
      </trkpt>
      <trkpt lat="45.85964" lon="3.55371">
        <ele>462.05</ele>
        <time>2013-12-08T08:43:49Z</time>
      </trkpt>
      <trkpt lat="45.85963" lon="3.55367">
        <ele>462.05</ele>
        <time>2013-12-08T08:43:50Z</time>
      </trkpt>
      <trkpt lat="45.85961" lon="3.55354">
        <ele>461.57</ele>
        <time>2013-12-08T08:43:54Z</time>
      </trkpt>
      <trkpt lat="45.85954" lon="3.55319">
        <ele>459.65</ele>
        <time>2013-12-08T08:44:04Z</time>
      </trkpt>
      <trkpt lat="45.85952" lon="3.55312">
        <ele>459.65</ele>
        <time>2013-12-08T08:44:06Z</time>
      </trkpt>
      <trkpt lat="45.8595" lon="3.55294">
        <ele>458.69</ele>
        <time>2013-12-08T08:44:11Z</time>
      </trkpt>
      <trkpt lat="45.85952" lon="3.5528">
        <ele>458.21</ele>
        <time>2013-12-08T08:44:15Z</time>
      </trkpt>
      <trkpt lat="45.85954" lon="3.55234">
        <ele>456.76</ele>
        <time>2013-12-08T08:44:28Z</time>
      </trkpt>
      <trkpt lat="45.85957" lon="3.55221">
        <ele>456.28</ele>
        <time>2013-12-08T08:44:32Z</time>
      </trkpt>
      <trkpt lat="45.85954" lon="3.55205">
        <ele>454.84</ele>
        <time>2013-12-08T08:44:36Z</time>
      </trkpt>
      <trkpt lat="45.85947" lon="3.55158">
        <ele>452.92</ele>
        <time>2013-12-08T08:44:50Z</time>
      </trkpt>
      <trkpt lat="45.85946" lon="3.55155">
        <ele>452.92</ele>
        <time>2013-12-08T08:44:51Z</time>
      </trkpt>
      <trkpt lat="45.85945" lon="3.55124">
        <ele>451.48</ele>
        <time>2013-12-08T08:45:01Z</time>
      </trkpt>
      <trkpt lat="45.85949" lon="3.55101">
        <ele>450.52</ele>
        <time>2013-12-08T08:45:08Z</time>
      </trkpt>
      <trkpt lat="45.85952" lon="3.55093">
        <ele>449.55</ele>
        <time>2013-12-08T08:45:11Z</time>
      </trkpt>
      <trkpt lat="45.85965" lon="3.55075">
        <ele>448.59</ele>
        <time>2013-12-08T08:45:18Z</time>
      </trkpt>
      <trkpt lat="45.8598" lon="3.55061">
        <ele>447.63</ele>
        <time>2013-12-08T08:45:26Z</time>
      </trkpt>
      <trkpt lat="45.85982" lon="3.55058">
        <ele>447.15</ele>
        <time>2013-12-08T08:45:27Z</time>
      </trkpt>
      <trkpt lat="45.85978" lon="3.55025">
        <ele>445.71</ele>
        <time>2013-12-08T08:45:36Z</time>
      </trkpt>
      <trkpt lat="45.85969" lon="3.55016">
        <ele>444.75</ele>
        <time>2013-12-08T08:45:40Z</time>
      </trkpt>
      <trkpt lat="45.85967" lon="3.55014">
        <ele>444.75</ele>
        <time>2013-12-08T08:45:42Z</time>
      </trkpt>
      <trkpt lat="45.85959" lon="3.55007">
        <ele>443.79</ele>
        <time>2013-12-08T08:45:50Z</time>
      </trkpt>
      <trkpt lat="45.85957" lon="3.55005">
        <ele>443.79</ele>
        <time>2013-12-08T08:45:51Z</time>
      </trkpt>
      <trkpt lat="45.85943" lon="3.54999">
        <ele>443.31</ele>
        <time>2013-12-08T08:46:01Z</time>
      </trkpt>
      <trkpt lat="45.8594" lon="3.54999">
        <ele>442.82</ele>
        <time>2013-12-08T08:46:02Z</time>
      </trkpt>
      <trkpt lat="45.85938" lon="3.54997">
        <ele>442.82</ele>
        <time>2013-12-08T08:46:03Z</time>
      </trkpt>
      <trkpt lat="45.85931" lon="3.54996">
        <ele>442.82</ele>
        <time>2013-12-08T08:46:06Z</time>
      </trkpt>
      <trkpt lat="45.85928" lon="3.54994">
        <ele>442.34</ele>
        <time>2013-12-08T08:46:08Z</time>
      </trkpt>
      <trkpt lat="45.85921" lon="3.54996">
        <ele>441.86</ele>
        <time>2013-12-08T08:46:14Z</time>
      </trkpt>
      <trkpt lat="45.8592" lon="3.54994">
        <ele>441.86</ele>
        <time>2013-12-08T08:46:15Z</time>
      </trkpt>
      <trkpt lat="45.85914" lon="3.5499">
        <ele>441.38</ele>
        <time>2013-12-08T08:46:18Z</time>
      </trkpt>
      <trkpt lat="45.85907" lon="3.54983">
        <ele>440.9</ele>
        <time>2013-12-08T08:46:20Z</time>
      </trkpt>
      <trkpt lat="45.8586" lon="3.54975">
        <ele>440.9</ele>
        <time>2013-12-08T08:46:31Z</time>
      </trkpt>
      <trkpt lat="45.85838" lon="3.54979">
        <ele>440.42</ele>
        <time>2013-12-08T08:46:44Z</time>
      </trkpt>
      <trkpt lat="45.85827" lon="3.54983">
        <ele>440.42</ele>
        <time>2013-12-08T08:46:51Z</time>
      </trkpt>
      <trkpt lat="45.85818" lon="3.55003">
        <ele>441.38</ele>
        <time>2013-12-08T08:47:03Z</time>
      </trkpt>
      <trkpt lat="45.85796" lon="3.55012">
        <ele>439.94</ele>
        <time>2013-12-08T08:47:19Z</time>
      </trkpt>
      <trkpt lat="45.8577" lon="3.55009">
        <ele>439.46</ele>
        <time>2013-12-08T08:47:36Z</time>
      </trkpt>
      <trkpt lat="45.85747" lon="3.55">
        <ele>438.5</ele>
        <time>2013-12-08T08:47:52Z</time>
      </trkpt>
      <trkpt lat="45.85725" lon="3.5499">
        <ele>437.54</ele>
        <time>2013-12-08T08:48:06Z</time>
      </trkpt>
      <trkpt lat="45.85707" lon="3.54985">
        <ele>436.58</ele>
        <time>2013-12-08T08:48:16Z</time>
      </trkpt>
      <trkpt lat="45.85701" lon="3.54977">
        <ele>435.61</ele>
        <time>2013-12-08T08:48:21Z</time>
      </trkpt>
      <trkpt lat="45.85695" lon="3.54971">
        <ele>435.13</ele>
        <time>2013-12-08T08:48:25Z</time>
      </trkpt>
      <trkpt lat="45.8568" lon="3.54955">
        <ele>433.69</ele>
        <time>2013-12-08T08:48:35Z</time>
      </trkpt>
      <trkpt lat="45.85678" lon="3.54954">
        <ele>433.21</ele>
        <time>2013-12-08T08:48:36Z</time>
      </trkpt>
      <trkpt lat="45.85675" lon="3.54946">
        <ele>432.73</ele>
        <time>2013-12-08T08:48:39Z</time>
      </trkpt>
      <trkpt lat="45.85671" lon="3.54941">
        <ele>432.73</ele>
        <time>2013-12-08T08:48:41Z</time>
      </trkpt>
      <trkpt lat="45.85668" lon="3.54929">
        <ele>431.77</ele>
        <time>2013-12-08T08:48:46Z</time>
      </trkpt>
      <trkpt lat="45.85651" lon="3.5489">
        <ele>429.85</ele>
        <time>2013-12-08T08:48:59Z</time>
      </trkpt>
      <trkpt lat="45.85634" lon="3.54869">
        <ele>427.92</ele>
        <time>2013-12-08T08:49:09Z</time>
      </trkpt>
      <trkpt lat="45.85611" lon="3.5486">
        <ele>422.64</ele>
        <time>2013-12-08T08:49:17Z</time>
      </trkpt>
      <trkpt lat="45.85609" lon="3.5486">
        <ele>428.4</ele>
        <time>2013-12-08T08:49:18Z</time>
      </trkpt>
      <trkpt lat="45.8559" lon="3.54858">
        <ele>423.6</ele>
        <time>2013-12-08T08:49:24Z</time>
      </trkpt>
      <trkpt lat="45.85581" lon="3.54855">
        <ele>426</ele>
        <time>2013-12-08T08:49:27Z</time>
      </trkpt>
      <trkpt lat="45.85566" lon="3.54856">
        <ele>424.08</ele>
        <time>2013-12-08T08:49:36Z</time>
      </trkpt>
      <trkpt lat="45.85556" lon="3.54856">
        <ele>423.6</ele>
        <time>2013-12-08T08:49:41Z</time>
      </trkpt>
      <trkpt lat="45.85538" lon="3.54849">
        <ele>422.64</ele>
        <time>2013-12-08T08:49:48Z</time>
      </trkpt>
      <trkpt lat="45.85535" lon="3.5484">
        <ele>422.16</ele>
        <time>2013-12-08T08:49:52Z</time>
      </trkpt>
      <trkpt lat="45.85531" lon="3.54831">
        <ele>421.68</ele>
        <time>2013-12-08T08:49:57Z</time>
      </trkpt>
      <trkpt lat="45.85523" lon="3.54825">
        <ele>421.68</ele>
        <time>2013-12-08T08:50:04Z</time>
      </trkpt>
      <trkpt lat="45.85514" lon="3.5481">
        <ele>420.71</ele>
        <time>2013-12-08T08:50:13Z</time>
      </trkpt>
      <trkpt lat="45.85506" lon="3.54794">
        <ele>420.71</ele>
        <time>2013-12-08T08:50:17Z</time>
      </trkpt>
      <trkpt lat="45.85508" lon="3.54774">
        <ele>420.23</ele>
        <time>2013-12-08T08:50:22Z</time>
      </trkpt>
      <trkpt lat="45.85505" lon="3.54749">
        <ele>419.75</ele>
        <time>2013-12-08T08:50:31Z</time>
      </trkpt>
      <trkpt lat="45.85505" lon="3.54734">
        <ele>419.27</ele>
        <time>2013-12-08T08:50:36Z</time>
      </trkpt>
      <trkpt lat="45.85506" lon="3.54714">
        <ele>419.27</ele>
        <time>2013-12-08T08:50:41Z</time>
      </trkpt>
      <trkpt lat="45.85503" lon="3.54691">
        <ele>418.79</ele>
        <time>2013-12-08T08:50:47Z</time>
      </trkpt>
      <trkpt lat="45.85516" lon="3.54677">
        <ele>417.83</ele>
        <time>2013-12-08T08:50:57Z</time>
      </trkpt>
      <trkpt lat="45.85533" lon="3.54659">
        <ele>416.87</ele>
        <time>2013-12-08T08:51:07Z</time>
      </trkpt>
      <trkpt lat="45.85548" lon="3.54646">
        <ele>416.87</ele>
        <time>2013-12-08T08:51:17Z</time>
      </trkpt>
      <trkpt lat="45.85558" lon="3.54638">
        <ele>416.87</ele>
        <time>2013-12-08T08:51:24Z</time>
      </trkpt>
      <trkpt lat="45.85562" lon="3.54633">
        <ele>416.39</ele>
        <time>2013-12-08T08:51:27Z</time>
      </trkpt>
      <trkpt lat="45.85573" lon="3.54629">
        <ele>416.39</ele>
        <time>2013-12-08T08:51:33Z</time>
      </trkpt>
      <trkpt lat="45.85586" lon="3.54623">
        <ele>415.43</ele>
        <time>2013-12-08T08:51:39Z</time>
      </trkpt>
      <trkpt lat="45.85607" lon="3.54603">
        <ele>414.47</ele>
        <time>2013-12-08T08:51:53Z</time>
      </trkpt>
      <trkpt lat="45.85618" lon="3.54601">
        <ele>413.5</ele>
        <time>2013-12-08T08:51:58Z</time>
      </trkpt>
      <trkpt lat="45.85638" lon="3.54597">
        <ele>413.02</ele>
        <time>2013-12-08T08:52:07Z</time>
      </trkpt>
      <trkpt lat="45.85654" lon="3.54593">
        <ele>412.06</ele>
        <time>2013-12-08T08:52:15Z</time>
      </trkpt>
      <trkpt lat="45.85661" lon="3.5459">
        <ele>412.06</ele>
        <time>2013-12-08T08:52:18Z</time>
      </trkpt>
      <trkpt lat="45.85664" lon="3.54585">
        <ele>411.58</ele>
        <time>2013-12-08T08:52:21Z</time>
      </trkpt>
      <trkpt lat="45.8568" lon="3.54565">
        <ele>410.14</ele>
        <time>2013-12-08T08:52:31Z</time>
      </trkpt>
      <trkpt lat="45.85692" lon="3.5456">
        <ele>409.18</ele>
        <time>2013-12-08T08:52:36Z</time>
      </trkpt>
      <trkpt lat="45.85695" lon="3.54548">
        <ele>408.22</ele>
        <time>2013-12-08T08:52:40Z</time>
      </trkpt>
      <trkpt lat="45.8569" lon="3.54534">
        <ele>407.26</ele>
        <time>2013-12-08T08:52:46Z</time>
      </trkpt>
      <trkpt lat="45.85686" lon="3.54516">
        <ele>405.81</ele>
        <time>2013-12-08T08:52:55Z</time>
      </trkpt>
      <trkpt lat="45.85687" lon="3.54515">
        <ele>405.33</ele>
        <time>2013-12-08T08:52:59Z</time>
      </trkpt>
      <trkpt lat="45.85688" lon="3.54512">
        <ele>404.85</ele>
        <time>2013-12-08T08:53:01Z</time>
      </trkpt>
      <trkpt lat="45.85687" lon="3.54494">
        <ele>403.89</ele>
        <time>2013-12-08T08:53:09Z</time>
      </trkpt>
      <trkpt lat="45.85689" lon="3.5449">
        <ele>403.89</ele>
        <time>2013-12-08T08:53:11Z</time>
      </trkpt>
      <trkpt lat="45.85703" lon="3.54477">
        <ele>402.93</ele>
        <time>2013-12-08T08:53:21Z</time>
      </trkpt>
      <trkpt lat="45.85705" lon="3.54469">
        <ele>401.97</ele>
        <time>2013-12-08T08:53:26Z</time>
      </trkpt>
      <trkpt lat="45.85706" lon="3.54462">
        <ele>401.01</ele>
        <time>2013-12-08T08:53:30Z</time>
      </trkpt>
      <trkpt lat="45.8571" lon="3.54456">
        <ele>400.05</ele>
        <time>2013-12-08T08:53:36Z</time>
      </trkpt>
      <trkpt lat="45.85714" lon="3.54451">
        <ele>399.08</ele>
        <time>2013-12-08T08:53:40Z</time>
      </trkpt>
      <trkpt lat="45.85715" lon="3.54443">
        <ele>398.6</ele>
        <time>2013-12-08T08:53:45Z</time>
      </trkpt>
      <trkpt lat="45.8571" lon="3.5442">
        <ele>396.68</ele>
        <time>2013-12-08T08:53:58Z</time>
      </trkpt>
      <trkpt lat="45.85708" lon="3.54416">
        <ele>396.2</ele>
        <time>2013-12-08T08:54:02Z</time>
      </trkpt>
    </trkseg>
  </trk>
</gpx>